<?xml version="1.0" encoding="UTF-8" standalone="no" ?>
<gpx xmlns="http://www.topografix.com/GPX/1/1" xmlns:xsi="http://www.w3.org/2001/XMLSchema-instance" xsi:schemaLocation="http://www.topografix.com/GPX/1/1 http://www.topografix.com/GPX/1/1/gpx.xsd" version="1.1" creator="VisuGPX - https://www.visugpx.com">
  <metadata>
    <name>ETAPE 3 - GTA 2022 - BRG ST MAURICE ST MICHEL DE MAURIENNE</name>
  </metadata>
  <trk>
    <name><![CDATA[ETAPE 3 - GTA 2022 - BRG ST MAURICE ST MICHEL DE MAURIENNE]]></name>
    <trkseg>
      <trkpt lat="45.61839" lon="6.77288">
        <ele>811.93901349593</ele>
        <time>2022-01-20T16:47:18.000Z</time>
      </trkpt>
      <trkpt lat="45.61867" lon="6.77282">
        <ele>812.09049021603</ele>
        <time>2022-01-20T16:47:18.005Z</time>
      </trkpt>
      <trkpt lat="45.61893" lon="6.77287">
        <ele>812.33876562502</ele>
        <time>2022-01-20T16:47:18.014Z</time>
      </trkpt>
      <trkpt lat="45.61912" lon="6.77286">
        <ele>812.55536840086</ele>
        <time>2022-01-20T16:47:18.026Z</time>
      </trkpt>
      <trkpt lat="45.61911" lon="6.77271">
        <ele>812.78779630727</ele>
        <time>2022-01-20T16:47:18.039Z</time>
      </trkpt>
      <trkpt lat="45.61912" lon="6.77261">
        <ele>812.96958880835</ele>
        <time>2022-01-20T16:47:18.054Z</time>
      </trkpt>
      <trkpt lat="45.61919" lon="6.77248">
        <ele>813.05534154173</ele>
        <time>2022-01-20T16:47:18.070Z</time>
      </trkpt>
      <trkpt lat="45.61933" lon="6.77234">
        <ele>813.05488328211</ele>
        <time>2022-01-20T16:47:18.089Z</time>
      </trkpt>
      <trkpt lat="45.61976" lon="6.77203">
        <ele>813.05351064668</ele>
        <time>2022-01-20T16:47:18.116Z</time>
      </trkpt>
      <trkpt lat="45.61997" lon="6.77185">
        <ele>813.0389292988</ele>
        <time>2022-01-20T16:47:18.147Z</time>
      </trkpt>
      <trkpt lat="45.62009" lon="6.77171">
        <ele>812.95841098599</ele>
        <time>2022-01-20T16:47:18.180Z</time>
      </trkpt>
      <trkpt lat="45.62019" lon="6.77151">
        <ele>812.82343166163</ele>
        <time>2022-01-20T16:47:18.216Z</time>
      </trkpt>
      <trkpt lat="45.62024" lon="6.77149">
        <ele>812.62307095948</ele>
        <time>2022-01-20T16:47:18.253Z</time>
      </trkpt>
      <trkpt lat="45.62034" lon="6.7713">
        <ele>812.37259858731</ele>
        <time>2022-01-20T16:47:18.293Z</time>
      </trkpt>
      <trkpt lat="45.62039" lon="6.77129">
        <ele>812.06595045219</ele>
        <time>2022-01-20T16:47:18.333Z</time>
      </trkpt>
      <trkpt lat="45.62056" lon="6.77157">
        <ele>811.73702706858</ele>
        <time>2022-01-20T16:47:18.378Z</time>
      </trkpt>
      <trkpt lat="45.62091" lon="6.77246">
        <ele>811.38524384357</ele>
        <time>2022-01-20T16:47:18.434Z</time>
      </trkpt>
      <trkpt lat="45.62132" lon="6.77344">
        <ele>810.86206985431</ele>
        <time>2022-01-20T16:47:18.503Z</time>
      </trkpt>
      <trkpt lat="45.62162" lon="6.7743">
        <ele>810.16047118444</ele>
        <time>2022-01-20T16:47:18.583Z</time>
      </trkpt>
      <trkpt lat="45.62173" lon="6.77457">
        <ele>809.50050045387</ele>
        <time>2022-01-20T16:47:18.666Z</time>
      </trkpt>
      <trkpt lat="45.62175" lon="6.7747">
        <ele>808.8904199061</ele>
        <time>2022-01-20T16:47:18.751Z</time>
      </trkpt>
      <trkpt lat="45.622" lon="6.77529">
        <ele>808.40402660002</ele>
        <time>2022-01-20T16:47:18.843Z</time>
      </trkpt>
      <trkpt lat="45.62233" lon="6.77603">
        <ele>807.99985064026</ele>
        <time>2022-01-20T16:47:18.945Z</time>
      </trkpt>
      <trkpt lat="45.62258" lon="6.77652">
        <ele>807.71812708427</ele>
        <time>2022-01-20T16:47:19.054Z</time>
      </trkpt>
      <trkpt lat="45.62294" lon="6.77729">
        <ele>807.5920829638</ele>
        <time>2022-01-20T16:47:19.173Z</time>
      </trkpt>
      <trkpt lat="45.62307" lon="6.7776">
        <ele>807.62212270373</ele>
        <time>2022-01-20T16:47:19.296Z</time>
      </trkpt>
      <trkpt lat="45.62329" lon="6.77819">
        <ele>807.86620811626</ele>
        <time>2022-01-20T16:47:19.427Z</time>
      </trkpt>
      <trkpt lat="45.6233" lon="6.7783">
        <ele>808.21722242417</ele>
        <time>2022-01-20T16:47:19.559Z</time>
      </trkpt>
      <trkpt lat="45.62329" lon="6.77845">
        <ele>808.69311941073</ele>
        <time>2022-01-20T16:47:19.693Z</time>
      </trkpt>
      <trkpt lat="45.62332" lon="6.77853">
        <ele>809.30047472996</ele>
        <time>2022-01-20T16:47:19.828Z</time>
      </trkpt>
      <trkpt lat="45.62335" lon="6.77857">
        <ele>810.0360303884</ele>
        <time>2022-01-20T16:47:19.964Z</time>
      </trkpt>
      <trkpt lat="45.62342" lon="6.7786">
        <ele>810.90621599637</ele>
        <time>2022-01-20T16:47:20.101Z</time>
      </trkpt>
      <trkpt lat="45.62361" lon="6.77854">
        <ele>811.90891899971</ele>
        <time>2022-01-20T16:47:20.241Z</time>
      </trkpt>
      <trkpt lat="45.6237" lon="6.77855">
        <ele>813.0214118387</ele>
        <time>2022-01-20T16:47:20.382Z</time>
      </trkpt>
      <trkpt lat="45.62378" lon="6.77859">
        <ele>814.25124621489</ele>
        <time>2022-01-20T16:47:20.525Z</time>
      </trkpt>
      <trkpt lat="45.62495" lon="6.77999">
        <ele>815.77104689862</ele>
        <time>2022-01-20T16:47:20.692Z</time>
      </trkpt>
      <trkpt lat="45.62513" lon="6.7803">
        <ele>817.40224168897</ele>
        <time>2022-01-20T16:47:20.864Z</time>
      </trkpt>
      <trkpt lat="45.62546" lon="6.78112">
        <ele>819.38217190533</ele>
        <time>2022-01-20T16:47:21.046Z</time>
      </trkpt>
      <trkpt lat="45.6256" lon="6.78157">
        <ele>821.52747043232</ele>
        <time>2022-01-20T16:47:21.234Z</time>
      </trkpt>
      <trkpt lat="45.62567" lon="6.78213">
        <ele>823.70824610506</ele>
        <time>2022-01-20T16:47:21.428Z</time>
      </trkpt>
      <trkpt lat="45.62564" lon="6.78288">
        <ele>825.98184292594</ele>
        <time>2022-01-20T16:47:21.631Z</time>
      </trkpt>
      <trkpt lat="45.62566" lon="6.78316">
        <ele>828.26228187651</ele>
        <time>2022-01-20T16:47:21.837Z</time>
      </trkpt>
      <trkpt lat="45.62582" lon="6.78383">
        <ele>830.49869979687</ele>
        <time>2022-01-20T16:47:22.051Z</time>
      </trkpt>
      <trkpt lat="45.62617" lon="6.78502">
        <ele>832.64683442106</ele>
        <time>2022-01-20T16:47:22.279Z</time>
      </trkpt>
      <trkpt lat="45.62625" lon="6.78526">
        <ele>834.81207508126</ele>
        <time>2022-01-20T16:47:22.510Z</time>
      </trkpt>
      <trkpt lat="45.62634" lon="6.78544">
        <ele>836.96703282091</ele>
        <time>2022-01-20T16:47:22.744Z</time>
      </trkpt>
      <trkpt lat="45.62651" lon="6.78567">
        <ele>839.16110359798</ele>
        <time>2022-01-20T16:47:22.981Z</time>
      </trkpt>
      <trkpt lat="45.6269" lon="6.78611">
        <ele>841.61776581011</ele>
        <time>2022-01-20T16:47:23.226Z</time>
      </trkpt>
      <trkpt lat="45.62701" lon="6.7863">
        <ele>843.94930424209</ele>
        <time>2022-01-20T16:47:23.474Z</time>
      </trkpt>
      <trkpt lat="45.62709" lon="6.78677">
        <ele>846.14633287853</ele>
        <time>2022-01-20T16:47:23.728Z</time>
      </trkpt>
      <trkpt lat="45.62711" lon="6.78725">
        <ele>848.48686767433</ele>
        <time>2022-01-20T16:47:23.987Z</time>
      </trkpt>
      <trkpt lat="45.62693" lon="6.78984">
        <ele>851.54271030359</ele>
        <time>2022-01-20T16:47:24.275Z</time>
      </trkpt>
      <trkpt lat="45.62685" lon="6.79052">
        <ele>854.1868197243</ele>
        <time>2022-01-20T16:47:24.571Z</time>
      </trkpt>
      <trkpt lat="45.62675" lon="6.79112">
        <ele>856.99030369618</ele>
        <time>2022-01-20T16:47:24.874Z</time>
      </trkpt>
      <trkpt lat="45.62659" lon="6.79176">
        <ele>859.75328843859</ele>
        <time>2022-01-20T16:47:25.184Z</time>
      </trkpt>
      <trkpt lat="45.62632" lon="6.79298">
        <ele>862.70176293004</ele>
        <time>2022-01-20T16:47:25.509Z</time>
      </trkpt>
      <trkpt lat="45.62617" lon="6.79341">
        <ele>865.32753414126</ele>
        <time>2022-01-20T16:47:25.839Z</time>
      </trkpt>
      <trkpt lat="45.62606" lon="6.79367">
        <ele>867.90785525863</ele>
        <time>2022-01-20T16:47:26.173Z</time>
      </trkpt>
      <trkpt lat="45.6258" lon="6.79403">
        <ele>870.33384788553</ele>
        <time>2022-01-20T16:47:26.512Z</time>
      </trkpt>
      <trkpt lat="45.62564" lon="6.79421">
        <ele>872.74747755434</ele>
        <time>2022-01-20T16:47:26.855Z</time>
      </trkpt>
      <trkpt lat="45.62539" lon="6.79442">
        <ele>875.09077343219</ele>
        <time>2022-01-20T16:47:27.202Z</time>
      </trkpt>
      <trkpt lat="45.62534" lon="6.79439">
        <ele>877.26907169144</ele>
        <time>2022-01-20T16:47:27.550Z</time>
      </trkpt>
      <trkpt lat="45.62529" lon="6.79439">
        <ele>879.37353905021</ele>
        <time>2022-01-20T16:47:27.899Z</time>
      </trkpt>
      <trkpt lat="45.62522" lon="6.79445">
        <ele>881.43141414734</ele>
        <time>2022-01-20T16:47:28.249Z</time>
      </trkpt>
      <trkpt lat="45.62519" lon="6.79455">
        <ele>883.42331180673</ele>
        <time>2022-01-20T16:47:28.601Z</time>
      </trkpt>
      <trkpt lat="45.62521" lon="6.79463">
        <ele>885.37230732213</ele>
        <time>2022-01-20T16:47:28.953Z</time>
      </trkpt>
      <trkpt lat="45.6251" lon="6.79494">
        <ele>887.23071258739</ele>
        <time>2022-01-20T16:47:29.309Z</time>
      </trkpt>
      <trkpt lat="45.62473" lon="6.79564">
        <ele>889.04886851101</ele>
        <time>2022-01-20T16:47:29.675Z</time>
      </trkpt>
      <trkpt lat="45.62295" lon="6.79947">
        <ele>891.47443195746</ele>
        <time>2022-01-20T16:47:30.093Z</time>
      </trkpt>
      <trkpt lat="45.6224" lon="6.80025">
        <ele>893.29762793046</ele>
        <time>2022-01-20T16:47:30.523Z</time>
      </trkpt>
      <trkpt lat="45.62215" lon="6.80068">
        <ele>894.92191044072</ele>
        <time>2022-01-20T16:47:30.959Z</time>
      </trkpt>
      <trkpt lat="45.62194" lon="6.80125">
        <ele>896.31706427067</ele>
        <time>2022-01-20T16:47:31.403Z</time>
      </trkpt>
      <trkpt lat="45.62188" lon="6.80125">
        <ele>897.45582484668</ele>
        <time>2022-01-20T16:47:31.848Z</time>
      </trkpt>
      <trkpt lat="45.62177" lon="6.80135">
        <ele>898.34110414612</ele>
        <time>2022-01-20T16:47:32.295Z</time>
      </trkpt>
      <trkpt lat="45.62149" lon="6.80176">
        <ele>899.00954979304</ele>
        <time>2022-01-20T16:47:32.748Z</time>
      </trkpt>
      <trkpt lat="45.6212" lon="6.80208">
        <ele>899.38584685575</ele>
        <time>2022-01-20T16:47:33.207Z</time>
      </trkpt>
      <trkpt lat="45.62082" lon="6.80245">
        <ele>899.37122771683</ele>
        <time>2022-01-20T16:47:33.673Z</time>
      </trkpt>
      <trkpt lat="45.62077" lon="6.80252">
        <ele>899.14343554448</ele>
        <time>2022-01-20T16:47:34.141Z</time>
      </trkpt>
      <trkpt lat="45.62066" lon="6.80257">
        <ele>898.63461006516</ele>
        <time>2022-01-20T16:47:34.610Z</time>
      </trkpt>
      <trkpt lat="45.62032" lon="6.8029">
        <ele>897.91139648635</ele>
        <time>2022-01-20T16:47:35.086Z</time>
      </trkpt>
      <trkpt lat="45.62017" lon="6.80311">
        <ele>896.94573240293</ele>
        <time>2022-01-20T16:47:35.565Z</time>
      </trkpt>
      <trkpt lat="45.62016" lon="6.80319">
        <ele>895.73393320474</ele>
        <time>2022-01-20T16:47:36.045Z</time>
      </trkpt>
      <trkpt lat="45.61985" lon="6.80361">
        <ele>894.19663200711</ele>
        <time>2022-01-20T16:47:36.532Z</time>
      </trkpt>
      <trkpt lat="45.61961" lon="6.8041">
        <ele>892.44271876825</ele>
        <time>2022-01-20T16:47:37.026Z</time>
      </trkpt>
      <trkpt lat="45.61945" lon="6.80448">
        <ele>890.49070638955</ele>
        <time>2022-01-20T16:47:37.525Z</time>
      </trkpt>
      <trkpt lat="45.61864" lon="6.80648">
        <ele>888.17736353017</ele>
        <time>2022-01-20T16:47:38.050Z</time>
      </trkpt>
      <trkpt lat="45.61853" lon="6.8067">
        <ele>885.92147595308</ele>
        <time>2022-01-20T16:47:38.578Z</time>
      </trkpt>
      <trkpt lat="45.61844" lon="6.80696">
        <ele>883.62348765187</ele>
        <time>2022-01-20T16:47:39.109Z</time>
      </trkpt>
      <trkpt lat="45.61826" lon="6.80738">
        <ele>881.23781899161</ele>
        <time>2022-01-20T16:47:39.646Z</time>
      </trkpt>
      <trkpt lat="45.61797" lon="6.80814">
        <ele>878.75637660979</ele>
        <time>2022-01-20T16:47:40.192Z</time>
      </trkpt>
      <trkpt lat="45.6178" lon="6.80898">
        <ele>876.24894131639</ele>
        <time>2022-01-20T16:47:40.748Z</time>
      </trkpt>
      <trkpt lat="45.61737" lon="6.81174">
        <ele>873.44899330086</ele>
        <time>2022-01-20T16:47:41.336Z</time>
      </trkpt>
      <trkpt lat="45.61731" lon="6.81222">
        <ele>870.99553676282</ele>
        <time>2022-01-20T16:47:41.929Z</time>
      </trkpt>
      <trkpt lat="45.61703" lon="6.81634">
        <ele>868.2388832272</ele>
        <time>2022-01-20T16:47:42.569Z</time>
      </trkpt>
      <trkpt lat="45.61697" lon="6.81677">
        <ele>865.939851214</ele>
        <time>2022-01-20T16:47:43.214Z</time>
      </trkpt>
      <trkpt lat="45.61691" lon="6.81698">
        <ele>863.73288180423</ele>
        <time>2022-01-20T16:47:43.861Z</time>
      </trkpt>
      <trkpt lat="45.61558" lon="6.82094">
        <ele>861.4160731061</ele>
        <time>2022-01-20T16:47:44.558Z</time>
      </trkpt>
      <trkpt lat="45.61544" lon="6.82134">
        <ele>859.63135395809</ele>
        <time>2022-01-20T16:47:45.260Z</time>
      </trkpt>
      <trkpt lat="45.61531" lon="6.82164">
        <ele>858.03929008107</ele>
        <time>2022-01-20T16:47:45.966Z</time>
      </trkpt>
      <trkpt lat="45.6152" lon="6.82186">
        <ele>856.69262837</ele>
        <time>2022-01-20T16:47:46.675Z</time>
      </trkpt>
      <trkpt lat="45.61471" lon="6.82257">
        <ele>855.59308639998</ele>
        <time>2022-01-20T16:47:47.395Z</time>
      </trkpt>
      <trkpt lat="45.61456" lon="6.82273">
        <ele>854.63205146822</ele>
        <time>2022-01-20T16:47:48.118Z</time>
      </trkpt>
      <trkpt lat="45.61386" lon="6.82359">
        <ele>853.86136675723</ele>
        <time>2022-01-20T16:47:48.856Z</time>
      </trkpt>
      <trkpt lat="45.61349" lon="6.82416">
        <ele>853.36080758594</ele>
        <time>2022-01-20T16:47:49.602Z</time>
      </trkpt>
      <trkpt lat="45.61329" lon="6.82461">
        <ele>853.09599943239</ele>
        <time>2022-01-20T16:47:50.354Z</time>
      </trkpt>
      <trkpt lat="45.61314" lon="6.82506">
        <ele>853.01762706217</ele>
        <time>2022-01-20T16:47:51.112Z</time>
      </trkpt>
      <trkpt lat="45.61295" lon="6.82571">
        <ele>853.09730416396</ele>
        <time>2022-01-20T16:47:51.878Z</time>
      </trkpt>
      <trkpt lat="45.61286" lon="6.82639">
        <ele>853.45615877051</ele>
        <time>2022-01-20T16:47:52.652Z</time>
      </trkpt>
      <trkpt lat="45.61288" lon="6.82697">
        <ele>853.91577569656</ele>
        <time>2022-01-20T16:47:53.432Z</time>
      </trkpt>
      <trkpt lat="45.61291" lon="6.82726">
        <ele>854.40682997603</ele>
        <time>2022-01-20T16:47:54.215Z</time>
      </trkpt>
      <trkpt lat="45.61298" lon="6.82769">
        <ele>854.94269763063</ele>
        <time>2022-01-20T16:47:55.003Z</time>
      </trkpt>
      <trkpt lat="45.613" lon="6.82797">
        <ele>855.58805354215</ele>
        <time>2022-01-20T16:47:55.794Z</time>
      </trkpt>
      <trkpt lat="45.61295" lon="6.82826">
        <ele>856.23339903113</ele>
        <time>2022-01-20T16:47:56.589Z</time>
      </trkpt>
      <trkpt lat="45.61235" lon="6.83065">
        <ele>857.0138590681</ele>
        <time>2022-01-20T16:47:57.412Z</time>
      </trkpt>
      <trkpt lat="45.6122" lon="6.8311">
        <ele>857.71417199507</ele>
        <time>2022-01-20T16:47:58.241Z</time>
      </trkpt>
      <trkpt lat="45.61126" lon="6.83419">
        <ele>858.57143595212</ele>
        <time>2022-01-20T16:47:59.108Z</time>
      </trkpt>
      <trkpt lat="45.61113" lon="6.83455">
        <ele>859.30275349998</ele>
        <time>2022-01-20T16:47:59.979Z</time>
      </trkpt>
      <trkpt lat="45.61088" lon="6.83538">
        <ele>859.91892184092</ele>
        <time>2022-01-20T16:48:00.860Z</time>
      </trkpt>
      <trkpt lat="45.61074" lon="6.83576">
        <ele>860.79699646499</ele>
        <time>2022-01-20T16:48:01.746Z</time>
      </trkpt>
      <trkpt lat="45.61048" lon="6.83618">
        <ele>861.70747197617</ele>
        <time>2022-01-20T16:48:02.639Z</time>
      </trkpt>
      <trkpt lat="45.61042" lon="6.83625">
        <ele>862.5954376285</ele>
        <time>2022-01-20T16:48:03.533Z</time>
      </trkpt>
      <trkpt lat="45.61033" lon="6.8363">
        <ele>863.4597701582</ele>
        <time>2022-01-20T16:48:04.428Z</time>
      </trkpt>
      <trkpt lat="45.60974" lon="6.83704">
        <ele>864.41702672592</ele>
        <time>2022-01-20T16:48:05.336Z</time>
      </trkpt>
      <trkpt lat="45.60968" lon="6.83715">
        <ele>865.39369926116</ele>
        <time>2022-01-20T16:48:06.246Z</time>
      </trkpt>
      <trkpt lat="45.60948" lon="6.83767">
        <ele>866.30592578309</ele>
        <time>2022-01-20T16:48:07.162Z</time>
      </trkpt>
      <trkpt lat="45.60942" lon="6.83791">
        <ele>867.44582215064</ele>
        <time>2022-01-20T16:48:08.081Z</time>
      </trkpt>
      <trkpt lat="45.60928" lon="6.83828">
        <ele>868.79090259841</ele>
        <time>2022-01-20T16:48:09.005Z</time>
      </trkpt>
      <trkpt lat="45.60926" lon="6.83838">
        <ele>870.19856733922</ele>
        <time>2022-01-20T16:48:09.930Z</time>
      </trkpt>
      <trkpt lat="45.60884" lon="6.83917">
        <ele>871.67932724758</ele>
        <time>2022-01-20T16:48:10.866Z</time>
      </trkpt>
      <trkpt lat="45.60875" lon="6.83938">
        <ele>873.16888865612</ele>
        <time>2022-01-20T16:48:11.805Z</time>
      </trkpt>
      <trkpt lat="45.60865" lon="6.83966">
        <ele>874.77896683506</ele>
        <time>2022-01-20T16:48:12.747Z</time>
      </trkpt>
      <trkpt lat="45.60852" lon="6.84017">
        <ele>876.5467132192</ele>
        <time>2022-01-20T16:48:13.695Z</time>
      </trkpt>
      <trkpt lat="45.60833" lon="6.84115">
        <ele>878.6959346125</ele>
        <time>2022-01-20T16:48:14.655Z</time>
      </trkpt>
      <trkpt lat="45.60805" lon="6.84221">
        <ele>880.25691038734</ele>
        <time>2022-01-20T16:48:15.628Z</time>
      </trkpt>
      <trkpt lat="45.60802" lon="6.84281">
        <ele>882.00899240674</ele>
        <time>2022-01-20T16:48:16.607Z</time>
      </trkpt>
      <trkpt lat="45.60795" lon="6.8434">
        <ele>883.77237925368</ele>
        <time>2022-01-20T16:48:17.593Z</time>
      </trkpt>
      <trkpt lat="45.60786" lon="6.8439">
        <ele>885.54807085552</ele>
        <time>2022-01-20T16:48:18.585Z</time>
      </trkpt>
      <trkpt lat="45.60782" lon="6.84422">
        <ele>887.19190041634</ele>
        <time>2022-01-20T16:48:19.581Z</time>
      </trkpt>
      <trkpt lat="45.60768" lon="6.84489">
        <ele>888.9016412814</ele>
        <time>2022-01-20T16:48:20.584Z</time>
      </trkpt>
      <trkpt lat="45.60756" lon="6.8454">
        <ele>890.54224366617</ele>
        <time>2022-01-20T16:48:21.593Z</time>
      </trkpt>
      <trkpt lat="45.60746" lon="6.84573">
        <ele>892.02757083794</ele>
        <time>2022-01-20T16:48:22.606Z</time>
      </trkpt>
      <trkpt lat="45.60729" lon="6.84624">
        <ele>893.44467254587</ele>
        <time>2022-01-20T16:48:23.626Z</time>
      </trkpt>
      <trkpt lat="45.60714" lon="6.84658">
        <ele>894.70079603573</ele>
        <time>2022-01-20T16:48:24.650Z</time>
      </trkpt>
      <trkpt lat="45.60711" lon="6.8467">
        <ele>895.83786179743</ele>
        <time>2022-01-20T16:48:25.676Z</time>
      </trkpt>
      <trkpt lat="45.60706" lon="6.84698">
        <ele>896.83303859163</ele>
        <time>2022-01-20T16:48:26.705Z</time>
      </trkpt>
      <trkpt lat="45.60669" lon="6.84846">
        <ele>897.8413752112</ele>
        <time>2022-01-20T16:48:27.752Z</time>
      </trkpt>
      <trkpt lat="45.60665" lon="6.84872">
        <ele>898.68712299661</ele>
        <time>2022-01-20T16:48:28.802Z</time>
      </trkpt>
      <trkpt lat="45.60664" lon="6.8491">
        <ele>899.41440336856</ele>
        <time>2022-01-20T16:48:29.856Z</time>
      </trkpt>
      <trkpt lat="45.60651" lon="6.84979">
        <ele>899.83519519465</ele>
        <time>2022-01-20T16:48:30.918Z</time>
      </trkpt>
      <trkpt lat="45.60648" lon="6.85006">
        <ele>900.0768951892</ele>
        <time>2022-01-20T16:48:31.983Z</time>
      </trkpt>
      <trkpt lat="45.60639" lon="6.85043">
        <ele>900.17227622341</ele>
        <time>2022-01-20T16:48:33.052Z</time>
      </trkpt>
      <trkpt lat="45.60621" lon="6.85079">
        <ele>900.1301330683</ele>
        <time>2022-01-20T16:48:34.126Z</time>
      </trkpt>
      <trkpt lat="45.60607" lon="6.85127">
        <ele>899.88689621137</ele>
        <time>2022-01-20T16:48:35.206Z</time>
      </trkpt>
      <trkpt lat="45.60598" lon="6.85173">
        <ele>899.54783448506</ele>
        <time>2022-01-20T16:48:36.292Z</time>
      </trkpt>
      <trkpt lat="45.60596" lon="6.85193">
        <ele>899.22388618063</ele>
        <time>2022-01-20T16:48:37.380Z</time>
      </trkpt>
      <trkpt lat="45.60592" lon="6.85321">
        <ele>899.0295194778</ele>
        <time>2022-01-20T16:48:38.482Z</time>
      </trkpt>
      <trkpt lat="45.60587" lon="6.85375">
        <ele>898.59420271631</ele>
        <time>2022-01-20T16:48:39.590Z</time>
      </trkpt>
      <trkpt lat="45.60579" lon="6.85426">
        <ele>898.25204338831</ele>
        <time>2022-01-20T16:48:40.704Z</time>
      </trkpt>
      <trkpt lat="45.6057" lon="6.85468">
        <ele>897.82994660835</ele>
        <time>2022-01-20T16:48:41.823Z</time>
      </trkpt>
      <trkpt lat="45.60562" lon="6.85489">
        <ele>897.34501239535</ele>
        <time>2022-01-20T16:48:42.945Z</time>
      </trkpt>
      <trkpt lat="45.60544" lon="6.85527">
        <ele>896.76230184854</ele>
        <time>2022-01-20T16:48:44.072Z</time>
      </trkpt>
      <trkpt lat="45.60444" lon="6.85682">
        <ele>896.3018815873</ele>
        <time>2022-01-20T16:48:45.223Z</time>
      </trkpt>
      <trkpt lat="45.6043" lon="6.85706">
        <ele>895.83758547555</ele>
        <time>2022-01-20T16:48:46.377Z</time>
      </trkpt>
      <trkpt lat="45.60396" lon="6.8578">
        <ele>895.4595598363</ele>
        <time>2022-01-20T16:48:47.541Z</time>
      </trkpt>
      <trkpt lat="45.60358" lon="6.8588">
        <ele>895.10269280154</ele>
        <time>2022-01-20T16:48:48.718Z</time>
      </trkpt>
      <trkpt lat="45.60353" lon="6.85901">
        <ele>894.78943901754</ele>
        <time>2022-01-20T16:48:49.897Z</time>
      </trkpt>
      <trkpt lat="45.60351" lon="6.85921">
        <ele>894.52004311809</ele>
        <time>2022-01-20T16:48:51.079Z</time>
      </trkpt>
      <trkpt lat="45.6035" lon="6.85958">
        <ele>894.30497796028</ele>
        <time>2022-01-20T16:48:52.265Z</time>
      </trkpt>
      <trkpt lat="45.60353" lon="6.86062">
        <ele>894.20936912796</ele>
        <time>2022-01-20T16:48:53.462Z</time>
      </trkpt>
      <trkpt lat="45.6035" lon="6.86106">
        <ele>894.07977195978</ele>
        <time>2022-01-20T16:48:54.664Z</time>
      </trkpt>
      <trkpt lat="45.60339" lon="6.86155">
        <ele>893.93509406436</ele>
        <time>2022-01-20T16:48:55.872Z</time>
      </trkpt>
      <trkpt lat="45.60334" lon="6.86166">
        <ele>893.90337016286</ele>
        <time>2022-01-20T16:48:57.082Z</time>
      </trkpt>
      <trkpt lat="45.60324" lon="6.86223">
        <ele>894.0076894348</ele>
        <time>2022-01-20T16:48:58.298Z</time>
      </trkpt>
      <trkpt lat="45.60315" lon="6.86257">
        <ele>894.24895846184</ele>
        <time>2022-01-20T16:48:59.518Z</time>
      </trkpt>
      <trkpt lat="45.60306" lon="6.86305">
        <ele>894.50870742277</ele>
        <time>2022-01-20T16:49:00.744Z</time>
      </trkpt>
      <trkpt lat="45.60301" lon="6.8635">
        <ele>894.79945869813</ele>
        <time>2022-01-20T16:49:01.975Z</time>
      </trkpt>
      <trkpt lat="45.60302" lon="6.8636">
        <ele>895.16929042972</ele>
        <time>2022-01-20T16:49:03.207Z</time>
      </trkpt>
      <trkpt lat="45.60301" lon="6.86367">
        <ele>895.6033137659</ele>
        <time>2022-01-20T16:49:04.440Z</time>
      </trkpt>
      <trkpt lat="45.60286" lon="6.86442">
        <ele>896.13941340026</ele>
        <time>2022-01-20T16:49:05.682Z</time>
      </trkpt>
      <trkpt lat="45.60278" lon="6.86471">
        <ele>896.68194404931</ele>
        <time>2022-01-20T16:49:06.927Z</time>
      </trkpt>
      <trkpt lat="45.60261" lon="6.86511">
        <ele>897.3325665786</ele>
        <time>2022-01-20T16:49:08.178Z</time>
      </trkpt>
      <trkpt lat="45.6024" lon="6.86543">
        <ele>898.16481822639</ele>
        <time>2022-01-20T16:49:09.433Z</time>
      </trkpt>
      <trkpt lat="45.60189" lon="6.86596">
        <ele>899.15547528306</ele>
        <time>2022-01-20T16:49:10.699Z</time>
      </trkpt>
      <trkpt lat="45.60054" lon="6.86731">
        <ele>900.51721061818</ele>
        <time>2022-01-20T16:49:11.991Z</time>
      </trkpt>
      <trkpt lat="45.60027" lon="6.86761">
        <ele>901.9372932398</ele>
        <time>2022-01-20T16:49:13.288Z</time>
      </trkpt>
      <trkpt lat="45.60009" lon="6.86792">
        <ele>903.43704707966</ele>
        <time>2022-01-20T16:49:14.590Z</time>
      </trkpt>
      <trkpt lat="45.59975" lon="6.86875">
        <ele>905.04924508995</ele>
        <time>2022-01-20T16:49:15.903Z</time>
      </trkpt>
      <trkpt lat="45.59969" lon="6.86893">
        <ele>906.86007435139</ele>
        <time>2022-01-20T16:49:17.218Z</time>
      </trkpt>
      <trkpt lat="45.59964" lon="6.86923">
        <ele>908.86441131323</ele>
        <time>2022-01-20T16:49:18.536Z</time>
      </trkpt>
      <trkpt lat="45.59948" lon="6.86995">
        <ele>911.15707887838</ele>
        <time>2022-01-20T16:49:19.863Z</time>
      </trkpt>
      <trkpt lat="45.59889" lon="6.87214">
        <ele>913.3349566891</ele>
        <time>2022-01-20T16:49:21.216Z</time>
      </trkpt>
      <trkpt lat="45.59816" lon="6.87497">
        <ele>915.65723264976</ele>
        <time>2022-01-20T16:49:22.603Z</time>
      </trkpt>
      <trkpt lat="45.59785" lon="6.87606">
        <ele>918.2534839517</ele>
        <time>2022-01-20T16:49:24.003Z</time>
      </trkpt>
      <trkpt lat="45.59747" lon="6.87822">
        <ele>921.34079908241</ele>
        <time>2022-01-20T16:49:25.428Z</time>
      </trkpt>
      <trkpt lat="45.59736" lon="6.87898">
        <ele>923.94782648661</ele>
        <time>2022-01-20T16:49:26.862Z</time>
      </trkpt>
      <trkpt lat="45.59734" lon="6.87924">
        <ele>926.71688358816</ele>
        <time>2022-01-20T16:49:28.299Z</time>
      </trkpt>
      <trkpt lat="45.59731" lon="6.87937">
        <ele>929.40746296236</ele>
        <time>2022-01-20T16:49:29.738Z</time>
      </trkpt>
      <trkpt lat="45.59726" lon="6.87948">
        <ele>932.06350238495</ele>
        <time>2022-01-20T16:49:31.178Z</time>
      </trkpt>
      <trkpt lat="45.59717" lon="6.87961">
        <ele>934.71908113185</ele>
        <time>2022-01-20T16:49:32.620Z</time>
      </trkpt>
      <trkpt lat="45.59685" lon="6.87999">
        <ele>937.3640645155</ele>
        <time>2022-01-20T16:49:34.069Z</time>
      </trkpt>
      <trkpt lat="45.59646" lon="6.88038">
        <ele>940.04821736681</ele>
        <time>2022-01-20T16:49:35.525Z</time>
      </trkpt>
      <trkpt lat="45.59563" lon="6.88112">
        <ele>943.05619415371</ele>
        <time>2022-01-20T16:49:36.997Z</time>
      </trkpt>
      <trkpt lat="45.5955" lon="6.88121">
        <ele>945.64929048083</ele>
        <time>2022-01-20T16:49:38.471Z</time>
      </trkpt>
      <trkpt lat="45.59536" lon="6.88121">
        <ele>948.08085579486</ele>
        <time>2022-01-20T16:49:39.948Z</time>
      </trkpt>
      <trkpt lat="45.59519" lon="6.88107">
        <ele>950.245062561</ele>
        <time>2022-01-20T16:49:41.428Z</time>
      </trkpt>
      <trkpt lat="45.59507" lon="6.88092">
        <ele>952.22362908681</ele>
        <time>2022-01-20T16:49:42.910Z</time>
      </trkpt>
      <trkpt lat="45.59494" lon="6.88082">
        <ele>954.11365555982</ele>
        <time>2022-01-20T16:49:44.395Z</time>
      </trkpt>
      <trkpt lat="45.59477" lon="6.88077">
        <ele>955.95336804318</ele>
        <time>2022-01-20T16:49:45.882Z</time>
      </trkpt>
      <trkpt lat="45.59458" lon="6.88076">
        <ele>957.66843804738</ele>
        <time>2022-01-20T16:49:47.373Z</time>
      </trkpt>
      <trkpt lat="45.59431" lon="6.8807">
        <ele>959.16977798812</ele>
        <time>2022-01-20T16:49:48.868Z</time>
      </trkpt>
      <trkpt lat="45.59418" lon="6.88069">
        <ele>960.55475129041</ele>
        <time>2022-01-20T16:49:50.365Z</time>
      </trkpt>
      <trkpt lat="45.59372" lon="6.88096">
        <ele>962.05221558553</ele>
        <time>2022-01-20T16:49:51.870Z</time>
      </trkpt>
      <trkpt lat="45.59348" lon="6.88106">
        <ele>963.3493720979</ele>
        <time>2022-01-20T16:49:53.379Z</time>
      </trkpt>
      <trkpt lat="45.59331" lon="6.88109">
        <ele>964.41685558363</ele>
        <time>2022-01-20T16:49:54.891Z</time>
      </trkpt>
      <trkpt lat="45.59312" lon="6.8811">
        <ele>965.35993522231</ele>
        <time>2022-01-20T16:49:56.406Z</time>
      </trkpt>
      <trkpt lat="45.59299" lon="6.88108">
        <ele>966.20590663139</ele>
        <time>2022-01-20T16:49:57.923Z</time>
      </trkpt>
      <trkpt lat="45.59282" lon="6.88103">
        <ele>966.97315783105</ele>
        <time>2022-01-20T16:49:59.443Z</time>
      </trkpt>
      <trkpt lat="45.59262" lon="6.88092">
        <ele>967.66867887776</ele>
        <time>2022-01-20T16:50:00.966Z</time>
      </trkpt>
      <trkpt lat="45.59247" lon="6.88079">
        <ele>968.1921126143</ele>
        <time>2022-01-20T16:50:02.492Z</time>
      </trkpt>
      <trkpt lat="45.59238" lon="6.88066">
        <ele>968.64536553844</ele>
        <time>2022-01-20T16:50:04.020Z</time>
      </trkpt>
      <trkpt lat="45.5923" lon="6.88061">
        <ele>969.20542475594</ele>
        <time>2022-01-20T16:50:05.549Z</time>
      </trkpt>
      <trkpt lat="45.59222" lon="6.88062">
        <ele>969.8385743777</ele>
        <time>2022-01-20T16:50:07.080Z</time>
      </trkpt>
      <trkpt lat="45.59217" lon="6.88066">
        <ele>970.47192346276</ele>
        <time>2022-01-20T16:50:08.611Z</time>
      </trkpt>
      <trkpt lat="45.59213" lon="6.88073">
        <ele>971.17332587094</ele>
        <time>2022-01-20T16:50:10.143Z</time>
      </trkpt>
      <trkpt lat="45.59214" lon="6.88089">
        <ele>972.00456038497</ele>
        <time>2022-01-20T16:50:11.677Z</time>
      </trkpt>
      <trkpt lat="45.59216" lon="6.88096">
        <ele>972.81057996681</ele>
        <time>2022-01-20T16:50:13.212Z</time>
      </trkpt>
      <trkpt lat="45.59223" lon="6.88101">
        <ele>973.67503237758</ele>
        <time>2022-01-20T16:50:14.748Z</time>
      </trkpt>
      <trkpt lat="45.5923" lon="6.88104">
        <ele>974.53389590413</ele>
        <time>2022-01-20T16:50:16.286Z</time>
      </trkpt>
      <trkpt lat="45.59241" lon="6.88106">
        <ele>975.42107600152</ele>
        <time>2022-01-20T16:50:17.825Z</time>
      </trkpt>
      <trkpt lat="45.59296" lon="6.88135">
        <ele>976.38723098813</ele>
        <time>2022-01-20T16:50:19.374Z</time>
      </trkpt>
      <trkpt lat="45.59313" lon="6.88142">
        <ele>977.4363978795</ele>
        <time>2022-01-20T16:50:20.926Z</time>
      </trkpt>
      <trkpt lat="45.59409" lon="6.8815">
        <ele>978.63027784586</ele>
        <time>2022-01-20T16:50:22.493Z</time>
      </trkpt>
      <trkpt lat="45.59435" lon="6.88155">
        <ele>979.74043957169</ele>
        <time>2022-01-20T16:50:24.064Z</time>
      </trkpt>
      <trkpt lat="45.5945" lon="6.88161">
        <ele>980.97520865222</ele>
        <time>2022-01-20T16:50:25.638Z</time>
      </trkpt>
      <trkpt lat="45.59465" lon="6.88171">
        <ele>982.33233155031</ele>
        <time>2022-01-20T16:50:27.214Z</time>
      </trkpt>
      <trkpt lat="45.59479" lon="6.88183">
        <ele>983.74955993722</ele>
        <time>2022-01-20T16:50:28.793Z</time>
      </trkpt>
      <trkpt lat="45.59508" lon="6.8822">
        <ele>985.3484889334</ele>
        <time>2022-01-20T16:50:30.378Z</time>
      </trkpt>
      <trkpt lat="45.59517" lon="6.88228">
        <ele>986.77928165622</ele>
        <time>2022-01-20T16:50:31.965Z</time>
      </trkpt>
      <trkpt lat="45.5953" lon="6.88231">
        <ele>988.14251218723</ele>
        <time>2022-01-20T16:50:33.554Z</time>
      </trkpt>
      <trkpt lat="45.59553" lon="6.88232">
        <ele>989.42670178025</ele>
        <time>2022-01-20T16:50:35.147Z</time>
      </trkpt>
      <trkpt lat="45.59572" lon="6.8823">
        <ele>990.94019045247</ele>
        <time>2022-01-20T16:50:36.743Z</time>
      </trkpt>
      <trkpt lat="45.59595" lon="6.88222">
        <ele>992.36940877108</ele>
        <time>2022-01-20T16:50:38.342Z</time>
      </trkpt>
      <trkpt lat="45.59603" lon="6.88221">
        <ele>993.86028024672</ele>
        <time>2022-01-20T16:50:39.943Z</time>
      </trkpt>
      <trkpt lat="45.59611" lon="6.88225">
        <ele>995.47417723539</ele>
        <time>2022-01-20T16:50:41.545Z</time>
      </trkpt>
      <trkpt lat="45.59616" lon="6.88231">
        <ele>997.10327911226</ele>
        <time>2022-01-20T16:50:43.148Z</time>
      </trkpt>
      <trkpt lat="45.59618" lon="6.88239">
        <ele>998.78773593671</ele>
        <time>2022-01-20T16:50:44.752Z</time>
      </trkpt>
      <trkpt lat="45.59616" lon="6.88258">
        <ele>1000.7837739708</ele>
        <time>2022-01-20T16:50:46.358Z</time>
      </trkpt>
      <trkpt lat="45.59612" lon="6.88265">
        <ele>1002.4140024591</ele>
        <time>2022-01-20T16:50:47.965Z</time>
      </trkpt>
      <trkpt lat="45.59605" lon="6.8827">
        <ele>1003.9061321916</ele>
        <time>2022-01-20T16:50:49.574Z</time>
      </trkpt>
      <trkpt lat="45.59598" lon="6.88271">
        <ele>1005.2564020169</ele>
        <time>2022-01-20T16:50:51.184Z</time>
      </trkpt>
      <trkpt lat="45.59579" lon="6.88258">
        <ele>1006.128444394</ele>
        <time>2022-01-20T16:50:52.797Z</time>
      </trkpt>
      <trkpt lat="45.5957" lon="6.88254">
        <ele>1007.2601811657</ele>
        <time>2022-01-20T16:50:54.412Z</time>
      </trkpt>
      <trkpt lat="45.59559" lon="6.88253">
        <ele>1008.4121888937</ele>
        <time>2022-01-20T16:50:56.028Z</time>
      </trkpt>
      <trkpt lat="45.59525" lon="6.8826">
        <ele>1010.0346930487</ele>
        <time>2022-01-20T16:50:57.650Z</time>
      </trkpt>
      <trkpt lat="45.59512" lon="6.88258">
        <ele>1011.5152358631</ele>
        <time>2022-01-20T16:50:59.274Z</time>
      </trkpt>
      <trkpt lat="45.59495" lon="6.8825">
        <ele>1012.9802199927</ele>
        <time>2022-01-20T16:51:00.901Z</time>
      </trkpt>
      <trkpt lat="45.5948" lon="6.8824">
        <ele>1014.4285745509</ele>
        <time>2022-01-20T16:51:02.530Z</time>
      </trkpt>
      <trkpt lat="45.59469" lon="6.88238">
        <ele>1015.9581375527</ele>
        <time>2022-01-20T16:51:04.161Z</time>
      </trkpt>
      <trkpt lat="45.59429" lon="6.8824">
        <ele>1017.5772743555</ele>
        <time>2022-01-20T16:51:05.799Z</time>
      </trkpt>
      <trkpt lat="45.5938" lon="6.88233">
        <ele>1019.1674675648</ele>
        <time>2022-01-20T16:51:07.444Z</time>
      </trkpt>
      <trkpt lat="45.5935" lon="6.88234">
        <ele>1020.8788140505</ele>
        <time>2022-01-20T16:51:09.094Z</time>
      </trkpt>
      <trkpt lat="45.5934" lon="6.88236">
        <ele>1022.5907482841</ele>
        <time>2022-01-20T16:51:10.746Z</time>
      </trkpt>
      <trkpt lat="45.59296" lon="6.88254">
        <ele>1024.3472639442</ele>
        <time>2022-01-20T16:51:12.405Z</time>
      </trkpt>
      <trkpt lat="45.59279" lon="6.88259">
        <ele>1026.082460485</ele>
        <time>2022-01-20T16:51:14.067Z</time>
      </trkpt>
      <trkpt lat="45.59247" lon="6.88252">
        <ele>1027.8620360624</ele>
        <time>2022-01-20T16:51:15.734Z</time>
      </trkpt>
      <trkpt lat="45.59231" lon="6.88252">
        <ele>1029.7321671685</ele>
        <time>2022-01-20T16:51:17.404Z</time>
      </trkpt>
      <trkpt lat="45.59184" lon="6.88257">
        <ele>1031.6306943885</ele>
        <time>2022-01-20T16:51:19.081Z</time>
      </trkpt>
      <trkpt lat="45.59131" lon="6.88265">
        <ele>1033.505741643</ele>
        <time>2022-01-20T16:51:20.767Z</time>
      </trkpt>
      <trkpt lat="45.5912" lon="6.88268">
        <ele>1035.2516686605</ele>
        <time>2022-01-20T16:51:22.455Z</time>
      </trkpt>
      <trkpt lat="45.59067" lon="6.88292">
        <ele>1037.0597712499</ele>
        <time>2022-01-20T16:51:24.152Z</time>
      </trkpt>
      <trkpt lat="45.59051" lon="6.88311">
        <ele>1038.8060524011</ele>
        <time>2022-01-20T16:51:25.852Z</time>
      </trkpt>
      <trkpt lat="45.5904" lon="6.88358">
        <ele>1040.6131484574</ele>
        <time>2022-01-20T16:51:27.557Z</time>
      </trkpt>
      <trkpt lat="45.59034" lon="6.88396">
        <ele>1042.382787007</ele>
        <time>2022-01-20T16:51:29.267Z</time>
      </trkpt>
      <trkpt lat="45.59026" lon="6.88407">
        <ele>1044.0066964033</ele>
        <time>2022-01-20T16:51:30.979Z</time>
      </trkpt>
      <trkpt lat="45.59017" lon="6.88413">
        <ele>1045.5867459185</ele>
        <time>2022-01-20T16:51:32.692Z</time>
      </trkpt>
      <trkpt lat="45.59009" lon="6.88415">
        <ele>1047.1336247009</ele>
        <time>2022-01-20T16:51:34.406Z</time>
      </trkpt>
      <trkpt lat="45.59002" lon="6.88413">
        <ele>1048.641406503</ele>
        <time>2022-01-20T16:51:36.122Z</time>
      </trkpt>
      <trkpt lat="45.58983" lon="6.88397">
        <ele>1050.1779849388</ele>
        <time>2022-01-20T16:51:37.841Z</time>
      </trkpt>
      <trkpt lat="45.58963" lon="6.8837">
        <ele>1051.6591205166</ele>
        <time>2022-01-20T16:51:39.565Z</time>
      </trkpt>
      <trkpt lat="45.58942" lon="6.88347">
        <ele>1053.1016153487</ele>
        <time>2022-01-20T16:51:41.293Z</time>
      </trkpt>
      <trkpt lat="45.58928" lon="6.88342">
        <ele>1054.6201545954</ele>
        <time>2022-01-20T16:51:43.023Z</time>
      </trkpt>
      <trkpt lat="45.58904" lon="6.88343">
        <ele>1056.2082915366</ele>
        <time>2022-01-20T16:51:44.757Z</time>
      </trkpt>
      <trkpt lat="45.58895" lon="6.88345">
        <ele>1057.8178669905</ele>
        <time>2022-01-20T16:51:46.492Z</time>
      </trkpt>
      <trkpt lat="45.58878" lon="6.88353">
        <ele>1059.5143984142</ele>
        <time>2022-01-20T16:51:48.230Z</time>
      </trkpt>
      <trkpt lat="45.58866" lon="6.88365">
        <ele>1061.3085808179</ele>
        <time>2022-01-20T16:51:49.971Z</time>
      </trkpt>
      <trkpt lat="45.58861" lon="6.88381">
        <ele>1063.2001855297</ele>
        <time>2022-01-20T16:51:51.714Z</time>
      </trkpt>
      <trkpt lat="45.5885" lon="6.88438">
        <ele>1065.3710678395</ele>
        <time>2022-01-20T16:51:53.463Z</time>
      </trkpt>
      <trkpt lat="45.58847" lon="6.88446">
        <ele>1067.3423084278</ele>
        <time>2022-01-20T16:51:55.213Z</time>
      </trkpt>
      <trkpt lat="45.58843" lon="6.88452">
        <ele>1069.3671718298</ele>
        <time>2022-01-20T16:51:56.964Z</time>
      </trkpt>
      <trkpt lat="45.5883" lon="6.88464">
        <ele>1071.4852243738</ele>
        <time>2022-01-20T16:51:58.718Z</time>
      </trkpt>
      <trkpt lat="45.58789" lon="6.88498">
        <ele>1073.8572065487</ele>
        <time>2022-01-20T16:52:00.479Z</time>
      </trkpt>
      <trkpt lat="45.58779" lon="6.88502">
        <ele>1076.1733270322</ele>
        <time>2022-01-20T16:52:02.242Z</time>
      </trkpt>
      <trkpt lat="45.58767" lon="6.88503">
        <ele>1078.5482363458</ele>
        <time>2022-01-20T16:52:04.007Z</time>
      </trkpt>
      <trkpt lat="45.58655" lon="6.88443">
        <ele>1081.0949018694</ele>
        <time>2022-01-20T16:52:05.791Z</time>
      </trkpt>
      <trkpt lat="45.58635" lon="6.88435">
        <ele>1083.6068552143</ele>
        <time>2022-01-20T16:52:07.578Z</time>
      </trkpt>
      <trkpt lat="45.58621" lon="6.88438">
        <ele>1086.1724909592</ele>
        <time>2022-01-20T16:52:09.368Z</time>
      </trkpt>
      <trkpt lat="45.586" lon="6.88447">
        <ele>1088.8110640721</ele>
        <time>2022-01-20T16:52:11.161Z</time>
      </trkpt>
      <trkpt lat="45.5854" lon="6.88497">
        <ele>1091.6805470901</ele>
        <time>2022-01-20T16:52:12.965Z</time>
      </trkpt>
      <trkpt lat="45.58528" lon="6.88505">
        <ele>1094.4726653541</ele>
        <time>2022-01-20T16:52:14.771Z</time>
      </trkpt>
      <trkpt lat="45.58515" lon="6.88508">
        <ele>1097.2375891611</ele>
        <time>2022-01-20T16:52:16.579Z</time>
      </trkpt>
      <trkpt lat="45.58502" lon="6.88506">
        <ele>1099.9910198714</ele>
        <time>2022-01-20T16:52:18.390Z</time>
      </trkpt>
      <trkpt lat="45.58469" lon="6.88495">
        <ele>1102.800916266</ele>
        <time>2022-01-20T16:52:20.206Z</time>
      </trkpt>
      <trkpt lat="45.58452" lon="6.88492">
        <ele>1105.7650785102</ele>
        <time>2022-01-20T16:52:22.025Z</time>
      </trkpt>
      <trkpt lat="45.58408" lon="6.88493">
        <ele>1108.7367203793</ele>
        <time>2022-01-20T16:52:23.851Z</time>
      </trkpt>
      <trkpt lat="45.58393" lon="6.88491">
        <ele>1111.6173043093</ele>
        <time>2022-01-20T16:52:25.679Z</time>
      </trkpt>
      <trkpt lat="45.5835" lon="6.88472">
        <ele>1114.7466463201</ele>
        <time>2022-01-20T16:52:27.514Z</time>
      </trkpt>
      <trkpt lat="45.58333" lon="6.88461">
        <ele>1117.6740701506</ele>
        <time>2022-01-20T16:52:29.352Z</time>
      </trkpt>
      <trkpt lat="45.58308" lon="6.88438">
        <ele>1120.4222057188</ele>
        <time>2022-01-20T16:52:31.195Z</time>
      </trkpt>
      <trkpt lat="45.58286" lon="6.88423">
        <ele>1123.2437691753</ele>
        <time>2022-01-20T16:52:33.042Z</time>
      </trkpt>
      <trkpt lat="45.58265" lon="6.88416">
        <ele>1126.0221708798</ele>
        <time>2022-01-20T16:52:34.892Z</time>
      </trkpt>
      <trkpt lat="45.58204" lon="6.88418">
        <ele>1128.8497388424</ele>
        <time>2022-01-20T16:52:36.752Z</time>
      </trkpt>
      <trkpt lat="45.58182" lon="6.88412">
        <ele>1131.4027942793</ele>
        <time>2022-01-20T16:52:38.616Z</time>
      </trkpt>
      <trkpt lat="45.58126" lon="6.88386">
        <ele>1133.9565536034</ele>
        <time>2022-01-20T16:52:40.489Z</time>
      </trkpt>
      <trkpt lat="45.58094" lon="6.88381">
        <ele>1136.4034610561</ele>
        <time>2022-01-20T16:52:42.367Z</time>
      </trkpt>
      <trkpt lat="45.58046" lon="6.88379">
        <ele>1138.7133616465</ele>
        <time>2022-01-20T16:52:44.253Z</time>
      </trkpt>
      <trkpt lat="45.58018" lon="6.88381">
        <ele>1140.8505792579</ele>
        <time>2022-01-20T16:52:46.144Z</time>
      </trkpt>
      <trkpt lat="45.57986" lon="6.88389">
        <ele>1142.8278542878</ele>
        <time>2022-01-20T16:52:48.040Z</time>
      </trkpt>
      <trkpt lat="45.57976" lon="6.88389">
        <ele>1144.515908674</ele>
        <time>2022-01-20T16:52:49.937Z</time>
      </trkpt>
      <trkpt lat="45.57967" lon="6.88386">
        <ele>1146.0828379269</ele>
        <time>2022-01-20T16:52:51.836Z</time>
      </trkpt>
      <trkpt lat="45.57948" lon="6.88374">
        <ele>1147.501609098</ele>
        <time>2022-01-20T16:52:53.738Z</time>
      </trkpt>
      <trkpt lat="45.57926" lon="6.88353">
        <ele>1148.8389113288</ele>
        <time>2022-01-20T16:52:55.644Z</time>
      </trkpt>
      <trkpt lat="45.57905" lon="6.8833">
        <ele>1150.068795097</ele>
        <time>2022-01-20T16:52:57.555Z</time>
      </trkpt>
      <trkpt lat="45.57893" lon="6.88314">
        <ele>1151.0416120171</ele>
        <time>2022-01-20T16:52:59.468Z</time>
      </trkpt>
      <trkpt lat="45.57872" lon="6.88277">
        <ele>1151.5675763951</ele>
        <time>2022-01-20T16:53:01.387Z</time>
      </trkpt>
      <trkpt lat="45.57864" lon="6.88254">
        <ele>1151.90744078</ele>
        <time>2022-01-20T16:53:03.309Z</time>
      </trkpt>
      <trkpt lat="45.57859" lon="6.88228">
        <ele>1152.1246400763</ele>
        <time>2022-01-20T16:53:05.234Z</time>
      </trkpt>
      <trkpt lat="45.57856" lon="6.88224">
        <ele>1152.5458566392</ele>
        <time>2022-01-20T16:53:07.159Z</time>
      </trkpt>
      <trkpt lat="45.57851" lon="6.88222">
        <ele>1152.9619499573</ele>
        <time>2022-01-20T16:53:09.085Z</time>
      </trkpt>
      <trkpt lat="45.57847" lon="6.88223">
        <ele>1153.3891140444</ele>
        <time>2022-01-20T16:53:11.012Z</time>
      </trkpt>
      <trkpt lat="45.57841" lon="6.88228">
        <ele>1153.8757084069</ele>
        <time>2022-01-20T16:53:12.940Z</time>
      </trkpt>
      <trkpt lat="45.57839" lon="6.88234">
        <ele>1154.3671547783</ele>
        <time>2022-01-20T16:53:14.869Z</time>
      </trkpt>
      <trkpt lat="45.57838" lon="6.88239">
        <ele>1154.9039361062</ele>
        <time>2022-01-20T16:53:16.798Z</time>
      </trkpt>
      <trkpt lat="45.5784" lon="6.8825">
        <ele>1155.5495752107</ele>
        <time>2022-01-20T16:53:18.728Z</time>
      </trkpt>
      <trkpt lat="45.57852" lon="6.88267">
        <ele>1156.2289760312</ele>
        <time>2022-01-20T16:53:20.661Z</time>
      </trkpt>
      <trkpt lat="45.5788" lon="6.8832">
        <ele>1157.2038725069</ele>
        <time>2022-01-20T16:53:22.602Z</time>
      </trkpt>
      <trkpt lat="45.57939" lon="6.88405">
        <ele>1157.5964341692</ele>
        <time>2022-01-20T16:53:24.556Z</time>
      </trkpt>
      <trkpt lat="45.57956" lon="6.88427">
        <ele>1158.4610633942</ele>
        <time>2022-01-20T16:53:26.514Z</time>
      </trkpt>
      <trkpt lat="45.57975" lon="6.8844">
        <ele>1158.9493614973</ele>
        <time>2022-01-20T16:53:28.475Z</time>
      </trkpt>
      <trkpt lat="45.57996" lon="6.88447">
        <ele>1159.8719929416</ele>
        <time>2022-01-20T16:53:30.439Z</time>
      </trkpt>
      <trkpt lat="45.58" lon="6.8845">
        <ele>1160.8698099015</ele>
        <time>2022-01-20T16:53:32.404Z</time>
      </trkpt>
      <trkpt lat="45.58002" lon="6.88454">
        <ele>1161.9829195052</ele>
        <time>2022-01-20T16:53:34.370Z</time>
      </trkpt>
      <trkpt lat="45.58002" lon="6.88465">
        <ele>1163.2812150663</ele>
        <time>2022-01-20T16:53:36.337Z</time>
      </trkpt>
      <trkpt lat="45.58001" lon="6.88471">
        <ele>1164.6570854611</ele>
        <time>2022-01-20T16:53:38.305Z</time>
      </trkpt>
      <trkpt lat="45.57998" lon="6.88476">
        <ele>1166.152733303</ele>
        <time>2022-01-20T16:53:40.273Z</time>
      </trkpt>
      <trkpt lat="45.5799" lon="6.8848">
        <ele>1167.7638271257</ele>
        <time>2022-01-20T16:53:42.243Z</time>
      </trkpt>
      <trkpt lat="45.57982" lon="6.88478">
        <ele>1169.4541873425</ele>
        <time>2022-01-20T16:53:44.214Z</time>
      </trkpt>
      <trkpt lat="45.5796" lon="6.88464">
        <ele>1171.4004600822</ele>
        <time>2022-01-20T16:53:46.189Z</time>
      </trkpt>
      <trkpt lat="45.57947" lon="6.88452">
        <ele>1173.4912674476</ele>
        <time>2022-01-20T16:53:48.166Z</time>
      </trkpt>
      <trkpt lat="45.5794" lon="6.88443">
        <ele>1175.6684509644</ele>
        <time>2022-01-20T16:53:50.145Z</time>
      </trkpt>
      <trkpt lat="45.57926" lon="6.88418">
        <ele>1177.8733162273</ele>
        <time>2022-01-20T16:53:52.128Z</time>
      </trkpt>
      <trkpt lat="45.57916" lon="6.88405">
        <ele>1180.1759966942</ele>
        <time>2022-01-20T16:53:54.113Z</time>
      </trkpt>
      <trkpt lat="45.57838" lon="6.88313">
        <ele>1182.9493252979</ele>
        <time>2022-01-20T16:53:56.114Z</time>
      </trkpt>
      <trkpt lat="45.57828" lon="6.88303">
        <ele>1185.472763556</ele>
        <time>2022-01-20T16:53:58.117Z</time>
      </trkpt>
      <trkpt lat="45.57807" lon="6.88291">
        <ele>1188.1763555722</ele>
        <time>2022-01-20T16:54:00.123Z</time>
      </trkpt>
      <trkpt lat="45.57766" lon="6.8829">
        <ele>1191.107302932</ele>
        <time>2022-01-20T16:54:02.136Z</time>
      </trkpt>
      <trkpt lat="45.57739" lon="6.88287">
        <ele>1193.8944603843</ele>
        <time>2022-01-20T16:54:04.153Z</time>
      </trkpt>
      <trkpt lat="45.57721" lon="6.88291">
        <ele>1196.7812670706</ele>
        <time>2022-01-20T16:54:06.173Z</time>
      </trkpt>
      <trkpt lat="45.57709" lon="6.88299">
        <ele>1199.7448587877</ele>
        <time>2022-01-20T16:54:08.195Z</time>
      </trkpt>
      <trkpt lat="45.57663" lon="6.88336">
        <ele>1202.5856810979</ele>
        <time>2022-01-20T16:54:10.226Z</time>
      </trkpt>
      <trkpt lat="45.57649" lon="6.8835">
        <ele>1205.4778013395</ele>
        <time>2022-01-20T16:54:12.260Z</time>
      </trkpt>
      <trkpt lat="45.57645" lon="6.88356">
        <ele>1208.360356791</ele>
        <time>2022-01-20T16:54:14.295Z</time>
      </trkpt>
      <trkpt lat="45.5763" lon="6.88395">
        <ele>1211.4270986414</ele>
        <time>2022-01-20T16:54:16.335Z</time>
      </trkpt>
      <trkpt lat="45.57617" lon="6.88412">
        <ele>1214.3143627582</ele>
        <time>2022-01-20T16:54:18.377Z</time>
      </trkpt>
      <trkpt lat="45.576" lon="6.88425">
        <ele>1217.1968105612</ele>
        <time>2022-01-20T16:54:20.422Z</time>
      </trkpt>
      <trkpt lat="45.57562" lon="6.88438">
        <ele>1220.0576281988</ele>
        <time>2022-01-20T16:54:22.474Z</time>
      </trkpt>
      <trkpt lat="45.57542" lon="6.88442">
        <ele>1222.758624357</ele>
        <time>2022-01-20T16:54:24.529Z</time>
      </trkpt>
      <trkpt lat="45.57523" lon="6.88439">
        <ele>1225.3596925464</ele>
        <time>2022-01-20T16:54:26.587Z</time>
      </trkpt>
      <trkpt lat="45.57503" lon="6.88431">
        <ele>1227.8467188494</ele>
        <time>2022-01-20T16:54:28.648Z</time>
      </trkpt>
      <trkpt lat="45.5748" lon="6.88427">
        <ele>1230.4008060497</ele>
        <time>2022-01-20T16:54:30.713Z</time>
      </trkpt>
      <trkpt lat="45.57454" lon="6.88437">
        <ele>1232.9178984679</ele>
        <time>2022-01-20T16:54:32.782Z</time>
      </trkpt>
      <trkpt lat="45.57381" lon="6.88509">
        <ele>1235.5775346291</ele>
        <time>2022-01-20T16:54:34.866Z</time>
      </trkpt>
      <trkpt lat="45.57366" lon="6.8852">
        <ele>1237.8824944191</ele>
        <time>2022-01-20T16:54:36.952Z</time>
      </trkpt>
      <trkpt lat="45.57345" lon="6.88532">
        <ele>1240.132340663</ele>
        <time>2022-01-20T16:54:39.042Z</time>
      </trkpt>
      <trkpt lat="45.57328" lon="6.88547">
        <ele>1242.2950756366</ele>
        <time>2022-01-20T16:54:41.135Z</time>
      </trkpt>
      <trkpt lat="45.57295" lon="6.88602">
        <ele>1244.4231677429</ele>
        <time>2022-01-20T16:54:43.236Z</time>
      </trkpt>
      <trkpt lat="45.5728" lon="6.88618">
        <ele>1246.3566348034</ele>
        <time>2022-01-20T16:54:45.340Z</time>
      </trkpt>
      <trkpt lat="45.57269" lon="6.88622">
        <ele>1248.1920178104</ele>
        <time>2022-01-20T16:54:47.446Z</time>
      </trkpt>
      <trkpt lat="45.57253" lon="6.88625">
        <ele>1249.9668465173</ele>
        <time>2022-01-20T16:54:49.555Z</time>
      </trkpt>
      <trkpt lat="45.57235" lon="6.88626">
        <ele>1251.6924169933</ele>
        <time>2022-01-20T16:54:51.666Z</time>
      </trkpt>
      <trkpt lat="45.57173" lon="6.88643">
        <ele>1253.3583782617</ele>
        <time>2022-01-20T16:54:53.788Z</time>
      </trkpt>
      <trkpt lat="45.57149" lon="6.88648">
        <ele>1254.8965243924</ele>
        <time>2022-01-20T16:54:55.913Z</time>
      </trkpt>
      <trkpt lat="45.5711" lon="6.88669">
        <ele>1256.4804211339</ele>
        <time>2022-01-20T16:54:58.045Z</time>
      </trkpt>
      <trkpt lat="45.57049" lon="6.88708">
        <ele>1258.004857375</ele>
        <time>2022-01-20T16:55:00.188Z</time>
      </trkpt>
      <trkpt lat="45.57029" lon="6.8873">
        <ele>1259.512557409</ele>
        <time>2022-01-20T16:55:02.335Z</time>
      </trkpt>
      <trkpt lat="45.57" lon="6.8877">
        <ele>1261.3139319747</ele>
        <time>2022-01-20T16:55:04.488Z</time>
      </trkpt>
      <trkpt lat="45.56962" lon="6.88817">
        <ele>1263.2129671072</ele>
        <time>2022-01-20T16:55:06.649Z</time>
      </trkpt>
      <trkpt lat="45.56935" lon="6.88844">
        <ele>1265.1050810765</ele>
        <time>2022-01-20T16:55:08.816Z</time>
      </trkpt>
      <trkpt lat="45.56911" lon="6.88864">
        <ele>1267.0634444392</ele>
        <time>2022-01-20T16:55:10.987Z</time>
      </trkpt>
      <trkpt lat="45.56897" lon="6.88873">
        <ele>1268.8634983995</ele>
        <time>2022-01-20T16:55:13.161Z</time>
      </trkpt>
      <trkpt lat="45.56887" lon="6.88879">
        <ele>1270.7301830344</ele>
        <time>2022-01-20T16:55:15.336Z</time>
      </trkpt>
      <trkpt lat="45.56872" lon="6.88885">
        <ele>1272.6817404506</ele>
        <time>2022-01-20T16:55:17.514Z</time>
      </trkpt>
      <trkpt lat="45.56803" lon="6.88923">
        <ele>1274.7079340465</ele>
        <time>2022-01-20T16:55:19.704Z</time>
      </trkpt>
      <trkpt lat="45.56767" lon="6.8894">
        <ele>1276.8774957537</ele>
        <time>2022-01-20T16:55:21.900Z</time>
      </trkpt>
      <trkpt lat="45.56755" lon="6.88942">
        <ele>1278.9594361737</ele>
        <time>2022-01-20T16:55:24.098Z</time>
      </trkpt>
      <trkpt lat="45.56738" lon="6.88939">
        <ele>1280.9444476846</ele>
        <time>2022-01-20T16:55:26.298Z</time>
      </trkpt>
      <trkpt lat="45.56721" lon="6.88932">
        <ele>1282.9649891138</ele>
        <time>2022-01-20T16:55:28.501Z</time>
      </trkpt>
      <trkpt lat="45.56708" lon="6.88932">
        <ele>1285.2448451236</ele>
        <time>2022-01-20T16:55:30.706Z</time>
      </trkpt>
      <trkpt lat="45.56695" lon="6.88937">
        <ele>1287.7277835157</ele>
        <time>2022-01-20T16:55:32.913Z</time>
      </trkpt>
      <trkpt lat="45.56679" lon="6.88956">
        <ele>1290.4704383041</ele>
        <time>2022-01-20T16:55:35.124Z</time>
      </trkpt>
      <trkpt lat="45.56665" lon="6.88981">
        <ele>1293.3446658468</ele>
        <time>2022-01-20T16:55:37.338Z</time>
      </trkpt>
      <trkpt lat="45.56645" lon="6.89011">
        <ele>1296.3333645158</ele>
        <time>2022-01-20T16:55:39.557Z</time>
      </trkpt>
      <trkpt lat="45.56599" lon="6.89075">
        <ele>1299.6942593164</ele>
        <time>2022-01-20T16:55:41.786Z</time>
      </trkpt>
      <trkpt lat="45.56578" lon="6.89094">
        <ele>1302.7337736152</ele>
        <time>2022-01-20T16:55:44.019Z</time>
      </trkpt>
      <trkpt lat="45.5652" lon="6.89127">
        <ele>1305.681256003</ele>
        <time>2022-01-20T16:55:46.262Z</time>
      </trkpt>
      <trkpt lat="45.5649" lon="6.89148">
        <ele>1308.6667378841</ele>
        <time>2022-01-20T16:55:48.511Z</time>
      </trkpt>
      <trkpt lat="45.56464" lon="6.89174">
        <ele>1311.7857669132</ele>
        <time>2022-01-20T16:55:50.765Z</time>
      </trkpt>
      <trkpt lat="45.56452" lon="6.8919">
        <ele>1314.777943862</ele>
        <time>2022-01-20T16:55:53.021Z</time>
      </trkpt>
      <trkpt lat="45.56428" lon="6.89213">
        <ele>1317.6011288433</ele>
        <time>2022-01-20T16:55:55.282Z</time>
      </trkpt>
      <trkpt lat="45.56396" lon="6.89251">
        <ele>1320.5481023874</ele>
        <time>2022-01-20T16:55:57.550Z</time>
      </trkpt>
      <trkpt lat="45.56386" lon="6.89259">
        <ele>1323.0313773573</ele>
        <time>2022-01-20T16:55:59.820Z</time>
      </trkpt>
      <trkpt lat="45.56371" lon="6.89267">
        <ele>1325.3661644805</ele>
        <time>2022-01-20T16:56:02.092Z</time>
      </trkpt>
      <trkpt lat="45.56346" lon="6.8927">
        <ele>1327.3497573706</ele>
        <time>2022-01-20T16:56:04.368Z</time>
      </trkpt>
      <trkpt lat="45.56331" lon="6.8927">
        <ele>1329.2509127866</ele>
        <time>2022-01-20T16:56:06.647Z</time>
      </trkpt>
      <trkpt lat="45.56312" lon="6.89273">
        <ele>1331.171893938</ele>
        <time>2022-01-20T16:56:08.929Z</time>
      </trkpt>
      <trkpt lat="45.56293" lon="6.89281">
        <ele>1332.8846033922</ele>
        <time>2022-01-20T16:56:11.214Z</time>
      </trkpt>
      <trkpt lat="45.56283" lon="6.89288">
        <ele>1334.2957948319</ele>
        <time>2022-01-20T16:56:13.501Z</time>
      </trkpt>
      <trkpt lat="45.56224" lon="6.89341">
        <ele>1335.6671259576</ele>
        <time>2022-01-20T16:56:15.799Z</time>
      </trkpt>
      <trkpt lat="45.56185" lon="6.89382">
        <ele>1336.4895242098</ele>
        <time>2022-01-20T16:56:18.104Z</time>
      </trkpt>
      <trkpt lat="45.56142" lon="6.89422">
        <ele>1337.306053403</ele>
        <time>2022-01-20T16:56:20.418Z</time>
      </trkpt>
      <trkpt lat="45.56111" lon="6.89444">
        <ele>1338.1211286946</ele>
        <time>2022-01-20T16:56:22.737Z</time>
      </trkpt>
      <trkpt lat="45.56084" lon="6.89454">
        <ele>1338.4589384906</ele>
        <time>2022-01-20T16:56:25.061Z</time>
      </trkpt>
      <trkpt lat="45.56066" lon="6.89458">
        <ele>1338.8945560368</ele>
        <time>2022-01-20T16:56:27.388Z</time>
      </trkpt>
      <trkpt lat="45.56035" lon="6.8946">
        <ele>1339.0534495689</ele>
        <time>2022-01-20T16:56:29.720Z</time>
      </trkpt>
      <trkpt lat="45.56002" lon="6.89467">
        <ele>1338.7645812179</ele>
        <time>2022-01-20T16:56:32.057Z</time>
      </trkpt>
      <trkpt lat="45.55985" lon="6.89472">
        <ele>1338.5477219072</ele>
        <time>2022-01-20T16:56:34.397Z</time>
      </trkpt>
      <trkpt lat="45.55977" lon="6.89479">
        <ele>1338.4851991753</ele>
        <time>2022-01-20T16:56:36.738Z</time>
      </trkpt>
      <trkpt lat="45.55971" lon="6.89487">
        <ele>1338.4656797843</ele>
        <time>2022-01-20T16:56:39.081Z</time>
      </trkpt>
      <trkpt lat="45.5596" lon="6.89515">
        <ele>1338.6669431898</ele>
        <time>2022-01-20T16:56:41.427Z</time>
      </trkpt>
      <trkpt lat="45.55936" lon="6.89583">
        <ele>1338.8831652022</ele>
        <time>2022-01-20T16:56:43.782Z</time>
      </trkpt>
      <trkpt lat="45.55924" lon="6.89624">
        <ele>1339.0368997151</ele>
        <time>2022-01-20T16:56:46.142Z</time>
      </trkpt>
      <trkpt lat="45.55913" lon="6.89645">
        <ele>1339.1512824097</ele>
        <time>2022-01-20T16:56:48.505Z</time>
      </trkpt>
      <trkpt lat="45.55868" lon="6.89711">
        <ele>1339.3880961113</ele>
        <time>2022-01-20T16:56:50.878Z</time>
      </trkpt>
      <trkpt lat="45.55859" lon="6.8972">
        <ele>1339.5087491344</ele>
        <time>2022-01-20T16:56:53.253Z</time>
      </trkpt>
      <trkpt lat="45.55849" lon="6.89724">
        <ele>1339.6060474542</ele>
        <time>2022-01-20T16:56:55.629Z</time>
      </trkpt>
      <trkpt lat="45.5583" lon="6.89739">
        <ele>1339.7659710731</ele>
        <time>2022-01-20T16:56:58.009Z</time>
      </trkpt>
      <trkpt lat="45.55822" lon="6.89751">
        <ele>1340.1505670276</ele>
        <time>2022-01-20T16:57:00.391Z</time>
      </trkpt>
      <trkpt lat="45.55817" lon="6.89764">
        <ele>1340.7036670672</ele>
        <time>2022-01-20T16:57:02.774Z</time>
      </trkpt>
      <trkpt lat="45.55809" lon="6.89798">
        <ele>1341.592001806</ele>
        <time>2022-01-20T16:57:05.161Z</time>
      </trkpt>
      <trkpt lat="45.558" lon="6.89812">
        <ele>1342.3146029946</ele>
        <time>2022-01-20T16:57:07.551Z</time>
      </trkpt>
      <trkpt lat="45.55759" lon="6.89861">
        <ele>1343.1948702672</ele>
        <time>2022-01-20T16:57:09.949Z</time>
      </trkpt>
      <trkpt lat="45.55738" lon="6.89889">
        <ele>1343.9759721688</ele>
        <time>2022-01-20T16:57:12.352Z</time>
      </trkpt>
      <trkpt lat="45.55717" lon="6.8993">
        <ele>1344.8960051376</ele>
        <time>2022-01-20T16:57:14.760Z</time>
      </trkpt>
      <trkpt lat="45.55669" lon="6.89989">
        <ele>1345.9317740259</ele>
        <time>2022-01-20T16:57:17.179Z</time>
      </trkpt>
      <trkpt lat="45.55611" lon="6.9008">
        <ele>1347.5636759746</ele>
        <time>2022-01-20T16:57:19.611Z</time>
      </trkpt>
      <trkpt lat="45.55601" lon="6.90091">
        <ele>1348.8937057151</ele>
        <time>2022-01-20T16:57:22.045Z</time>
      </trkpt>
      <trkpt lat="45.55567" lon="6.90113">
        <ele>1350.4085734485</ele>
        <time>2022-01-20T16:57:24.485Z</time>
      </trkpt>
      <trkpt lat="45.55543" lon="6.90122">
        <ele>1351.826383082</ele>
        <time>2022-01-20T16:57:26.929Z</time>
      </trkpt>
      <trkpt lat="45.5553" lon="6.90125">
        <ele>1353.234064784</ele>
        <time>2022-01-20T16:57:29.375Z</time>
      </trkpt>
      <trkpt lat="45.55506" lon="6.90137">
        <ele>1354.9917021102</ele>
        <time>2022-01-20T16:57:31.826Z</time>
      </trkpt>
      <trkpt lat="45.55457" lon="6.90165">
        <ele>1357.2633856884</ele>
        <time>2022-01-20T16:57:34.285Z</time>
      </trkpt>
      <trkpt lat="45.55446" lon="6.90169">
        <ele>1358.9923727777</ele>
        <time>2022-01-20T16:57:36.746Z</time>
      </trkpt>
      <trkpt lat="45.55434" lon="6.9017">
        <ele>1361.1050299522</ele>
        <time>2022-01-20T16:57:39.209Z</time>
      </trkpt>
      <trkpt lat="45.55394" lon="6.90161">
        <ele>1363.3043475716</ele>
        <time>2022-01-20T16:57:41.678Z</time>
      </trkpt>
      <trkpt lat="45.55332" lon="6.90156">
        <ele>1366.1176557804</ele>
        <time>2022-01-20T16:57:44.157Z</time>
      </trkpt>
      <trkpt lat="45.55292" lon="6.90146">
        <ele>1368.2127291327</ele>
        <time>2022-01-20T16:57:46.643Z</time>
      </trkpt>
      <trkpt lat="45.55275" lon="6.90149">
        <ele>1370.7229766935</ele>
        <time>2022-01-20T16:57:49.131Z</time>
      </trkpt>
      <trkpt lat="45.55259" lon="6.90156">
        <ele>1373.385241043</ele>
        <time>2022-01-20T16:57:51.622Z</time>
      </trkpt>
      <trkpt lat="45.55221" lon="6.90187">
        <ele>1376.5195141133</ele>
        <time>2022-01-20T16:57:54.120Z</time>
      </trkpt>
      <trkpt lat="45.55159" lon="6.9023">
        <ele>1379.2084782887</ele>
        <time>2022-01-20T16:57:56.629Z</time>
      </trkpt>
      <trkpt lat="45.55102" lon="6.90275">
        <ele>1382.0457959209</ele>
        <time>2022-01-20T16:57:59.149Z</time>
      </trkpt>
      <trkpt lat="45.55081" lon="6.90294">
        <ele>1384.8376116655</ele>
        <time>2022-01-20T16:58:01.673Z</time>
      </trkpt>
      <trkpt lat="45.55053" lon="6.90323">
        <ele>1387.7297981592</ele>
        <time>2022-01-20T16:58:04.202Z</time>
      </trkpt>
      <trkpt lat="45.55024" lon="6.90365">
        <ele>1390.4997637652</ele>
        <time>2022-01-20T16:58:06.738Z</time>
      </trkpt>
      <trkpt lat="45.54988" lon="6.9041">
        <ele>1393.1360458686</ele>
        <time>2022-01-20T16:58:09.281Z</time>
      </trkpt>
      <trkpt lat="45.54954" lon="6.90467">
        <ele>1395.9445826149</ele>
        <time>2022-01-20T16:58:11.833Z</time>
      </trkpt>
      <trkpt lat="45.54918" lon="6.90535">
        <ele>1398.5159146947</ele>
        <time>2022-01-20T16:58:14.394Z</time>
      </trkpt>
      <trkpt lat="45.54894" lon="6.90572">
        <ele>1400.6675270273</ele>
        <time>2022-01-20T16:58:16.961Z</time>
      </trkpt>
      <trkpt lat="45.54867" lon="6.90624">
        <ele>1403.2962408551</ele>
        <time>2022-01-20T16:58:19.535Z</time>
      </trkpt>
      <trkpt lat="45.54857" lon="6.90636">
        <ele>1405.5088762165</ele>
        <time>2022-01-20T16:58:22.111Z</time>
      </trkpt>
      <trkpt lat="45.54845" lon="6.90647">
        <ele>1407.5381828416</ele>
        <time>2022-01-20T16:58:24.690Z</time>
      </trkpt>
      <trkpt lat="45.54779" lon="6.90691">
        <ele>1409.4847908678</ele>
        <time>2022-01-20T16:58:27.280Z</time>
      </trkpt>
      <trkpt lat="45.54731" lon="6.90727">
        <ele>1411.5613994215</ele>
        <time>2022-01-20T16:58:29.879Z</time>
      </trkpt>
      <trkpt lat="45.54702" lon="6.90743">
        <ele>1413.2115683234</ele>
        <time>2022-01-20T16:58:32.483Z</time>
      </trkpt>
      <trkpt lat="45.54682" lon="6.90747">
        <ele>1414.8297324772</ele>
        <time>2022-01-20T16:58:35.090Z</time>
      </trkpt>
      <trkpt lat="45.54657" lon="6.90748">
        <ele>1416.2792622595</ele>
        <time>2022-01-20T16:58:37.701Z</time>
      </trkpt>
      <trkpt lat="45.54643" lon="6.90752">
        <ele>1417.60705482</ele>
        <time>2022-01-20T16:58:40.315Z</time>
      </trkpt>
      <trkpt lat="45.54633" lon="6.90756">
        <ele>1418.9348520163</ele>
        <time>2022-01-20T16:58:42.930Z</time>
      </trkpt>
      <trkpt lat="45.54594" lon="6.90778">
        <ele>1420.2979185268</ele>
        <time>2022-01-20T16:58:45.552Z</time>
      </trkpt>
      <trkpt lat="45.54578" lon="6.90784">
        <ele>1421.6734005013</ele>
        <time>2022-01-20T16:58:48.177Z</time>
      </trkpt>
      <trkpt lat="45.54542" lon="6.9079">
        <ele>1423.0294621472</ele>
        <time>2022-01-20T16:58:50.807Z</time>
      </trkpt>
      <trkpt lat="45.54528" lon="6.90796">
        <ele>1424.463634587</ele>
        <time>2022-01-20T16:58:53.440Z</time>
      </trkpt>
      <trkpt lat="45.54497" lon="6.90813">
        <ele>1426.0172199421</ele>
        <time>2022-01-20T16:58:56.078Z</time>
      </trkpt>
      <trkpt lat="45.54457" lon="6.90846">
        <ele>1427.9329379005</ele>
        <time>2022-01-20T16:58:58.723Z</time>
      </trkpt>
      <trkpt lat="45.5442" lon="6.90863">
        <ele>1429.4490018172</ele>
        <time>2022-01-20T16:59:01.375Z</time>
      </trkpt>
      <trkpt lat="45.54369" lon="6.90882">
        <ele>1431.0811928473</ele>
        <time>2022-01-20T16:59:04.035Z</time>
      </trkpt>
      <trkpt lat="45.54357" lon="6.90889">
        <ele>1432.7865741489</ele>
        <time>2022-01-20T16:59:06.697Z</time>
      </trkpt>
      <trkpt lat="45.54342" lon="6.90901">
        <ele>1434.5121019577</ele>
        <time>2022-01-20T16:59:09.362Z</time>
      </trkpt>
      <trkpt lat="45.54328" lon="6.90915">
        <ele>1436.4421629257</ele>
        <time>2022-01-20T16:59:12.030Z</time>
      </trkpt>
      <trkpt lat="45.54262" lon="6.90966">
        <ele>1438.6346845225</ele>
        <time>2022-01-20T16:59:14.710Z</time>
      </trkpt>
      <trkpt lat="45.54233" lon="6.90999">
        <ele>1440.4609859898</ele>
        <time>2022-01-20T16:59:17.396Z</time>
      </trkpt>
      <trkpt lat="45.54191" lon="6.91054">
        <ele>1442.2633092613</ele>
        <time>2022-01-20T16:59:20.091Z</time>
      </trkpt>
      <trkpt lat="45.54182" lon="6.91062">
        <ele>1444.0875998345</ele>
        <time>2022-01-20T16:59:22.787Z</time>
      </trkpt>
      <trkpt lat="45.54159" lon="6.91077">
        <ele>1445.8996602367</ele>
        <time>2022-01-20T16:59:25.487Z</time>
      </trkpt>
      <trkpt lat="45.54122" lon="6.91096">
        <ele>1447.6630106083</ele>
        <time>2022-01-20T16:59:28.194Z</time>
      </trkpt>
      <trkpt lat="45.54093" lon="6.91104">
        <ele>1449.2542041041</ele>
        <time>2022-01-20T16:59:30.905Z</time>
      </trkpt>
      <trkpt lat="45.54082" lon="6.91105">
        <ele>1450.777205282</ele>
        <time>2022-01-20T16:59:33.618Z</time>
      </trkpt>
      <trkpt lat="45.54074" lon="6.91104">
        <ele>1452.3082185079</ele>
        <time>2022-01-20T16:59:36.333Z</time>
      </trkpt>
      <trkpt lat="45.54064" lon="6.91102">
        <ele>1453.782639015</ele>
        <time>2022-01-20T16:59:39.049Z</time>
      </trkpt>
      <trkpt lat="45.54047" lon="6.91088">
        <ele>1454.9062801484</ele>
        <time>2022-01-20T16:59:41.768Z</time>
      </trkpt>
      <trkpt lat="45.54037" lon="6.91083">
        <ele>1456.0796732339</ele>
        <time>2022-01-20T16:59:44.489Z</time>
      </trkpt>
      <trkpt lat="45.54027" lon="6.91083">
        <ele>1457.3174342141</ele>
        <time>2022-01-20T16:59:47.212Z</time>
      </trkpt>
      <trkpt lat="45.5402" lon="6.91085">
        <ele>1458.5733605429</ele>
        <time>2022-01-20T16:59:49.936Z</time>
      </trkpt>
      <trkpt lat="45.53997" lon="6.91098">
        <ele>1459.8840750794</ele>
        <time>2022-01-20T16:59:52.664Z</time>
      </trkpt>
      <trkpt lat="45.53978" lon="6.91114">
        <ele>1461.2963203848</ele>
        <time>2022-01-20T16:59:55.395Z</time>
      </trkpt>
      <trkpt lat="45.53942" lon="6.91137">
        <ele>1462.6553751214</ele>
        <time>2022-01-20T16:59:58.133Z</time>
      </trkpt>
      <trkpt lat="45.53919" lon="6.91147">
        <ele>1464.0813080043</ele>
        <time>2022-01-20T17:00:00.874Z</time>
      </trkpt>
      <trkpt lat="45.53908" lon="6.9115">
        <ele>1465.4529729156</ele>
        <time>2022-01-20T17:00:03.617Z</time>
      </trkpt>
      <trkpt lat="45.53861" lon="6.91147">
        <ele>1466.4986963222</ele>
        <time>2022-01-20T17:00:06.368Z</time>
      </trkpt>
      <trkpt lat="45.53834" lon="6.91152">
        <ele>1468.1666298257</ele>
        <time>2022-01-20T17:00:09.123Z</time>
      </trkpt>
      <trkpt lat="45.53804" lon="6.91166">
        <ele>1469.7695506143</ele>
        <time>2022-01-20T17:00:11.883Z</time>
      </trkpt>
      <trkpt lat="45.53778" lon="6.91188">
        <ele>1471.3454153462</ele>
        <time>2022-01-20T17:00:14.648Z</time>
      </trkpt>
      <trkpt lat="45.53763" lon="6.91208">
        <ele>1472.9418678266</ele>
        <time>2022-01-20T17:00:17.416Z</time>
      </trkpt>
      <trkpt lat="45.53733" lon="6.91241">
        <ele>1474.4794085705</ele>
        <time>2022-01-20T17:00:20.190Z</time>
      </trkpt>
      <trkpt lat="45.53687" lon="6.91307">
        <ele>1476.2651684224</ele>
        <time>2022-01-20T17:00:22.975Z</time>
      </trkpt>
      <trkpt lat="45.53681" lon="6.91322">
        <ele>1478.0230218049</ele>
        <time>2022-01-20T17:00:25.762Z</time>
      </trkpt>
      <trkpt lat="45.53659" lon="6.91405">
        <ele>1479.7981373065</ele>
        <time>2022-01-20T17:00:28.559Z</time>
      </trkpt>
      <trkpt lat="45.53651" lon="6.9142">
        <ele>1481.6832132223</ele>
        <time>2022-01-20T17:00:31.358Z</time>
      </trkpt>
      <trkpt lat="45.53639" lon="6.91432">
        <ele>1483.5804626509</ele>
        <time>2022-01-20T17:00:34.159Z</time>
      </trkpt>
      <trkpt lat="45.53626" lon="6.91438">
        <ele>1485.6360592331</ele>
        <time>2022-01-20T17:00:36.962Z</time>
      </trkpt>
      <trkpt lat="45.53591" lon="6.91429">
        <ele>1487.5893830896</ele>
        <time>2022-01-20T17:00:39.771Z</time>
      </trkpt>
      <trkpt lat="45.53569" lon="6.91429">
        <ele>1489.4964678937</ele>
        <time>2022-01-20T17:00:42.584Z</time>
      </trkpt>
      <trkpt lat="45.53542" lon="6.91447">
        <ele>1491.7309162357</ele>
        <time>2022-01-20T17:00:45.401Z</time>
      </trkpt>
      <trkpt lat="45.53525" lon="6.91453">
        <ele>1493.8534182657</ele>
        <time>2022-01-20T17:00:48.221Z</time>
      </trkpt>
      <trkpt lat="45.53513" lon="6.91456">
        <ele>1495.9827710775</ele>
        <time>2022-01-20T17:00:51.043Z</time>
      </trkpt>
      <trkpt lat="45.53476" lon="6.91456">
        <ele>1498.0974343335</ele>
        <time>2022-01-20T17:00:53.871Z</time>
      </trkpt>
      <trkpt lat="45.5344" lon="6.91468">
        <ele>1500.292287385</ele>
        <time>2022-01-20T17:00:56.705Z</time>
      </trkpt>
      <trkpt lat="45.53401" lon="6.91486">
        <ele>1502.753143849</ele>
        <time>2022-01-20T17:00:59.545Z</time>
      </trkpt>
      <trkpt lat="45.53381" lon="6.91492">
        <ele>1505.1866175334</ele>
        <time>2022-01-20T17:01:02.389Z</time>
      </trkpt>
      <trkpt lat="45.53356" lon="6.91497">
        <ele>1507.6064887461</ele>
        <time>2022-01-20T17:01:05.237Z</time>
      </trkpt>
      <trkpt lat="45.53315" lon="6.91496">
        <ele>1509.6974411501</ele>
        <time>2022-01-20T17:01:08.091Z</time>
      </trkpt>
      <trkpt lat="45.53291" lon="6.915">
        <ele>1511.9215644367</ele>
        <time>2022-01-20T17:01:10.949Z</time>
      </trkpt>
      <trkpt lat="45.5323" lon="6.91518">
        <ele>1513.9456393099</ele>
        <time>2022-01-20T17:01:13.817Z</time>
      </trkpt>
      <trkpt lat="45.53212" lon="6.91526">
        <ele>1516.0775274582</ele>
        <time>2022-01-20T17:01:16.688Z</time>
      </trkpt>
      <trkpt lat="45.53201" lon="6.91536">
        <ele>1518.2782287737</ele>
        <time>2022-01-20T17:01:19.561Z</time>
      </trkpt>
      <trkpt lat="45.53193" lon="6.91547">
        <ele>1520.4283704343</ele>
        <time>2022-01-20T17:01:22.436Z</time>
      </trkpt>
      <trkpt lat="45.53183" lon="6.9158">
        <ele>1522.7484783538</ele>
        <time>2022-01-20T17:01:25.315Z</time>
      </trkpt>
      <trkpt lat="45.53178" lon="6.9159">
        <ele>1524.6755825329</ele>
        <time>2022-01-20T17:01:28.196Z</time>
      </trkpt>
      <trkpt lat="45.5317" lon="6.91595">
        <ele>1526.4044536181</ele>
        <time>2022-01-20T17:01:31.078Z</time>
      </trkpt>
      <trkpt lat="45.5316" lon="6.91597">
        <ele>1528.106799646</ele>
        <time>2022-01-20T17:01:33.962Z</time>
      </trkpt>
      <trkpt lat="45.53153" lon="6.91593">
        <ele>1529.6071339384</ele>
        <time>2022-01-20T17:01:36.847Z</time>
      </trkpt>
      <trkpt lat="45.53148" lon="6.91586">
        <ele>1530.9246395807</ele>
        <time>2022-01-20T17:01:39.733Z</time>
      </trkpt>
      <trkpt lat="45.53108" lon="6.9152">
        <ele>1531.6487638521</ele>
        <time>2022-01-20T17:01:42.629Z</time>
      </trkpt>
      <trkpt lat="45.53088" lon="6.91502">
        <ele>1533.0355122955</ele>
        <time>2022-01-20T17:01:45.528Z</time>
      </trkpt>
      <trkpt lat="45.53073" lon="6.91492">
        <ele>1534.3027353193</ele>
        <time>2022-01-20T17:01:48.430Z</time>
      </trkpt>
      <trkpt lat="45.53041" lon="6.91481">
        <ele>1535.7019753285</ele>
        <time>2022-01-20T17:01:51.337Z</time>
      </trkpt>
      <trkpt lat="45.5301" lon="6.91465">
        <ele>1536.9194558769</ele>
        <time>2022-01-20T17:01:54.250Z</time>
      </trkpt>
      <trkpt lat="45.52999" lon="6.91454">
        <ele>1538.0595808612</ele>
        <time>2022-01-20T17:01:57.165Z</time>
      </trkpt>
      <trkpt lat="45.52981" lon="6.91426">
        <ele>1539.1659149456</ele>
        <time>2022-01-20T17:02:00.084Z</time>
      </trkpt>
      <trkpt lat="45.52958" lon="6.91401">
        <ele>1540.610464358</ele>
        <time>2022-01-20T17:02:03.008Z</time>
      </trkpt>
      <trkpt lat="45.52939" lon="6.91384">
        <ele>1542.0347116684</ele>
        <time>2022-01-20T17:02:05.935Z</time>
      </trkpt>
      <trkpt lat="45.52919" lon="6.91371">
        <ele>1543.5055136951</ele>
        <time>2022-01-20T17:02:08.866Z</time>
      </trkpt>
      <trkpt lat="45.52893" lon="6.91362">
        <ele>1545.0336051926</ele>
        <time>2022-01-20T17:02:11.801Z</time>
      </trkpt>
      <trkpt lat="45.52866" lon="6.91358">
        <ele>1546.6053102793</ele>
        <time>2022-01-20T17:02:14.740Z</time>
      </trkpt>
      <trkpt lat="45.52847" lon="6.91352">
        <ele>1548.1085896761</ele>
        <time>2022-01-20T17:02:17.683Z</time>
      </trkpt>
      <trkpt lat="45.52812" lon="6.91336">
        <ele>1549.7275869674</ele>
        <time>2022-01-20T17:02:20.631Z</time>
      </trkpt>
      <trkpt lat="45.52748" lon="6.91319">
        <ele>1551.3985735831</ele>
        <time>2022-01-20T17:02:23.590Z</time>
      </trkpt>
      <trkpt lat="45.52689" lon="6.91301">
        <ele>1552.5217419192</ele>
        <time>2022-01-20T17:02:26.559Z</time>
      </trkpt>
      <trkpt lat="45.52671" lon="6.91293">
        <ele>1553.6884281418</ele>
        <time>2022-01-20T17:02:29.531Z</time>
      </trkpt>
      <trkpt lat="45.52634" lon="6.91273">
        <ele>1554.6586644942</ele>
        <time>2022-01-20T17:02:32.509Z</time>
      </trkpt>
      <trkpt lat="45.52613" lon="6.9127">
        <ele>1555.6466876465</ele>
        <time>2022-01-20T17:02:35.490Z</time>
      </trkpt>
      <trkpt lat="45.52592" lon="6.91272">
        <ele>1556.5695488716</ele>
        <time>2022-01-20T17:02:38.475Z</time>
      </trkpt>
      <trkpt lat="45.52552" lon="6.91267">
        <ele>1557.3915099826</ele>
        <time>2022-01-20T17:02:41.466Z</time>
      </trkpt>
      <trkpt lat="45.52515" lon="6.91268">
        <ele>1557.9041014061</ele>
        <time>2022-01-20T17:02:44.463Z</time>
      </trkpt>
      <trkpt lat="45.52497" lon="6.91264">
        <ele>1558.2914111561</ele>
        <time>2022-01-20T17:02:47.463Z</time>
      </trkpt>
      <trkpt lat="45.52459" lon="6.91267">
        <ele>1558.5480809806</ele>
        <time>2022-01-20T17:02:50.469Z</time>
      </trkpt>
      <trkpt lat="45.52442" lon="6.91272">
        <ele>1558.8374656325</ele>
        <time>2022-01-20T17:02:53.478Z</time>
      </trkpt>
      <trkpt lat="45.52442" lon="6.91272">
        <ele>1559.0561648266</ele>
        <time>2022-01-20T17:02:56.487Z</time>
      </trkpt>
      <trkpt lat="45.52422" lon="6.91281">
        <ele>1559.2199764576</ele>
        <time>2022-01-20T17:02:59.499Z</time>
      </trkpt>
      <trkpt lat="45.5236" lon="6.91313">
        <ele>1559.240934069</ele>
        <time>2022-01-20T17:03:02.522Z</time>
      </trkpt>
      <trkpt lat="45.52339" lon="6.91332">
        <ele>1559.4081601663</ele>
        <time>2022-01-20T17:03:05.549Z</time>
      </trkpt>
      <trkpt lat="45.52319" lon="6.91347">
        <ele>1559.6567060251</ele>
        <time>2022-01-20T17:03:08.579Z</time>
      </trkpt>
      <trkpt lat="45.523" lon="6.91357">
        <ele>1559.8116656758</ele>
        <time>2022-01-20T17:03:11.613Z</time>
      </trkpt>
      <trkpt lat="45.52281" lon="6.91365">
        <ele>1559.9360879629</ele>
        <time>2022-01-20T17:03:14.650Z</time>
      </trkpt>
      <trkpt lat="45.52245" lon="6.91375">
        <ele>1559.8667309518</ele>
        <time>2022-01-20T17:03:17.693Z</time>
      </trkpt>
      <trkpt lat="45.52205" lon="6.91394">
        <ele>1560.0952978068</ele>
        <time>2022-01-20T17:03:20.742Z</time>
      </trkpt>
      <trkpt lat="45.5217" lon="6.91393">
        <ele>1560.040764582</ele>
        <time>2022-01-20T17:03:23.797Z</time>
      </trkpt>
      <trkpt lat="45.5215" lon="6.91382">
        <ele>1560.1656861053</ele>
        <time>2022-01-20T17:03:26.855Z</time>
      </trkpt>
      <trkpt lat="45.52141" lon="6.91375">
        <ele>1560.3523000995</ele>
        <time>2022-01-20T17:03:29.915Z</time>
      </trkpt>
      <trkpt lat="45.5213" lon="6.91363">
        <ele>1560.5850026371</ele>
        <time>2022-01-20T17:03:32.977Z</time>
      </trkpt>
      <trkpt lat="45.52108" lon="6.91333">
        <ele>1560.795538863</ele>
        <time>2022-01-20T17:03:36.044Z</time>
      </trkpt>
      <trkpt lat="45.52095" lon="6.91325">
        <ele>1561.3306881244</ele>
        <time>2022-01-20T17:03:39.113Z</time>
      </trkpt>
      <trkpt lat="45.5208" lon="6.91322">
        <ele>1562.0983692487</ele>
        <time>2022-01-20T17:03:42.185Z</time>
      </trkpt>
      <trkpt lat="45.52062" lon="6.91324">
        <ele>1563.0208353615</ele>
        <time>2022-01-20T17:03:45.260Z</time>
      </trkpt>
      <trkpt lat="45.52046" lon="6.9133">
        <ele>1564.1908948453</ele>
        <time>2022-01-20T17:03:48.337Z</time>
      </trkpt>
      <trkpt lat="45.52032" lon="6.91343">
        <ele>1565.6774389899</ele>
        <time>2022-01-20T17:03:51.417Z</time>
      </trkpt>
      <trkpt lat="45.52008" lon="6.91386">
        <ele>1567.4057824653</ele>
        <time>2022-01-20T17:03:54.503Z</time>
      </trkpt>
      <trkpt lat="45.51996" lon="6.91404">
        <ele>1569.2189397718</ele>
        <time>2022-01-20T17:03:57.592Z</time>
      </trkpt>
      <trkpt lat="45.5198" lon="6.91424">
        <ele>1571.3611960419</ele>
        <time>2022-01-20T17:04:00.684Z</time>
      </trkpt>
      <trkpt lat="45.51946" lon="6.91456">
        <ele>1573.7222469366</ele>
        <time>2022-01-20T17:04:03.783Z</time>
      </trkpt>
      <trkpt lat="45.5189" lon="6.91497">
        <ele>1576.1647064103</ele>
        <time>2022-01-20T17:04:06.892Z</time>
      </trkpt>
      <trkpt lat="45.51808" lon="6.91529">
        <ele>1579.1545673442</ele>
        <time>2022-01-20T17:04:10.015Z</time>
      </trkpt>
      <trkpt lat="45.51781" lon="6.91545">
        <ele>1581.9397576098</ele>
        <time>2022-01-20T17:04:13.142Z</time>
      </trkpt>
      <trkpt lat="45.51766" lon="6.91562">
        <ele>1584.6925495061</ele>
        <time>2022-01-20T17:04:16.272Z</time>
      </trkpt>
      <trkpt lat="45.51752" lon="6.91582">
        <ele>1587.5827822857</ele>
        <time>2022-01-20T17:04:19.405Z</time>
      </trkpt>
      <trkpt lat="45.51736" lon="6.91601">
        <ele>1590.6840442098</ele>
        <time>2022-01-20T17:04:22.542Z</time>
      </trkpt>
      <trkpt lat="45.51721" lon="6.91616">
        <ele>1593.942065638</ele>
        <time>2022-01-20T17:04:25.682Z</time>
      </trkpt>
      <trkpt lat="45.51709" lon="6.91622">
        <ele>1597.2119053708</ele>
        <time>2022-01-20T17:04:28.824Z</time>
      </trkpt>
      <trkpt lat="45.51679" lon="6.91627">
        <ele>1600.7357752378</ele>
        <time>2022-01-20T17:04:31.971Z</time>
      </trkpt>
      <trkpt lat="45.51643" lon="6.91631">
        <ele>1604.2188691957</ele>
        <time>2022-01-20T17:04:35.123Z</time>
      </trkpt>
      <trkpt lat="45.51627" lon="6.91631">
        <ele>1607.8775296268</ele>
        <time>2022-01-20T17:04:38.278Z</time>
      </trkpt>
      <trkpt lat="45.51606" lon="6.91635">
        <ele>1611.7366432432</ele>
        <time>2022-01-20T17:04:41.436Z</time>
      </trkpt>
      <trkpt lat="45.51513" lon="6.91667">
        <ele>1615.9795608887</ele>
        <time>2022-01-20T17:04:44.610Z</time>
      </trkpt>
      <trkpt lat="45.51486" lon="6.91678">
        <ele>1620.1057920835</ele>
        <time>2022-01-20T17:04:47.788Z</time>
      </trkpt>
      <trkpt lat="45.51459" lon="6.91693">
        <ele>1624.3084621747</ele>
        <time>2022-01-20T17:04:50.971Z</time>
      </trkpt>
      <trkpt lat="45.51432" lon="6.91711">
        <ele>1628.6909699931</ele>
        <time>2022-01-20T17:04:54.159Z</time>
      </trkpt>
      <trkpt lat="45.51397" lon="6.9174">
        <ele>1633.2598341289</ele>
        <time>2022-01-20T17:04:57.353Z</time>
      </trkpt>
      <trkpt lat="45.51383" lon="6.91756">
        <ele>1637.7209267636</ele>
        <time>2022-01-20T17:05:00.550Z</time>
      </trkpt>
      <trkpt lat="45.51285" lon="6.91891">
        <ele>1642.3249812251</ele>
        <time>2022-01-20T17:05:03.769Z</time>
      </trkpt>
      <trkpt lat="45.51204" lon="6.91995">
        <ele>1647.3571691788</ele>
        <time>2022-01-20T17:05:07.005Z</time>
      </trkpt>
      <trkpt lat="45.51158" lon="6.92047">
        <ele>1651.8439471486</ele>
        <time>2022-01-20T17:05:10.251Z</time>
      </trkpt>
      <trkpt lat="45.51108" lon="6.92115">
        <ele>1656.4160875767</ele>
        <time>2022-01-20T17:05:13.508Z</time>
      </trkpt>
      <trkpt lat="45.51065" lon="6.92183">
        <ele>1661.1143830636</ele>
        <time>2022-01-20T17:05:16.775Z</time>
      </trkpt>
      <trkpt lat="45.5104" lon="6.92231">
        <ele>1665.6567942191</ele>
        <time>2022-01-20T17:05:20.049Z</time>
      </trkpt>
      <trkpt lat="45.5102" lon="6.92276">
        <ele>1670.0660248663</ele>
        <time>2022-01-20T17:05:23.329Z</time>
      </trkpt>
      <trkpt lat="45.51004" lon="6.92322">
        <ele>1674.5800500567</ele>
        <time>2022-01-20T17:05:26.614Z</time>
      </trkpt>
      <trkpt lat="45.50986" lon="6.92363">
        <ele>1679.013684593</ele>
        <time>2022-01-20T17:05:29.905Z</time>
      </trkpt>
      <trkpt lat="45.50963" lon="6.924">
        <ele>1683.079278219</ele>
        <time>2022-01-20T17:05:33.201Z</time>
      </trkpt>
      <trkpt lat="45.50946" lon="6.9242">
        <ele>1686.8952333201</ele>
        <time>2022-01-20T17:05:36.501Z</time>
      </trkpt>
      <trkpt lat="45.50923" lon="6.92443">
        <ele>1690.6669122732</ele>
        <time>2022-01-20T17:05:39.806Z</time>
      </trkpt>
      <trkpt lat="45.50898" lon="6.92465">
        <ele>1694.4408186628</ele>
        <time>2022-01-20T17:05:43.115Z</time>
      </trkpt>
      <trkpt lat="45.50866" lon="6.92477">
        <ele>1697.9895629619</ele>
        <time>2022-01-20T17:05:46.430Z</time>
      </trkpt>
      <trkpt lat="45.50838" lon="6.92491">
        <ele>1701.8933633383</ele>
        <time>2022-01-20T17:05:49.749Z</time>
      </trkpt>
      <trkpt lat="45.50781" lon="6.92515">
        <ele>1705.4438093234</ele>
        <time>2022-01-20T17:05:53.078Z</time>
      </trkpt>
      <trkpt lat="45.50756" lon="6.9253">
        <ele>1709.004106222</ele>
        <time>2022-01-20T17:05:56.411Z</time>
      </trkpt>
      <trkpt lat="45.50742" lon="6.92544">
        <ele>1712.5414799731</ele>
        <time>2022-01-20T17:05:59.747Z</time>
      </trkpt>
      <trkpt lat="45.50727" lon="6.92569">
        <ele>1716.1144075977</ele>
        <time>2022-01-20T17:06:03.087Z</time>
      </trkpt>
      <trkpt lat="45.50714" lon="6.92599">
        <ele>1719.5495937447</ele>
        <time>2022-01-20T17:06:06.431Z</time>
      </trkpt>
      <trkpt lat="45.50688" lon="6.92641">
        <ele>1722.8043998321</ele>
        <time>2022-01-20T17:06:09.781Z</time>
      </trkpt>
      <trkpt lat="45.50666" lon="6.92663">
        <ele>1726.1625942603</ele>
        <time>2022-01-20T17:06:13.135Z</time>
      </trkpt>
      <trkpt lat="45.50524" lon="6.92824">
        <ele>1729.3521345891</ele>
        <time>2022-01-20T17:06:16.518Z</time>
      </trkpt>
      <trkpt lat="45.50484" lon="6.92886">
        <ele>1732.7094359995</ele>
        <time>2022-01-20T17:06:19.911Z</time>
      </trkpt>
      <trkpt lat="45.50431" lon="6.92941">
        <ele>1735.4715041589</ele>
        <time>2022-01-20T17:06:23.314Z</time>
      </trkpt>
      <trkpt lat="45.50374" lon="6.92985">
        <ele>1738.2023685297</ele>
        <time>2022-01-20T17:06:26.728Z</time>
      </trkpt>
      <trkpt lat="45.50324" lon="6.93009">
        <ele>1741.0543907525</ele>
        <time>2022-01-20T17:06:30.150Z</time>
      </trkpt>
      <trkpt lat="45.50278" lon="6.93022">
        <ele>1744.0404903454</ele>
        <time>2022-01-20T17:06:33.579Z</time>
      </trkpt>
      <trkpt lat="45.50254" lon="6.93023">
        <ele>1746.7583139333</ele>
        <time>2022-01-20T17:06:37.012Z</time>
      </trkpt>
      <trkpt lat="45.50231" lon="6.93019">
        <ele>1749.3832528544</ele>
        <time>2022-01-20T17:06:40.449Z</time>
      </trkpt>
      <trkpt lat="45.50207" lon="6.93018">
        <ele>1751.8862631174</ele>
        <time>2022-01-20T17:06:43.890Z</time>
      </trkpt>
      <trkpt lat="45.50192" lon="6.93021">
        <ele>1754.3205897383</ele>
        <time>2022-01-20T17:06:47.333Z</time>
      </trkpt>
      <trkpt lat="45.5016" lon="6.93037">
        <ele>1756.6745978731</ele>
        <time>2022-01-20T17:06:50.782Z</time>
      </trkpt>
      <trkpt lat="45.5014" lon="6.9305">
        <ele>1759.0298363394</ele>
        <time>2022-01-20T17:06:54.234Z</time>
      </trkpt>
      <trkpt lat="45.50108" lon="6.93066">
        <ele>1761.7882989121</ele>
        <time>2022-01-20T17:06:57.692Z</time>
      </trkpt>
      <trkpt lat="45.50088" lon="6.93071">
        <ele>1764.2799801598</ele>
        <time>2022-01-20T17:07:01.153Z</time>
      </trkpt>
      <trkpt lat="45.50034" lon="6.93089">
        <ele>1766.6782350762</ele>
        <time>2022-01-20T17:07:04.623Z</time>
      </trkpt>
      <trkpt lat="45.50017" lon="6.931">
        <ele>1769.163329247</ele>
        <time>2022-01-20T17:07:08.096Z</time>
      </trkpt>
      <trkpt lat="45.49979" lon="6.93129">
        <ele>1771.8048282053</ele>
        <time>2022-01-20T17:07:11.576Z</time>
      </trkpt>
      <trkpt lat="45.49941" lon="6.93151">
        <ele>1774.4861288445</ele>
        <time>2022-01-20T17:07:15.062Z</time>
      </trkpt>
      <trkpt lat="45.49909" lon="6.93159">
        <ele>1776.8583874904</ele>
        <time>2022-01-20T17:07:18.553Z</time>
      </trkpt>
      <trkpt lat="45.49882" lon="6.93173">
        <ele>1779.3645107962</ele>
        <time>2022-01-20T17:07:22.049Z</time>
      </trkpt>
      <trkpt lat="45.49846" lon="6.93186">
        <ele>1781.8823057568</ele>
        <time>2022-01-20T17:07:25.551Z</time>
      </trkpt>
      <trkpt lat="45.49829" lon="6.93197">
        <ele>1784.3919955674</ele>
        <time>2022-01-20T17:07:29.056Z</time>
      </trkpt>
      <trkpt lat="45.49793" lon="6.93238">
        <ele>1787.4345560918</ele>
        <time>2022-01-20T17:07:32.568Z</time>
      </trkpt>
      <trkpt lat="45.49768" lon="6.93263">
        <ele>1790.3757343412</ele>
        <time>2022-01-20T17:07:36.085Z</time>
      </trkpt>
      <trkpt lat="45.49761" lon="6.93268">
        <ele>1793.0683140975</ele>
        <time>2022-01-20T17:07:39.604Z</time>
      </trkpt>
      <trkpt lat="45.49743" lon="6.93291">
        <ele>1795.8779696711</ele>
        <time>2022-01-20T17:07:43.126Z</time>
      </trkpt>
      <trkpt lat="45.49705" lon="6.93325">
        <ele>1798.8233924109</ele>
        <time>2022-01-20T17:07:46.656Z</time>
      </trkpt>
      <trkpt lat="45.49654" lon="6.93362">
        <ele>1801.7331321098</ele>
        <time>2022-01-20T17:07:50.195Z</time>
      </trkpt>
      <trkpt lat="45.49581" lon="6.93404">
        <ele>1803.883611636</ele>
        <time>2022-01-20T17:07:53.746Z</time>
      </trkpt>
      <trkpt lat="45.49561" lon="6.93421">
        <ele>1807.5857854349</ele>
        <time>2022-01-20T17:07:57.301Z</time>
      </trkpt>
      <trkpt lat="45.49542" lon="6.93448">
        <ele>1811.4103357015</ele>
        <time>2022-01-20T17:08:00.860Z</time>
      </trkpt>
      <trkpt lat="45.49518" lon="6.93506">
        <ele>1815.1727971935</ele>
        <time>2022-01-20T17:08:04.427Z</time>
      </trkpt>
      <trkpt lat="45.49504" lon="6.93529">
        <ele>1818.7486321066</ele>
        <time>2022-01-20T17:08:07.997Z</time>
      </trkpt>
      <trkpt lat="45.49473" lon="6.93573">
        <ele>1822.1220249965</ele>
        <time>2022-01-20T17:08:11.574Z</time>
      </trkpt>
      <trkpt lat="45.49393" lon="6.93675">
        <ele>1825.4893502265</ele>
        <time>2022-01-20T17:08:15.169Z</time>
      </trkpt>
      <trkpt lat="45.49379" lon="6.93697">
        <ele>1828.623364162</ele>
        <time>2022-01-20T17:08:18.767Z</time>
      </trkpt>
      <trkpt lat="45.49371" lon="6.93718">
        <ele>1831.7337805325</ele>
        <time>2022-01-20T17:08:22.368Z</time>
      </trkpt>
      <trkpt lat="45.49355" lon="6.93811">
        <ele>1835.4552821918</ele>
        <time>2022-01-20T17:08:25.979Z</time>
      </trkpt>
      <trkpt lat="45.49341" lon="6.93869">
        <ele>1838.6042995452</ele>
        <time>2022-01-20T17:08:29.597Z</time>
      </trkpt>
      <trkpt lat="45.49318" lon="6.93931">
        <ele>1841.5451221883</ele>
        <time>2022-01-20T17:08:33.223Z</time>
      </trkpt>
      <trkpt lat="45.49284" lon="6.93993">
        <ele>1843.7281015586</ele>
        <time>2022-01-20T17:08:36.858Z</time>
      </trkpt>
      <trkpt lat="45.49264" lon="6.9402">
        <ele>1844.8956249502</ele>
        <time>2022-01-20T17:08:40.497Z</time>
      </trkpt>
      <trkpt lat="45.49219" lon="6.94064">
        <ele>1845.4739533992</ele>
        <time>2022-01-20T17:08:44.145Z</time>
      </trkpt>
      <trkpt lat="45.49197" lon="6.94079">
        <ele>1845.0627495318</ele>
        <time>2022-01-20T17:08:47.797Z</time>
      </trkpt>
      <trkpt lat="45.49116" lon="6.94122">
        <ele>1842.9972385321</ele>
        <time>2022-01-20T17:08:51.463Z</time>
      </trkpt>
      <trkpt lat="45.49103" lon="6.94131">
        <ele>1841.9834889655</ele>
        <time>2022-01-20T17:08:55.131Z</time>
      </trkpt>
      <trkpt lat="45.49058" lon="6.94154">
        <ele>1840.3764777731</ele>
        <time>2022-01-20T17:08:58.807Z</time>
      </trkpt>
      <trkpt lat="45.49015" lon="6.9418">
        <ele>1838.7065489321</ele>
        <time>2022-01-20T17:09:02.490Z</time>
      </trkpt>
      <trkpt lat="45.48966" lon="6.94205">
        <ele>1836.7583123391</ele>
        <time>2022-01-20T17:09:06.182Z</time>
      </trkpt>
      <trkpt lat="45.48936" lon="6.94224">
        <ele>1834.7987791061</ele>
        <time>2022-01-20T17:09:09.879Z</time>
      </trkpt>
      <trkpt lat="45.48869" lon="6.94261">
        <ele>1832.5131319214</ele>
        <time>2022-01-20T17:09:13.587Z</time>
      </trkpt>
      <trkpt lat="45.48815" lon="6.94289">
        <ele>1830.1783900764</ele>
        <time>2022-01-20T17:09:17.305Z</time>
      </trkpt>
      <trkpt lat="45.48699" lon="6.94337">
        <ele>1827.3940663575</ele>
        <time>2022-01-20T17:09:21.042Z</time>
      </trkpt>
      <trkpt lat="45.48671" lon="6.94356">
        <ele>1825.1733606242</ele>
        <time>2022-01-20T17:09:24.784Z</time>
      </trkpt>
      <trkpt lat="45.48649" lon="6.94368">
        <ele>1823.0427387082</ele>
        <time>2022-01-20T17:09:28.530Z</time>
      </trkpt>
      <trkpt lat="45.48608" lon="6.94397">
        <ele>1821.1808930609</ele>
        <time>2022-01-20T17:09:32.283Z</time>
      </trkpt>
      <trkpt lat="45.48483" lon="6.94479">
        <ele>1819.3035485807</ele>
        <time>2022-01-20T17:09:36.058Z</time>
      </trkpt>
      <trkpt lat="45.48441" lon="6.945">
        <ele>1817.1941097774</ele>
        <time>2022-01-20T17:09:39.840Z</time>
      </trkpt>
      <trkpt lat="45.48419" lon="6.94506">
        <ele>1815.3873128724</ele>
        <time>2022-01-20T17:09:43.626Z</time>
      </trkpt>
      <trkpt lat="45.4833" lon="6.94521">
        <ele>1814.1211883462</ele>
        <time>2022-01-20T17:09:47.426Z</time>
      </trkpt>
      <trkpt lat="45.48252" lon="6.94539">
        <ele>1812.0852809271</ele>
        <time>2022-01-20T17:09:51.239Z</time>
      </trkpt>
      <trkpt lat="45.48225" lon="6.94548">
        <ele>1810.3378700355</ele>
        <time>2022-01-20T17:09:55.056Z</time>
      </trkpt>
      <trkpt lat="45.48173" lon="6.94573">
        <ele>1808.7282030909</ele>
        <time>2022-01-20T17:09:58.882Z</time>
      </trkpt>
      <trkpt lat="45.48057" lon="6.94633">
        <ele>1807.3492735594</ele>
        <time>2022-01-20T17:10:02.728Z</time>
      </trkpt>
      <trkpt lat="45.48039" lon="6.94647">
        <ele>1805.8965011743</ele>
        <time>2022-01-20T17:10:06.577Z</time>
      </trkpt>
      <trkpt lat="45.4801" lon="6.94679">
        <ele>1804.4294820766</ele>
        <time>2022-01-20T17:10:10.432Z</time>
      </trkpt>
      <trkpt lat="45.47995" lon="6.94703">
        <ele>1803.1950518497</ele>
        <time>2022-01-20T17:10:14.291Z</time>
      </trkpt>
      <trkpt lat="45.47984" lon="6.94726">
        <ele>1802.2856166368</ele>
        <time>2022-01-20T17:10:18.153Z</time>
      </trkpt>
      <trkpt lat="45.47961" lon="6.94786">
        <ele>1801.6130084922</ele>
        <time>2022-01-20T17:10:22.022Z</time>
      </trkpt>
      <trkpt lat="45.47908" lon="6.94866">
        <ele>1800.4329317401</ele>
        <time>2022-01-20T17:10:25.904Z</time>
      </trkpt>
      <trkpt lat="45.47881" lon="6.94901">
        <ele>1799.6426279909</ele>
        <time>2022-01-20T17:10:29.792Z</time>
      </trkpt>
      <trkpt lat="45.47855" lon="6.94932">
        <ele>1798.9395020118</ele>
        <time>2022-01-20T17:10:33.685Z</time>
      </trkpt>
      <trkpt lat="45.47838" lon="6.94948">
        <ele>1798.1867385331</ele>
        <time>2022-01-20T17:10:37.581Z</time>
      </trkpt>
      <trkpt lat="45.47741" lon="6.9503">
        <ele>1797.6588484943</ele>
        <time>2022-01-20T17:10:41.495Z</time>
      </trkpt>
      <trkpt lat="45.4773" lon="6.95035">
        <ele>1796.9772022052</ele>
        <time>2022-01-20T17:10:45.411Z</time>
      </trkpt>
      <trkpt lat="45.47715" lon="6.95034">
        <ele>1796.3161240348</ele>
        <time>2022-01-20T17:10:49.330Z</time>
      </trkpt>
      <trkpt lat="45.47708" lon="6.95032">
        <ele>1795.7251170498</ele>
        <time>2022-01-20T17:10:53.250Z</time>
      </trkpt>
      <trkpt lat="45.47698" lon="6.95026">
        <ele>1795.1660626008</ele>
        <time>2022-01-20T17:10:57.171Z</time>
      </trkpt>
      <trkpt lat="45.47692" lon="6.95017">
        <ele>1794.6530594888</ele>
        <time>2022-01-20T17:11:01.094Z</time>
      </trkpt>
      <trkpt lat="45.47688" lon="6.95007">
        <ele>1794.1979515754</ele>
        <time>2022-01-20T17:11:05.018Z</time>
      </trkpt>
      <trkpt lat="45.4767" lon="6.94954">
        <ele>1793.66605258</ele>
        <time>2022-01-20T17:11:08.949Z</time>
      </trkpt>
      <trkpt lat="45.47659" lon="6.94935">
        <ele>1793.345679195</ele>
        <time>2022-01-20T17:11:12.883Z</time>
      </trkpt>
      <trkpt lat="45.47651" lon="6.94928">
        <ele>1793.207803143</ele>
        <time>2022-01-20T17:11:16.818Z</time>
      </trkpt>
      <trkpt lat="45.47627" lon="6.94918">
        <ele>1793.2290202367</ele>
        <time>2022-01-20T17:11:20.757Z</time>
      </trkpt>
      <trkpt lat="45.47603" lon="6.94914">
        <ele>1793.4196918875</ele>
        <time>2022-01-20T17:11:24.700Z</time>
      </trkpt>
      <trkpt lat="45.47555" lon="6.94914">
        <ele>1793.7786225822</ele>
        <time>2022-01-20T17:11:28.651Z</time>
      </trkpt>
      <trkpt lat="45.47521" lon="6.94918">
        <ele>1794.5263070481</ele>
        <time>2022-01-20T17:11:32.607Z</time>
      </trkpt>
      <trkpt lat="45.47511" lon="6.94913">
        <ele>1795.2973513637</ele>
        <time>2022-01-20T17:11:36.565Z</time>
      </trkpt>
      <trkpt lat="45.47499" lon="6.94902">
        <ele>1796.2157383694</ele>
        <time>2022-01-20T17:11:40.525Z</time>
      </trkpt>
      <trkpt lat="45.47475" lon="6.94867">
        <ele>1797.279094634</ele>
        <time>2022-01-20T17:11:44.491Z</time>
      </trkpt>
      <trkpt lat="45.47462" lon="6.94857">
        <ele>1798.7381945561</ele>
        <time>2022-01-20T17:11:48.459Z</time>
      </trkpt>
      <trkpt lat="45.47452" lon="6.94852">
        <ele>1800.4276686367</ele>
        <time>2022-01-20T17:11:52.429Z</time>
      </trkpt>
      <trkpt lat="45.47439" lon="6.94853">
        <ele>1802.3132537716</ele>
        <time>2022-01-20T17:11:56.401Z</time>
      </trkpt>
      <trkpt lat="45.47429" lon="6.94856">
        <ele>1804.3590685885</ele>
        <time>2022-01-20T17:12:00.374Z</time>
      </trkpt>
      <trkpt lat="45.47419" lon="6.94864">
        <ele>1806.7651265741</ele>
        <time>2022-01-20T17:12:04.349Z</time>
      </trkpt>
      <trkpt lat="45.47407" lon="6.94878">
        <ele>1809.3698435147</ele>
        <time>2022-01-20T17:12:08.327Z</time>
      </trkpt>
      <trkpt lat="45.474" lon="6.94894">
        <ele>1812.3128611254</ele>
        <time>2022-01-20T17:12:12.307Z</time>
      </trkpt>
      <trkpt lat="45.47395" lon="6.94912">
        <ele>1815.4972523794</ele>
        <time>2022-01-20T17:12:16.289Z</time>
      </trkpt>
      <trkpt lat="45.47368" lon="6.95082">
        <ele>1820.5154326328</ele>
        <time>2022-01-20T17:12:20.291Z</time>
      </trkpt>
      <trkpt lat="45.47357" lon="6.95123">
        <ele>1824.4192567355</ele>
        <time>2022-01-20T17:12:24.298Z</time>
      </trkpt>
      <trkpt lat="45.47345" lon="6.95157">
        <ele>1827.4426613623</ele>
        <time>2022-01-20T17:12:28.309Z</time>
      </trkpt>
      <trkpt lat="45.47323" lon="6.95201">
        <ele>1829.7575337815</ele>
        <time>2022-01-20T17:12:32.326Z</time>
      </trkpt>
      <trkpt lat="45.47308" lon="6.95227">
        <ele>1832.1323774797</ele>
        <time>2022-01-20T17:12:36.347Z</time>
      </trkpt>
      <trkpt lat="45.47291" lon="6.95249">
        <ele>1834.338462362</ele>
        <time>2022-01-20T17:12:40.371Z</time>
      </trkpt>
      <trkpt lat="45.47234" lon="6.9531">
        <ele>1835.8949005557</ele>
        <time>2022-01-20T17:12:44.407Z</time>
      </trkpt>
      <trkpt lat="45.47217" lon="6.95332">
        <ele>1838.1638730187</ele>
        <time>2022-01-20T17:12:48.446Z</time>
      </trkpt>
      <trkpt lat="45.47202" lon="6.95356">
        <ele>1840.248088232</ele>
        <time>2022-01-20T17:12:52.489Z</time>
      </trkpt>
      <trkpt lat="45.47186" lon="6.95411">
        <ele>1842.5438765632</ele>
        <time>2022-01-20T17:12:56.539Z</time>
      </trkpt>
      <trkpt lat="45.47178" lon="6.95449">
        <ele>1844.7653145146</ele>
        <time>2022-01-20T17:13:00.593Z</time>
      </trkpt>
      <trkpt lat="45.47177" lon="6.95462">
        <ele>1846.6012188429</ele>
        <time>2022-01-20T17:13:04.649Z</time>
      </trkpt>
      <trkpt lat="45.47154" lon="6.95589">
        <ele>1848.959164247</ele>
        <time>2022-01-20T17:13:08.719Z</time>
      </trkpt>
      <trkpt lat="45.47148" lon="6.95612">
        <ele>1850.1976892673</ele>
        <time>2022-01-20T17:13:12.792Z</time>
      </trkpt>
      <trkpt lat="45.47137" lon="6.95639">
        <ele>1851.1510222669</ele>
        <time>2022-01-20T17:13:16.869Z</time>
      </trkpt>
      <trkpt lat="45.47118" lon="6.95674">
        <ele>1851.7030393802</ele>
        <time>2022-01-20T17:13:20.951Z</time>
      </trkpt>
      <trkpt lat="45.47088" lon="6.95715">
        <ele>1851.7962859297</ele>
        <time>2022-01-20T17:13:25.039Z</time>
      </trkpt>
      <trkpt lat="45.47051" lon="6.95749">
        <ele>1850.9320133393</ele>
        <time>2022-01-20T17:13:29.134Z</time>
      </trkpt>
      <trkpt lat="45.46999" lon="6.95792">
        <ele>1850.0405710513</ele>
        <time>2022-01-20T17:13:33.239Z</time>
      </trkpt>
      <trkpt lat="45.46975" lon="6.95816">
        <ele>1848.4871354978</ele>
        <time>2022-01-20T17:13:37.349Z</time>
      </trkpt>
      <trkpt lat="45.46958" lon="6.95842">
        <ele>1847.0974909766</ele>
        <time>2022-01-20T17:13:41.463Z</time>
      </trkpt>
      <trkpt lat="45.46948" lon="6.95865">
        <ele>1845.6463701891</ele>
        <time>2022-01-20T17:13:45.580Z</time>
      </trkpt>
      <trkpt lat="45.46926" lon="6.95926">
        <ele>1844.650252925</ele>
        <time>2022-01-20T17:13:49.705Z</time>
      </trkpt>
      <trkpt lat="45.46913" lon="6.95948">
        <ele>1842.6174395874</ele>
        <time>2022-01-20T17:13:53.833Z</time>
      </trkpt>
      <trkpt lat="45.46885" lon="6.95968">
        <ele>1839.880313712</ele>
        <time>2022-01-20T17:13:57.966Z</time>
      </trkpt>
      <trkpt lat="45.46865" lon="6.95971">
        <ele>1836.4032388539</ele>
        <time>2022-01-20T17:14:02.102Z</time>
      </trkpt>
      <trkpt lat="45.46747" lon="6.95951">
        <ele>1832.0994585937</ele>
        <time>2022-01-20T17:14:06.257Z</time>
      </trkpt>
      <trkpt lat="45.46729" lon="6.95953">
        <ele>1828.8409693317</ele>
        <time>2022-01-20T17:14:10.415Z</time>
      </trkpt>
      <trkpt lat="45.46711" lon="6.95962">
        <ele>1825.6575314204</ele>
        <time>2022-01-20T17:14:14.576Z</time>
      </trkpt>
      <trkpt lat="45.46697" lon="6.95972">
        <ele>1822.5872012023</ele>
        <time>2022-01-20T17:14:18.739Z</time>
      </trkpt>
      <trkpt lat="45.46658" lon="6.96013">
        <ele>1819.7055277665</ele>
        <time>2022-01-20T17:14:22.910Z</time>
      </trkpt>
      <trkpt lat="45.46582" lon="6.96116">
        <ele>1817.2240705501</ele>
        <time>2022-01-20T17:14:27.098Z</time>
      </trkpt>
      <trkpt lat="45.46555" lon="6.96151">
        <ele>1814.6233391222</ele>
        <time>2022-01-20T17:14:31.292Z</time>
      </trkpt>
      <trkpt lat="45.4653" lon="6.9618">
        <ele>1811.9995301837</ele>
        <time>2022-01-20T17:14:35.491Z</time>
      </trkpt>
      <trkpt lat="45.46501" lon="6.96206">
        <ele>1809.5741530256</ele>
        <time>2022-01-20T17:14:39.696Z</time>
      </trkpt>
      <trkpt lat="45.46409" lon="6.96279">
        <ele>1807.623438519</ele>
        <time>2022-01-20T17:14:43.917Z</time>
      </trkpt>
      <trkpt lat="45.46393" lon="6.96295">
        <ele>1805.6987055224</ele>
        <time>2022-01-20T17:14:48.142Z</time>
      </trkpt>
      <trkpt lat="45.46373" lon="6.96319">
        <ele>1803.9753574402</ele>
        <time>2022-01-20T17:14:52.371Z</time>
      </trkpt>
      <trkpt lat="45.46337" lon="6.96369">
        <ele>1802.446796327</ele>
        <time>2022-01-20T17:14:56.608Z</time>
      </trkpt>
      <trkpt lat="45.46321" lon="6.96388">
        <ele>1801.0613692028</ele>
        <time>2022-01-20T17:15:00.848Z</time>
      </trkpt>
      <trkpt lat="45.46296" lon="6.96412">
        <ele>1799.8583861509</ele>
        <time>2022-01-20T17:15:05.093Z</time>
      </trkpt>
      <trkpt lat="45.46283" lon="6.96423">
        <ele>1798.8686059394</ele>
        <time>2022-01-20T17:15:09.340Z</time>
      </trkpt>
      <trkpt lat="45.46279" lon="6.96416">
        <ele>1798.0855427171</ele>
        <time>2022-01-20T17:15:13.588Z</time>
      </trkpt>
      <trkpt lat="45.46269" lon="6.96416">
        <ele>1797.4684951408</ele>
        <time>2022-01-20T17:15:17.838Z</time>
      </trkpt>
      <trkpt lat="45.46265" lon="6.96427">
        <ele>1796.9855839745</ele>
        <time>2022-01-20T17:15:22.089Z</time>
      </trkpt>
      <trkpt lat="45.46266" lon="6.96432">
        <ele>1796.6615113199</ele>
        <time>2022-01-20T17:15:26.341Z</time>
      </trkpt>
      <trkpt lat="45.4623" lon="6.96446">
        <ele>1796.4330058341</ele>
        <time>2022-01-20T17:15:30.599Z</time>
      </trkpt>
      <trkpt lat="45.46196" lon="6.96463">
        <ele>1796.367843542</ele>
        <time>2022-01-20T17:15:34.863Z</time>
      </trkpt>
      <trkpt lat="45.46154" lon="6.96485">
        <ele>1796.4746584266</ele>
        <time>2022-01-20T17:15:39.134Z</time>
      </trkpt>
      <trkpt lat="45.46124" lon="6.96503">
        <ele>1796.5954925171</ele>
        <time>2022-01-20T17:15:43.410Z</time>
      </trkpt>
      <trkpt lat="45.4603" lon="6.96577">
        <ele>1796.7357494795</ele>
        <time>2022-01-20T17:15:47.703Z</time>
      </trkpt>
      <trkpt lat="45.45991" lon="6.96602">
        <ele>1796.9125365082</ele>
        <time>2022-01-20T17:15:52.003Z</time>
      </trkpt>
      <trkpt lat="45.45971" lon="6.96621">
        <ele>1797.2304098096</ele>
        <time>2022-01-20T17:15:56.307Z</time>
      </trkpt>
      <trkpt lat="45.45966" lon="6.96618">
        <ele>1797.5750926008</ele>
        <time>2022-01-20T17:16:00.612Z</time>
      </trkpt>
      <trkpt lat="45.45961" lon="6.9662">
        <ele>1797.9547778719</ele>
        <time>2022-01-20T17:16:04.918Z</time>
      </trkpt>
      <trkpt lat="45.45958" lon="6.96623">
        <ele>1798.3515763466</ele>
        <time>2022-01-20T17:16:09.224Z</time>
      </trkpt>
      <trkpt lat="45.45957" lon="6.96627">
        <ele>1798.7551572104</ele>
        <time>2022-01-20T17:16:13.531Z</time>
      </trkpt>
      <trkpt lat="45.45958" lon="6.96636">
        <ele>1799.1605324536</ele>
        <time>2022-01-20T17:16:17.839Z</time>
      </trkpt>
      <trkpt lat="45.45962" lon="6.9664">
        <ele>1799.5456444888</ele>
        <time>2022-01-20T17:16:22.148Z</time>
      </trkpt>
      <trkpt lat="45.45967" lon="6.9664">
        <ele>1799.9058641774</ele>
        <time>2022-01-20T17:16:26.457Z</time>
      </trkpt>
      <trkpt lat="45.4597" lon="6.96637">
        <ele>1800.2386740493</ele>
        <time>2022-01-20T17:16:30.767Z</time>
      </trkpt>
      <trkpt lat="45.45985" lon="6.96636">
        <ele>1800.5457248227</ele>
        <time>2022-01-20T17:16:35.079Z</time>
      </trkpt>
      <trkpt lat="45.45991" lon="6.96634">
        <ele>1800.8215196137</ele>
        <time>2022-01-20T17:16:39.392Z</time>
      </trkpt>
      <trkpt lat="45.46093" lon="6.96589">
        <ele>1801.2152259784</ele>
        <time>2022-01-20T17:16:43.722Z</time>
      </trkpt>
      <trkpt lat="45.46144" lon="6.96544">
        <ele>1801.4345155395</ele>
        <time>2022-01-20T17:16:48.062Z</time>
      </trkpt>
      <trkpt lat="45.46159" lon="6.96533">
        <ele>1801.5283069122</ele>
        <time>2022-01-20T17:16:52.405Z</time>
      </trkpt>
      <trkpt lat="45.46227" lon="6.96467">
        <ele>1801.4283648142</ele>
        <time>2022-01-20T17:16:56.761Z</time>
      </trkpt>
      <trkpt lat="45.4623" lon="6.9646">
        <ele>1801.4201123981</ele>
        <time>2022-01-20T17:17:01.118Z</time>
      </trkpt>
      <trkpt lat="45.4623" lon="6.96446">
        <ele>1796.4330058341</ele>
        <time>2022-01-20T17:17:05.476Z</time>
      </trkpt>
      <trkpt lat="45.46266" lon="6.96432">
        <ele>1796.6615113199</ele>
        <time>2022-01-20T17:17:09.840Z</time>
      </trkpt>
      <trkpt lat="45.46268" lon="6.96437">
        <ele>1801.268359717</ele>
        <time>2022-01-20T17:17:14.205Z</time>
      </trkpt>
      <trkpt lat="45.46271" lon="6.96439">
        <ele>1801.1442612232</ele>
        <time>2022-01-20T17:17:18.571Z</time>
      </trkpt>
      <trkpt lat="45.4628" lon="6.96438">
        <ele>1801.0116670429</ele>
        <time>2022-01-20T17:17:22.938Z</time>
      </trkpt>
      <trkpt lat="45.46282" lon="6.96436">
        <ele>1800.863024097</ele>
        <time>2022-01-20T17:17:27.305Z</time>
      </trkpt>
      <trkpt lat="45.46284" lon="6.96428">
        <ele>1800.6972023383</ele>
        <time>2022-01-20T17:17:31.673Z</time>
      </trkpt>
      <trkpt lat="45.46281" lon="6.96418">
        <ele>1800.5423516169</ele>
        <time>2022-01-20T17:17:36.043Z</time>
      </trkpt>
      <trkpt lat="45.46277" lon="6.96415">
        <ele>1800.3754218691</ele>
        <time>2022-01-20T17:17:40.413Z</time>
      </trkpt>
      <trkpt lat="45.46269" lon="6.96416">
        <ele>1797.4684951408</ele>
        <time>2022-01-20T17:17:44.785Z</time>
      </trkpt>
      <trkpt lat="45.46265" lon="6.96427">
        <ele>1796.9855839745</ele>
        <time>2022-01-20T17:17:49.158Z</time>
      </trkpt>
      <trkpt lat="45.46266" lon="6.96432">
        <ele>1796.6615113199</ele>
        <time>2022-01-20T17:17:53.532Z</time>
      </trkpt>
      <trkpt lat="45.4623" lon="6.96446">
        <ele>1796.4330058341</ele>
        <time>2022-01-20T17:17:57.912Z</time>
      </trkpt>
      <trkpt lat="45.46154" lon="6.96485">
        <ele>1796.4746584266</ele>
        <time>2022-01-20T17:18:02.304Z</time>
      </trkpt>
      <trkpt lat="45.46132" lon="6.96498">
        <ele>1800.2056986659</ele>
        <time>2022-01-20T17:18:06.700Z</time>
      </trkpt>
      <trkpt lat="45.4603" lon="6.96577">
        <ele>1796.7357494795</ele>
        <time>2022-01-20T17:18:11.115Z</time>
      </trkpt>
      <trkpt lat="45.45991" lon="6.96602">
        <ele>1796.9125365082</ele>
        <time>2022-01-20T17:18:15.537Z</time>
      </trkpt>
      <trkpt lat="45.45971" lon="6.96621">
        <ele>1797.2304098096</ele>
        <time>2022-01-20T17:18:19.963Z</time>
      </trkpt>
      <trkpt lat="45.45966" lon="6.96618">
        <ele>1797.5750926008</ele>
        <time>2022-01-20T17:18:24.389Z</time>
      </trkpt>
      <trkpt lat="45.45961" lon="6.9662">
        <ele>1797.9547778719</ele>
        <time>2022-01-20T17:18:28.816Z</time>
      </trkpt>
      <trkpt lat="45.45958" lon="6.96623">
        <ele>1798.3515763466</ele>
        <time>2022-01-20T17:18:33.244Z</time>
      </trkpt>
      <trkpt lat="45.45957" lon="6.96632">
        <ele>1803.1926934955</ele>
        <time>2022-01-20T17:18:37.673Z</time>
      </trkpt>
      <trkpt lat="45.45632" lon="6.96893">
        <ele>1804.1493487571</ele>
        <time>2022-01-20T17:18:42.162Z</time>
      </trkpt>
      <trkpt lat="45.45512" lon="6.96985">
        <ele>1805.1347764032</ele>
        <time>2022-01-20T17:18:46.672Z</time>
      </trkpt>
      <trkpt lat="45.45489" lon="6.97008">
        <ele>1806.1873082973</ele>
        <time>2022-01-20T17:18:51.187Z</time>
      </trkpt>
      <trkpt lat="45.45463" lon="6.97039">
        <ele>1807.2862446918</ele>
        <time>2022-01-20T17:18:55.707Z</time>
      </trkpt>
      <trkpt lat="45.4538" lon="6.97174">
        <ele>1808.4708465907</ele>
        <time>2022-01-20T17:19:00.248Z</time>
      </trkpt>
      <trkpt lat="45.45373" lon="6.97192">
        <ele>1809.6832928644</ele>
        <time>2022-01-20T17:19:04.791Z</time>
      </trkpt>
      <trkpt lat="45.45357" lon="6.9722">
        <ele>1810.9217058083</ele>
        <time>2022-01-20T17:19:09.338Z</time>
      </trkpt>
      <trkpt lat="45.45306" lon="6.97306">
        <ele>1812.1914341745</ele>
        <time>2022-01-20T17:19:13.898Z</time>
      </trkpt>
      <trkpt lat="45.45293" lon="6.97325">
        <ele>1813.4869959426</ele>
        <time>2022-01-20T17:19:18.461Z</time>
      </trkpt>
      <trkpt lat="45.45277" lon="6.97345">
        <ele>1814.8000772087</ele>
        <time>2022-01-20T17:19:23.027Z</time>
      </trkpt>
      <trkpt lat="45.45197" lon="6.97431">
        <ele>1816.2825112622</ele>
        <time>2022-01-20T17:19:27.609Z</time>
      </trkpt>
      <trkpt lat="45.45174" lon="6.9746">
        <ele>1817.5982113918</ele>
        <time>2022-01-20T17:19:32.196Z</time>
      </trkpt>
      <trkpt lat="45.4515" lon="6.97494">
        <ele>1818.8655786977</ele>
        <time>2022-01-20T17:19:36.788Z</time>
      </trkpt>
      <trkpt lat="45.45116" lon="6.97555">
        <ele>1820.0981226831</ele>
        <time>2022-01-20T17:19:41.389Z</time>
      </trkpt>
      <trkpt lat="45.45088" lon="6.97611">
        <ele>1821.4194703116</ele>
        <time>2022-01-20T17:19:45.998Z</time>
      </trkpt>
      <trkpt lat="45.45044" lon="6.97705">
        <ele>1822.7336340357</ele>
        <time>2022-01-20T17:19:50.620Z</time>
      </trkpt>
      <trkpt lat="45.45034" lon="6.97721">
        <ele>1823.9759128374</ele>
        <time>2022-01-20T17:19:55.244Z</time>
      </trkpt>
      <trkpt lat="45.45013" lon="6.97727">
        <ele>1825.190190602</ele>
        <time>2022-01-20T17:19:59.872Z</time>
      </trkpt>
      <trkpt lat="45.45008" lon="6.97726">
        <ele>1826.3908726859</ele>
        <time>2022-01-20T17:20:04.500Z</time>
      </trkpt>
      <trkpt lat="45.45001" lon="6.97733">
        <ele>1827.5763035898</ele>
        <time>2022-01-20T17:20:09.130Z</time>
      </trkpt>
      <trkpt lat="45.45" lon="6.97742">
        <ele>1828.728953819</ele>
        <time>2022-01-20T17:20:13.761Z</time>
      </trkpt>
      <trkpt lat="45.45002" lon="6.97747">
        <ele>1829.8544982338</ele>
        <time>2022-01-20T17:20:18.392Z</time>
      </trkpt>
      <trkpt lat="45.44995" lon="6.97772">
        <ele>1831.0126597146</ele>
        <time>2022-01-20T17:20:23.026Z</time>
      </trkpt>
      <trkpt lat="45.44971" lon="6.97833">
        <ele>1832.3418031803</ele>
        <time>2022-01-20T17:20:27.668Z</time>
      </trkpt>
      <trkpt lat="45.44901" lon="6.9799">
        <ele>1833.4790723824</ele>
        <time>2022-01-20T17:20:32.331Z</time>
      </trkpt>
      <trkpt lat="45.44895" lon="6.97989">
        <ele>1834.4859491445</ele>
        <time>2022-01-20T17:20:36.995Z</time>
      </trkpt>
      <trkpt lat="45.44889" lon="6.97995">
        <ele>1835.4555666013</ele>
        <time>2022-01-20T17:20:41.660Z</time>
      </trkpt>
      <trkpt lat="45.44888" lon="6.98005">
        <ele>1836.3974903253</ele>
        <time>2022-01-20T17:20:46.326Z</time>
      </trkpt>
      <trkpt lat="45.44892" lon="6.98013">
        <ele>1837.3191631146</ele>
        <time>2022-01-20T17:20:50.994Z</time>
      </trkpt>
      <trkpt lat="45.4488" lon="6.98049">
        <ele>1838.2006701643</ele>
        <time>2022-01-20T17:20:55.666Z</time>
      </trkpt>
      <trkpt lat="45.44872" lon="6.9807">
        <ele>1839.0488952042</ele>
        <time>2022-01-20T17:21:00.341Z</time>
      </trkpt>
      <trkpt lat="45.44838" lon="6.98138">
        <ele>1839.9203120192</ele>
        <time>2022-01-20T17:21:05.025Z</time>
      </trkpt>
      <trkpt lat="45.44826" lon="6.98167">
        <ele>1840.7536788289</ele>
        <time>2022-01-20T17:21:09.713Z</time>
      </trkpt>
      <trkpt lat="45.44786" lon="6.98283">
        <ele>1841.5636535214</ele>
        <time>2022-01-20T17:21:14.415Z</time>
      </trkpt>
      <trkpt lat="45.44675" lon="6.98638">
        <ele>1842.6792435095</ele>
        <time>2022-01-20T17:21:19.161Z</time>
      </trkpt>
      <trkpt lat="45.44661" lon="6.98717">
        <ele>1843.5860746881</ele>
        <time>2022-01-20T17:21:23.916Z</time>
      </trkpt>
      <trkpt lat="45.44658" lon="6.98754">
        <ele>1844.3718832242</ele>
        <time>2022-01-20T17:21:28.676Z</time>
      </trkpt>
      <trkpt lat="45.44658" lon="6.98789">
        <ele>1845.0972485669</ele>
        <time>2022-01-20T17:21:33.440Z</time>
      </trkpt>
      <trkpt lat="45.44655" lon="6.9879">
        <ele>1845.8532849744</ele>
        <time>2022-01-20T17:21:38.204Z</time>
      </trkpt>
      <trkpt lat="45.44651" lon="6.98795">
        <ele>1846.6275787883</ele>
        <time>2022-01-20T17:21:42.969Z</time>
      </trkpt>
      <trkpt lat="45.4465" lon="6.98804">
        <ele>1847.4268871002</ele>
        <time>2022-01-20T17:21:47.735Z</time>
      </trkpt>
      <trkpt lat="45.44655" lon="6.98811">
        <ele>1848.2494714499</ele>
        <time>2022-01-20T17:21:52.502Z</time>
      </trkpt>
      <trkpt lat="45.44658" lon="6.98813">
        <ele>1849.1343884317</ele>
        <time>2022-01-20T17:21:57.270Z</time>
      </trkpt>
      <trkpt lat="45.44661" lon="6.98812">
        <ele>1850.0946183206</ele>
        <time>2022-01-20T17:22:02.038Z</time>
      </trkpt>
      <trkpt lat="45.44664" lon="6.98839">
        <ele>1851.1594981012</ele>
        <time>2022-01-20T17:22:06.809Z</time>
      </trkpt>
      <trkpt lat="45.44693" lon="6.99014">
        <ele>1852.3719319487</ele>
        <time>2022-01-20T17:22:11.600Z</time>
      </trkpt>
      <trkpt lat="45.44712" lon="6.99117">
        <ele>1853.7183993337</ele>
        <time>2022-01-20T17:22:16.403Z</time>
      </trkpt>
      <trkpt lat="45.44716" lon="6.99147">
        <ele>1855.2056148853</ele>
        <time>2022-01-20T17:22:21.210Z</time>
      </trkpt>
      <trkpt lat="45.44722" lon="6.99174">
        <ele>1856.885124219</ele>
        <time>2022-01-20T17:22:26.020Z</time>
      </trkpt>
      <trkpt lat="45.44737" lon="6.99293">
        <ele>1858.8082926891</ele>
        <time>2022-01-20T17:22:30.844Z</time>
      </trkpt>
      <trkpt lat="45.4474" lon="6.99339">
        <ele>1860.8304514789</ele>
        <time>2022-01-20T17:22:35.673Z</time>
      </trkpt>
      <trkpt lat="45.4474" lon="6.99413">
        <ele>1862.9757583658</ele>
        <time>2022-01-20T17:22:40.510Z</time>
      </trkpt>
      <trkpt lat="45.44737" lon="6.99487">
        <ele>1865.344292466</ele>
        <time>2022-01-20T17:22:45.356Z</time>
      </trkpt>
      <trkpt lat="45.44737" lon="6.9966">
        <ele>1868.0314876269</ele>
        <time>2022-01-20T17:22:50.221Z</time>
      </trkpt>
      <trkpt lat="45.4474" lon="6.99737">
        <ele>1870.8341625534</ele>
        <time>2022-01-20T17:22:55.095Z</time>
      </trkpt>
      <trkpt lat="45.44745" lon="6.99812">
        <ele>1873.8082396273</ele>
        <time>2022-01-20T17:22:59.977Z</time>
      </trkpt>
      <trkpt lat="45.44753" lon="6.99887">
        <ele>1876.9287433619</ele>
        <time>2022-01-20T17:23:04.868Z</time>
      </trkpt>
      <trkpt lat="45.44762" lon="6.99945">
        <ele>1880.1505527645</ele>
        <time>2022-01-20T17:23:09.765Z</time>
      </trkpt>
      <trkpt lat="45.44782" lon="7.00041">
        <ele>1883.7381973052</ele>
        <time>2022-01-20T17:23:14.674Z</time>
      </trkpt>
      <trkpt lat="45.44786" lon="7.001">
        <ele>1887.2710986375</ele>
        <time>2022-01-20T17:23:19.589Z</time>
      </trkpt>
      <trkpt lat="45.44786" lon="7.00146">
        <ele>1890.8019975532</ele>
        <time>2022-01-20T17:23:24.510Z</time>
      </trkpt>
      <trkpt lat="45.44815" lon="7.00301">
        <ele>1894.5400028957</ele>
        <time>2022-01-20T17:23:29.449Z</time>
      </trkpt>
      <trkpt lat="45.44819" lon="7.00331">
        <ele>1898.1925857205</ele>
        <time>2022-01-20T17:23:34.391Z</time>
      </trkpt>
      <trkpt lat="45.4483" lon="7.00619">
        <ele>1902.2600820275</ele>
        <time>2022-01-20T17:23:39.366Z</time>
      </trkpt>
      <trkpt lat="45.44837" lon="7.0067">
        <ele>1906.1114975547</ele>
        <time>2022-01-20T17:23:44.346Z</time>
      </trkpt>
      <trkpt lat="45.44841" lon="7.00687">
        <ele>1909.95146499</ele>
        <time>2022-01-20T17:23:49.328Z</time>
      </trkpt>
      <trkpt lat="45.44849" lon="7.00706">
        <ele>1913.8537922655</ele>
        <time>2022-01-20T17:23:54.313Z</time>
      </trkpt>
      <trkpt lat="45.44889" lon="7.00792">
        <ele>1917.9868228477</ele>
        <time>2022-01-20T17:23:59.310Z</time>
      </trkpt>
      <trkpt lat="45.4491" lon="7.00843">
        <ele>1922.0360977205</ele>
        <time>2022-01-20T17:24:04.313Z</time>
      </trkpt>
      <trkpt lat="45.44957" lon="7.00948">
        <ele>1926.1771339621</ele>
        <time>2022-01-20T17:24:09.330Z</time>
      </trkpt>
      <trkpt lat="45.44963" lon="7.0096">
        <ele>1930.1113993936</ele>
        <time>2022-01-20T17:24:14.349Z</time>
      </trkpt>
      <trkpt lat="45.44981" lon="7.00984">
        <ele>1934.1066467712</ele>
        <time>2022-01-20T17:24:19.372Z</time>
      </trkpt>
      <trkpt lat="45.44987" lon="7.00997">
        <ele>1938.0476645942</ele>
        <time>2022-01-20T17:24:24.397Z</time>
      </trkpt>
      <trkpt lat="45.45014" lon="7.01032">
        <ele>1942.0921896141</ele>
        <time>2022-01-20T17:24:29.427Z</time>
      </trkpt>
      <trkpt lat="45.4503" lon="7.01058">
        <ele>1946.0727088111</ele>
        <time>2022-01-20T17:24:34.461Z</time>
      </trkpt>
      <trkpt lat="45.45045" lon="7.01092">
        <ele>1950.0840548318</ele>
        <time>2022-01-20T17:24:39.500Z</time>
      </trkpt>
      <trkpt lat="45.45053" lon="7.01115">
        <ele>1954.1187043177</ele>
        <time>2022-01-20T17:24:44.542Z</time>
      </trkpt>
      <trkpt lat="45.45068" lon="7.01174">
        <ele>1958.1803075781</ele>
        <time>2022-01-20T17:24:49.591Z</time>
      </trkpt>
      <trkpt lat="45.45081" lon="7.0125">
        <ele>1962.2266771385</ele>
        <time>2022-01-20T17:24:54.649Z</time>
      </trkpt>
      <trkpt lat="45.45085" lon="7.01264">
        <ele>1966.22087914</ele>
        <time>2022-01-20T17:24:59.708Z</time>
      </trkpt>
      <trkpt lat="45.451" lon="7.01308">
        <ele>1970.246740086</ele>
        <time>2022-01-20T17:25:04.773Z</time>
      </trkpt>
      <trkpt lat="45.45146" lon="7.01426">
        <ele>1974.4533537537</ele>
        <time>2022-01-20T17:25:09.853Z</time>
      </trkpt>
      <trkpt lat="45.45219" lon="7.01626">
        <ele>1978.6332754398</ele>
        <time>2022-01-20T17:25:14.958Z</time>
      </trkpt>
      <trkpt lat="45.45251" lon="7.01696">
        <ele>1982.3904304315</ele>
        <time>2022-01-20T17:25:20.073Z</time>
      </trkpt>
      <trkpt lat="45.45264" lon="7.01739">
        <ele>1986.0330340624</ele>
        <time>2022-01-20T17:25:25.193Z</time>
      </trkpt>
      <trkpt lat="45.45303" lon="7.01965">
        <ele>1989.9329591932</ele>
        <time>2022-01-20T17:25:30.339Z</time>
      </trkpt>
      <trkpt lat="45.45303" lon="7.01988">
        <ele>1993.2170227978</ele>
        <time>2022-01-20T17:25:35.488Z</time>
      </trkpt>
      <trkpt lat="45.45298" lon="7.02008">
        <ele>1996.2477088959</ele>
        <time>2022-01-20T17:25:40.639Z</time>
      </trkpt>
      <trkpt lat="45.45294" lon="7.02023">
        <ele>1999.1289685527</ele>
        <time>2022-01-20T17:25:45.792Z</time>
      </trkpt>
      <trkpt lat="45.45282" lon="7.02053">
        <ele>2001.8301961695</ele>
        <time>2022-01-20T17:25:50.949Z</time>
      </trkpt>
      <trkpt lat="45.4528" lon="7.02068">
        <ele>2004.3093376824</ele>
        <time>2022-01-20T17:25:56.108Z</time>
      </trkpt>
      <trkpt lat="45.45267" lon="7.02106">
        <ele>2006.6016690394</ele>
        <time>2022-01-20T17:26:01.271Z</time>
      </trkpt>
      <trkpt lat="45.45262" lon="7.02128">
        <ele>2008.6878939465</ele>
        <time>2022-01-20T17:26:06.437Z</time>
      </trkpt>
      <trkpt lat="45.45263" lon="7.02147">
        <ele>2010.6421181838</ele>
        <time>2022-01-20T17:26:11.605Z</time>
      </trkpt>
      <trkpt lat="45.45269" lon="7.02187">
        <ele>2012.5938099603</ele>
        <time>2022-01-20T17:26:16.778Z</time>
      </trkpt>
      <trkpt lat="45.45269" lon="7.02196">
        <ele>2014.2862771426</ele>
        <time>2022-01-20T17:26:21.952Z</time>
      </trkpt>
      <trkpt lat="45.45264" lon="7.02211">
        <ele>2015.8572256131</ele>
        <time>2022-01-20T17:26:27.128Z</time>
      </trkpt>
      <trkpt lat="45.45246" lon="7.0226">
        <ele>2017.4568741225</ele>
        <time>2022-01-20T17:26:32.310Z</time>
      </trkpt>
      <trkpt lat="45.45238" lon="7.02273">
        <ele>2018.8241264241</ele>
        <time>2022-01-20T17:26:37.494Z</time>
      </trkpt>
      <trkpt lat="45.45221" lon="7.02284">
        <ele>2020.0707052472</ele>
        <time>2022-01-20T17:26:42.681Z</time>
      </trkpt>
      <trkpt lat="45.4519" lon="7.02291">
        <ele>2021.1510922471</ele>
        <time>2022-01-20T17:26:47.873Z</time>
      </trkpt>
      <trkpt lat="45.45185" lon="7.02295">
        <ele>2022.3527110287</ele>
        <time>2022-01-20T17:26:53.066Z</time>
      </trkpt>
      <trkpt lat="45.45174" lon="7.02309">
        <ele>2023.5846738886</ele>
        <time>2022-01-20T17:26:58.261Z</time>
      </trkpt>
      <trkpt lat="45.45154" lon="7.02346">
        <ele>2024.9241114267</ele>
        <time>2022-01-20T17:27:03.461Z</time>
      </trkpt>
      <trkpt lat="45.4515" lon="7.02358">
        <ele>2026.1845115347</ele>
        <time>2022-01-20T17:27:08.663Z</time>
      </trkpt>
      <trkpt lat="45.45147" lon="7.02369">
        <ele>2027.4637839764</ele>
        <time>2022-01-20T17:27:13.866Z</time>
      </trkpt>
      <trkpt lat="45.45145" lon="7.02397">
        <ele>2028.8021018324</ele>
        <time>2022-01-20T17:27:19.072Z</time>
      </trkpt>
      <trkpt lat="45.45149" lon="7.02429">
        <ele>2030.1872355582</ele>
        <time>2022-01-20T17:27:24.282Z</time>
      </trkpt>
      <trkpt lat="45.45249" lon="7.02707">
        <ele>2032.0485397413</ele>
        <time>2022-01-20T17:27:29.527Z</time>
      </trkpt>
      <trkpt lat="45.45252" lon="7.02724">
        <ele>2033.4907865627</ele>
        <time>2022-01-20T17:27:34.774Z</time>
      </trkpt>
      <trkpt lat="45.45254" lon="7.0276">
        <ele>2034.9096930329</ele>
        <time>2022-01-20T17:27:40.025Z</time>
      </trkpt>
      <trkpt lat="45.45265" lon="7.02863">
        <ele>2036.3380043439</ele>
        <time>2022-01-20T17:27:45.288Z</time>
      </trkpt>
      <trkpt lat="45.45306" lon="7.02973">
        <ele>2037.9262531883</ele>
        <time>2022-01-20T17:27:50.565Z</time>
      </trkpt>
      <trkpt lat="45.45323" lon="7.03011">
        <ele>2039.4916969151</ele>
        <time>2022-01-20T17:27:55.847Z</time>
      </trkpt>
      <trkpt lat="45.45361" lon="7.03114">
        <ele>2041.2162734334</ele>
        <time>2022-01-20T17:28:01.142Z</time>
      </trkpt>
      <trkpt lat="45.4538" lon="7.03161">
        <ele>2042.8677449719</ele>
        <time>2022-01-20T17:28:06.443Z</time>
      </trkpt>
      <trkpt lat="45.45466" lon="7.03341">
        <ele>2044.5905902494</ele>
        <time>2022-01-20T17:28:11.769Z</time>
      </trkpt>
      <trkpt lat="45.4547" lon="7.03352">
        <ele>2046.1203085614</ele>
        <time>2022-01-20T17:28:17.096Z</time>
      </trkpt>
      <trkpt lat="45.45498" lon="7.0348">
        <ele>2047.7225491524</ele>
        <time>2022-01-20T17:28:22.438Z</time>
      </trkpt>
      <trkpt lat="45.45501" lon="7.03509">
        <ele>2049.2363702631</ele>
        <time>2022-01-20T17:28:27.784Z</time>
      </trkpt>
      <trkpt lat="45.45492" lon="7.03638">
        <ele>2050.6428884639</ele>
        <time>2022-01-20T17:28:33.144Z</time>
      </trkpt>
      <trkpt lat="45.45481" lon="7.03658">
        <ele>2052.0812385222</ele>
        <time>2022-01-20T17:28:38.507Z</time>
      </trkpt>
      <trkpt lat="45.45473" lon="7.03665">
        <ele>2053.479695254</ele>
        <time>2022-01-20T17:28:43.872Z</time>
      </trkpt>
      <trkpt lat="45.45458" lon="7.0367">
        <ele>2054.8386238125</ele>
        <time>2022-01-20T17:28:49.239Z</time>
      </trkpt>
      <trkpt lat="45.45416" lon="7.03664">
        <ele>2056.1650326327</ele>
        <time>2022-01-20T17:28:54.613Z</time>
      </trkpt>
      <trkpt lat="45.45401" lon="7.03655">
        <ele>2057.6300068876</ele>
        <time>2022-01-20T17:28:59.989Z</time>
      </trkpt>
      <trkpt lat="45.45393" lon="7.03644">
        <ele>2059.0378525802</ele>
        <time>2022-01-20T17:29:05.367Z</time>
      </trkpt>
      <trkpt lat="45.45359" lon="7.03582">
        <ele>2060.5723709975</ele>
        <time>2022-01-20T17:29:10.754Z</time>
      </trkpt>
      <trkpt lat="45.45354" lon="7.03569">
        <ele>2061.8502175799</ele>
        <time>2022-01-20T17:29:16.143Z</time>
      </trkpt>
      <trkpt lat="45.45347" lon="7.03521">
        <ele>2063.0853589929</ele>
        <time>2022-01-20T17:29:21.537Z</time>
      </trkpt>
      <trkpt lat="45.45343" lon="7.03515">
        <ele>2064.4542199586</ele>
        <time>2022-01-20T17:29:26.932Z</time>
      </trkpt>
      <trkpt lat="45.45338" lon="7.03512">
        <ele>2065.8668292308</ele>
        <time>2022-01-20T17:29:32.328Z</time>
      </trkpt>
      <trkpt lat="45.4533" lon="7.03515">
        <ele>2067.3792760275</ele>
        <time>2022-01-20T17:29:37.725Z</time>
      </trkpt>
      <trkpt lat="45.45326" lon="7.03524">
        <ele>2068.9017029765</ele>
        <time>2022-01-20T17:29:43.124Z</time>
      </trkpt>
      <trkpt lat="45.45325" lon="7.0353">
        <ele>2070.4443577663</ele>
        <time>2022-01-20T17:29:48.523Z</time>
      </trkpt>
      <trkpt lat="45.45327" lon="7.03539">
        <ele>2072.0270737112</ele>
        <time>2022-01-20T17:29:53.923Z</time>
      </trkpt>
      <trkpt lat="45.45342" lon="7.03573">
        <ele>2073.668861032</ele>
        <time>2022-01-20T17:29:59.328Z</time>
      </trkpt>
      <trkpt lat="45.45345" lon="7.03583">
        <ele>2075.4211524052</ele>
        <time>2022-01-20T17:30:04.734Z</time>
      </trkpt>
      <trkpt lat="45.45375" lon="7.03742">
        <ele>2077.3449649298</ele>
        <time>2022-01-20T17:30:10.159Z</time>
      </trkpt>
      <trkpt lat="45.45385" lon="7.03837">
        <ele>2079.2582351728</ele>
        <time>2022-01-20T17:30:15.594Z</time>
      </trkpt>
      <trkpt lat="45.4538" lon="7.0392">
        <ele>2081.5636077484</ele>
        <time>2022-01-20T17:30:21.039Z</time>
      </trkpt>
      <trkpt lat="45.45384" lon="7.03934">
        <ele>2083.4976005109</ele>
        <time>2022-01-20T17:30:26.485Z</time>
      </trkpt>
      <trkpt lat="45.45398" lon="7.03967">
        <ele>2085.4572054233</ele>
        <time>2022-01-20T17:30:31.936Z</time>
      </trkpt>
      <trkpt lat="45.45395" lon="7.03977">
        <ele>2087.5359329606</ele>
        <time>2022-01-20T17:30:37.388Z</time>
      </trkpt>
      <trkpt lat="45.45391" lon="7.0398">
        <ele>2089.6326368138</ele>
        <time>2022-01-20T17:30:42.841Z</time>
      </trkpt>
      <trkpt lat="45.45386" lon="7.03981">
        <ele>2091.7814641334</ele>
        <time>2022-01-20T17:30:48.295Z</time>
      </trkpt>
      <trkpt lat="45.45382" lon="7.0398">
        <ele>2093.9706133383</ele>
        <time>2022-01-20T17:30:53.749Z</time>
      </trkpt>
      <trkpt lat="45.45375" lon="7.03968">
        <ele>2096.2122793813</ele>
        <time>2022-01-20T17:30:59.205Z</time>
      </trkpt>
      <trkpt lat="45.45371" lon="7.0395">
        <ele>2098.3974519189</ele>
        <time>2022-01-20T17:31:04.663Z</time>
      </trkpt>
      <trkpt lat="45.45364" lon="7.03897">
        <ele>2100.4806310636</ele>
        <time>2022-01-20T17:31:10.127Z</time>
      </trkpt>
      <trkpt lat="45.45352" lon="7.03841">
        <ele>2102.6827502767</ele>
        <time>2022-01-20T17:31:15.598Z</time>
      </trkpt>
      <trkpt lat="45.4531" lon="7.03728">
        <ele>2105.508375429</ele>
        <time>2022-01-20T17:31:21.083Z</time>
      </trkpt>
      <trkpt lat="45.45243" lon="7.03581">
        <ele>2108.0438178643</ele>
        <time>2022-01-20T17:31:26.588Z</time>
      </trkpt>
      <trkpt lat="45.45222" lon="7.03519">
        <ele>2110.4847339581</ele>
        <time>2022-01-20T17:31:32.101Z</time>
      </trkpt>
      <trkpt lat="45.45196" lon="7.03458">
        <ele>2113.0972079709</ele>
        <time>2022-01-20T17:31:37.622Z</time>
      </trkpt>
      <trkpt lat="45.45187" lon="7.03442">
        <ele>2115.6124331375</ele>
        <time>2022-01-20T17:31:43.145Z</time>
      </trkpt>
      <trkpt lat="45.45163" lon="7.03411">
        <ele>2118.3433444901</ele>
        <time>2022-01-20T17:31:48.673Z</time>
      </trkpt>
      <trkpt lat="45.45147" lon="7.03377">
        <ele>2120.9938519992</ele>
        <time>2022-01-20T17:31:54.206Z</time>
      </trkpt>
      <trkpt lat="45.45139" lon="7.03348">
        <ele>2123.5907719128</ele>
        <time>2022-01-20T17:31:59.742Z</time>
      </trkpt>
      <trkpt lat="45.45129" lon="7.03323">
        <ele>2126.3135007839</ele>
        <time>2022-01-20T17:32:05.282Z</time>
      </trkpt>
      <trkpt lat="45.45118" lon="7.03286">
        <ele>2128.8767730264</ele>
        <time>2022-01-20T17:32:10.826Z</time>
      </trkpt>
      <trkpt lat="45.45093" lon="7.03215">
        <ele>2131.5516453052</ele>
        <time>2022-01-20T17:32:16.379Z</time>
      </trkpt>
      <trkpt lat="45.45064" lon="7.03154">
        <ele>2134.2588446148</ele>
        <time>2022-01-20T17:32:21.940Z</time>
      </trkpt>
      <trkpt lat="45.45059" lon="7.03139">
        <ele>2136.8552412479</ele>
        <time>2022-01-20T17:32:27.503Z</time>
      </trkpt>
      <trkpt lat="45.45048" lon="7.03093">
        <ele>2139.3856786065</ele>
        <time>2022-01-20T17:32:33.072Z</time>
      </trkpt>
      <trkpt lat="45.45041" lon="7.0308">
        <ele>2142.0979401683</ele>
        <time>2022-01-20T17:32:38.642Z</time>
      </trkpt>
      <trkpt lat="45.45037" lon="7.03066">
        <ele>2144.8038370547</ele>
        <time>2022-01-20T17:32:44.214Z</time>
      </trkpt>
      <trkpt lat="45.45028" lon="7.03053">
        <ele>2147.7458153223</ele>
        <time>2022-01-20T17:32:49.788Z</time>
      </trkpt>
      <trkpt lat="45.45019" lon="7.03046">
        <ele>2150.8064792631</ele>
        <time>2022-01-20T17:32:55.364Z</time>
      </trkpt>
      <trkpt lat="45.45013" lon="7.03039">
        <ele>2153.8703347501</ele>
        <time>2022-01-20T17:33:00.941Z</time>
      </trkpt>
      <trkpt lat="45.44998" lon="7.03007">
        <ele>2156.9643336815</ele>
        <time>2022-01-20T17:33:06.522Z</time>
      </trkpt>
      <trkpt lat="45.44945" lon="7.02845">
        <ele>2160.5075577454</ele>
        <time>2022-01-20T17:33:12.124Z</time>
      </trkpt>
      <trkpt lat="45.44926" lon="7.02799">
        <ele>2163.7206717517</ele>
        <time>2022-01-20T17:33:17.732Z</time>
      </trkpt>
      <trkpt lat="45.44906" lon="7.02743">
        <ele>2167.0300173728</ele>
        <time>2022-01-20T17:33:23.347Z</time>
      </trkpt>
      <trkpt lat="45.44898" lon="7.02701">
        <ele>2170.4516731295</ele>
        <time>2022-01-20T17:33:28.967Z</time>
      </trkpt>
      <trkpt lat="45.44892" lon="7.02678">
        <ele>2174.0636666859</ele>
        <time>2022-01-20T17:33:34.589Z</time>
      </trkpt>
      <trkpt lat="45.44836" lon="7.02499">
        <ele>2178.3224260795</ele>
        <time>2022-01-20T17:33:40.233Z</time>
      </trkpt>
      <trkpt lat="45.44829" lon="7.02483">
        <ele>2181.9248649148</ele>
        <time>2022-01-20T17:33:45.880Z</time>
      </trkpt>
      <trkpt lat="45.44803" lon="7.02441">
        <ele>2185.3976191224</ele>
        <time>2022-01-20T17:33:51.533Z</time>
      </trkpt>
      <trkpt lat="45.44789" lon="7.02394">
        <ele>2188.8918136691</ele>
        <time>2022-01-20T17:33:57.192Z</time>
      </trkpt>
      <trkpt lat="45.44762" lon="7.02334">
        <ele>2192.5816011189</ele>
        <time>2022-01-20T17:34:02.859Z</time>
      </trkpt>
      <trkpt lat="45.44724" lon="7.0226">
        <ele>2196.2222945564</ele>
        <time>2022-01-20T17:34:08.536Z</time>
      </trkpt>
      <trkpt lat="45.4469" lon="7.02188">
        <ele>2199.6620441192</ele>
        <time>2022-01-20T17:34:14.223Z</time>
      </trkpt>
      <trkpt lat="45.44683" lon="7.02179">
        <ele>2202.9150034189</ele>
        <time>2022-01-20T17:34:19.911Z</time>
      </trkpt>
      <trkpt lat="45.44665" lon="7.02149">
        <ele>2206.1011146339</ele>
        <time>2022-01-20T17:34:25.604Z</time>
      </trkpt>
      <trkpt lat="45.4459" lon="7.0205">
        <ele>2209.2771170248</ele>
        <time>2022-01-20T17:34:31.313Z</time>
      </trkpt>
      <trkpt lat="45.44541" lon="7.01958">
        <ele>2212.4728411991</ele>
        <time>2022-01-20T17:34:37.035Z</time>
      </trkpt>
      <trkpt lat="45.44529" lon="7.0193">
        <ele>2215.1634399077</ele>
        <time>2022-01-20T17:34:42.761Z</time>
      </trkpt>
      <trkpt lat="45.44508" lon="7.01869">
        <ele>2217.6367326621</ele>
        <time>2022-01-20T17:34:48.494Z</time>
      </trkpt>
      <trkpt lat="45.44503" lon="7.01859">
        <ele>2220.0712780448</ele>
        <time>2022-01-20T17:34:54.229Z</time>
      </trkpt>
      <trkpt lat="45.44497" lon="7.01853">
        <ele>2222.4175561592</ele>
        <time>2022-01-20T17:34:59.965Z</time>
      </trkpt>
      <trkpt lat="45.44489" lon="7.01854">
        <ele>2224.706006516</ele>
        <time>2022-01-20T17:35:05.702Z</time>
      </trkpt>
      <trkpt lat="45.44486" lon="7.01858">
        <ele>2226.8618012934</ele>
        <time>2022-01-20T17:35:11.440Z</time>
      </trkpt>
      <trkpt lat="45.44485" lon="7.01866">
        <ele>2228.9436228181</ele>
        <time>2022-01-20T17:35:17.179Z</time>
      </trkpt>
      <trkpt lat="45.44487" lon="7.01875">
        <ele>2230.9267612707</ele>
        <time>2022-01-20T17:35:22.919Z</time>
      </trkpt>
      <trkpt lat="45.44501" lon="7.01902">
        <ele>2232.7724325913</ele>
        <time>2022-01-20T17:35:28.663Z</time>
      </trkpt>
      <trkpt lat="45.44529" lon="7.01994">
        <ele>2234.7001433481</ele>
        <time>2022-01-20T17:35:34.418Z</time>
      </trkpt>
      <trkpt lat="45.44559" lon="7.02084">
        <ele>2236.3939615643</ele>
        <time>2022-01-20T17:35:40.184Z</time>
      </trkpt>
      <trkpt lat="45.44564" lon="7.02102">
        <ele>2238.1498395165</ele>
        <time>2022-01-20T17:35:45.952Z</time>
      </trkpt>
      <trkpt lat="45.44575" lon="7.02157">
        <ele>2239.9757088413</ele>
        <time>2022-01-20T17:35:51.727Z</time>
      </trkpt>
      <trkpt lat="45.44584" lon="7.02189">
        <ele>2241.5912211437</ele>
        <time>2022-01-20T17:35:57.506Z</time>
      </trkpt>
      <trkpt lat="45.44591" lon="7.02208">
        <ele>2243.1652257224</ele>
        <time>2022-01-20T17:36:03.287Z</time>
      </trkpt>
      <trkpt lat="45.44609" lon="7.02242">
        <ele>2244.7685181338</ele>
        <time>2022-01-20T17:36:09.073Z</time>
      </trkpt>
      <trkpt lat="45.44627" lon="7.02268">
        <ele>2246.317023761</ele>
        <time>2022-01-20T17:36:14.863Z</time>
      </trkpt>
      <trkpt lat="45.44644" lon="7.02297">
        <ele>2247.8068089061</ele>
        <time>2022-01-20T17:36:20.657Z</time>
      </trkpt>
      <trkpt lat="45.44653" lon="7.02319">
        <ele>2249.3449099112</ele>
        <time>2022-01-20T17:36:26.454Z</time>
      </trkpt>
      <trkpt lat="45.44668" lon="7.02372">
        <ele>2250.9935974396</ele>
        <time>2022-01-20T17:36:32.257Z</time>
      </trkpt>
      <trkpt lat="45.44682" lon="7.02401">
        <ele>2252.4617657485</ele>
        <time>2022-01-20T17:36:38.064Z</time>
      </trkpt>
      <trkpt lat="45.44684" lon="7.02408">
        <ele>2254.0963376772</ele>
        <time>2022-01-20T17:36:43.872Z</time>
      </trkpt>
      <trkpt lat="45.44682" lon="7.0242">
        <ele>2255.906160483</ele>
        <time>2022-01-20T17:36:49.682Z</time>
      </trkpt>
      <trkpt lat="45.4468" lon="7.02423">
        <ele>2257.7271419806</ele>
        <time>2022-01-20T17:36:55.492Z</time>
      </trkpt>
      <trkpt lat="45.44672" lon="7.02424">
        <ele>2259.7210448505</ele>
        <time>2022-01-20T17:37:01.303Z</time>
      </trkpt>
      <trkpt lat="45.44668" lon="7.0242">
        <ele>2261.7150598451</ele>
        <time>2022-01-20T17:37:07.115Z</time>
      </trkpt>
      <trkpt lat="45.44656" lon="7.02379">
        <ele>2263.7663487207</ele>
        <time>2022-01-20T17:37:12.932Z</time>
      </trkpt>
      <trkpt lat="45.44634" lon="7.02331">
        <ele>2265.8526161179</ele>
        <time>2022-01-20T17:37:18.756Z</time>
      </trkpt>
      <trkpt lat="45.4462" lon="7.0231">
        <ele>2268.0422945765</ele>
        <time>2022-01-20T17:37:24.583Z</time>
      </trkpt>
      <trkpt lat="45.44565" lon="7.02256">
        <ele>2270.6760688351</ele>
        <time>2022-01-20T17:37:30.421Z</time>
      </trkpt>
      <trkpt lat="45.44534" lon="7.02216">
        <ele>2273.1243723667</ele>
        <time>2022-01-20T17:37:36.265Z</time>
      </trkpt>
      <trkpt lat="45.44513" lon="7.02177">
        <ele>2275.4891767221</ele>
        <time>2022-01-20T17:37:42.115Z</time>
      </trkpt>
      <trkpt lat="45.44503" lon="7.02146">
        <ele>2277.8402685345</ele>
        <time>2022-01-20T17:37:47.969Z</time>
      </trkpt>
      <trkpt lat="45.44493" lon="7.02124">
        <ele>2280.3219367799</ele>
        <time>2022-01-20T17:37:53.826Z</time>
      </trkpt>
      <trkpt lat="45.44478" lon="7.02101">
        <ele>2282.9472563656</ele>
        <time>2022-01-20T17:37:59.686Z</time>
      </trkpt>
      <trkpt lat="45.44439" lon="7.02034">
        <ele>2285.4855191288</ele>
        <time>2022-01-20T17:38:05.556Z</time>
      </trkpt>
      <trkpt lat="45.44414" lon="7.01996">
        <ele>2288.0983566982</ele>
        <time>2022-01-20T17:38:11.432Z</time>
      </trkpt>
      <trkpt lat="45.44389" lon="7.0196">
        <ele>2290.549735213</ele>
        <time>2022-01-20T17:38:17.314Z</time>
      </trkpt>
      <trkpt lat="45.44359" lon="7.01924">
        <ele>2292.7905716387</ele>
        <time>2022-01-20T17:38:23.202Z</time>
      </trkpt>
      <trkpt lat="45.44352" lon="7.01917">
        <ele>2294.9506465205</ele>
        <time>2022-01-20T17:38:29.091Z</time>
      </trkpt>
      <trkpt lat="45.44299" lon="7.01878">
        <ele>2297.3133020483</ele>
        <time>2022-01-20T17:38:34.990Z</time>
      </trkpt>
      <trkpt lat="45.44285" lon="7.01865">
        <ele>2299.4044414199</ele>
        <time>2022-01-20T17:38:40.891Z</time>
      </trkpt>
      <trkpt lat="45.44282" lon="7.0186">
        <ele>2301.1857356329</ele>
        <time>2022-01-20T17:38:46.793Z</time>
      </trkpt>
      <trkpt lat="45.44279" lon="7.01854">
        <ele>2302.795362495</ele>
        <time>2022-01-20T17:38:52.696Z</time>
      </trkpt>
      <trkpt lat="45.44276" lon="7.01831">
        <ele>2304.2672112943</ele>
        <time>2022-01-20T17:38:58.602Z</time>
      </trkpt>
      <trkpt lat="45.44278" lon="7.01822">
        <ele>2305.4770375266</ele>
        <time>2022-01-20T17:39:04.509Z</time>
      </trkpt>
      <trkpt lat="45.44287" lon="7.01803">
        <ele>2306.4925842629</ele>
        <time>2022-01-20T17:39:10.418Z</time>
      </trkpt>
      <trkpt lat="45.44295" lon="7.01778">
        <ele>2307.2394235109</ele>
        <time>2022-01-20T17:39:16.330Z</time>
      </trkpt>
      <trkpt lat="45.44296" lon="7.01757">
        <ele>2307.9609359245</ele>
        <time>2022-01-20T17:39:22.245Z</time>
      </trkpt>
      <trkpt lat="45.44295" lon="7.01743">
        <ele>2308.4557982131</ele>
        <time>2022-01-20T17:39:28.161Z</time>
      </trkpt>
      <trkpt lat="45.4429" lon="7.01721">
        <ele>2308.9262345602</ele>
        <time>2022-01-20T17:39:34.080Z</time>
      </trkpt>
      <trkpt lat="45.44285" lon="7.0171">
        <ele>2309.4761511225</ele>
        <time>2022-01-20T17:39:40.000Z</time>
      </trkpt>
      <trkpt lat="45.4427" lon="7.0169">
        <ele>2309.9284570894</ele>
        <time>2022-01-20T17:39:45.924Z</time>
      </trkpt>
      <trkpt lat="45.44261" lon="7.01681">
        <ele>2310.1937594459</ele>
        <time>2022-01-20T17:39:51.849Z</time>
      </trkpt>
      <trkpt lat="45.44252" lon="7.01678">
        <ele>2310.468367858</ele>
        <time>2022-01-20T17:39:57.776Z</time>
      </trkpt>
      <trkpt lat="45.4423" lon="7.01677">
        <ele>2310.755078206</ele>
        <time>2022-01-20T17:40:03.706Z</time>
      </trkpt>
      <trkpt lat="45.44204" lon="7.01679">
        <ele>2311.0425530372</ele>
        <time>2022-01-20T17:40:09.641Z</time>
      </trkpt>
      <trkpt lat="45.44197" lon="7.01675">
        <ele>2311.232512891</ele>
        <time>2022-01-20T17:40:15.577Z</time>
      </trkpt>
      <trkpt lat="45.44184" lon="7.01655">
        <ele>2311.3877467492</ele>
        <time>2022-01-20T17:40:21.516Z</time>
      </trkpt>
      <trkpt lat="45.4418" lon="7.01636">
        <ele>2311.6174402896</ele>
        <time>2022-01-20T17:40:27.457Z</time>
      </trkpt>
      <trkpt lat="45.44181" lon="7.01534">
        <ele>2311.8686466887</ele>
        <time>2022-01-20T17:40:33.410Z</time>
      </trkpt>
      <trkpt lat="45.44194" lon="7.01472">
        <ele>2312.1501571023</ele>
        <time>2022-01-20T17:40:39.370Z</time>
      </trkpt>
      <trkpt lat="45.44199" lon="7.01457">
        <ele>2312.433721427</ele>
        <time>2022-01-20T17:40:45.332Z</time>
      </trkpt>
      <trkpt lat="45.44208" lon="7.01416">
        <ele>2312.7971944714</ele>
        <time>2022-01-20T17:40:51.299Z</time>
      </trkpt>
      <trkpt lat="45.44213" lon="7.01376">
        <ele>2313.4628316882</ele>
        <time>2022-01-20T17:40:57.270Z</time>
      </trkpt>
      <trkpt lat="45.4421" lon="7.01333">
        <ele>2314.0025093665</ele>
        <time>2022-01-20T17:41:03.246Z</time>
      </trkpt>
      <trkpt lat="45.44205" lon="7.013">
        <ele>2314.5937007158</ele>
        <time>2022-01-20T17:41:09.226Z</time>
      </trkpt>
      <trkpt lat="45.44197" lon="7.01265">
        <ele>2315.35972216</ele>
        <time>2022-01-20T17:41:15.210Z</time>
      </trkpt>
      <trkpt lat="45.44194" lon="7.01214">
        <ele>2316.2255508196</ele>
        <time>2022-01-20T17:41:21.200Z</time>
      </trkpt>
      <trkpt lat="45.44198" lon="7.01184">
        <ele>2316.9422231371</ele>
        <time>2022-01-20T17:41:27.193Z</time>
      </trkpt>
      <trkpt lat="45.44195" lon="7.01142">
        <ele>2317.6550677525</ele>
        <time>2022-01-20T17:41:33.191Z</time>
      </trkpt>
      <trkpt lat="45.44175" lon="7.01071">
        <ele>2318.3614571934</ele>
        <time>2022-01-20T17:41:39.198Z</time>
      </trkpt>
      <trkpt lat="45.44162" lon="7.01033">
        <ele>2319.2055531494</ele>
        <time>2022-01-20T17:41:45.209Z</time>
      </trkpt>
      <trkpt lat="45.44149" lon="7.00969">
        <ele>2320.1224769198</ele>
        <time>2022-01-20T17:41:51.228Z</time>
      </trkpt>
      <trkpt lat="45.44149" lon="7.00969">
        <ele>2321.2618499349</ele>
        <time>2022-01-20T17:41:57.247Z</time>
      </trkpt>
      <trkpt lat="45.44141" lon="7.00888">
        <ele>2322.3326064425</ele>
        <time>2022-01-20T17:42:03.275Z</time>
      </trkpt>
      <trkpt lat="45.44132" lon="7.00847">
        <ele>2323.6407005102</ele>
        <time>2022-01-20T17:42:09.308Z</time>
      </trkpt>
      <trkpt lat="45.441" lon="7.00774">
        <ele>2325.5363766759</ele>
        <time>2022-01-20T17:42:15.351Z</time>
      </trkpt>
      <trkpt lat="45.44056" lon="7.00703">
        <ele>2327.4829842303</ele>
        <time>2022-01-20T17:42:21.404Z</time>
      </trkpt>
      <trkpt lat="45.44041" lon="7.00669">
        <ele>2329.4069388944</ele>
        <time>2022-01-20T17:42:27.462Z</time>
      </trkpt>
      <trkpt lat="45.44028" lon="7.00647">
        <ele>2331.6091638987</ele>
        <time>2022-01-20T17:42:33.523Z</time>
      </trkpt>
      <trkpt lat="45.44001" lon="7.00614">
        <ele>2334.0634279264</ele>
        <time>2022-01-20T17:42:39.590Z</time>
      </trkpt>
      <trkpt lat="45.43965" lon="7.0059">
        <ele>2336.4772284029</ele>
        <time>2022-01-20T17:42:45.663Z</time>
      </trkpt>
      <trkpt lat="45.4394" lon="7.0057">
        <ele>2339.0791258771</ele>
        <time>2022-01-20T17:42:51.741Z</time>
      </trkpt>
      <trkpt lat="45.43923" lon="7.00551">
        <ele>2341.5910874877</ele>
        <time>2022-01-20T17:42:57.822Z</time>
      </trkpt>
      <trkpt lat="45.43902" lon="7.00522">
        <ele>2343.8939943202</ele>
        <time>2022-01-20T17:43:03.908Z</time>
      </trkpt>
      <trkpt lat="45.43857" lon="7.00505">
        <ele>2346.598344308</ele>
        <time>2022-01-20T17:43:10.001Z</time>
      </trkpt>
      <trkpt lat="45.4382" lon="7.00482">
        <ele>2349.3088327994</ele>
        <time>2022-01-20T17:43:16.101Z</time>
      </trkpt>
      <trkpt lat="45.43808" lon="7.00472">
        <ele>2351.9324615452</ele>
        <time>2022-01-20T17:43:22.203Z</time>
      </trkpt>
      <trkpt lat="45.43754" lon="7.00434">
        <ele>2354.8488977518</ele>
        <time>2022-01-20T17:43:28.315Z</time>
      </trkpt>
      <trkpt lat="45.43728" lon="7.00427">
        <ele>2357.711539986</ele>
        <time>2022-01-20T17:43:34.431Z</time>
      </trkpt>
      <trkpt lat="45.43716" lon="7.00421">
        <ele>2360.4573197263</ele>
        <time>2022-01-20T17:43:40.549Z</time>
      </trkpt>
      <trkpt lat="45.43688" lon="7.00401">
        <ele>2363.2802436237</ele>
        <time>2022-01-20T17:43:46.672Z</time>
      </trkpt>
      <trkpt lat="45.43682" lon="7.00395">
        <ele>2365.9965937956</ele>
        <time>2022-01-20T17:43:52.796Z</time>
      </trkpt>
      <trkpt lat="45.43654" lon="7.00356">
        <ele>2368.6440452507</ele>
        <time>2022-01-20T17:43:58.926Z</time>
      </trkpt>
      <trkpt lat="45.4363" lon="7.00307">
        <ele>2371.0983769015</ele>
        <time>2022-01-20T17:44:05.063Z</time>
      </trkpt>
      <trkpt lat="45.43621" lon="7.00293">
        <ele>2373.7239798633</ele>
        <time>2022-01-20T17:44:11.202Z</time>
      </trkpt>
      <trkpt lat="45.43585" lon="7.00272">
        <ele>2376.6280512654</ele>
        <time>2022-01-20T17:44:17.347Z</time>
      </trkpt>
      <trkpt lat="45.43527" lon="7.00231">
        <ele>2379.347019531</ele>
        <time>2022-01-20T17:44:23.503Z</time>
      </trkpt>
      <trkpt lat="45.43513" lon="7.00223">
        <ele>2381.9469085144</ele>
        <time>2022-01-20T17:44:29.661Z</time>
      </trkpt>
      <trkpt lat="45.43477" lon="7.00228">
        <ele>2384.8097280862</ele>
        <time>2022-01-20T17:44:35.825Z</time>
      </trkpt>
      <trkpt lat="45.43464" lon="7.00223">
        <ele>2387.3448925728</ele>
        <time>2022-01-20T17:44:41.991Z</time>
      </trkpt>
      <trkpt lat="45.4343" lon="7.00204">
        <ele>2389.8138661816</ele>
        <time>2022-01-20T17:44:48.163Z</time>
      </trkpt>
      <trkpt lat="45.43418" lon="7.00201">
        <ele>2392.190231559</ele>
        <time>2022-01-20T17:44:54.337Z</time>
      </trkpt>
      <trkpt lat="45.43404" lon="7.00207">
        <ele>2394.5576093366</ele>
        <time>2022-01-20T17:45:00.513Z</time>
      </trkpt>
      <trkpt lat="45.43393" lon="7.00221">
        <ele>2396.8810481705</ele>
        <time>2022-01-20T17:45:06.692Z</time>
      </trkpt>
      <trkpt lat="45.4337" lon="7.00256">
        <ele>2399.2806142245</ele>
        <time>2022-01-20T17:45:12.876Z</time>
      </trkpt>
      <trkpt lat="45.43358" lon="7.0026">
        <ele>2401.3364913345</ele>
        <time>2022-01-20T17:45:19.062Z</time>
      </trkpt>
      <trkpt lat="45.43345" lon="7.00257">
        <ele>2403.2076586662</ele>
        <time>2022-01-20T17:45:25.250Z</time>
      </trkpt>
      <trkpt lat="45.43328" lon="7.00247">
        <ele>2404.9051380301</ele>
        <time>2022-01-20T17:45:31.441Z</time>
      </trkpt>
      <trkpt lat="45.43316" lon="7.00237">
        <ele>2406.4744919628</ele>
        <time>2022-01-20T17:45:37.634Z</time>
      </trkpt>
      <trkpt lat="45.43306" lon="7.00232">
        <ele>2408.0072000829</ele>
        <time>2022-01-20T17:45:43.829Z</time>
      </trkpt>
      <trkpt lat="45.43282" lon="7.00227">
        <ele>2409.5619534093</ele>
        <time>2022-01-20T17:45:50.028Z</time>
      </trkpt>
      <trkpt lat="45.43223" lon="7.00209">
        <ele>2411.1322450328</ele>
        <time>2022-01-20T17:45:56.237Z</time>
      </trkpt>
      <trkpt lat="45.43212" lon="7.00201">
        <ele>2412.3735068787</ele>
        <time>2022-01-20T17:46:02.448Z</time>
      </trkpt>
      <trkpt lat="45.43202" lon="7.0019">
        <ele>2413.5046610697</ele>
        <time>2022-01-20T17:46:08.661Z</time>
      </trkpt>
      <trkpt lat="45.43189" lon="7.0018">
        <ele>2414.5841398799</ele>
        <time>2022-01-20T17:46:14.876Z</time>
      </trkpt>
      <trkpt lat="45.43168" lon="7.00173">
        <ele>2415.7077789538</ele>
        <time>2022-01-20T17:46:21.094Z</time>
      </trkpt>
      <trkpt lat="45.43157" lon="7.00171">
        <ele>2416.7417270001</ele>
        <time>2022-01-20T17:46:27.314Z</time>
      </trkpt>
      <trkpt lat="45.43144" lon="7.00173">
        <ele>2417.7198643966</ele>
        <time>2022-01-20T17:46:33.536Z</time>
      </trkpt>
      <trkpt lat="45.43132" lon="7.00181">
        <ele>2418.6753994043</ele>
        <time>2022-01-20T17:46:39.760Z</time>
      </trkpt>
      <trkpt lat="45.43121" lon="7.00196">
        <ele>2419.6376950244</ele>
        <time>2022-01-20T17:46:45.987Z</time>
      </trkpt>
      <trkpt lat="45.43118" lon="7.00216">
        <ele>2420.5295236548</ele>
        <time>2022-01-20T17:46:52.216Z</time>
      </trkpt>
      <trkpt lat="45.43119" lon="7.0024">
        <ele>2421.4404168651</ele>
        <time>2022-01-20T17:46:58.448Z</time>
      </trkpt>
      <trkpt lat="45.43121" lon="7.0025">
        <ele>2422.25114109</ele>
        <time>2022-01-20T17:47:04.681Z</time>
      </trkpt>
      <trkpt lat="45.43132" lon="7.00278">
        <ele>2423.0575383306</ele>
        <time>2022-01-20T17:47:10.918Z</time>
      </trkpt>
      <trkpt lat="45.43136" lon="7.00283">
        <ele>2423.7981597341</ele>
        <time>2022-01-20T17:47:17.155Z</time>
      </trkpt>
      <trkpt lat="45.43153" lon="7.00293">
        <ele>2424.5823120838</ele>
        <time>2022-01-20T17:47:23.395Z</time>
      </trkpt>
      <trkpt lat="45.43194" lon="7.00289">
        <ele>2425.3612868649</ele>
        <time>2022-01-20T17:47:29.642Z</time>
      </trkpt>
      <trkpt lat="45.43222" lon="7.00292">
        <ele>2426.140801487</ele>
        <time>2022-01-20T17:47:35.894Z</time>
      </trkpt>
      <trkpt lat="45.4324" lon="7.00303">
        <ele>2426.9944584785</ele>
        <time>2022-01-20T17:47:42.149Z</time>
      </trkpt>
      <trkpt lat="45.43258" lon="7.00325">
        <ele>2427.928872569</ele>
        <time>2022-01-20T17:47:48.407Z</time>
      </trkpt>
      <trkpt lat="45.43264" lon="7.0033">
        <ele>2428.7755427528</ele>
        <time>2022-01-20T17:47:54.667Z</time>
      </trkpt>
      <trkpt lat="45.43277" lon="7.00335">
        <ele>2429.6336779033</ele>
        <time>2022-01-20T17:48:00.929Z</time>
      </trkpt>
      <trkpt lat="45.43315" lon="7.00333">
        <ele>2430.4272424018</ele>
        <time>2022-01-20T17:48:07.197Z</time>
      </trkpt>
      <trkpt lat="45.43334" lon="7.00328">
        <ele>2431.3527048142</ele>
        <time>2022-01-20T17:48:13.468Z</time>
      </trkpt>
      <trkpt lat="45.43345" lon="7.00327">
        <ele>2432.331349895</ele>
        <time>2022-01-20T17:48:19.741Z</time>
      </trkpt>
      <trkpt lat="45.43351" lon="7.00328">
        <ele>2433.3946891018</ele>
        <time>2022-01-20T17:48:26.015Z</time>
      </trkpt>
      <trkpt lat="45.43356" lon="7.00332">
        <ele>2434.549634849</ele>
        <time>2022-01-20T17:48:32.290Z</time>
      </trkpt>
      <trkpt lat="45.43359" lon="7.00337">
        <ele>2435.7884536589</ele>
        <time>2022-01-20T17:48:38.565Z</time>
      </trkpt>
      <trkpt lat="45.43368" lon="7.00368">
        <ele>2437.2284884442</ele>
        <time>2022-01-20T17:48:44.844Z</time>
      </trkpt>
      <trkpt lat="45.43381" lon="7.00394">
        <ele>2438.6724843563</ele>
        <time>2022-01-20T17:48:51.127Z</time>
      </trkpt>
      <trkpt lat="45.43404" lon="7.00422">
        <ele>2440.1459682108</ele>
        <time>2022-01-20T17:48:57.415Z</time>
      </trkpt>
      <trkpt lat="45.43424" lon="7.0045">
        <ele>2441.7333527617</ele>
        <time>2022-01-20T17:49:03.707Z</time>
      </trkpt>
      <trkpt lat="45.43454" lon="7.00485">
        <ele>2443.430212093</ele>
        <time>2022-01-20T17:49:10.005Z</time>
      </trkpt>
      <trkpt lat="45.43461" lon="7.0049">
        <ele>2445.0289596555</ele>
        <time>2022-01-20T17:49:16.304Z</time>
      </trkpt>
      <trkpt lat="45.43496" lon="7.00504">
        <ele>2446.7264955851</ele>
        <time>2022-01-20T17:49:22.609Z</time>
      </trkpt>
      <trkpt lat="45.43507" lon="7.00506">
        <ele>2448.3587656682</ele>
        <time>2022-01-20T17:49:28.916Z</time>
      </trkpt>
      <trkpt lat="45.43551" lon="7.00505">
        <ele>2449.9548335568</ele>
        <time>2022-01-20T17:49:35.230Z</time>
      </trkpt>
      <trkpt lat="45.43568" lon="7.0051">
        <ele>2451.5855242345</ele>
        <time>2022-01-20T17:49:41.547Z</time>
      </trkpt>
      <trkpt lat="45.43581" lon="7.00518">
        <ele>2453.2662162946</ele>
        <time>2022-01-20T17:49:47.866Z</time>
      </trkpt>
      <trkpt lat="45.43622" lon="7.00566">
        <ele>2455.1038132777</ele>
        <time>2022-01-20T17:49:54.194Z</time>
      </trkpt>
      <trkpt lat="45.43634" lon="7.00574">
        <ele>2456.7627315549</ele>
        <time>2022-01-20T17:50:00.524Z</time>
      </trkpt>
      <trkpt lat="45.43668" lon="7.00592">
        <ele>2458.4688935385</ele>
        <time>2022-01-20T17:50:06.860Z</time>
      </trkpt>
      <trkpt lat="45.43713" lon="7.00628">
        <ele>2460.1167754183</ele>
        <time>2022-01-20T17:50:13.204Z</time>
      </trkpt>
      <trkpt lat="45.43717" lon="7.00637">
        <ele>2461.8065813635</ele>
        <time>2022-01-20T17:50:19.549Z</time>
      </trkpt>
      <trkpt lat="45.43717" lon="7.00647">
        <ele>2463.5346144086</ele>
        <time>2022-01-20T17:50:25.895Z</time>
      </trkpt>
      <trkpt lat="45.43711" lon="7.00653">
        <ele>2465.263743814</ele>
        <time>2022-01-20T17:50:32.242Z</time>
      </trkpt>
      <trkpt lat="45.43705" lon="7.00653">
        <ele>2466.9418961325</ele>
        <time>2022-01-20T17:50:38.590Z</time>
      </trkpt>
      <trkpt lat="45.43698" lon="7.00649">
        <ele>2468.5930793132</ele>
        <time>2022-01-20T17:50:44.940Z</time>
      </trkpt>
      <trkpt lat="45.43686" lon="7.00632">
        <ele>2470.1827644602</ele>
        <time>2022-01-20T17:50:51.292Z</time>
      </trkpt>
      <trkpt lat="45.43675" lon="7.00626">
        <ele>2471.8402313858</ele>
        <time>2022-01-20T17:50:57.646Z</time>
      </trkpt>
      <trkpt lat="45.43661" lon="7.00623">
        <ele>2473.5247544635</ele>
        <time>2022-01-20T17:51:04.002Z</time>
      </trkpt>
      <trkpt lat="45.43639" lon="7.00614">
        <ele>2475.1792843926</ele>
        <time>2022-01-20T17:51:10.362Z</time>
      </trkpt>
      <trkpt lat="45.43583" lon="7.00581">
        <ele>2476.9351766622</ele>
        <time>2022-01-20T17:51:16.732Z</time>
      </trkpt>
      <trkpt lat="45.43568" lon="7.00574">
        <ele>2478.5309369691</ele>
        <time>2022-01-20T17:51:23.104Z</time>
      </trkpt>
      <trkpt lat="45.43551" lon="7.00573">
        <ele>2480.1747316628</ele>
        <time>2022-01-20T17:51:29.479Z</time>
      </trkpt>
      <trkpt lat="45.43534" lon="7.00575">
        <ele>2481.7856815307</ele>
        <time>2022-01-20T17:51:35.857Z</time>
      </trkpt>
      <trkpt lat="45.4351" lon="7.00583">
        <ele>2483.470978718</ele>
        <time>2022-01-20T17:51:42.239Z</time>
      </trkpt>
      <trkpt lat="45.43486" lon="7.00595">
        <ele>2485.1878204423</ele>
        <time>2022-01-20T17:51:48.625Z</time>
      </trkpt>
      <trkpt lat="45.43474" lon="7.00599">
        <ele>2486.7143069482</ele>
        <time>2022-01-20T17:51:55.013Z</time>
      </trkpt>
      <trkpt lat="45.43464" lon="7.00599">
        <ele>2488.1398706526</ele>
        <time>2022-01-20T17:52:01.402Z</time>
      </trkpt>
      <trkpt lat="45.4343" lon="7.00593">
        <ele>2489.4385441723</ele>
        <time>2022-01-20T17:52:07.797Z</time>
      </trkpt>
      <trkpt lat="45.43422" lon="7.00597">
        <ele>2490.8603939598</ele>
        <time>2022-01-20T17:52:14.193Z</time>
      </trkpt>
      <trkpt lat="45.43421" lon="7.00606">
        <ele>2492.2785396212</ele>
        <time>2022-01-20T17:52:20.590Z</time>
      </trkpt>
      <trkpt lat="45.43423" lon="7.00616">
        <ele>2493.6683274795</ele>
        <time>2022-01-20T17:52:26.988Z</time>
      </trkpt>
      <trkpt lat="45.43426" lon="7.00618">
        <ele>2494.9489633779</ele>
        <time>2022-01-20T17:52:33.387Z</time>
      </trkpt>
      <trkpt lat="45.43469" lon="7.00628">
        <ele>2496.3183279188</ele>
        <time>2022-01-20T17:52:39.793Z</time>
      </trkpt>
      <trkpt lat="45.4348" lon="7.00628">
        <ele>2497.5297780929</ele>
        <time>2022-01-20T17:52:46.201Z</time>
      </trkpt>
      <trkpt lat="45.43502" lon="7.00617">
        <ele>2498.6100267315</ele>
        <time>2022-01-20T17:52:52.612Z</time>
      </trkpt>
      <trkpt lat="45.43523" lon="7.00615">
        <ele>2499.7281837463</ele>
        <time>2022-01-20T17:52:59.027Z</time>
      </trkpt>
      <trkpt lat="45.43538" lon="7.00621">
        <ele>2500.9193089947</ele>
        <time>2022-01-20T17:53:05.444Z</time>
      </trkpt>
      <trkpt lat="45.43546" lon="7.00628">
        <ele>2502.141374206</ele>
        <time>2022-01-20T17:53:11.863Z</time>
      </trkpt>
      <trkpt lat="45.43565" lon="7.00653">
        <ele>2503.5403083541</ele>
        <time>2022-01-20T17:53:18.286Z</time>
      </trkpt>
      <trkpt lat="45.436" lon="7.00669">
        <ele>2504.6567305676</ele>
        <time>2022-01-20T17:53:24.715Z</time>
      </trkpt>
      <trkpt lat="45.4361" lon="7.00678">
        <ele>2505.8430032411</ele>
        <time>2022-01-20T17:53:31.146Z</time>
      </trkpt>
      <trkpt lat="45.43645" lon="7.00728">
        <ele>2507.0863260781</ele>
        <time>2022-01-20T17:53:37.585Z</time>
      </trkpt>
      <trkpt lat="45.43653" lon="7.00744">
        <ele>2508.3284056613</ele>
        <time>2022-01-20T17:53:44.026Z</time>
      </trkpt>
      <trkpt lat="45.43676" lon="7.00775">
        <ele>2509.5344474336</ele>
        <time>2022-01-20T17:53:50.472Z</time>
      </trkpt>
      <trkpt lat="45.43695" lon="7.00811">
        <ele>2510.862044016</ele>
        <time>2022-01-20T17:53:56.923Z</time>
      </trkpt>
      <trkpt lat="45.4372" lon="7.00847">
        <ele>2512.0638958417</ele>
        <time>2022-01-20T17:54:03.380Z</time>
      </trkpt>
      <trkpt lat="45.43774" lon="7.00901">
        <ele>2513.0607918595</ele>
        <time>2022-01-20T17:54:09.847Z</time>
      </trkpt>
      <trkpt lat="45.43794" lon="7.00915">
        <ele>2514.1806822398</ele>
        <time>2022-01-20T17:54:16.318Z</time>
      </trkpt>
      <trkpt lat="45.43804" lon="7.00925">
        <ele>2515.3580278921</ele>
        <time>2022-01-20T17:54:22.791Z</time>
      </trkpt>
      <trkpt lat="45.43836" lon="7.00969">
        <ele>2516.5633738903</ele>
        <time>2022-01-20T17:54:29.271Z</time>
      </trkpt>
      <trkpt lat="45.43844" lon="7.00983">
        <ele>2517.7976451099</ele>
        <time>2022-01-20T17:54:35.753Z</time>
      </trkpt>
      <trkpt lat="45.43858" lon="7.01015">
        <ele>2519.1884276394</ele>
        <time>2022-01-20T17:54:42.239Z</time>
      </trkpt>
      <trkpt lat="45.43861" lon="7.01028">
        <ele>2520.4999957826</ele>
        <time>2022-01-20T17:54:48.727Z</time>
      </trkpt>
      <trkpt lat="45.43857" lon="7.01042">
        <ele>2521.8857226941</ele>
        <time>2022-01-20T17:54:55.216Z</time>
      </trkpt>
      <trkpt lat="45.43848" lon="7.01049">
        <ele>2523.3185214107</ele>
        <time>2022-01-20T17:55:01.707Z</time>
      </trkpt>
      <trkpt lat="45.43824" lon="7.01034">
        <ele>2524.7868737056</ele>
        <time>2022-01-20T17:55:08.202Z</time>
      </trkpt>
      <trkpt lat="45.43818" lon="7.01033">
        <ele>2526.2993387604</ele>
        <time>2022-01-20T17:55:14.698Z</time>
      </trkpt>
      <trkpt lat="45.43797" lon="7.0104">
        <ele>2527.9084235877</ele>
        <time>2022-01-20T17:55:21.198Z</time>
      </trkpt>
      <trkpt lat="45.43787" lon="7.01053">
        <ele>2529.6769560206</ele>
        <time>2022-01-20T17:55:27.700Z</time>
      </trkpt>
      <trkpt lat="45.43768" lon="7.01094">
        <ele>2531.5582610792</ele>
        <time>2022-01-20T17:55:34.207Z</time>
      </trkpt>
      <trkpt lat="45.43752" lon="7.01142">
        <ele>2533.4879507312</ele>
        <time>2022-01-20T17:55:40.720Z</time>
      </trkpt>
      <trkpt lat="45.43726" lon="7.01186">
        <ele>2535.6429650157</ele>
        <time>2022-01-20T17:55:47.240Z</time>
      </trkpt>
      <trkpt lat="45.43714" lon="7.0122">
        <ele>2537.6385220738</ele>
        <time>2022-01-20T17:55:53.764Z</time>
      </trkpt>
      <trkpt lat="45.4371" lon="7.01242">
        <ele>2539.660524565</ele>
        <time>2022-01-20T17:56:00.291Z</time>
      </trkpt>
      <trkpt lat="45.43705" lon="7.01257">
        <ele>2541.754718138</ele>
        <time>2022-01-20T17:56:06.820Z</time>
      </trkpt>
      <trkpt lat="45.43637" lon="7.01354">
        <ele>2543.9591212228</ele>
        <time>2022-01-20T17:56:13.364Z</time>
      </trkpt>
      <trkpt lat="45.43628" lon="7.01371">
        <ele>2546.156482817</ele>
        <time>2022-01-20T17:56:19.910Z</time>
      </trkpt>
      <trkpt lat="45.43617" lon="7.01381">
        <ele>2548.5219669677</ele>
        <time>2022-01-20T17:56:26.458Z</time>
      </trkpt>
      <trkpt lat="45.43605" lon="7.01387">
        <ele>2550.9565934015</ele>
        <time>2022-01-20T17:56:33.008Z</time>
      </trkpt>
      <trkpt lat="45.43593" lon="7.01388">
        <ele>2553.4259231139</ele>
        <time>2022-01-20T17:56:39.560Z</time>
      </trkpt>
      <trkpt lat="45.43561" lon="7.01379">
        <ele>2556.0440393101</ele>
        <time>2022-01-20T17:56:46.118Z</time>
      </trkpt>
      <trkpt lat="45.43547" lon="7.01384">
        <ele>2558.6017759868</ele>
        <time>2022-01-20T17:56:52.678Z</time>
      </trkpt>
      <trkpt lat="45.43522" lon="7.01415">
        <ele>2561.2098298555</ele>
        <time>2022-01-20T17:56:59.243Z</time>
      </trkpt>
      <trkpt lat="45.43499" lon="7.01439">
        <ele>2563.8822602091</ele>
        <time>2022-01-20T17:57:05.813Z</time>
      </trkpt>
      <trkpt lat="45.43461" lon="7.01467">
        <ele>2566.6482247322</ele>
        <time>2022-01-20T17:57:12.390Z</time>
      </trkpt>
      <trkpt lat="45.43432" lon="7.01486">
        <ele>2569.4572363756</ele>
        <time>2022-01-20T17:57:18.972Z</time>
      </trkpt>
      <trkpt lat="45.43386" lon="7.01524">
        <ele>2572.2390723827</ele>
        <time>2022-01-20T17:57:25.562Z</time>
      </trkpt>
      <trkpt lat="45.43379" lon="7.01535">
        <ele>2574.9296279638</ele>
        <time>2022-01-20T17:57:32.154Z</time>
      </trkpt>
      <trkpt lat="45.43302" lon="7.01698">
        <ele>2577.8477451438</ele>
        <time>2022-01-20T17:57:38.768Z</time>
      </trkpt>
      <trkpt lat="45.43282" lon="7.01729">
        <ele>2580.5014640804</ele>
        <time>2022-01-20T17:57:45.387Z</time>
      </trkpt>
      <trkpt lat="45.43199" lon="7.01806">
        <ele>2583.4048870082</ele>
        <time>2022-01-20T17:57:52.022Z</time>
      </trkpt>
      <trkpt lat="45.4319" lon="7.01817">
        <ele>2586.0389923545</ele>
        <time>2022-01-20T17:57:58.659Z</time>
      </trkpt>
      <trkpt lat="45.43182" lon="7.01824">
        <ele>2588.6895506602</ele>
        <time>2022-01-20T17:58:05.297Z</time>
      </trkpt>
      <trkpt lat="45.43172" lon="7.0183">
        <ele>2591.3175219159</ele>
        <time>2022-01-20T17:58:11.937Z</time>
      </trkpt>
      <trkpt lat="45.43145" lon="7.01842">
        <ele>2594.025122468</ele>
        <time>2022-01-20T17:58:18.581Z</time>
      </trkpt>
      <trkpt lat="45.43101" lon="7.01869">
        <ele>2596.5965992093</ele>
        <time>2022-01-20T17:58:25.233Z</time>
      </trkpt>
      <trkpt lat="45.43069" lon="7.01892">
        <ele>2599.179992096</ele>
        <time>2022-01-20T17:58:31.891Z</time>
      </trkpt>
      <trkpt lat="45.43049" lon="7.01902">
        <ele>2601.5815967957</ele>
        <time>2022-01-20T17:58:38.552Z</time>
      </trkpt>
      <trkpt lat="45.43041" lon="7.01908">
        <ele>2603.7160827322</ele>
        <time>2022-01-20T17:58:45.215Z</time>
      </trkpt>
      <trkpt lat="45.43034" lon="7.01915">
        <ele>2605.6626462354</ele>
        <time>2022-01-20T17:58:51.879Z</time>
      </trkpt>
      <trkpt lat="45.43026" lon="7.01928">
        <ele>2607.3678952237</ele>
        <time>2022-01-20T17:58:58.545Z</time>
      </trkpt>
      <trkpt lat="45.42934" lon="7.02051">
        <ele>2609.3076285543</ele>
        <time>2022-01-20T17:59:05.231Z</time>
      </trkpt>
      <trkpt lat="45.42911" lon="7.02085">
        <ele>2610.6300284734</ele>
        <time>2022-01-20T17:59:11.922Z</time>
      </trkpt>
      <trkpt lat="45.42889" lon="7.02113">
        <ele>2611.7567330053</ele>
        <time>2022-01-20T17:59:18.618Z</time>
      </trkpt>
      <trkpt lat="45.42876" lon="7.02122">
        <ele>2612.6013162945</ele>
        <time>2022-01-20T17:59:25.316Z</time>
      </trkpt>
      <trkpt lat="45.42845" lon="7.02134">
        <ele>2613.2591695188</ele>
        <time>2022-01-20T17:59:32.020Z</time>
      </trkpt>
      <trkpt lat="45.42826" lon="7.02144">
        <ele>2613.6238831682</ele>
        <time>2022-01-20T17:59:38.727Z</time>
      </trkpt>
      <trkpt lat="45.42755" lon="7.02175">
        <ele>2613.7219748564</ele>
        <time>2022-01-20T17:59:45.446Z</time>
      </trkpt>
      <trkpt lat="45.42797" lon="7.02173">
        <ele>2613.328984485</ele>
        <time>2022-01-20T17:59:52.171Z</time>
      </trkpt>
      <trkpt lat="45.42817" lon="7.02181">
        <ele>2612.6349014857</ele>
        <time>2022-01-20T17:59:58.900Z</time>
      </trkpt>
      <trkpt lat="45.4283" lon="7.02183">
        <ele>2611.7385270918</ele>
        <time>2022-01-20T18:00:05.631Z</time>
      </trkpt>
      <trkpt lat="45.42854" lon="7.02194">
        <ele>2610.3741731845</ele>
        <time>2022-01-20T18:00:12.366Z</time>
      </trkpt>
      <trkpt lat="45.42856" lon="7.02199">
        <ele>2609.1196641315</ele>
        <time>2022-01-20T18:00:19.102Z</time>
      </trkpt>
      <trkpt lat="45.42853" lon="7.0222">
        <ele>2607.6662772331</ele>
        <time>2022-01-20T18:00:25.840Z</time>
      </trkpt>
      <trkpt lat="45.42838" lon="7.02264">
        <ele>2606.0808803156</ele>
        <time>2022-01-20T18:00:32.583Z</time>
      </trkpt>
      <trkpt lat="45.4284" lon="7.02283">
        <ele>2604.5290797004</ele>
        <time>2022-01-20T18:00:39.329Z</time>
      </trkpt>
      <trkpt lat="45.42838" lon="7.02303">
        <ele>2602.9364351211</ele>
        <time>2022-01-20T18:00:46.077Z</time>
      </trkpt>
      <trkpt lat="45.42835" lon="7.0231">
        <ele>2601.3379279948</ele>
        <time>2022-01-20T18:00:52.826Z</time>
      </trkpt>
      <trkpt lat="45.42831" lon="7.02312">
        <ele>2599.7421375208</ele>
        <time>2022-01-20T18:00:59.576Z</time>
      </trkpt>
      <trkpt lat="45.42825" lon="7.02312">
        <ele>2598.1615993568</ele>
        <time>2022-01-20T18:01:06.327Z</time>
      </trkpt>
      <trkpt lat="45.42813" lon="7.02304">
        <ele>2596.6261492906</ele>
        <time>2022-01-20T18:01:13.080Z</time>
      </trkpt>
      <trkpt lat="45.42806" lon="7.02306">
        <ele>2595.0764975709</ele>
        <time>2022-01-20T18:01:19.834Z</time>
      </trkpt>
      <trkpt lat="45.428" lon="7.02312">
        <ele>2593.5375273269</ele>
        <time>2022-01-20T18:01:26.589Z</time>
      </trkpt>
      <trkpt lat="45.42798" lon="7.02329">
        <ele>2591.9777565906</ele>
        <time>2022-01-20T18:01:33.346Z</time>
      </trkpt>
      <trkpt lat="45.42802" lon="7.02336">
        <ele>2590.4270183842</ele>
        <time>2022-01-20T18:01:40.104Z</time>
      </trkpt>
      <trkpt lat="45.42824" lon="7.02352">
        <ele>2588.8203825003</ele>
        <time>2022-01-20T18:01:46.866Z</time>
      </trkpt>
      <trkpt lat="45.42851" lon="7.02378">
        <ele>2587.2470316411</ele>
        <time>2022-01-20T18:01:53.633Z</time>
      </trkpt>
      <trkpt lat="45.4286" lon="7.02406">
        <ele>2585.7434532234</ele>
        <time>2022-01-20T18:02:00.404Z</time>
      </trkpt>
      <trkpt lat="45.42861" lon="7.02414">
        <ele>2584.2834808386</ele>
        <time>2022-01-20T18:02:07.175Z</time>
      </trkpt>
      <trkpt lat="45.42864" lon="7.0242">
        <ele>2582.8210124019</ele>
        <time>2022-01-20T18:02:13.947Z</time>
      </trkpt>
      <trkpt lat="45.42869" lon="7.02424">
        <ele>2581.3536437093</ele>
        <time>2022-01-20T18:02:20.720Z</time>
      </trkpt>
      <trkpt lat="45.42876" lon="7.02426">
        <ele>2579.8800710103</ele>
        <time>2022-01-20T18:02:27.494Z</time>
      </trkpt>
      <trkpt lat="45.42884" lon="7.02425">
        <ele>2578.3939289011</ele>
        <time>2022-01-20T18:02:34.270Z</time>
      </trkpt>
      <trkpt lat="45.42919" lon="7.02404">
        <ele>2576.6879669666</ele>
        <time>2022-01-20T18:02:41.052Z</time>
      </trkpt>
      <trkpt lat="45.42936" lon="7.02392">
        <ele>2575.1586943811</ele>
        <time>2022-01-20T18:02:47.837Z</time>
      </trkpt>
      <trkpt lat="45.42959" lon="7.02386">
        <ele>2573.6922882044</ele>
        <time>2022-01-20T18:02:54.625Z</time>
      </trkpt>
      <trkpt lat="45.42975" lon="7.0238">
        <ele>2572.248719172</ele>
        <time>2022-01-20T18:03:01.416Z</time>
      </trkpt>
      <trkpt lat="45.42988" lon="7.02371">
        <ele>2570.868801942</ele>
        <time>2022-01-20T18:03:08.209Z</time>
      </trkpt>
      <trkpt lat="45.4302" lon="7.02336">
        <ele>2569.4554488821</ele>
        <time>2022-01-20T18:03:15.009Z</time>
      </trkpt>
      <trkpt lat="45.43037" lon="7.02322">
        <ele>2568.0849181776</ele>
        <time>2022-01-20T18:03:21.812Z</time>
      </trkpt>
      <trkpt lat="45.43059" lon="7.02307">
        <ele>2566.7501166139</ele>
        <time>2022-01-20T18:03:28.619Z</time>
      </trkpt>
      <trkpt lat="45.4309" lon="7.02252">
        <ele>2565.4482686121</ele>
        <time>2022-01-20T18:03:35.434Z</time>
      </trkpt>
      <trkpt lat="45.43095" lon="7.0224">
        <ele>2564.1843178492</ele>
        <time>2022-01-20T18:03:42.250Z</time>
      </trkpt>
      <trkpt lat="45.43101" lon="7.02243">
        <ele>2562.9467557522</ele>
        <time>2022-01-20T18:03:49.068Z</time>
      </trkpt>
      <trkpt lat="45.43116" lon="7.02244">
        <ele>2561.6897021834</ele>
        <time>2022-01-20T18:03:55.888Z</time>
      </trkpt>
      <trkpt lat="45.43134" lon="7.0225">
        <ele>2560.4146156146</ele>
        <time>2022-01-20T18:04:02.711Z</time>
      </trkpt>
      <trkpt lat="45.43156" lon="7.02254">
        <ele>2559.1319513037</ele>
        <time>2022-01-20T18:04:09.537Z</time>
      </trkpt>
      <trkpt lat="45.43178" lon="7.02252">
        <ele>2557.7540479222</ele>
        <time>2022-01-20T18:04:16.367Z</time>
      </trkpt>
      <trkpt lat="45.43201" lon="7.02244">
        <ele>2556.2968705003</ele>
        <time>2022-01-20T18:04:23.201Z</time>
      </trkpt>
      <trkpt lat="45.43233" lon="7.02236">
        <ele>2554.7726798299</ele>
        <time>2022-01-20T18:04:30.040Z</time>
      </trkpt>
      <trkpt lat="45.43255" lon="7.02226">
        <ele>2553.1367952727</ele>
        <time>2022-01-20T18:04:36.883Z</time>
      </trkpt>
      <trkpt lat="45.43301" lon="7.02201">
        <ele>2551.3757667022</ele>
        <time>2022-01-20T18:04:43.734Z</time>
      </trkpt>
      <trkpt lat="45.43328" lon="7.02179">
        <ele>2549.5438040143</ele>
        <time>2022-01-20T18:04:50.589Z</time>
      </trkpt>
      <trkpt lat="45.4336" lon="7.02146">
        <ele>2547.5545574731</ele>
        <time>2022-01-20T18:04:57.451Z</time>
      </trkpt>
      <trkpt lat="45.43388" lon="7.02109">
        <ele>2545.3962736528</ele>
        <time>2022-01-20T18:05:04.319Z</time>
      </trkpt>
      <trkpt lat="45.43429" lon="7.02066">
        <ele>2542.9962412215</ele>
        <time>2022-01-20T18:05:11.195Z</time>
      </trkpt>
      <trkpt lat="45.43439" lon="7.02057">
        <ele>2540.8196738753</ele>
        <time>2022-01-20T18:05:18.073Z</time>
      </trkpt>
      <trkpt lat="45.4345" lon="7.0205">
        <ele>2538.6405608211</ele>
        <time>2022-01-20T18:05:24.953Z</time>
      </trkpt>
      <trkpt lat="45.43458" lon="7.02041">
        <ele>2536.5043147732</ele>
        <time>2022-01-20T18:05:31.835Z</time>
      </trkpt>
      <trkpt lat="45.43485" lon="7.02028">
        <ele>2534.320190727</ele>
        <time>2022-01-20T18:05:38.721Z</time>
      </trkpt>
      <trkpt lat="45.43518" lon="7.02016">
        <ele>2532.281904313</ele>
        <time>2022-01-20T18:05:45.613Z</time>
      </trkpt>
      <trkpt lat="45.4354" lon="7.02015">
        <ele>2530.5703259533</ele>
        <time>2022-01-20T18:05:52.508Z</time>
      </trkpt>
      <trkpt lat="45.43568" lon="7.02019">
        <ele>2529.0704190801</ele>
        <time>2022-01-20T18:05:59.408Z</time>
      </trkpt>
      <trkpt lat="45.43577" lon="7.02023">
        <ele>2527.8183427535</ele>
        <time>2022-01-20T18:06:06.309Z</time>
      </trkpt>
      <trkpt lat="45.43608" lon="7.02044">
        <ele>2526.8030575022</ele>
        <time>2022-01-20T18:06:13.216Z</time>
      </trkpt>
      <trkpt lat="45.43623" lon="7.02052">
        <ele>2526.0021545799</ele>
        <time>2022-01-20T18:06:20.125Z</time>
      </trkpt>
      <trkpt lat="45.43633" lon="7.02054">
        <ele>2525.4593055565</ele>
        <time>2022-01-20T18:06:27.036Z</time>
      </trkpt>
      <trkpt lat="45.43643" lon="7.02061">
        <ele>2525.2487360039</ele>
        <time>2022-01-20T18:06:33.949Z</time>
      </trkpt>
      <trkpt lat="45.43633" lon="7.02054">
        <ele>2525.4593055565</ele>
        <time>2022-01-20T18:06:40.863Z</time>
      </trkpt>
      <trkpt lat="45.43623" lon="7.02052">
        <ele>2526.0021545799</ele>
        <time>2022-01-20T18:06:47.779Z</time>
      </trkpt>
      <trkpt lat="45.43608" lon="7.02044">
        <ele>2526.8030575022</ele>
        <time>2022-01-20T18:06:54.698Z</time>
      </trkpt>
      <trkpt lat="45.43577" lon="7.02023">
        <ele>2527.8183427535</ele>
        <time>2022-01-20T18:07:01.622Z</time>
      </trkpt>
      <trkpt lat="45.43568" lon="7.02019">
        <ele>2529.0704190801</ele>
        <time>2022-01-20T18:07:08.548Z</time>
      </trkpt>
      <trkpt lat="45.4354" lon="7.02015">
        <ele>2530.5703259533</ele>
        <time>2022-01-20T18:07:15.478Z</time>
      </trkpt>
      <trkpt lat="45.43518" lon="7.02016">
        <ele>2532.281904313</ele>
        <time>2022-01-20T18:07:22.412Z</time>
      </trkpt>
      <trkpt lat="45.43485" lon="7.02028">
        <ele>2534.320190727</ele>
        <time>2022-01-20T18:07:29.351Z</time>
      </trkpt>
      <trkpt lat="45.43458" lon="7.02041">
        <ele>2536.5043147732</ele>
        <time>2022-01-20T18:07:36.295Z</time>
      </trkpt>
      <trkpt lat="45.4345" lon="7.0205">
        <ele>2538.6405608211</ele>
        <time>2022-01-20T18:07:43.240Z</time>
      </trkpt>
      <trkpt lat="45.43439" lon="7.02057">
        <ele>2540.8196738753</ele>
        <time>2022-01-20T18:07:50.187Z</time>
      </trkpt>
      <trkpt lat="45.43429" lon="7.02066">
        <ele>2542.9962412215</ele>
        <time>2022-01-20T18:07:57.136Z</time>
      </trkpt>
      <trkpt lat="45.43388" lon="7.02109">
        <ele>2545.3962736528</ele>
        <time>2022-01-20T18:08:04.093Z</time>
      </trkpt>
      <trkpt lat="45.4336" lon="7.02146">
        <ele>2547.5545574731</ele>
        <time>2022-01-20T18:08:11.056Z</time>
      </trkpt>
      <trkpt lat="45.43328" lon="7.02179">
        <ele>2549.5438040143</ele>
        <time>2022-01-20T18:08:18.026Z</time>
      </trkpt>
      <trkpt lat="45.43301" lon="7.02201">
        <ele>2551.3757667022</ele>
        <time>2022-01-20T18:08:25.001Z</time>
      </trkpt>
      <trkpt lat="45.43255" lon="7.02226">
        <ele>2553.1367952727</ele>
        <time>2022-01-20T18:08:31.984Z</time>
      </trkpt>
      <trkpt lat="45.43233" lon="7.02236">
        <ele>2554.7726798299</ele>
        <time>2022-01-20T18:08:38.970Z</time>
      </trkpt>
      <trkpt lat="45.43201" lon="7.02244">
        <ele>2556.2968705003</ele>
        <time>2022-01-20T18:08:45.961Z</time>
      </trkpt>
      <trkpt lat="45.43178" lon="7.02252">
        <ele>2557.7540479222</ele>
        <time>2022-01-20T18:08:52.956Z</time>
      </trkpt>
      <trkpt lat="45.43156" lon="7.02254">
        <ele>2559.1319513037</ele>
        <time>2022-01-20T18:08:59.955Z</time>
      </trkpt>
      <trkpt lat="45.43134" lon="7.0225">
        <ele>2560.4146156146</ele>
        <time>2022-01-20T18:09:06.957Z</time>
      </trkpt>
      <trkpt lat="45.43116" lon="7.02244">
        <ele>2561.6897021834</ele>
        <time>2022-01-20T18:09:13.962Z</time>
      </trkpt>
      <trkpt lat="45.43101" lon="7.02243">
        <ele>2562.9467557522</ele>
        <time>2022-01-20T18:09:20.970Z</time>
      </trkpt>
      <trkpt lat="45.43095" lon="7.0224">
        <ele>2564.1843178492</ele>
        <time>2022-01-20T18:09:27.979Z</time>
      </trkpt>
      <trkpt lat="45.4309" lon="7.02252">
        <ele>2565.4482686121</ele>
        <time>2022-01-20T18:09:34.989Z</time>
      </trkpt>
      <trkpt lat="45.43059" lon="7.02307">
        <ele>2566.7501166139</ele>
        <time>2022-01-20T18:09:42.007Z</time>
      </trkpt>
      <trkpt lat="45.43037" lon="7.02322">
        <ele>2568.0849181776</ele>
        <time>2022-01-20T18:09:49.029Z</time>
      </trkpt>
      <trkpt lat="45.4302" lon="7.02336">
        <ele>2569.4554488821</ele>
        <time>2022-01-20T18:09:56.054Z</time>
      </trkpt>
      <trkpt lat="45.42988" lon="7.02371">
        <ele>2570.868801942</ele>
        <time>2022-01-20T18:10:03.086Z</time>
      </trkpt>
      <trkpt lat="45.42975" lon="7.0238">
        <ele>2572.248719172</ele>
        <time>2022-01-20T18:10:10.120Z</time>
      </trkpt>
      <trkpt lat="45.42959" lon="7.02386">
        <ele>2573.6922882044</ele>
        <time>2022-01-20T18:10:17.157Z</time>
      </trkpt>
      <trkpt lat="45.42936" lon="7.02392">
        <ele>2575.1586943811</ele>
        <time>2022-01-20T18:10:24.197Z</time>
      </trkpt>
      <trkpt lat="45.42919" lon="7.02404">
        <ele>2576.6879669666</ele>
        <time>2022-01-20T18:10:31.240Z</time>
      </trkpt>
      <trkpt lat="45.42884" lon="7.02425">
        <ele>2578.3939289011</ele>
        <time>2022-01-20T18:10:38.290Z</time>
      </trkpt>
      <trkpt lat="45.42876" lon="7.02426">
        <ele>2579.8800710103</ele>
        <time>2022-01-20T18:10:45.341Z</time>
      </trkpt>
      <trkpt lat="45.42869" lon="7.02424">
        <ele>2581.3536437093</ele>
        <time>2022-01-20T18:10:52.393Z</time>
      </trkpt>
      <trkpt lat="45.42864" lon="7.0242">
        <ele>2582.8210124019</ele>
        <time>2022-01-20T18:10:59.446Z</time>
      </trkpt>
      <trkpt lat="45.42861" lon="7.02414">
        <ele>2584.2834808386</ele>
        <time>2022-01-20T18:11:06.500Z</time>
      </trkpt>
      <trkpt lat="45.4286" lon="7.02406">
        <ele>2585.7434532234</ele>
        <time>2022-01-20T18:11:13.555Z</time>
      </trkpt>
      <trkpt lat="45.42851" lon="7.02378">
        <ele>2587.2470316411</ele>
        <time>2022-01-20T18:11:20.613Z</time>
      </trkpt>
      <trkpt lat="45.42824" lon="7.02352">
        <ele>2588.8203825003</ele>
        <time>2022-01-20T18:11:27.676Z</time>
      </trkpt>
      <trkpt lat="45.42802" lon="7.02336">
        <ele>2590.4270183842</ele>
        <time>2022-01-20T18:11:34.743Z</time>
      </trkpt>
      <trkpt lat="45.42798" lon="7.02329">
        <ele>2591.9777565906</ele>
        <time>2022-01-20T18:11:41.811Z</time>
      </trkpt>
      <trkpt lat="45.428" lon="7.02312">
        <ele>2593.5375273269</ele>
        <time>2022-01-20T18:11:48.881Z</time>
      </trkpt>
      <trkpt lat="45.42806" lon="7.02306">
        <ele>2595.0764975709</ele>
        <time>2022-01-20T18:11:55.952Z</time>
      </trkpt>
      <trkpt lat="45.42813" lon="7.02304">
        <ele>2596.6261492906</ele>
        <time>2022-01-20T18:12:03.025Z</time>
      </trkpt>
      <trkpt lat="45.42825" lon="7.02312">
        <ele>2598.1615993568</ele>
        <time>2022-01-20T18:12:10.100Z</time>
      </trkpt>
      <trkpt lat="45.42831" lon="7.02312">
        <ele>2599.7421375208</ele>
        <time>2022-01-20T18:12:17.176Z</time>
      </trkpt>
      <trkpt lat="45.42835" lon="7.0231">
        <ele>2601.3379279948</ele>
        <time>2022-01-20T18:12:24.252Z</time>
      </trkpt>
      <trkpt lat="45.42838" lon="7.02303">
        <ele>2602.9364351211</ele>
        <time>2022-01-20T18:12:31.329Z</time>
      </trkpt>
      <trkpt lat="45.4284" lon="7.02283">
        <ele>2604.5290797004</ele>
        <time>2022-01-20T18:12:38.408Z</time>
      </trkpt>
      <trkpt lat="45.42838" lon="7.0227">
        <ele>2595.5263929913</ele>
        <time>2022-01-20T18:12:45.489Z</time>
      </trkpt>
      <trkpt lat="45.42839" lon="7.02258">
        <ele>2597.5346748018</ele>
        <time>2022-01-20T18:12:52.571Z</time>
      </trkpt>
      <trkpt lat="45.42851" lon="7.02227">
        <ele>2599.79497115</ele>
        <time>2022-01-20T18:12:59.657Z</time>
      </trkpt>
      <trkpt lat="45.42856" lon="7.02199">
        <ele>2609.1196641315</ele>
        <time>2022-01-20T18:13:06.747Z</time>
      </trkpt>
      <trkpt lat="45.42854" lon="7.02194">
        <ele>2610.3741731845</ele>
        <time>2022-01-20T18:13:13.837Z</time>
      </trkpt>
      <trkpt lat="45.4283" lon="7.02183">
        <ele>2611.7385270918</ele>
        <time>2022-01-20T18:13:20.931Z</time>
      </trkpt>
      <trkpt lat="45.42817" lon="7.02181">
        <ele>2612.6349014857</ele>
        <time>2022-01-20T18:13:28.027Z</time>
      </trkpt>
      <trkpt lat="45.42797" lon="7.02173">
        <ele>2613.328984485</ele>
        <time>2022-01-20T18:13:35.127Z</time>
      </trkpt>
      <trkpt lat="45.42755" lon="7.02175">
        <ele>2613.7219748564</ele>
        <time>2022-01-20T18:13:42.233Z</time>
      </trkpt>
      <trkpt lat="45.4273" lon="7.02186">
        <ele>2619.6522600182</ele>
        <time>2022-01-20T18:13:49.344Z</time>
      </trkpt>
      <trkpt lat="45.42668" lon="7.02216">
        <ele>2622.8686705011</ele>
        <time>2022-01-20T18:13:56.465Z</time>
      </trkpt>
      <trkpt lat="45.4262" lon="7.02257">
        <ele>2626.0380998572</ele>
        <time>2022-01-20T18:14:03.595Z</time>
      </trkpt>
      <trkpt lat="45.42599" lon="7.02268">
        <ele>2629.121562254</ele>
        <time>2022-01-20T18:14:10.729Z</time>
      </trkpt>
      <trkpt lat="45.42582" lon="7.02271">
        <ele>2632.1993552731</ele>
        <time>2022-01-20T18:14:17.865Z</time>
      </trkpt>
      <trkpt lat="45.42525" lon="7.02265">
        <ele>2635.4364648664</ele>
        <time>2022-01-20T18:14:25.011Z</time>
      </trkpt>
      <trkpt lat="45.42492" lon="7.02268">
        <ele>2638.4743312766</ele>
        <time>2022-01-20T18:14:32.162Z</time>
      </trkpt>
      <trkpt lat="45.42434" lon="7.02277">
        <ele>2641.525118031</ele>
        <time>2022-01-20T18:14:39.322Z</time>
      </trkpt>
      <trkpt lat="45.42411" lon="7.02282">
        <ele>2644.4798373494</ele>
        <time>2022-01-20T18:14:46.486Z</time>
      </trkpt>
      <trkpt lat="45.42404" lon="7.02285">
        <ele>2647.318731525</ele>
        <time>2022-01-20T18:14:53.651Z</time>
      </trkpt>
      <trkpt lat="45.4239" lon="7.02295">
        <ele>2650.126357167</ele>
        <time>2022-01-20T18:15:00.819Z</time>
      </trkpt>
      <trkpt lat="45.42371" lon="7.02321">
        <ele>2652.8418540248</ele>
        <time>2022-01-20T18:15:07.991Z</time>
      </trkpt>
      <trkpt lat="45.42365" lon="7.02334">
        <ele>2655.4905893043</ele>
        <time>2022-01-20T18:15:15.165Z</time>
      </trkpt>
      <trkpt lat="45.4236" lon="7.02355">
        <ele>2658.0835274408</ele>
        <time>2022-01-20T18:15:22.341Z</time>
      </trkpt>
      <trkpt lat="45.4236" lon="7.0238">
        <ele>2660.6282369601</ele>
        <time>2022-01-20T18:15:29.520Z</time>
      </trkpt>
      <trkpt lat="45.42364" lon="7.0243">
        <ele>2663.2594110216</ele>
        <time>2022-01-20T18:15:36.705Z</time>
      </trkpt>
      <trkpt lat="45.42371" lon="7.02463">
        <ele>2665.7177501472</ele>
        <time>2022-01-20T18:15:43.893Z</time>
      </trkpt>
      <trkpt lat="45.42372" lon="7.02494">
        <ele>2668.2121627453</ele>
        <time>2022-01-20T18:15:51.085Z</time>
      </trkpt>
      <trkpt lat="45.42348" lon="7.02573">
        <ele>2670.8065255341</ele>
        <time>2022-01-20T18:15:58.287Z</time>
      </trkpt>
      <trkpt lat="45.4234" lon="7.02608">
        <ele>2673.3936832588</ele>
        <time>2022-01-20T18:16:05.493Z</time>
      </trkpt>
      <trkpt lat="45.42339" lon="7.0263">
        <ele>2675.9134969727</ele>
        <time>2022-01-20T18:16:12.701Z</time>
      </trkpt>
      <trkpt lat="45.42346" lon="7.02671">
        <ele>2678.4174875283</ele>
        <time>2022-01-20T18:16:19.914Z</time>
      </trkpt>
      <trkpt lat="45.42346" lon="7.02691">
        <ele>2680.8211460282</ele>
        <time>2022-01-20T18:16:27.129Z</time>
      </trkpt>
      <trkpt lat="45.42336" lon="7.02721">
        <ele>2683.2675881344</ele>
        <time>2022-01-20T18:16:34.348Z</time>
      </trkpt>
      <trkpt lat="45.42315" lon="7.02768">
        <ele>2685.7178672682</ele>
        <time>2022-01-20T18:16:41.573Z</time>
      </trkpt>
      <trkpt lat="45.42312" lon="7.0278">
        <ele>2688.0579228813</ele>
        <time>2022-01-20T18:16:48.800Z</time>
      </trkpt>
      <trkpt lat="45.42257" lon="7.02866">
        <ele>2690.6691997075</ele>
        <time>2022-01-20T18:16:56.040Z</time>
      </trkpt>
      <trkpt lat="45.42242" lon="7.02878">
        <ele>2693.046182137</ele>
        <time>2022-01-20T18:17:03.283Z</time>
      </trkpt>
      <trkpt lat="45.42234" lon="7.0288">
        <ele>2695.3528674764</ele>
        <time>2022-01-20T18:17:10.527Z</time>
      </trkpt>
      <trkpt lat="45.42227" lon="7.02879">
        <ele>2697.6233575554</ele>
        <time>2022-01-20T18:17:17.772Z</time>
      </trkpt>
      <trkpt lat="45.42216" lon="7.02873">
        <ele>2699.8694811145</ele>
        <time>2022-01-20T18:17:25.019Z</time>
      </trkpt>
      <trkpt lat="45.42203" lon="7.02862">
        <ele>2702.0737953847</ele>
        <time>2022-01-20T18:17:32.268Z</time>
      </trkpt>
      <trkpt lat="45.42117" lon="7.0275">
        <ele>2704.3928146183</ele>
        <time>2022-01-20T18:17:39.536Z</time>
      </trkpt>
      <trkpt lat="45.42105" lon="7.02742">
        <ele>2706.6040574083</ele>
        <time>2022-01-20T18:17:46.806Z</time>
      </trkpt>
      <trkpt lat="45.42097" lon="7.02742">
        <ele>2708.7867331914</ele>
        <time>2022-01-20T18:17:54.077Z</time>
      </trkpt>
      <trkpt lat="45.42091" lon="7.02745">
        <ele>2710.9616736496</ele>
        <time>2022-01-20T18:18:01.349Z</time>
      </trkpt>
      <trkpt lat="45.42081" lon="7.02757">
        <ele>2713.1760073779</ele>
        <time>2022-01-20T18:18:08.623Z</time>
      </trkpt>
      <trkpt lat="45.42052" lon="7.02838">
        <ele>2715.5567379482</ele>
        <time>2022-01-20T18:18:15.908Z</time>
      </trkpt>
      <trkpt lat="45.42044" lon="7.02856">
        <ele>2717.7192380666</ele>
        <time>2022-01-20T18:18:23.195Z</time>
      </trkpt>
      <trkpt lat="45.42039" lon="7.02865">
        <ele>2719.8670380868</ele>
        <time>2022-01-20T18:18:30.483Z</time>
      </trkpt>
      <trkpt lat="45.42027" lon="7.02878">
        <ele>2722.0346503771</ele>
        <time>2022-01-20T18:18:37.774Z</time>
      </trkpt>
      <trkpt lat="45.42012" lon="7.02883">
        <ele>2724.1921137976</ele>
        <time>2022-01-20T18:18:45.067Z</time>
      </trkpt>
      <trkpt lat="45.41986" lon="7.02882">
        <ele>2726.3298766881</ele>
        <time>2022-01-20T18:18:52.364Z</time>
      </trkpt>
      <trkpt lat="45.4188" lon="7.02869">
        <ele>2728.6836809699</ele>
        <time>2022-01-20T18:18:59.678Z</time>
      </trkpt>
      <trkpt lat="45.41871" lon="7.02874">
        <ele>2730.7538923173</ele>
        <time>2022-01-20T18:19:06.994Z</time>
      </trkpt>
      <trkpt lat="45.41868" lon="7.02883">
        <ele>2732.7719858144</ele>
        <time>2022-01-20T18:19:14.311Z</time>
      </trkpt>
      <trkpt lat="45.41868" lon="7.02891">
        <ele>2734.7287416891</ele>
        <time>2022-01-20T18:19:21.629Z</time>
      </trkpt>
      <trkpt lat="45.41872" lon="7.02897">
        <ele>2736.6029946726</ele>
        <time>2022-01-20T18:19:28.948Z</time>
      </trkpt>
      <trkpt lat="45.41876" lon="7.029">
        <ele>2738.4041698454</ele>
        <time>2022-01-20T18:19:36.268Z</time>
      </trkpt>
      <trkpt lat="45.41899" lon="7.02903">
        <ele>2740.0464440918</ele>
        <time>2022-01-20T18:19:43.591Z</time>
      </trkpt>
      <trkpt lat="45.41903" lon="7.02905">
        <ele>2741.7243521879</ele>
        <time>2022-01-20T18:19:50.915Z</time>
      </trkpt>
      <trkpt lat="45.41934" lon="7.02976">
        <ele>2743.6575268315</ele>
        <time>2022-01-20T18:19:58.248Z</time>
      </trkpt>
      <trkpt lat="45.41939" lon="7.02995">
        <ele>2745.3739777234</ele>
        <time>2022-01-20T18:20:05.584Z</time>
      </trkpt>
      <trkpt lat="45.4194" lon="7.03005">
        <ele>2746.9694827949</ele>
        <time>2022-01-20T18:20:12.921Z</time>
      </trkpt>
      <trkpt lat="45.41938" lon="7.03014">
        <ele>2748.4863265707</ele>
        <time>2022-01-20T18:20:20.259Z</time>
      </trkpt>
      <trkpt lat="45.41935" lon="7.03018">
        <ele>2749.8888772453</ele>
        <time>2022-01-20T18:20:27.598Z</time>
      </trkpt>
      <trkpt lat="45.41931" lon="7.03019">
        <ele>2751.2010698388</ele>
        <time>2022-01-20T18:20:34.937Z</time>
      </trkpt>
      <trkpt lat="45.41926" lon="7.03018">
        <ele>2752.4322499864</ele>
        <time>2022-01-20T18:20:42.277Z</time>
      </trkpt>
      <trkpt lat="45.41922" lon="7.03014">
        <ele>2753.5810124263</ele>
        <time>2022-01-20T18:20:49.618Z</time>
      </trkpt>
      <trkpt lat="45.41914" lon="7.02986">
        <ele>2754.5367548073</ele>
        <time>2022-01-20T18:20:56.962Z</time>
      </trkpt>
      <trkpt lat="45.41907" lon="7.02976">
        <ele>2755.5709164984</ele>
        <time>2022-01-20T18:21:04.308Z</time>
      </trkpt>
      <trkpt lat="45.41896" lon="7.02969">
        <ele>2756.6019907397</ele>
        <time>2022-01-20T18:21:11.656Z</time>
      </trkpt>
      <trkpt lat="45.41883" lon="7.02967">
        <ele>2757.6354846198</ele>
        <time>2022-01-20T18:21:19.006Z</time>
      </trkpt>
      <trkpt lat="45.4187" lon="7.02969">
        <ele>2758.6513525639</ele>
        <time>2022-01-20T18:21:26.358Z</time>
      </trkpt>
      <trkpt lat="45.41865" lon="7.02972">
        <ele>2759.5671842352</ele>
        <time>2022-01-20T18:21:33.711Z</time>
      </trkpt>
      <trkpt lat="45.41854" lon="7.02984">
        <ele>2760.4615553008</ele>
        <time>2022-01-20T18:21:41.066Z</time>
      </trkpt>
      <trkpt lat="45.41831" lon="7.03022">
        <ele>2761.3704660015</ele>
        <time>2022-01-20T18:21:48.427Z</time>
      </trkpt>
      <trkpt lat="45.41822" lon="7.03032">
        <ele>2762.058120179</ele>
        <time>2022-01-20T18:21:55.790Z</time>
      </trkpt>
      <trkpt lat="45.41816" lon="7.03036">
        <ele>2762.6291647932</ele>
        <time>2022-01-20T18:22:03.154Z</time>
      </trkpt>
      <trkpt lat="45.41754" lon="7.03054">
        <ele>2763.189274819</ele>
        <time>2022-01-20T18:22:10.528Z</time>
      </trkpt>
      <trkpt lat="45.41723" lon="7.03066">
        <ele>2763.4422342031</ele>
        <time>2022-01-20T18:22:17.907Z</time>
      </trkpt>
      <trkpt lat="45.41713" lon="7.03075">
        <ele>2763.5741693545</ele>
        <time>2022-01-20T18:22:25.288Z</time>
      </trkpt>
      <trkpt lat="45.4171" lon="7.0308">
        <ele>2763.542138531</ele>
        <time>2022-01-20T18:22:32.669Z</time>
      </trkpt>
      <trkpt lat="45.41705" lon="7.03091">
        <ele>2763.3444182817</ele>
        <time>2022-01-20T18:22:40.052Z</time>
      </trkpt>
      <trkpt lat="45.41702" lon="7.03103">
        <ele>2762.9683291184</ele>
        <time>2022-01-20T18:22:47.436Z</time>
      </trkpt>
      <trkpt lat="45.41696" lon="7.03132">
        <ele>2762.379424913</ele>
        <time>2022-01-20T18:22:54.824Z</time>
      </trkpt>
      <trkpt lat="45.41695" lon="7.03147">
        <ele>2761.5859755462</ele>
        <time>2022-01-20T18:23:02.214Z</time>
      </trkpt>
      <trkpt lat="45.41697" lon="7.03168">
        <ele>2760.5148845115</ele>
        <time>2022-01-20T18:23:09.606Z</time>
      </trkpt>
      <trkpt lat="45.41707" lon="7.03187">
        <ele>2759.290521253</ele>
        <time>2022-01-20T18:23:17.001Z</time>
      </trkpt>
      <trkpt lat="45.41718" lon="7.03196">
        <ele>2758.0261274763</ele>
        <time>2022-01-20T18:23:24.398Z</time>
      </trkpt>
      <trkpt lat="45.41723" lon="7.03198">
        <ele>2756.6358929036</ele>
        <time>2022-01-20T18:23:31.795Z</time>
      </trkpt>
      <trkpt lat="45.41766" lon="7.03207">
        <ele>2755.1667835266</ele>
        <time>2022-01-20T18:23:39.199Z</time>
      </trkpt>
      <trkpt lat="45.4178" lon="7.03213">
        <ele>2753.5053180504</ele>
        <time>2022-01-20T18:23:46.606Z</time>
      </trkpt>
      <trkpt lat="45.418" lon="7.03233">
        <ele>2751.6459421826</ele>
        <time>2022-01-20T18:23:54.017Z</time>
      </trkpt>
      <trkpt lat="45.41846" lon="7.03267">
        <ele>2749.5256463406</ele>
        <time>2022-01-20T18:24:01.436Z</time>
      </trkpt>
      <trkpt lat="45.41868" lon="7.03279">
        <ele>2747.5634394364</ele>
        <time>2022-01-20T18:24:08.859Z</time>
      </trkpt>
      <trkpt lat="45.41874" lon="7.03285">
        <ele>2745.4304133981</ele>
        <time>2022-01-20T18:24:16.283Z</time>
      </trkpt>
      <trkpt lat="45.41878" lon="7.03292">
        <ele>2743.1913298041</ele>
        <time>2022-01-20T18:24:23.708Z</time>
      </trkpt>
      <trkpt lat="45.41886" lon="7.0332">
        <ele>2740.8351856535</ele>
        <time>2022-01-20T18:24:31.136Z</time>
      </trkpt>
      <trkpt lat="45.41891" lon="7.03382">
        <ele>2738.2474924728</ele>
        <time>2022-01-20T18:24:38.571Z</time>
      </trkpt>
      <trkpt lat="45.41901" lon="7.03465">
        <ele>2735.4004964118</ele>
        <time>2022-01-20T18:24:46.016Z</time>
      </trkpt>
      <trkpt lat="45.41913" lon="7.03502">
        <ele>2732.9554640193</ele>
        <time>2022-01-20T18:24:53.465Z</time>
      </trkpt>
      <trkpt lat="45.41931" lon="7.03538">
        <ele>2730.5653470308</ele>
        <time>2022-01-20T18:25:00.919Z</time>
      </trkpt>
      <trkpt lat="45.41954" lon="7.03579">
        <ele>2728.3304349121</ele>
        <time>2022-01-20T18:25:08.379Z</time>
      </trkpt>
      <trkpt lat="45.41984" lon="7.03622">
        <ele>2726.1273475902</ele>
        <time>2022-01-20T18:25:15.846Z</time>
      </trkpt>
      <trkpt lat="45.42009" lon="7.03654">
        <ele>2723.8535192117</ele>
        <time>2022-01-20T18:25:23.319Z</time>
      </trkpt>
      <trkpt lat="45.42046" lon="7.03696">
        <ele>2721.9028762425</ele>
        <time>2022-01-20T18:25:30.799Z</time>
      </trkpt>
      <trkpt lat="45.42063" lon="7.03722">
        <ele>2719.9729434436</ele>
        <time>2022-01-20T18:25:38.283Z</time>
      </trkpt>
      <trkpt lat="45.42072" lon="7.03737">
        <ele>2718.0649663076</ele>
        <time>2022-01-20T18:25:45.769Z</time>
      </trkpt>
      <trkpt lat="45.42074" lon="7.03744">
        <ele>2716.148111655</ele>
        <time>2022-01-20T18:25:53.256Z</time>
      </trkpt>
      <trkpt lat="45.42073" lon="7.03756">
        <ele>2714.1888111487</ele>
        <time>2022-01-20T18:26:00.745Z</time>
      </trkpt>
      <trkpt lat="45.4207" lon="7.03759">
        <ele>2712.3082820951</ele>
        <time>2022-01-20T18:26:08.234Z</time>
      </trkpt>
      <trkpt lat="45.42066" lon="7.0376">
        <ele>2710.4410226484</ele>
        <time>2022-01-20T18:26:15.724Z</time>
      </trkpt>
      <trkpt lat="45.42058" lon="7.03756">
        <ele>2708.5566669995</ele>
        <time>2022-01-20T18:26:23.215Z</time>
      </trkpt>
      <trkpt lat="45.42038" lon="7.03725">
        <ele>2706.6268522227</ele>
        <time>2022-01-20T18:26:30.711Z</time>
      </trkpt>
      <trkpt lat="45.42022" lon="7.03703">
        <ele>2704.7115362273</ele>
        <time>2022-01-20T18:26:38.210Z</time>
      </trkpt>
      <trkpt lat="45.42011" lon="7.03691">
        <ele>2702.8034259892</ele>
        <time>2022-01-20T18:26:45.712Z</time>
      </trkpt>
      <trkpt lat="45.42004" lon="7.03687">
        <ele>2700.863927803</ele>
        <time>2022-01-20T18:26:53.215Z</time>
      </trkpt>
      <trkpt lat="45.42" lon="7.03682">
        <ele>2698.9296581243</ele>
        <time>2022-01-20T18:27:00.719Z</time>
      </trkpt>
      <trkpt lat="45.41977" lon="7.03663">
        <ele>2696.9558656893</ele>
        <time>2022-01-20T18:27:08.227Z</time>
      </trkpt>
      <trkpt lat="45.41959" lon="7.03651">
        <ele>2694.9010870132</ele>
        <time>2022-01-20T18:27:15.738Z</time>
      </trkpt>
      <trkpt lat="45.4192" lon="7.0363">
        <ele>2692.6110158105</ele>
        <time>2022-01-20T18:27:23.256Z</time>
      </trkpt>
      <trkpt lat="45.4186" lon="7.03573">
        <ele>2690.3912712963</ele>
        <time>2022-01-20T18:27:30.785Z</time>
      </trkpt>
      <trkpt lat="45.4184" lon="7.03547">
        <ele>2688.2283672777</ele>
        <time>2022-01-20T18:27:38.319Z</time>
      </trkpt>
      <trkpt lat="45.41829" lon="7.03538">
        <ele>2686.036677508</ele>
        <time>2022-01-20T18:27:45.855Z</time>
      </trkpt>
      <trkpt lat="45.41798" lon="7.03518">
        <ele>2683.7884083829</ele>
        <time>2022-01-20T18:27:53.396Z</time>
      </trkpt>
      <trkpt lat="45.41787" lon="7.03515">
        <ele>2681.5214197092</ele>
        <time>2022-01-20T18:28:00.939Z</time>
      </trkpt>
      <trkpt lat="45.41758" lon="7.03516">
        <ele>2679.0601247242</ele>
        <time>2022-01-20T18:28:08.487Z</time>
      </trkpt>
      <trkpt lat="45.41738" lon="7.03508">
        <ele>2676.7436042421</ele>
        <time>2022-01-20T18:28:16.038Z</time>
      </trkpt>
      <trkpt lat="45.41718" lon="7.03494">
        <ele>2674.4293509988</ele>
        <time>2022-01-20T18:28:23.593Z</time>
      </trkpt>
      <trkpt lat="45.41702" lon="7.03478">
        <ele>2672.033570806</ele>
        <time>2022-01-20T18:28:31.151Z</time>
      </trkpt>
      <trkpt lat="45.41682" lon="7.03437">
        <ele>2669.7148409263</ele>
        <time>2022-01-20T18:28:38.714Z</time>
      </trkpt>
      <trkpt lat="45.41671" lon="7.03426">
        <ele>2667.381789374</ele>
        <time>2022-01-20T18:28:46.279Z</time>
      </trkpt>
      <trkpt lat="45.41655" lon="7.03413">
        <ele>2665.0105855636</ele>
        <time>2022-01-20T18:28:53.847Z</time>
      </trkpt>
      <trkpt lat="45.41645" lon="7.03407">
        <ele>2662.622329493</ele>
        <time>2022-01-20T18:29:01.417Z</time>
      </trkpt>
      <trkpt lat="45.41622" lon="7.03398">
        <ele>2660.0764138009</ele>
        <time>2022-01-20T18:29:08.991Z</time>
      </trkpt>
      <trkpt lat="45.41601" lon="7.03385">
        <ele>2657.5166825083</ele>
        <time>2022-01-20T18:29:16.569Z</time>
      </trkpt>
      <trkpt lat="45.41585" lon="7.03373">
        <ele>2654.9509092964</ele>
        <time>2022-01-20T18:29:24.150Z</time>
      </trkpt>
      <trkpt lat="45.41571" lon="7.03365">
        <ele>2652.3261606663</ele>
        <time>2022-01-20T18:29:31.733Z</time>
      </trkpt>
      <trkpt lat="45.41556" lon="7.03353">
        <ele>2649.627074545</ele>
        <time>2022-01-20T18:29:39.319Z</time>
      </trkpt>
      <trkpt lat="45.41546" lon="7.03342">
        <ele>2646.8114330819</ele>
        <time>2022-01-20T18:29:46.907Z</time>
      </trkpt>
      <trkpt lat="45.41529" lon="7.03312">
        <ele>2643.9328761966</ele>
        <time>2022-01-20T18:29:54.499Z</time>
      </trkpt>
      <trkpt lat="45.41524" lon="7.03306">
        <ele>2640.8620673404</ele>
        <time>2022-01-20T18:30:02.092Z</time>
      </trkpt>
      <trkpt lat="45.4151" lon="7.03294">
        <ele>2637.5984696616</ele>
        <time>2022-01-20T18:30:09.688Z</time>
      </trkpt>
      <trkpt lat="45.41472" lon="7.03267">
        <ele>2633.9821510418</ele>
        <time>2022-01-20T18:30:17.291Z</time>
      </trkpt>
      <trkpt lat="45.41452" lon="7.03249">
        <ele>2630.2665043107</ele>
        <time>2022-01-20T18:30:24.897Z</time>
      </trkpt>
      <trkpt lat="45.41441" lon="7.03235">
        <ele>2626.4332590219</ele>
        <time>2022-01-20T18:30:32.506Z</time>
      </trkpt>
      <trkpt lat="45.41397" lon="7.03166">
        <ele>2622.1609550382</ele>
        <time>2022-01-20T18:30:40.125Z</time>
      </trkpt>
      <trkpt lat="45.41363" lon="7.03098">
        <ele>2617.8086979963</ele>
        <time>2022-01-20T18:30:47.754Z</time>
      </trkpt>
      <trkpt lat="45.4134" lon="7.03061">
        <ele>2613.454206656</ele>
        <time>2022-01-20T18:30:55.388Z</time>
      </trkpt>
      <trkpt lat="45.41316" lon="7.03027">
        <ele>2608.8635989692</ele>
        <time>2022-01-20T18:31:03.028Z</time>
      </trkpt>
      <trkpt lat="45.41256" lon="7.02978">
        <ele>2603.9471390583</ele>
        <time>2022-01-20T18:31:10.679Z</time>
      </trkpt>
      <trkpt lat="45.41184" lon="7.02939">
        <ele>2599.0391874296</ele>
        <time>2022-01-20T18:31:18.342Z</time>
      </trkpt>
      <trkpt lat="45.4113" lon="7.02916">
        <ele>2594.1642550902</ele>
        <time>2022-01-20T18:31:26.014Z</time>
      </trkpt>
      <trkpt lat="45.41117" lon="7.02908">
        <ele>2589.5077919096</ele>
        <time>2022-01-20T18:31:33.688Z</time>
      </trkpt>
      <trkpt lat="45.41092" lon="7.02881">
        <ele>2584.8916581152</ele>
        <time>2022-01-20T18:31:41.367Z</time>
      </trkpt>
      <trkpt lat="45.41075" lon="7.02856">
        <ele>2580.435626238</ele>
        <time>2022-01-20T18:31:49.050Z</time>
      </trkpt>
      <trkpt lat="45.41035" lon="7.02803">
        <ele>2575.9014682804</ele>
        <time>2022-01-20T18:31:56.742Z</time>
      </trkpt>
      <trkpt lat="45.4102" lon="7.02787">
        <ele>2571.5442811164</ele>
        <time>2022-01-20T18:32:04.437Z</time>
      </trkpt>
      <trkpt lat="45.41" lon="7.02772">
        <ele>2567.3078542848</ele>
        <time>2022-01-20T18:32:12.136Z</time>
      </trkpt>
      <trkpt lat="45.40985" lon="7.02765">
        <ele>2563.2484407623</ele>
        <time>2022-01-20T18:32:19.837Z</time>
      </trkpt>
      <trkpt lat="45.40964" lon="7.02759">
        <ele>2559.3588201372</ele>
        <time>2022-01-20T18:32:27.542Z</time>
      </trkpt>
      <trkpt lat="45.40956" lon="7.02758">
        <ele>2555.7826893115</ele>
        <time>2022-01-20T18:32:35.248Z</time>
      </trkpt>
      <trkpt lat="45.40941" lon="7.0276">
        <ele>2552.3675164611</ele>
        <time>2022-01-20T18:32:42.956Z</time>
      </trkpt>
      <trkpt lat="45.40928" lon="7.02766">
        <ele>2549.1402044966</ele>
        <time>2022-01-20T18:32:50.666Z</time>
      </trkpt>
      <trkpt lat="45.4089" lon="7.02792">
        <ele>2546.0373966356</ele>
        <time>2022-01-20T18:32:58.383Z</time>
      </trkpt>
      <trkpt lat="45.40873" lon="7.02798">
        <ele>2543.2394884918</ele>
        <time>2022-01-20T18:33:06.103Z</time>
      </trkpt>
      <trkpt lat="45.40845" lon="7.02796">
        <ele>2540.6557211262</ele>
        <time>2022-01-20T18:33:13.827Z</time>
      </trkpt>
      <trkpt lat="45.40811" lon="7.02781">
        <ele>2538.3186288423</ele>
        <time>2022-01-20T18:33:21.557Z</time>
      </trkpt>
      <trkpt lat="45.40794" lon="7.02777">
        <ele>2536.1767898665</ele>
        <time>2022-01-20T18:33:29.290Z</time>
      </trkpt>
      <trkpt lat="45.40748" lon="7.02782">
        <ele>2534.0165531446</ele>
        <time>2022-01-20T18:33:37.030Z</time>
      </trkpt>
      <trkpt lat="45.40732" lon="7.0278">
        <ele>2532.3452029283</ele>
        <time>2022-01-20T18:33:44.773Z</time>
      </trkpt>
      <trkpt lat="45.40713" lon="7.02774">
        <ele>2530.9392343623</ele>
        <time>2022-01-20T18:33:52.519Z</time>
      </trkpt>
      <trkpt lat="45.40701" lon="7.02772">
        <ele>2529.7094035253</ele>
        <time>2022-01-20T18:34:00.267Z</time>
      </trkpt>
      <trkpt lat="45.40675" lon="7.02773">
        <ele>2528.5782395742</ele>
        <time>2022-01-20T18:34:08.019Z</time>
      </trkpt>
      <trkpt lat="45.40666" lon="7.02775">
        <ele>2527.6336868415</ele>
        <time>2022-01-20T18:34:15.773Z</time>
      </trkpt>
      <trkpt lat="45.40651" lon="7.02783">
        <ele>2526.804832771</ele>
        <time>2022-01-20T18:34:23.529Z</time>
      </trkpt>
      <trkpt lat="45.40635" lon="7.02804">
        <ele>2526.0859838358</ele>
        <time>2022-01-20T18:34:31.289Z</time>
      </trkpt>
      <trkpt lat="45.40599" lon="7.02895">
        <ele>2525.6722702674</ele>
        <time>2022-01-20T18:34:39.060Z</time>
      </trkpt>
      <trkpt lat="45.40593" lon="7.02903">
        <ele>2525.2800779886</ele>
        <time>2022-01-20T18:34:46.833Z</time>
      </trkpt>
      <trkpt lat="45.40587" lon="7.02908">
        <ele>2524.9879017325</ele>
        <time>2022-01-20T18:34:54.607Z</time>
      </trkpt>
      <trkpt lat="45.40572" lon="7.02913">
        <ele>2524.626229832</ele>
        <time>2022-01-20T18:35:02.383Z</time>
      </trkpt>
      <trkpt lat="45.40564" lon="7.02918">
        <ele>2524.3680980422</ele>
        <time>2022-01-20T18:35:10.161Z</time>
      </trkpt>
      <trkpt lat="45.40553" lon="7.02922">
        <ele>2524.0918862143</ele>
        <time>2022-01-20T18:35:17.940Z</time>
      </trkpt>
      <trkpt lat="45.40536" lon="7.02938">
        <ele>2523.8763750047</ele>
        <time>2022-01-20T18:35:25.723Z</time>
      </trkpt>
      <trkpt lat="45.40526" lon="7.0295">
        <ele>2523.6677223792</ele>
        <time>2022-01-20T18:35:33.508Z</time>
      </trkpt>
      <trkpt lat="45.40483" lon="7.03017">
        <ele>2523.3133731907</ele>
        <time>2022-01-20T18:35:41.303Z</time>
      </trkpt>
      <trkpt lat="45.40477" lon="7.03032">
        <ele>2523.2380624633</ele>
        <time>2022-01-20T18:35:49.100Z</time>
      </trkpt>
      <trkpt lat="45.40474" lon="7.03051">
        <ele>2523.1531443307</ele>
        <time>2022-01-20T18:35:56.899Z</time>
      </trkpt>
      <trkpt lat="45.40475" lon="7.03061">
        <ele>2522.9142435279</ele>
        <time>2022-01-20T18:36:04.699Z</time>
      </trkpt>
      <trkpt lat="45.40484" lon="7.03089">
        <ele>2522.7903736931</ele>
        <time>2022-01-20T18:36:12.503Z</time>
      </trkpt>
      <trkpt lat="45.40485" lon="7.03105">
        <ele>2522.3482692053</ele>
        <time>2022-01-20T18:36:20.309Z</time>
      </trkpt>
      <trkpt lat="45.40471" lon="7.03143">
        <ele>2521.5354723529</ele>
        <time>2022-01-20T18:36:28.119Z</time>
      </trkpt>
      <trkpt lat="45.40441" lon="7.03198">
        <ele>2520.9664857421</ele>
        <time>2022-01-20T18:36:35.937Z</time>
      </trkpt>
      <trkpt lat="45.40434" lon="7.03208">
        <ele>2520.0208713229</ele>
        <time>2022-01-20T18:36:43.757Z</time>
      </trkpt>
      <trkpt lat="45.40428" lon="7.03213">
        <ele>2518.8041771231</ele>
        <time>2022-01-20T18:36:51.578Z</time>
      </trkpt>
      <trkpt lat="45.40407" lon="7.0322">
        <ele>2517.0906098389</ele>
        <time>2022-01-20T18:36:59.402Z</time>
      </trkpt>
      <trkpt lat="45.40392" lon="7.03227">
        <ele>2515.3851929632</ele>
        <time>2022-01-20T18:37:07.229Z</time>
      </trkpt>
      <trkpt lat="45.40376" lon="7.03239">
        <ele>2513.7348036152</ele>
        <time>2022-01-20T18:37:15.059Z</time>
      </trkpt>
      <trkpt lat="45.40323" lon="7.03293">
        <ele>2512.3643067036</ele>
        <time>2022-01-20T18:37:22.899Z</time>
      </trkpt>
      <trkpt lat="45.40305" lon="7.0332">
        <ele>2510.7630488222</ele>
        <time>2022-01-20T18:37:30.743Z</time>
      </trkpt>
      <trkpt lat="45.40296" lon="7.03338">
        <ele>2509.0363484011</ele>
        <time>2022-01-20T18:37:38.590Z</time>
      </trkpt>
      <trkpt lat="45.40273" lon="7.03431">
        <ele>2507.285496179</ele>
        <time>2022-01-20T18:37:46.448Z</time>
      </trkpt>
      <trkpt lat="45.40261" lon="7.03471">
        <ele>2505.5235258901</ele>
        <time>2022-01-20T18:37:54.311Z</time>
      </trkpt>
      <trkpt lat="45.40247" lon="7.03528">
        <ele>2503.9197607326</ele>
        <time>2022-01-20T18:38:02.181Z</time>
      </trkpt>
      <trkpt lat="45.40244" lon="7.03535">
        <ele>2502.2007493295</ele>
        <time>2022-01-20T18:38:10.052Z</time>
      </trkpt>
      <trkpt lat="45.40235" lon="7.03549">
        <ele>2500.4897459116</ele>
        <time>2022-01-20T18:38:17.925Z</time>
      </trkpt>
      <trkpt lat="45.40219" lon="7.03565">
        <ele>2498.7590718127</ele>
        <time>2022-01-20T18:38:25.801Z</time>
      </trkpt>
      <trkpt lat="45.40162" lon="7.03612">
        <ele>2496.1845944769</ele>
        <time>2022-01-20T18:38:33.688Z</time>
      </trkpt>
      <trkpt lat="45.40157" lon="7.03617">
        <ele>2494.7870614432</ele>
        <time>2022-01-20T18:38:41.576Z</time>
      </trkpt>
      <trkpt lat="45.40153" lon="7.03625">
        <ele>2493.7148484343</ele>
        <time>2022-01-20T18:38:49.465Z</time>
      </trkpt>
      <trkpt lat="45.40151" lon="7.03637">
        <ele>2492.8886585349</ele>
        <time>2022-01-20T18:38:57.355Z</time>
      </trkpt>
      <trkpt lat="45.40152" lon="7.03687">
        <ele>2492.6145741353</ele>
        <time>2022-01-20T18:39:05.251Z</time>
      </trkpt>
      <trkpt lat="45.40149" lon="7.03727">
        <ele>2492.5481638008</ele>
        <time>2022-01-20T18:39:13.151Z</time>
      </trkpt>
      <trkpt lat="45.40149" lon="7.03749">
        <ele>2492.5173551336</ele>
        <time>2022-01-20T18:39:21.054Z</time>
      </trkpt>
      <trkpt lat="45.40152" lon="7.03772">
        <ele>2492.6580068263</ele>
        <time>2022-01-20T18:39:28.959Z</time>
      </trkpt>
      <trkpt lat="45.40146" lon="7.03788">
        <ele>2492.5730970199</ele>
        <time>2022-01-20T18:39:36.866Z</time>
      </trkpt>
      <trkpt lat="45.40125" lon="7.03809">
        <ele>2492.118938706</ele>
        <time>2022-01-20T18:39:44.777Z</time>
      </trkpt>
      <trkpt lat="45.40117" lon="7.03829">
        <ele>2492.1268731376</ele>
        <time>2022-01-20T18:39:52.691Z</time>
      </trkpt>
      <trkpt lat="45.40113" lon="7.03856">
        <ele>2492.4021788435</ele>
        <time>2022-01-20T18:40:00.608Z</time>
      </trkpt>
      <trkpt lat="45.40104" lon="7.03873">
        <ele>2492.4846751245</ele>
        <time>2022-01-20T18:40:08.528Z</time>
      </trkpt>
      <trkpt lat="45.40099" lon="7.03878">
        <ele>2492.6310381404</ele>
        <time>2022-01-20T18:40:16.449Z</time>
      </trkpt>
      <trkpt lat="45.40097" lon="7.03884">
        <ele>2492.940513705</ele>
        <time>2022-01-20T18:40:24.370Z</time>
      </trkpt>
      <trkpt lat="45.40096" lon="7.03892">
        <ele>2493.3164513794</ele>
        <time>2022-01-20T18:40:32.292Z</time>
      </trkpt>
      <trkpt lat="45.40097" lon="7.03902">
        <ele>2493.7520639255</ele>
        <time>2022-01-20T18:40:40.215Z</time>
      </trkpt>
      <trkpt lat="45.40105" lon="7.03927">
        <ele>2494.5931255683</ele>
        <time>2022-01-20T18:40:48.141Z</time>
      </trkpt>
      <trkpt lat="45.40104" lon="7.03934">
        <ele>2494.9026003103</ele>
        <time>2022-01-20T18:40:56.068Z</time>
      </trkpt>
      <trkpt lat="45.40099" lon="7.0395">
        <ele>2494.9823935525</ele>
        <time>2022-01-20T18:41:03.997Z</time>
      </trkpt>
      <trkpt lat="45.40086" lon="7.03979">
        <ele>2494.8778469125</ele>
        <time>2022-01-20T18:41:11.930Z</time>
      </trkpt>
      <trkpt lat="45.40083" lon="7.03992">
        <ele>2494.9389248864</ele>
        <time>2022-01-20T18:41:19.865Z</time>
      </trkpt>
      <trkpt lat="45.40063" lon="7.041">
        <ele>2494.8510842602</ele>
        <time>2022-01-20T18:41:27.812Z</time>
      </trkpt>
      <trkpt lat="45.4006" lon="7.04156">
        <ele>2494.9512218348</ele>
        <time>2022-01-20T18:41:35.766Z</time>
      </trkpt>
      <trkpt lat="45.40053" lon="7.04189">
        <ele>2494.6949432428</ele>
        <time>2022-01-20T18:41:43.723Z</time>
      </trkpt>
      <trkpt lat="45.40034" lon="7.0423">
        <ele>2494.1551294914</ele>
        <time>2022-01-20T18:41:51.686Z</time>
      </trkpt>
      <trkpt lat="45.40028" lon="7.04235">
        <ele>2493.5006775227</ele>
        <time>2022-01-20T18:41:59.650Z</time>
      </trkpt>
      <trkpt lat="45.3999" lon="7.04253">
        <ele>2492.4250918271</ele>
        <time>2022-01-20T18:42:07.620Z</time>
      </trkpt>
      <trkpt lat="45.39983" lon="7.04258">
        <ele>2491.525215201</ele>
        <time>2022-01-20T18:42:15.592Z</time>
      </trkpt>
      <trkpt lat="45.39945" lon="7.04318">
        <ele>2490.5366647867</ele>
        <time>2022-01-20T18:42:23.573Z</time>
      </trkpt>
      <trkpt lat="45.39935" lon="7.04331">
        <ele>2489.4030692252</ele>
        <time>2022-01-20T18:42:31.556Z</time>
      </trkpt>
      <trkpt lat="45.39923" lon="7.04341">
        <ele>2488.1116545095</ele>
        <time>2022-01-20T18:42:39.541Z</time>
      </trkpt>
      <trkpt lat="45.39894" lon="7.04342">
        <ele>2486.5897145076</ele>
        <time>2022-01-20T18:42:47.531Z</time>
      </trkpt>
      <trkpt lat="45.39876" lon="7.04338">
        <ele>2484.9391428332</ele>
        <time>2022-01-20T18:42:55.524Z</time>
      </trkpt>
      <trkpt lat="45.39862" lon="7.04333">
        <ele>2483.0917623968</ele>
        <time>2022-01-20T18:43:03.519Z</time>
      </trkpt>
      <trkpt lat="45.39844" lon="7.04325">
        <ele>2481.0193062293</ele>
        <time>2022-01-20T18:43:11.517Z</time>
      </trkpt>
      <trkpt lat="45.39839" lon="7.0432">
        <ele>2478.7959479791</ele>
        <time>2022-01-20T18:43:19.516Z</time>
      </trkpt>
      <trkpt lat="45.39787" lon="7.04311">
        <ele>2476.3743208275</ele>
        <time>2022-01-20T18:43:27.523Z</time>
      </trkpt>
      <trkpt lat="45.39779" lon="7.04308">
        <ele>2473.8004133487</ele>
        <time>2022-01-20T18:43:35.532Z</time>
      </trkpt>
      <trkpt lat="45.39764" lon="7.04298">
        <ele>2470.931011032</ele>
        <time>2022-01-20T18:43:43.543Z</time>
      </trkpt>
      <trkpt lat="45.39753" lon="7.04288">
        <ele>2467.8981090605</ele>
        <time>2022-01-20T18:43:51.557Z</time>
      </trkpt>
      <trkpt lat="45.39732" lon="7.04274">
        <ele>2464.7869292904</ele>
        <time>2022-01-20T18:43:59.574Z</time>
      </trkpt>
      <trkpt lat="45.39699" lon="7.04265">
        <ele>2461.7296779854</ele>
        <time>2022-01-20T18:44:07.597Z</time>
      </trkpt>
      <trkpt lat="45.39649" lon="7.04258">
        <ele>2458.274311369</ele>
        <time>2022-01-20T18:44:15.628Z</time>
      </trkpt>
      <trkpt lat="45.39631" lon="7.04258">
        <ele>2454.7563730918</ele>
        <time>2022-01-20T18:44:23.662Z</time>
      </trkpt>
      <trkpt lat="45.3959" lon="7.04266">
        <ele>2450.9981065005</ele>
        <time>2022-01-20T18:44:31.702Z</time>
      </trkpt>
      <trkpt lat="45.39561" lon="7.04274">
        <ele>2447.5172620069</ele>
        <time>2022-01-20T18:44:39.747Z</time>
      </trkpt>
      <trkpt lat="45.39552" lon="7.04278">
        <ele>2444.0056135756</ele>
        <time>2022-01-20T18:44:47.793Z</time>
      </trkpt>
      <trkpt lat="45.3954" lon="7.04287">
        <ele>2440.4714699355</ele>
        <time>2022-01-20T18:44:55.842Z</time>
      </trkpt>
      <trkpt lat="45.39485" lon="7.04368">
        <ele>2437.0976844589</ele>
        <time>2022-01-20T18:45:03.903Z</time>
      </trkpt>
      <trkpt lat="45.39465" lon="7.04392">
        <ele>2433.5660960791</ele>
        <time>2022-01-20T18:45:11.968Z</time>
      </trkpt>
      <trkpt lat="45.39451" lon="7.04402">
        <ele>2430.0257425552</ele>
        <time>2022-01-20T18:45:20.036Z</time>
      </trkpt>
      <trkpt lat="45.39437" lon="7.04408">
        <ele>2426.5282788178</ele>
        <time>2022-01-20T18:45:28.106Z</time>
      </trkpt>
      <trkpt lat="45.39407" lon="7.04408">
        <ele>2422.9822155505</ele>
        <time>2022-01-20T18:45:36.181Z</time>
      </trkpt>
      <trkpt lat="45.39401" lon="7.0441">
        <ele>2419.6964920338</ele>
        <time>2022-01-20T18:45:44.257Z</time>
      </trkpt>
      <trkpt lat="45.39386" lon="7.04422">
        <ele>2416.5144207252</ele>
        <time>2022-01-20T18:45:52.336Z</time>
      </trkpt>
      <trkpt lat="45.39348" lon="7.04443">
        <ele>2413.2686025335</ele>
        <time>2022-01-20T18:46:00.421Z</time>
      </trkpt>
      <trkpt lat="45.39301" lon="7.045">
        <ele>2410.1664378233</ele>
        <time>2022-01-20T18:46:08.516Z</time>
      </trkpt>
      <trkpt lat="45.39245" lon="7.04533">
        <ele>2406.818272674</ele>
        <time>2022-01-20T18:46:16.621Z</time>
      </trkpt>
      <trkpt lat="45.3924" lon="7.04539">
        <ele>2403.9034113518</ele>
        <time>2022-01-20T18:46:24.727Z</time>
      </trkpt>
      <trkpt lat="45.3921" lon="7.04594">
        <ele>2401.1820212191</ele>
        <time>2022-01-20T18:46:32.841Z</time>
      </trkpt>
      <trkpt lat="45.392" lon="7.04603">
        <ele>2398.3892106141</ele>
        <time>2022-01-20T18:46:40.957Z</time>
      </trkpt>
      <trkpt lat="45.3919" lon="7.04607">
        <ele>2395.6429901893</ele>
        <time>2022-01-20T18:46:49.074Z</time>
      </trkpt>
      <trkpt lat="45.39159" lon="7.04613">
        <ele>2392.8894371919</ele>
        <time>2022-01-20T18:46:57.196Z</time>
      </trkpt>
      <trkpt lat="45.39141" lon="7.04621">
        <ele>2390.3147645574</ele>
        <time>2022-01-20T18:47:05.321Z</time>
      </trkpt>
      <trkpt lat="45.39126" lon="7.04631">
        <ele>2387.9368710661</ele>
        <time>2022-01-20T18:47:13.449Z</time>
      </trkpt>
      <trkpt lat="45.39119" lon="7.04638">
        <ele>2385.6843854048</ele>
        <time>2022-01-20T18:47:21.578Z</time>
      </trkpt>
      <trkpt lat="45.39057" lon="7.04729">
        <ele>2383.2742425108</ele>
        <time>2022-01-20T18:47:29.722Z</time>
      </trkpt>
      <trkpt lat="45.39041" lon="7.0475">
        <ele>2380.969241959</ele>
        <time>2022-01-20T18:47:37.869Z</time>
      </trkpt>
      <trkpt lat="45.39034" lon="7.04754">
        <ele>2378.8401147837</ele>
        <time>2022-01-20T18:47:46.017Z</time>
      </trkpt>
      <trkpt lat="45.39022" lon="7.04756">
        <ele>2376.7427061961</ele>
        <time>2022-01-20T18:47:54.167Z</time>
      </trkpt>
      <trkpt lat="45.3901" lon="7.04754">
        <ele>2374.7568872695</ele>
        <time>2022-01-20T18:48:02.319Z</time>
      </trkpt>
      <trkpt lat="45.38993" lon="7.04747">
        <ele>2372.7951142952</ele>
        <time>2022-01-20T18:48:10.474Z</time>
      </trkpt>
      <trkpt lat="45.38977" lon="7.04736">
        <ele>2370.9512263059</ele>
        <time>2022-01-20T18:48:18.632Z</time>
      </trkpt>
      <trkpt lat="45.38972" lon="7.04729">
        <ele>2369.2021057478</ele>
        <time>2022-01-20T18:48:26.791Z</time>
      </trkpt>
      <trkpt lat="45.38965" lon="7.04714">
        <ele>2367.4554225538</ele>
        <time>2022-01-20T18:48:34.952Z</time>
      </trkpt>
      <trkpt lat="45.38961" lon="7.04699">
        <ele>2365.7095412003</ele>
        <time>2022-01-20T18:48:43.115Z</time>
      </trkpt>
      <trkpt lat="45.38961" lon="7.04691">
        <ele>2364.0649491449</ele>
        <time>2022-01-20T18:48:51.279Z</time>
      </trkpt>
      <trkpt lat="45.38965" lon="7.04682">
        <ele>2362.4763362909</ele>
        <time>2022-01-20T18:48:59.444Z</time>
      </trkpt>
      <trkpt lat="45.39008" lon="7.04626">
        <ele>2360.829401404</ele>
        <time>2022-01-20T18:49:07.618Z</time>
      </trkpt>
      <trkpt lat="45.39016" lon="7.04604">
        <ele>2358.9649881708</ele>
        <time>2022-01-20T18:49:15.795Z</time>
      </trkpt>
      <trkpt lat="45.39021" lon="7.04596">
        <ele>2357.1794558498</ele>
        <time>2022-01-20T18:49:23.973Z</time>
      </trkpt>
      <trkpt lat="45.39045" lon="7.04572">
        <ele>2355.3743776205</ele>
        <time>2022-01-20T18:49:32.156Z</time>
      </trkpt>
      <trkpt lat="45.39064" lon="7.04545">
        <ele>2353.4032230031</ele>
        <time>2022-01-20T18:49:40.343Z</time>
      </trkpt>
      <trkpt lat="45.39085" lon="7.04512">
        <ele>2351.3096519862</ele>
        <time>2022-01-20T18:49:48.535Z</time>
      </trkpt>
      <trkpt lat="45.3911" lon="7.04463">
        <ele>2349.2228535234</ele>
        <time>2022-01-20T18:49:56.734Z</time>
      </trkpt>
      <trkpt lat="45.3912" lon="7.04447">
        <ele>2347.102357069</ele>
        <time>2022-01-20T18:50:04.936Z</time>
      </trkpt>
      <trkpt lat="45.39155" lon="7.04413">
        <ele>2344.953884856</ele>
        <time>2022-01-20T18:50:13.144Z</time>
      </trkpt>
      <trkpt lat="45.39178" lon="7.04367">
        <ele>2342.2439807559</ele>
        <time>2022-01-20T18:50:21.359Z</time>
      </trkpt>
      <trkpt lat="45.39188" lon="7.04355">
        <ele>2339.7807309732</ele>
        <time>2022-01-20T18:50:29.576Z</time>
      </trkpt>
      <trkpt lat="45.39199" lon="7.04345">
        <ele>2337.3159621961</ele>
        <time>2022-01-20T18:50:37.795Z</time>
      </trkpt>
      <trkpt lat="45.39224" lon="7.04329">
        <ele>2334.8778798748</ele>
        <time>2022-01-20T18:50:46.018Z</time>
      </trkpt>
      <trkpt lat="45.39237" lon="7.04318">
        <ele>2332.3502655312</ele>
        <time>2022-01-20T18:50:54.244Z</time>
      </trkpt>
      <trkpt lat="45.39242" lon="7.0431">
        <ele>2329.6220233261</ele>
        <time>2022-01-20T18:51:02.471Z</time>
      </trkpt>
      <trkpt lat="45.39257" lon="7.04294">
        <ele>2326.7639512966</ele>
        <time>2022-01-20T18:51:10.701Z</time>
      </trkpt>
      <trkpt lat="45.3927" lon="7.04288">
        <ele>2324.0929006414</ele>
        <time>2022-01-20T18:51:18.933Z</time>
      </trkpt>
      <trkpt lat="45.39275" lon="7.04284">
        <ele>2321.2303320977</ele>
        <time>2022-01-20T18:51:27.166Z</time>
      </trkpt>
      <trkpt lat="45.39308" lon="7.04239">
        <ele>2317.9890267851</ele>
        <time>2022-01-20T18:51:35.406Z</time>
      </trkpt>
      <trkpt lat="45.3939" lon="7.0415">
        <ele>2314.7171985096</ele>
        <time>2022-01-20T18:51:43.663Z</time>
      </trkpt>
      <trkpt lat="45.39455" lon="7.04087">
        <ele>2311.3447942702</ele>
        <time>2022-01-20T18:51:51.933Z</time>
      </trkpt>
      <trkpt lat="45.39485" lon="7.04062">
        <ele>2308.4866480376</ele>
        <time>2022-01-20T18:52:00.208Z</time>
      </trkpt>
      <trkpt lat="45.39523" lon="7.04034">
        <ele>2305.5356570682</ele>
        <time>2022-01-20T18:52:08.490Z</time>
      </trkpt>
      <trkpt lat="45.39546" lon="7.04022">
        <ele>2302.8098542274</ele>
        <time>2022-01-20T18:52:16.776Z</time>
      </trkpt>
      <trkpt lat="45.39589" lon="7.03995">
        <ele>2300.2987987914</ele>
        <time>2022-01-20T18:52:25.069Z</time>
      </trkpt>
      <trkpt lat="45.39628" lon="7.03973">
        <ele>2297.5524220768</ele>
        <time>2022-01-20T18:52:33.369Z</time>
      </trkpt>
      <trkpt lat="45.39638" lon="7.03969">
        <ele>2295.1300534218</ele>
        <time>2022-01-20T18:52:41.671Z</time>
      </trkpt>
      <trkpt lat="45.39666" lon="7.03968">
        <ele>2293.0498056732</ele>
        <time>2022-01-20T18:52:49.977Z</time>
      </trkpt>
      <trkpt lat="45.39671" lon="7.03966">
        <ele>2290.8416447339</ele>
        <time>2022-01-20T18:52:58.284Z</time>
      </trkpt>
      <trkpt lat="45.39675" lon="7.03958">
        <ele>2288.652259151</ele>
        <time>2022-01-20T18:53:06.592Z</time>
      </trkpt>
      <trkpt lat="45.39675" lon="7.03953">
        <ele>2286.5002662468</ele>
        <time>2022-01-20T18:53:14.901Z</time>
      </trkpt>
      <trkpt lat="45.39674" lon="7.03948">
        <ele>2284.3702716189</ele>
        <time>2022-01-20T18:53:23.210Z</time>
      </trkpt>
      <trkpt lat="45.3967" lon="7.03942">
        <ele>2282.2263233048</ele>
        <time>2022-01-20T18:53:31.520Z</time>
      </trkpt>
      <trkpt lat="45.39661" lon="7.03939">
        <ele>2280.0575238735</ele>
        <time>2022-01-20T18:53:39.832Z</time>
      </trkpt>
      <trkpt lat="45.39631" lon="7.03941">
        <ele>2277.7116134796</ele>
        <time>2022-01-20T18:53:48.149Z</time>
      </trkpt>
      <trkpt lat="45.39614" lon="7.03944">
        <ele>2275.5817404568</ele>
        <time>2022-01-20T18:53:56.468Z</time>
      </trkpt>
      <trkpt lat="45.39581" lon="7.03956">
        <ele>2273.5559101409</ele>
        <time>2022-01-20T18:54:04.793Z</time>
      </trkpt>
      <trkpt lat="45.39528" lon="7.0398">
        <ele>2271.2822210386</ele>
        <time>2022-01-20T18:54:13.127Z</time>
      </trkpt>
      <trkpt lat="45.39494" lon="7.0399">
        <ele>2269.0495078545</ele>
        <time>2022-01-20T18:54:21.466Z</time>
      </trkpt>
      <trkpt lat="45.39421" lon="7.04003">
        <ele>2266.6251593415</ele>
        <time>2022-01-20T18:54:29.817Z</time>
      </trkpt>
      <trkpt lat="45.39359" lon="7.04016">
        <ele>2264.2221698433</ele>
        <time>2022-01-20T18:54:38.178Z</time>
      </trkpt>
      <trkpt lat="45.39335" lon="7.04023">
        <ele>2261.7589849826</ele>
        <time>2022-01-20T18:54:46.543Z</time>
      </trkpt>
      <trkpt lat="45.39327" lon="7.04027">
        <ele>2259.4284577827</ele>
        <time>2022-01-20T18:54:54.909Z</time>
      </trkpt>
      <trkpt lat="45.39318" lon="7.04035">
        <ele>2257.0918516802</ele>
        <time>2022-01-20T18:55:03.277Z</time>
      </trkpt>
      <trkpt lat="45.3931" lon="7.04054">
        <ele>2254.7608718966</ele>
        <time>2022-01-20T18:55:11.648Z</time>
      </trkpt>
      <trkpt lat="45.39302" lon="7.04082">
        <ele>2252.4661775189</ele>
        <time>2022-01-20T18:55:20.022Z</time>
      </trkpt>
      <trkpt lat="45.39298" lon="7.04089">
        <ele>2249.9566592454</ele>
        <time>2022-01-20T18:55:28.397Z</time>
      </trkpt>
      <trkpt lat="45.39287" lon="7.04096">
        <ele>2247.2588547286</ele>
        <time>2022-01-20T18:55:36.774Z</time>
      </trkpt>
      <trkpt lat="45.39275" lon="7.04101">
        <ele>2244.4118605089</ele>
        <time>2022-01-20T18:55:45.153Z</time>
      </trkpt>
      <trkpt lat="45.39264" lon="7.04108">
        <ele>2241.4729701526</ele>
        <time>2022-01-20T18:55:53.534Z</time>
      </trkpt>
      <trkpt lat="45.39142" lon="7.04162">
        <ele>2237.9750533626</ele>
        <time>2022-01-20T18:56:01.935Z</time>
      </trkpt>
      <trkpt lat="45.39104" lon="7.04174">
        <ele>2234.6870038105</ele>
        <time>2022-01-20T18:56:10.342Z</time>
      </trkpt>
      <trkpt lat="45.39055" lon="7.04186">
        <ele>2231.0621126718</ele>
        <time>2022-01-20T18:56:18.757Z</time>
      </trkpt>
      <trkpt lat="45.39028" lon="7.04196">
        <ele>2227.7757180552</ele>
        <time>2022-01-20T18:56:27.177Z</time>
      </trkpt>
      <trkpt lat="45.3901" lon="7.04205">
        <ele>2224.3743279721</ele>
        <time>2022-01-20T18:56:35.600Z</time>
      </trkpt>
      <trkpt lat="45.3898" lon="7.04239">
        <ele>2221.0774839215</ele>
        <time>2022-01-20T18:56:44.029Z</time>
      </trkpt>
      <trkpt lat="45.38971" lon="7.04245">
        <ele>2217.7076826171</ele>
        <time>2022-01-20T18:56:52.460Z</time>
      </trkpt>
      <trkpt lat="45.38941" lon="7.04259">
        <ele>2214.2629183776</ele>
        <time>2022-01-20T18:57:00.896Z</time>
      </trkpt>
      <trkpt lat="45.38925" lon="7.04271">
        <ele>2210.8536155132</ele>
        <time>2022-01-20T18:57:09.335Z</time>
      </trkpt>
      <trkpt lat="45.38882" lon="7.04309">
        <ele>2207.2749884891</ele>
        <time>2022-01-20T18:57:17.782Z</time>
      </trkpt>
      <trkpt lat="45.3886" lon="7.04332">
        <ele>2203.8877160075</ele>
        <time>2022-01-20T18:57:26.233Z</time>
      </trkpt>
      <trkpt lat="45.38823" lon="7.0436">
        <ele>2200.4539743505</ele>
        <time>2022-01-20T18:57:34.691Z</time>
      </trkpt>
      <trkpt lat="45.38777" lon="7.04399">
        <ele>2197.007949056</ele>
        <time>2022-01-20T18:57:43.157Z</time>
      </trkpt>
      <trkpt lat="45.38745" lon="7.04417">
        <ele>2193.602738771</ele>
        <time>2022-01-20T18:57:51.629Z</time>
      </trkpt>
      <trkpt lat="45.38728" lon="7.04429">
        <ele>2190.4376468591</ele>
        <time>2022-01-20T18:58:00.104Z</time>
      </trkpt>
      <trkpt lat="45.38676" lon="7.04484">
        <ele>2187.3505687005</ele>
        <time>2022-01-20T18:58:08.589Z</time>
      </trkpt>
      <trkpt lat="45.3866" lon="7.04491">
        <ele>2184.3046179904</ele>
        <time>2022-01-20T18:58:17.077Z</time>
      </trkpt>
      <trkpt lat="45.38643" lon="7.04501">
        <ele>2181.3189967112</ele>
        <time>2022-01-20T18:58:25.568Z</time>
      </trkpt>
      <trkpt lat="45.38606" lon="7.04532">
        <ele>2178.3908329295</ele>
        <time>2022-01-20T18:58:34.066Z</time>
      </trkpt>
      <trkpt lat="45.386" lon="7.04538">
        <ele>2175.7265473659</ele>
        <time>2022-01-20T18:58:42.565Z</time>
      </trkpt>
      <trkpt lat="45.38585" lon="7.04575">
        <ele>2173.290119457</ele>
        <time>2022-01-20T18:58:51.069Z</time>
      </trkpt>
      <trkpt lat="45.38575" lon="7.04588">
        <ele>2170.8219238588</ele>
        <time>2022-01-20T18:58:59.575Z</time>
      </trkpt>
      <trkpt lat="45.38569" lon="7.04593">
        <ele>2168.4247381471</ele>
        <time>2022-01-20T18:59:08.082Z</time>
      </trkpt>
      <trkpt lat="45.38545" lon="7.04604">
        <ele>2165.9574245238</ele>
        <time>2022-01-20T18:59:16.593Z</time>
      </trkpt>
      <trkpt lat="45.38529" lon="7.04608">
        <ele>2163.5962728567</ele>
        <time>2022-01-20T18:59:25.107Z</time>
      </trkpt>
      <trkpt lat="45.38514" lon="7.04608">
        <ele>2161.3890063917</ele>
        <time>2022-01-20T18:59:33.623Z</time>
      </trkpt>
      <trkpt lat="45.38508" lon="7.04606">
        <ele>2159.3010504804</ele>
        <time>2022-01-20T18:59:42.140Z</time>
      </trkpt>
      <trkpt lat="45.38503" lon="7.04602">
        <ele>2157.2748954405</ele>
        <time>2022-01-20T18:59:50.658Z</time>
      </trkpt>
      <trkpt lat="45.385" lon="7.04595">
        <ele>2155.3190324772</ele>
        <time>2022-01-20T18:59:59.177Z</time>
      </trkpt>
      <trkpt lat="45.38499" lon="7.0458">
        <ele>2153.426717587</ele>
        <time>2022-01-20T19:00:07.698Z</time>
      </trkpt>
      <trkpt lat="45.38502" lon="7.0457">
        <ele>2151.6342951889</ele>
        <time>2022-01-20T19:00:16.220Z</time>
      </trkpt>
      <trkpt lat="45.38519" lon="7.04534">
        <ele>2149.9436483007</ele>
        <time>2022-01-20T19:00:24.747Z</time>
      </trkpt>
      <trkpt lat="45.38526" lon="7.04515">
        <ele>2148.2979076262</ele>
        <time>2022-01-20T19:00:33.276Z</time>
      </trkpt>
      <trkpt lat="45.38534" lon="7.04465">
        <ele>2146.5059819393</ele>
        <time>2022-01-20T19:00:41.811Z</time>
      </trkpt>
      <trkpt lat="45.38535" lon="7.04439">
        <ele>2144.9127388501</ele>
        <time>2022-01-20T19:00:50.349Z</time>
      </trkpt>
      <trkpt lat="45.38549" lon="7.04341">
        <ele>2143.2624444011</ele>
        <time>2022-01-20T19:00:58.898Z</time>
      </trkpt>
      <trkpt lat="45.38549" lon="7.04332">
        <ele>2141.8530732954</ele>
        <time>2022-01-20T19:01:07.448Z</time>
      </trkpt>
      <trkpt lat="45.38543" lon="7.04308">
        <ele>2140.4469703043</ele>
        <time>2022-01-20T19:01:16.001Z</time>
      </trkpt>
      <trkpt lat="45.38529" lon="7.0429">
        <ele>2139.100800139</ele>
        <time>2022-01-20T19:01:24.557Z</time>
      </trkpt>
      <trkpt lat="45.38511" lon="7.04279">
        <ele>2137.8853400898</ele>
        <time>2022-01-20T19:01:33.116Z</time>
      </trkpt>
      <trkpt lat="45.38501" lon="7.04276">
        <ele>2136.7857049843</ele>
        <time>2022-01-20T19:01:41.677Z</time>
      </trkpt>
      <trkpt lat="45.38482" lon="7.04266">
        <ele>2135.766496653</ele>
        <time>2022-01-20T19:01:50.241Z</time>
      </trkpt>
      <trkpt lat="45.38476" lon="7.04264">
        <ele>2134.830227549</ele>
        <time>2022-01-20T19:01:58.806Z</time>
      </trkpt>
      <trkpt lat="45.38466" lon="7.04266">
        <ele>2133.9691775547</ele>
        <time>2022-01-20T19:02:07.373Z</time>
      </trkpt>
      <trkpt lat="45.38459" lon="7.0427">
        <ele>2133.1704928943</ele>
        <time>2022-01-20T19:02:15.941Z</time>
      </trkpt>
      <trkpt lat="45.38454" lon="7.04276">
        <ele>2132.3941262606</ele>
        <time>2022-01-20T19:02:24.510Z</time>
      </trkpt>
      <trkpt lat="45.38419" lon="7.04338">
        <ele>2131.7487662579</ele>
        <time>2022-01-20T19:02:33.088Z</time>
      </trkpt>
      <trkpt lat="45.38357" lon="7.04458">
        <ele>2130.7351466396</ele>
        <time>2022-01-20T19:02:41.683Z</time>
      </trkpt>
      <trkpt lat="45.3835" lon="7.04469">
        <ele>2129.9821471916</ele>
        <time>2022-01-20T19:02:50.279Z</time>
      </trkpt>
      <trkpt lat="45.38331" lon="7.04488">
        <ele>2129.1818545919</ele>
        <time>2022-01-20T19:02:58.879Z</time>
      </trkpt>
      <trkpt lat="45.38308" lon="7.04518">
        <ele>2128.4558399992</ele>
        <time>2022-01-20T19:03:07.484Z</time>
      </trkpt>
      <trkpt lat="45.38295" lon="7.04542">
        <ele>2127.7767098246</ele>
        <time>2022-01-20T19:03:16.093Z</time>
      </trkpt>
      <trkpt lat="45.38271" lon="7.04601">
        <ele>2126.7254264614</ele>
        <time>2022-01-20T19:03:24.709Z</time>
      </trkpt>
      <trkpt lat="45.38258" lon="7.04628">
        <ele>2125.8420199046</ele>
        <time>2022-01-20T19:03:33.329Z</time>
      </trkpt>
      <trkpt lat="45.38252" lon="7.04634">
        <ele>2125.064333893</ele>
        <time>2022-01-20T19:03:41.950Z</time>
      </trkpt>
      <trkpt lat="45.38209" lon="7.04655">
        <ele>2124.3612196943</ele>
        <time>2022-01-20T19:03:50.578Z</time>
      </trkpt>
      <trkpt lat="45.38177" lon="7.04676">
        <ele>2123.5551393431</ele>
        <time>2022-01-20T19:03:59.212Z</time>
      </trkpt>
      <trkpt lat="45.38153" lon="7.04698">
        <ele>2122.8136844368</ele>
        <time>2022-01-20T19:04:07.851Z</time>
      </trkpt>
      <trkpt lat="45.38148" lon="7.04707">
        <ele>2122.1014018875</ele>
        <time>2022-01-20T19:04:16.491Z</time>
      </trkpt>
      <trkpt lat="45.3814" lon="7.04726">
        <ele>2121.3942080094</ele>
        <time>2022-01-20T19:04:25.133Z</time>
      </trkpt>
      <trkpt lat="45.3812" lon="7.04809">
        <ele>2120.5176423001</ele>
        <time>2022-01-20T19:04:33.785Z</time>
      </trkpt>
      <trkpt lat="45.38119" lon="7.04823">
        <ele>2119.8817685632</ele>
        <time>2022-01-20T19:04:42.439Z</time>
      </trkpt>
      <trkpt lat="45.3812" lon="7.04853">
        <ele>2119.1524551908</ele>
        <time>2022-01-20T19:04:51.096Z</time>
      </trkpt>
      <trkpt lat="45.38112" lon="7.04869">
        <ele>2118.5994340139</ele>
        <time>2022-01-20T19:04:59.755Z</time>
      </trkpt>
      <trkpt lat="45.38078" lon="7.04925">
        <ele>2118.3132627955</ele>
        <time>2022-01-20T19:05:08.423Z</time>
      </trkpt>
      <trkpt lat="45.38076" lon="7.04933">
        <ele>2117.8662704646</ele>
        <time>2022-01-20T19:05:17.092Z</time>
      </trkpt>
      <trkpt lat="45.38075" lon="7.04962">
        <ele>2117.3466887501</ele>
        <time>2022-01-20T19:05:25.764Z</time>
      </trkpt>
      <trkpt lat="45.38072" lon="7.04977">
        <ele>2116.9542117391</ele>
        <time>2022-01-20T19:05:34.438Z</time>
      </trkpt>
      <trkpt lat="45.3806" lon="7.04989">
        <ele>2116.6442118292</ele>
        <time>2022-01-20T19:05:43.114Z</time>
      </trkpt>
      <trkpt lat="45.38032" lon="7.04995">
        <ele>2116.3933746552</ele>
        <time>2022-01-20T19:05:51.795Z</time>
      </trkpt>
      <trkpt lat="45.37995" lon="7.0501">
        <ele>2116.0208230304</ele>
        <time>2022-01-20T19:06:00.482Z</time>
      </trkpt>
      <trkpt lat="45.37985" lon="7.05012">
        <ele>2115.6609324803</ele>
        <time>2022-01-20T19:06:09.170Z</time>
      </trkpt>
      <trkpt lat="45.37972" lon="7.05012">
        <ele>2115.3055276808</ele>
        <time>2022-01-20T19:06:17.861Z</time>
      </trkpt>
      <trkpt lat="45.37924" lon="7.05001">
        <ele>2114.8109269197</ele>
        <time>2022-01-20T19:06:26.559Z</time>
      </trkpt>
      <trkpt lat="45.37902" lon="7.04988">
        <ele>2114.1919965929</ele>
        <time>2022-01-20T19:06:35.261Z</time>
      </trkpt>
      <trkpt lat="45.37881" lon="7.04971">
        <ele>2113.5130019077</ele>
        <time>2022-01-20T19:06:43.967Z</time>
      </trkpt>
      <trkpt lat="45.37871" lon="7.0496">
        <ele>2112.8311712286</ele>
        <time>2022-01-20T19:06:52.675Z</time>
      </trkpt>
      <trkpt lat="45.37859" lon="7.04943">
        <ele>2112.1063639921</ele>
        <time>2022-01-20T19:07:01.386Z</time>
      </trkpt>
      <trkpt lat="45.3782" lon="7.04881">
        <ele>2111.2297516926</ele>
        <time>2022-01-20T19:07:10.106Z</time>
      </trkpt>
      <trkpt lat="45.37787" lon="7.04841">
        <ele>2109.886047078</ele>
        <time>2022-01-20T19:07:18.833Z</time>
      </trkpt>
      <trkpt lat="45.37781" lon="7.0483">
        <ele>2108.8284275982</ele>
        <time>2022-01-20T19:07:27.562Z</time>
      </trkpt>
      <trkpt lat="45.37771" lon="7.04791">
        <ele>2107.8377570188</ele>
        <time>2022-01-20T19:07:36.295Z</time>
      </trkpt>
      <trkpt lat="45.37747" lon="7.04747">
        <ele>2106.4818013212</ele>
        <time>2022-01-20T19:07:45.035Z</time>
      </trkpt>
      <trkpt lat="45.37735" lon="7.04707">
        <ele>2105.5744321267</ele>
        <time>2022-01-20T19:07:53.779Z</time>
      </trkpt>
      <trkpt lat="45.37725" lon="7.04662">
        <ele>2104.2338698922</ele>
        <time>2022-01-20T19:08:02.529Z</time>
      </trkpt>
      <trkpt lat="45.37704" lon="7.04609">
        <ele>2102.3827042686</ele>
        <time>2022-01-20T19:08:11.286Z</time>
      </trkpt>
      <trkpt lat="45.37687" lon="7.04522">
        <ele>2101.2764646299</ele>
        <time>2022-01-20T19:08:20.053Z</time>
      </trkpt>
      <trkpt lat="45.37672" lon="7.04494">
        <ele>2099.3301775915</ele>
        <time>2022-01-20T19:08:28.824Z</time>
      </trkpt>
      <trkpt lat="45.37663" lon="7.04482">
        <ele>2097.1306047285</ele>
        <time>2022-01-20T19:08:37.597Z</time>
      </trkpt>
      <trkpt lat="45.37659" lon="7.04474">
        <ele>2094.790597914</ele>
        <time>2022-01-20T19:08:46.371Z</time>
      </trkpt>
      <trkpt lat="45.37652" lon="7.04458">
        <ele>2092.1945065438</ele>
        <time>2022-01-20T19:08:55.147Z</time>
      </trkpt>
      <trkpt lat="45.37642" lon="7.04425">
        <ele>2089.5000296193</ele>
        <time>2022-01-20T19:09:03.927Z</time>
      </trkpt>
      <trkpt lat="45.37638" lon="7.04418">
        <ele>2086.5117200115</ele>
        <time>2022-01-20T19:09:12.708Z</time>
      </trkpt>
      <trkpt lat="45.37629" lon="7.04392">
        <ele>2083.2473137899</ele>
        <time>2022-01-20T19:09:21.492Z</time>
      </trkpt>
      <trkpt lat="45.37612" lon="7.04351">
        <ele>2079.4195511297</ele>
        <time>2022-01-20T19:09:30.282Z</time>
      </trkpt>
      <trkpt lat="45.37608" lon="7.04336">
        <ele>2075.7830140954</ele>
        <time>2022-01-20T19:09:39.074Z</time>
      </trkpt>
      <trkpt lat="45.37601" lon="7.04284">
        <ele>2072.3096999731</ele>
        <time>2022-01-20T19:09:47.871Z</time>
      </trkpt>
      <trkpt lat="45.37587" lon="7.04258">
        <ele>2068.3031229135</ele>
        <time>2022-01-20T19:09:56.672Z</time>
      </trkpt>
      <trkpt lat="45.37552" lon="7.04156">
        <ele>2064.031171331</ele>
        <time>2022-01-20T19:10:05.486Z</time>
      </trkpt>
      <trkpt lat="45.37522" lon="7.04046">
        <ele>2059.247415609</ele>
        <time>2022-01-20T19:10:14.313Z</time>
      </trkpt>
      <trkpt lat="45.37494" lon="7.03988">
        <ele>2054.8182886566</ele>
        <time>2022-01-20T19:10:23.148Z</time>
      </trkpt>
      <trkpt lat="45.37491" lon="7.03978">
        <ele>2050.5665060622</ele>
        <time>2022-01-20T19:10:31.984Z</time>
      </trkpt>
      <trkpt lat="45.3746" lon="7.03909">
        <ele>2045.9746908998</ele>
        <time>2022-01-20T19:10:40.830Z</time>
      </trkpt>
      <trkpt lat="45.37449" lon="7.03876">
        <ele>2041.7336824793</ele>
        <time>2022-01-20T19:10:49.680Z</time>
      </trkpt>
      <trkpt lat="45.37422" lon="7.03814">
        <ele>2037.5247182367</ele>
        <time>2022-01-20T19:10:58.538Z</time>
      </trkpt>
      <trkpt lat="45.37403" lon="7.0376">
        <ele>2033.3174113367</ele>
        <time>2022-01-20T19:11:07.403Z</time>
      </trkpt>
      <trkpt lat="45.37396" lon="7.03749">
        <ele>2029.3840634262</ele>
        <time>2022-01-20T19:11:16.269Z</time>
      </trkpt>
      <trkpt lat="45.37387" lon="7.03716">
        <ele>2025.5485189355</ele>
        <time>2022-01-20T19:11:25.139Z</time>
      </trkpt>
      <trkpt lat="45.37374" lon="7.03697">
        <ele>2021.7946175388</ele>
        <time>2022-01-20T19:11:34.012Z</time>
      </trkpt>
      <trkpt lat="45.37355" lon="7.03676">
        <ele>2018.1222336719</ele>
        <time>2022-01-20T19:11:42.889Z</time>
      </trkpt>
      <trkpt lat="45.37354" lon="7.03668">
        <ele>2014.7794906128</ele>
        <time>2022-01-20T19:11:51.767Z</time>
      </trkpt>
      <trkpt lat="45.37356" lon="7.03632">
        <ele>2011.561978017</ele>
        <time>2022-01-20T19:12:00.649Z</time>
      </trkpt>
      <trkpt lat="45.37355" lon="7.03624">
        <ele>2008.4507946912</ele>
        <time>2022-01-20T19:12:09.532Z</time>
      </trkpt>
      <trkpt lat="45.37343" lon="7.03596">
        <ele>2005.3750890743</ele>
        <time>2022-01-20T19:12:18.419Z</time>
      </trkpt>
      <trkpt lat="45.37338" lon="7.03574">
        <ele>2002.5460537806</ele>
        <time>2022-01-20T19:12:27.309Z</time>
      </trkpt>
      <trkpt lat="45.37328" lon="7.03557">
        <ele>1999.7172204076</ele>
        <time>2022-01-20T19:12:36.201Z</time>
      </trkpt>
      <trkpt lat="45.37326" lon="7.03548">
        <ele>1997.0522009174</ele>
        <time>2022-01-20T19:12:45.094Z</time>
      </trkpt>
      <trkpt lat="45.3733" lon="7.03505">
        <ele>1994.5623708546</ele>
        <time>2022-01-20T19:12:53.992Z</time>
      </trkpt>
      <trkpt lat="45.37324" lon="7.03484">
        <ele>1991.9531092048</ele>
        <time>2022-01-20T19:13:02.893Z</time>
      </trkpt>
      <trkpt lat="45.37288" lon="7.03434">
        <ele>1989.1714339148</ele>
        <time>2022-01-20T19:13:11.802Z</time>
      </trkpt>
      <trkpt lat="45.37268" lon="7.03411">
        <ele>1986.6656748807</ele>
        <time>2022-01-20T19:13:20.715Z</time>
      </trkpt>
      <trkpt lat="45.37234" lon="7.03367">
        <ele>1984.0921714542</ele>
        <time>2022-01-20T19:13:29.635Z</time>
      </trkpt>
      <trkpt lat="45.3717" lon="7.03329">
        <ele>1981.3636857922</ele>
        <time>2022-01-20T19:13:38.566Z</time>
      </trkpt>
      <trkpt lat="45.37154" lon="7.03317">
        <ele>1979.0548096802</ele>
        <time>2022-01-20T19:13:47.500Z</time>
      </trkpt>
      <trkpt lat="45.37146" lon="7.03309">
        <ele>1976.8341662313</ele>
        <time>2022-01-20T19:13:56.436Z</time>
      </trkpt>
      <trkpt lat="45.37123" lon="7.03271">
        <ele>1974.6343018772</ele>
        <time>2022-01-20T19:14:05.377Z</time>
      </trkpt>
      <trkpt lat="45.37108" lon="7.03252">
        <ele>1972.5658368155</ele>
        <time>2022-01-20T19:14:14.322Z</time>
      </trkpt>
      <trkpt lat="45.37093" lon="7.03238">
        <ele>1970.5896391471</ele>
        <time>2022-01-20T19:14:23.269Z</time>
      </trkpt>
      <trkpt lat="45.37081" lon="7.03232">
        <ele>1968.6221578909</ele>
        <time>2022-01-20T19:14:32.218Z</time>
      </trkpt>
      <trkpt lat="45.37068" lon="7.03228">
        <ele>1966.6461797747</ele>
        <time>2022-01-20T19:14:41.170Z</time>
      </trkpt>
      <trkpt lat="45.37041" lon="7.03224">
        <ele>1964.5876955054</ele>
        <time>2022-01-20T19:14:50.126Z</time>
      </trkpt>
      <trkpt lat="45.37029" lon="7.0322">
        <ele>1962.7490905532</ele>
        <time>2022-01-20T19:14:59.084Z</time>
      </trkpt>
      <trkpt lat="45.37018" lon="7.03212">
        <ele>1960.998872363</ele>
        <time>2022-01-20T19:15:08.044Z</time>
      </trkpt>
      <trkpt lat="45.37007" lon="7.03201">
        <ele>1959.3630450903</ele>
        <time>2022-01-20T19:15:17.006Z</time>
      </trkpt>
      <trkpt lat="45.36981" lon="7.03169">
        <ele>1957.7795167586</ele>
        <time>2022-01-20T19:15:25.974Z</time>
      </trkpt>
      <trkpt lat="45.36974" lon="7.03156">
        <ele>1956.2432547733</ele>
        <time>2022-01-20T19:15:34.943Z</time>
      </trkpt>
      <trkpt lat="45.36966" lon="7.03154">
        <ele>1954.5969394163</ele>
        <time>2022-01-20T19:15:43.914Z</time>
      </trkpt>
      <trkpt lat="45.36964" lon="7.03163">
        <ele>1953.0160414376</ele>
        <time>2022-01-20T19:15:52.886Z</time>
      </trkpt>
      <trkpt lat="45.36967" lon="7.03179">
        <ele>1951.5108280255</ele>
        <time>2022-01-20T19:16:01.860Z</time>
      </trkpt>
      <trkpt lat="45.3702" lon="7.03249">
        <ele>1950.0666207817</ele>
        <time>2022-01-20T19:16:10.845Z</time>
      </trkpt>
      <trkpt lat="45.37038" lon="7.03267">
        <ele>1948.6243387093</ele>
        <time>2022-01-20T19:16:19.834Z</time>
      </trkpt>
      <trkpt lat="45.37063" lon="7.03287">
        <ele>1947.2151334793</ele>
        <time>2022-01-20T19:16:28.827Z</time>
      </trkpt>
      <trkpt lat="45.37073" lon="7.03301">
        <ele>1945.7999422905</ele>
        <time>2022-01-20T19:16:37.823Z</time>
      </trkpt>
      <trkpt lat="45.37081" lon="7.03317">
        <ele>1944.3819118582</ele>
        <time>2022-01-20T19:16:46.821Z</time>
      </trkpt>
      <trkpt lat="45.37094" lon="7.0336">
        <ele>1942.8973330835</ele>
        <time>2022-01-20T19:16:55.824Z</time>
      </trkpt>
      <trkpt lat="45.37105" lon="7.0339">
        <ele>1941.49530268</ele>
        <time>2022-01-20T19:17:04.831Z</time>
      </trkpt>
      <trkpt lat="45.3714" lon="7.0346">
        <ele>1939.887924707</ele>
        <time>2022-01-20T19:17:13.848Z</time>
      </trkpt>
      <trkpt lat="45.37165" lon="7.03492">
        <ele>1938.5807031473</ele>
        <time>2022-01-20T19:17:22.870Z</time>
      </trkpt>
      <trkpt lat="45.37172" lon="7.03505">
        <ele>1937.2235024767</ele>
        <time>2022-01-20T19:17:31.894Z</time>
      </trkpt>
      <trkpt lat="45.37177" lon="7.03519">
        <ele>1935.8196356452</ele>
        <time>2022-01-20T19:17:40.920Z</time>
      </trkpt>
      <trkpt lat="45.37182" lon="7.03536">
        <ele>1934.367161368</ele>
        <time>2022-01-20T19:17:49.948Z</time>
      </trkpt>
      <trkpt lat="45.37182" lon="7.03536">
        <ele>1932.94395585</ele>
        <time>2022-01-20T19:17:58.976Z</time>
      </trkpt>
      <trkpt lat="45.37187" lon="7.03565">
        <ele>1931.3616758557</ele>
        <time>2022-01-20T19:18:08.007Z</time>
      </trkpt>
      <trkpt lat="45.3719" lon="7.03606">
        <ele>1929.7842582982</ele>
        <time>2022-01-20T19:18:17.043Z</time>
      </trkpt>
      <trkpt lat="45.37196" lon="7.03642">
        <ele>1928.1915475123</ele>
        <time>2022-01-20T19:18:26.083Z</time>
      </trkpt>
      <trkpt lat="45.37197" lon="7.03662">
        <ele>1926.4228912478</ele>
        <time>2022-01-20T19:18:35.125Z</time>
      </trkpt>
      <trkpt lat="45.37203" lon="7.03692">
        <ele>1924.6024320658</ele>
        <time>2022-01-20T19:18:44.171Z</time>
      </trkpt>
      <trkpt lat="45.37204" lon="7.03701">
        <ele>1922.778409986</ele>
        <time>2022-01-20T19:18:53.218Z</time>
      </trkpt>
      <trkpt lat="45.37202" lon="7.03714">
        <ele>1920.8017953305</ele>
        <time>2022-01-20T19:19:02.266Z</time>
      </trkpt>
      <trkpt lat="45.37203" lon="7.0374">
        <ele>1918.7565215284</ele>
        <time>2022-01-20T19:19:11.317Z</time>
      </trkpt>
      <trkpt lat="45.37214" lon="7.03791">
        <ele>1916.5741617371</ele>
        <time>2022-01-20T19:19:20.374Z</time>
      </trkpt>
      <trkpt lat="45.37223" lon="7.03845">
        <ele>1914.0105439038</ele>
        <time>2022-01-20T19:19:29.437Z</time>
      </trkpt>
      <trkpt lat="45.37227" lon="7.03854">
        <ele>1911.5772176468</ele>
        <time>2022-01-20T19:19:38.502Z</time>
      </trkpt>
      <trkpt lat="45.37241" lon="7.03874">
        <ele>1909.1016500035</ele>
        <time>2022-01-20T19:19:47.570Z</time>
      </trkpt>
      <trkpt lat="45.37247" lon="7.03887">
        <ele>1906.380682992</ele>
        <time>2022-01-20T19:19:56.639Z</time>
      </trkpt>
      <trkpt lat="45.37256" lon="7.03936">
        <ele>1903.2184595282</ele>
        <time>2022-01-20T19:20:05.714Z</time>
      </trkpt>
      <trkpt lat="45.37284" lon="7.04037">
        <ele>1899.8982389531</ele>
        <time>2022-01-20T19:20:14.801Z</time>
      </trkpt>
      <trkpt lat="45.37288" lon="7.04055">
        <ele>1896.6789616998</ele>
        <time>2022-01-20T19:20:23.891Z</time>
      </trkpt>
      <trkpt lat="45.37293" lon="7.04092">
        <ele>1893.2060804058</ele>
        <time>2022-01-20T19:20:32.985Z</time>
      </trkpt>
      <trkpt lat="45.37333" lon="7.04246">
        <ele>1889.5019988411</ele>
        <time>2022-01-20T19:20:42.097Z</time>
      </trkpt>
      <trkpt lat="45.37339" lon="7.04276">
        <ele>1885.8382733846</ele>
        <time>2022-01-20T19:20:51.213Z</time>
      </trkpt>
      <trkpt lat="45.3735" lon="7.04352">
        <ele>1881.8113889433</ele>
        <time>2022-01-20T19:21:00.338Z</time>
      </trkpt>
      <trkpt lat="45.37368" lon="7.04447">
        <ele>1877.9339174009</ele>
        <time>2022-01-20T19:21:09.474Z</time>
      </trkpt>
      <trkpt lat="45.37373" lon="7.04501">
        <ele>1873.6845316082</ele>
        <time>2022-01-20T19:21:18.616Z</time>
      </trkpt>
      <trkpt lat="45.37372" lon="7.04518">
        <ele>1869.45777897</ele>
        <time>2022-01-20T19:21:27.760Z</time>
      </trkpt>
      <trkpt lat="45.37364" lon="7.04566">
        <ele>1864.8736491103</ele>
        <time>2022-01-20T19:21:36.909Z</time>
      </trkpt>
      <trkpt lat="45.37362" lon="7.04597">
        <ele>1860.5286731018</ele>
        <time>2022-01-20T19:21:46.062Z</time>
      </trkpt>
      <trkpt lat="45.37361" lon="7.04635">
        <ele>1856.1487064383</ele>
        <time>2022-01-20T19:21:55.219Z</time>
      </trkpt>
      <trkpt lat="45.37362" lon="7.04699">
        <ele>1851.7033942377</ele>
        <time>2022-01-20T19:22:04.383Z</time>
      </trkpt>
      <trkpt lat="45.37372" lon="7.04788">
        <ele>1847.2043915208</ele>
        <time>2022-01-20T19:22:13.557Z</time>
      </trkpt>
      <trkpt lat="45.37379" lon="7.04828">
        <ele>1842.8231262974</ele>
        <time>2022-01-20T19:22:22.736Z</time>
      </trkpt>
      <trkpt lat="45.3739" lon="7.04866">
        <ele>1838.697347685</ele>
        <time>2022-01-20T19:22:31.920Z</time>
      </trkpt>
      <trkpt lat="45.37429" lon="7.05098">
        <ele>1834.3791436036</ele>
        <time>2022-01-20T19:22:41.131Z</time>
      </trkpt>
      <trkpt lat="45.37431" lon="7.05163">
        <ele>1830.3613146202</ele>
        <time>2022-01-20T19:22:50.349Z</time>
      </trkpt>
      <trkpt lat="45.37427" lon="7.05208">
        <ele>1826.4787824414</ele>
        <time>2022-01-20T19:22:59.572Z</time>
      </trkpt>
      <trkpt lat="45.37422" lon="7.05227">
        <ele>1822.769292503</ele>
        <time>2022-01-20T19:23:08.797Z</time>
      </trkpt>
      <trkpt lat="45.37413" lon="7.05247">
        <ele>1819.1991225932</ele>
        <time>2022-01-20T19:23:18.025Z</time>
      </trkpt>
      <trkpt lat="45.374" lon="7.05262">
        <ele>1815.7855074282</ele>
        <time>2022-01-20T19:23:27.256Z</time>
      </trkpt>
      <trkpt lat="45.37386" lon="7.05272">
        <ele>1812.5004780741</ele>
        <time>2022-01-20T19:23:36.489Z</time>
      </trkpt>
      <trkpt lat="45.37373" lon="7.05279">
        <ele>1809.4075837857</ele>
        <time>2022-01-20T19:23:45.725Z</time>
      </trkpt>
      <trkpt lat="45.37367" lon="7.05281">
        <ele>1806.5058879198</ele>
        <time>2022-01-20T19:23:54.962Z</time>
      </trkpt>
      <trkpt lat="45.3735" lon="7.05282">
        <ele>1803.704820616</ele>
        <time>2022-01-20T19:24:04.201Z</time>
      </trkpt>
      <trkpt lat="45.37344" lon="7.05281">
        <ele>1801.1046046743</ele>
        <time>2022-01-20T19:24:13.441Z</time>
      </trkpt>
      <trkpt lat="45.37334" lon="7.05276">
        <ele>1798.6298613765</ele>
        <time>2022-01-20T19:24:22.683Z</time>
      </trkpt>
      <trkpt lat="45.37314" lon="7.05258">
        <ele>1796.2204759949</ele>
        <time>2022-01-20T19:24:31.929Z</time>
      </trkpt>
      <trkpt lat="45.37301" lon="7.05242">
        <ele>1793.9768805979</ele>
        <time>2022-01-20T19:24:41.177Z</time>
      </trkpt>
      <trkpt lat="45.37295" lon="7.0523">
        <ele>1791.9341506033</ele>
        <time>2022-01-20T19:24:50.427Z</time>
      </trkpt>
      <trkpt lat="45.37282" lon="7.05199">
        <ele>1789.9955324237</ele>
        <time>2022-01-20T19:24:59.681Z</time>
      </trkpt>
      <trkpt lat="45.37185" lon="7.04994">
        <ele>1788.0510118898</ele>
        <time>2022-01-20T19:25:08.963Z</time>
      </trkpt>
      <trkpt lat="45.37143" lon="7.04899">
        <ele>1786.351099109</ele>
        <time>2022-01-20T19:25:18.258Z</time>
      </trkpt>
      <trkpt lat="45.37108" lon="7.04812">
        <ele>1784.8335896179</ele>
        <time>2022-01-20T19:25:27.564Z</time>
      </trkpt>
      <trkpt lat="45.37057" lon="7.04697">
        <ele>1783.365519106</ele>
        <time>2022-01-20T19:25:36.885Z</time>
      </trkpt>
      <trkpt lat="45.37032" lon="7.04621">
        <ele>1782.1043771587</ele>
        <time>2022-01-20T19:25:46.216Z</time>
      </trkpt>
      <trkpt lat="45.3695" lon="7.04328">
        <ele>1780.8006929604</ele>
        <time>2022-01-20T19:25:55.582Z</time>
      </trkpt>
      <trkpt lat="45.3694" lon="7.04298">
        <ele>1779.772740415</ele>
        <time>2022-01-20T19:26:04.952Z</time>
      </trkpt>
      <trkpt lat="45.36921" lon="7.04259">
        <ele>1778.8732996977</ele>
        <time>2022-01-20T19:26:14.327Z</time>
      </trkpt>
      <trkpt lat="45.36908" lon="7.04238">
        <ele>1778.0619086507</ele>
        <time>2022-01-20T19:26:23.706Z</time>
      </trkpt>
      <trkpt lat="45.36881" lon="7.04204">
        <ele>1777.3091292697</ele>
        <time>2022-01-20T19:26:33.090Z</time>
      </trkpt>
      <trkpt lat="45.36747" lon="7.04023">
        <ele>1776.7016250293</ele>
        <time>2022-01-20T19:26:42.504Z</time>
      </trkpt>
      <trkpt lat="45.36453" lon="7.0372">
        <ele>1775.9046900488</ele>
        <time>2022-01-20T19:26:51.976Z</time>
      </trkpt>
      <trkpt lat="45.3642" lon="7.03688">
        <ele>1775.3633857841</ele>
        <time>2022-01-20T19:27:01.455Z</time>
      </trkpt>
      <trkpt lat="45.36398" lon="7.03663">
        <ele>1774.8791176558</ele>
        <time>2022-01-20T19:27:10.938Z</time>
      </trkpt>
      <trkpt lat="45.36364" lon="7.0362">
        <ele>1774.4612968741</ele>
        <time>2022-01-20T19:27:20.428Z</time>
      </trkpt>
      <trkpt lat="45.36323" lon="7.03555">
        <ele>1774.025782801</ele>
        <time>2022-01-20T19:27:29.928Z</time>
      </trkpt>
      <trkpt lat="45.3629" lon="7.03512">
        <ele>1773.6451058197</ele>
        <time>2022-01-20T19:27:39.435Z</time>
      </trkpt>
      <trkpt lat="45.36249" lon="7.03475">
        <ele>1773.1588982524</ele>
        <time>2022-01-20T19:27:48.950Z</time>
      </trkpt>
      <trkpt lat="45.36202" lon="7.03442">
        <ele>1772.8305352184</ele>
        <time>2022-01-20T19:27:58.473Z</time>
      </trkpt>
      <trkpt lat="45.36176" lon="7.03417">
        <ele>1772.543379443</ele>
        <time>2022-01-20T19:28:08.002Z</time>
      </trkpt>
      <trkpt lat="45.36085" lon="7.03317">
        <ele>1772.1264187847</ele>
        <time>2022-01-20T19:28:17.549Z</time>
      </trkpt>
      <trkpt lat="45.35982" lon="7.03208">
        <ele>1771.7951166416</ele>
        <time>2022-01-20T19:28:27.117Z</time>
      </trkpt>
      <trkpt lat="45.35958" lon="7.03188">
        <ele>1771.4442419479</ele>
        <time>2022-01-20T19:28:36.689Z</time>
      </trkpt>
      <trkpt lat="45.35814" lon="7.03098">
        <ele>1771.384779712</ele>
        <time>2022-01-20T19:28:46.286Z</time>
      </trkpt>
      <trkpt lat="45.35756" lon="7.03059">
        <ele>1771.0766846939</ele>
        <time>2022-01-20T19:28:55.893Z</time>
      </trkpt>
      <trkpt lat="45.35737" lon="7.03043">
        <ele>1770.5967437482</ele>
        <time>2022-01-20T19:29:05.504Z</time>
      </trkpt>
      <trkpt lat="45.35712" lon="7.03015">
        <ele>1769.9715452666</ele>
        <time>2022-01-20T19:29:15.120Z</time>
      </trkpt>
      <trkpt lat="45.35699" lon="7.03004">
        <ele>1769.382977226</ele>
        <time>2022-01-20T19:29:24.738Z</time>
      </trkpt>
      <trkpt lat="45.35634" lon="7.02964">
        <ele>1768.5692807346</ele>
        <time>2022-01-20T19:29:34.368Z</time>
      </trkpt>
      <trkpt lat="45.35623" lon="7.0296">
        <ele>1767.836666222</ele>
        <time>2022-01-20T19:29:44.000Z</time>
      </trkpt>
      <trkpt lat="45.35611" lon="7.02958">
        <ele>1767.0506527905</ele>
        <time>2022-01-20T19:29:53.634Z</time>
      </trkpt>
      <trkpt lat="45.35589" lon="7.02959">
        <ele>1766.2630520483</ele>
        <time>2022-01-20T19:30:03.271Z</time>
      </trkpt>
      <trkpt lat="45.35476" lon="7.02974">
        <ele>1765.4661758678</ele>
        <time>2022-01-20T19:30:12.926Z</time>
      </trkpt>
      <trkpt lat="45.35442" lon="7.02977">
        <ele>1764.4747921471</ele>
        <time>2022-01-20T19:30:22.587Z</time>
      </trkpt>
      <trkpt lat="45.35402" lon="7.02983">
        <ele>1763.3818451269</ele>
        <time>2022-01-20T19:30:32.254Z</time>
      </trkpt>
      <trkpt lat="45.35305" lon="7.03005">
        <ele>1762.1623047537</ele>
        <time>2022-01-20T19:30:41.937Z</time>
      </trkpt>
      <trkpt lat="45.35255" lon="7.03013">
        <ele>1761.038704671</ele>
        <time>2022-01-20T19:30:51.628Z</time>
      </trkpt>
      <trkpt lat="45.352" lon="7.03018">
        <ele>1759.8770382283</ele>
        <time>2022-01-20T19:31:01.328Z</time>
      </trkpt>
      <trkpt lat="45.35127" lon="7.03015">
        <ele>1758.8790782271</ele>
        <time>2022-01-20T19:31:11.039Z</time>
      </trkpt>
      <trkpt lat="45.34994" lon="7.02989">
        <ele>1757.822597841</ele>
        <time>2022-01-20T19:31:20.772Z</time>
      </trkpt>
      <trkpt lat="45.34849" lon="7.0297">
        <ele>1756.6444251182</ele>
        <time>2022-01-20T19:31:30.528Z</time>
      </trkpt>
      <trkpt lat="45.34728" lon="7.02959">
        <ele>1755.6549075309</ele>
        <time>2022-01-20T19:31:40.304Z</time>
      </trkpt>
      <trkpt lat="45.34674" lon="7.0295">
        <ele>1754.7085144257</ele>
        <time>2022-01-20T19:31:50.088Z</time>
      </trkpt>
      <trkpt lat="45.3465" lon="7.02943">
        <ele>1753.7105263304</ele>
        <time>2022-01-20T19:31:59.876Z</time>
      </trkpt>
      <trkpt lat="45.34615" lon="7.0293">
        <ele>1752.6867355574</ele>
        <time>2022-01-20T19:32:09.670Z</time>
      </trkpt>
      <trkpt lat="45.34506" lon="7.02887">
        <ele>1751.74214194</ele>
        <time>2022-01-20T19:32:19.482Z</time>
      </trkpt>
      <trkpt lat="45.34488" lon="7.02878">
        <ele>1750.8368038432</ele>
        <time>2022-01-20T19:32:29.297Z</time>
      </trkpt>
      <trkpt lat="45.34419" lon="7.02849">
        <ele>1749.8770275632</ele>
        <time>2022-01-20T19:32:39.124Z</time>
      </trkpt>
      <trkpt lat="45.34377" lon="7.02826">
        <ele>1748.9748099757</ele>
        <time>2022-01-20T19:32:48.958Z</time>
      </trkpt>
      <trkpt lat="45.34345" lon="7.02805">
        <ele>1748.059244129</ele>
        <time>2022-01-20T19:32:58.798Z</time>
      </trkpt>
      <trkpt lat="45.34193" lon="7.02695">
        <ele>1747.2044257267</ele>
        <time>2022-01-20T19:33:08.665Z</time>
      </trkpt>
      <trkpt lat="45.34058" lon="7.02595">
        <ele>1746.290099241</ele>
        <time>2022-01-20T19:33:18.556Z</time>
      </trkpt>
      <trkpt lat="45.34036" lon="7.02574">
        <ele>1745.4740954156</ele>
        <time>2022-01-20T19:33:28.451Z</time>
      </trkpt>
      <trkpt lat="45.34016" lon="7.02552">
        <ele>1744.6465352525</ele>
        <time>2022-01-20T19:33:38.351Z</time>
      </trkpt>
      <trkpt lat="45.33957" lon="7.02475">
        <ele>1743.7335151891</ele>
        <time>2022-01-20T19:33:48.263Z</time>
      </trkpt>
      <trkpt lat="45.33927" lon="7.0243">
        <ele>1742.9761558699</ele>
        <time>2022-01-20T19:33:58.182Z</time>
      </trkpt>
      <trkpt lat="45.33871" lon="7.02363">
        <ele>1742.0653846483</ele>
        <time>2022-01-20T19:34:08.113Z</time>
      </trkpt>
      <trkpt lat="45.33801" lon="7.0229">
        <ele>1741.3819377654</ele>
        <time>2022-01-20T19:34:18.058Z</time>
      </trkpt>
      <trkpt lat="45.33335" lon="7.01819">
        <ele>1740.5113663229</ele>
        <time>2022-01-20T19:34:28.095Z</time>
      </trkpt>
      <trkpt lat="45.33275" lon="7.01754">
        <ele>1739.9340824542</ele>
        <time>2022-01-20T19:34:38.144Z</time>
      </trkpt>
      <trkpt lat="45.3318" lon="7.01661">
        <ele>1739.2735823652</ele>
        <time>2022-01-20T19:34:48.211Z</time>
      </trkpt>
      <trkpt lat="45.33165" lon="7.01644">
        <ele>1738.7589034606</ele>
        <time>2022-01-20T19:34:58.281Z</time>
      </trkpt>
      <trkpt lat="45.33103" lon="7.01545">
        <ele>1738.3319437075</ele>
        <time>2022-01-20T19:35:08.366Z</time>
      </trkpt>
      <trkpt lat="45.33092" lon="7.01531">
        <ele>1737.951498909</ele>
        <time>2022-01-20T19:35:18.454Z</time>
      </trkpt>
      <trkpt lat="45.33053" lon="7.01469">
        <ele>1737.8225878073</ele>
        <time>2022-01-20T19:35:28.551Z</time>
      </trkpt>
      <trkpt lat="45.33023" lon="7.01416">
        <ele>1737.673435847</ele>
        <time>2022-01-20T19:35:38.656Z</time>
      </trkpt>
      <trkpt lat="45.33015" lon="7.01399">
        <ele>1737.4061659064</ele>
        <time>2022-01-20T19:35:48.763Z</time>
      </trkpt>
      <trkpt lat="45.32997" lon="7.01348">
        <ele>1737.1511229121</ele>
        <time>2022-01-20T19:35:58.876Z</time>
      </trkpt>
      <trkpt lat="45.32963" lon="7.01236">
        <ele>1736.866999406</ele>
        <time>2022-01-20T19:36:09.003Z</time>
      </trkpt>
      <trkpt lat="45.32946" lon="7.0117">
        <ele>1736.6582257482</ele>
        <time>2022-01-20T19:36:19.138Z</time>
      </trkpt>
      <trkpt lat="45.32935" lon="7.01137">
        <ele>1736.4331874406</ele>
        <time>2022-01-20T19:36:29.277Z</time>
      </trkpt>
      <trkpt lat="45.32913" lon="7.01086">
        <ele>1736.2312329979</ele>
        <time>2022-01-20T19:36:39.423Z</time>
      </trkpt>
      <trkpt lat="45.32877" lon="7.01016">
        <ele>1736.0649113675</ele>
        <time>2022-01-20T19:36:49.579Z</time>
      </trkpt>
      <trkpt lat="45.3274" lon="7.00729">
        <ele>1735.8938280645</ele>
        <time>2022-01-20T19:36:59.774Z</time>
      </trkpt>
      <trkpt lat="45.32592" lon="7.00433">
        <ele>1736.1491000339</ele>
        <time>2022-01-20T19:37:10.010Z</time>
      </trkpt>
      <trkpt lat="45.32571" lon="7.00398">
        <ele>1736.1902769964</ele>
        <time>2022-01-20T19:37:20.251Z</time>
      </trkpt>
      <trkpt lat="45.32521" lon="7.00332">
        <ele>1736.3540322107</ele>
        <time>2022-01-20T19:37:30.503Z</time>
      </trkpt>
      <trkpt lat="45.32461" lon="7.00272">
        <ele>1736.5767352527</ele>
        <time>2022-01-20T19:37:40.767Z</time>
      </trkpt>
      <trkpt lat="45.32394" lon="7.00208">
        <ele>1736.8584212132</ele>
        <time>2022-01-20T19:37:51.044Z</time>
      </trkpt>
      <trkpt lat="45.32362" lon="7.00183">
        <ele>1737.2745742423</ele>
        <time>2022-01-20T19:38:01.326Z</time>
      </trkpt>
      <trkpt lat="45.32355" lon="7.00174">
        <ele>1737.7645172531</ele>
        <time>2022-01-20T19:38:11.610Z</time>
      </trkpt>
      <trkpt lat="45.32348" lon="7.00159">
        <ele>1738.326226331</ele>
        <time>2022-01-20T19:38:21.896Z</time>
      </trkpt>
      <trkpt lat="45.32343" lon="7.00154">
        <ele>1738.9397996068</ele>
        <time>2022-01-20T19:38:32.183Z</time>
      </trkpt>
      <trkpt lat="45.32329" lon="7.00145">
        <ele>1739.6136323205</ele>
        <time>2022-01-20T19:38:42.472Z</time>
      </trkpt>
      <trkpt lat="45.31979" lon="6.99805">
        <ele>1740.1610188311</ele>
        <time>2022-01-20T19:38:52.829Z</time>
      </trkpt>
      <trkpt lat="45.31847" lon="6.99681">
        <ele>1740.6798893735</ele>
        <time>2022-01-20T19:39:03.212Z</time>
      </trkpt>
      <trkpt lat="45.31795" lon="6.99628">
        <ele>1741.3584474514</ele>
        <time>2022-01-20T19:39:13.605Z</time>
      </trkpt>
      <trkpt lat="45.31591" lon="6.9943">
        <ele>1742.2509067773</ele>
        <time>2022-01-20T19:39:24.037Z</time>
      </trkpt>
      <trkpt lat="45.31474" lon="6.99319">
        <ele>1742.9347804784</ele>
        <time>2022-01-20T19:39:34.492Z</time>
      </trkpt>
      <trkpt lat="45.31418" lon="6.99263">
        <ele>1743.3398046667</ele>
        <time>2022-01-20T19:39:44.958Z</time>
      </trkpt>
      <trkpt lat="45.31326" lon="6.99179">
        <ele>1743.752718585</ele>
        <time>2022-01-20T19:39:55.441Z</time>
      </trkpt>
      <trkpt lat="45.31304" lon="6.99156">
        <ele>1743.8482848851</ele>
        <time>2022-01-20T19:40:05.929Z</time>
      </trkpt>
      <trkpt lat="45.31288" lon="6.99135">
        <ele>1743.6758282235</ele>
        <time>2022-01-20T19:40:16.420Z</time>
      </trkpt>
      <trkpt lat="45.31272" lon="6.99109">
        <ele>1743.2329735445</ele>
        <time>2022-01-20T19:40:26.915Z</time>
      </trkpt>
      <trkpt lat="45.31259" lon="6.9908">
        <ele>1742.4793402857</ele>
        <time>2022-01-20T19:40:37.414Z</time>
      </trkpt>
      <trkpt lat="45.31216" lon="6.98933">
        <ele>1741.5024936971</ele>
        <time>2022-01-20T19:40:47.931Z</time>
      </trkpt>
      <trkpt lat="45.31214" lon="6.98922">
        <ele>1740.2460926053</ele>
        <time>2022-01-20T19:40:58.449Z</time>
      </trkpt>
      <trkpt lat="45.31214" lon="6.98905">
        <ele>1738.636992418</ele>
        <time>2022-01-20T19:41:08.969Z</time>
      </trkpt>
      <trkpt lat="45.3122" lon="6.98844">
        <ele>1736.7403514208</ele>
        <time>2022-01-20T19:41:19.496Z</time>
      </trkpt>
      <trkpt lat="45.31225" lon="6.98817">
        <ele>1734.371966886</ele>
        <time>2022-01-20T19:41:30.026Z</time>
      </trkpt>
      <trkpt lat="45.31229" lon="6.98781">
        <ele>1731.6432405369</ele>
        <time>2022-01-20T19:41:40.560Z</time>
      </trkpt>
      <trkpt lat="45.31231" lon="6.98709">
        <ele>1728.4739807941</ele>
        <time>2022-01-20T19:41:51.103Z</time>
      </trkpt>
      <trkpt lat="45.31225" lon="6.98669">
        <ele>1725.2034021785</ele>
        <time>2022-01-20T19:42:01.650Z</time>
      </trkpt>
      <trkpt lat="45.31211" lon="6.98619">
        <ele>1721.7534724177</ele>
        <time>2022-01-20T19:42:12.203Z</time>
      </trkpt>
      <trkpt lat="45.30984" lon="6.98098">
        <ele>1717.716692863</ele>
        <time>2022-01-20T19:42:22.825Z</time>
      </trkpt>
      <trkpt lat="45.30871" lon="6.97844">
        <ele>1713.0756243097</ele>
        <time>2022-01-20T19:42:33.481Z</time>
      </trkpt>
      <trkpt lat="45.30861" lon="6.97819">
        <ele>1709.0407713625</ele>
        <time>2022-01-20T19:42:44.141Z</time>
      </trkpt>
      <trkpt lat="45.30834" lon="6.97721">
        <ele>1705.0040217699</ele>
        <time>2022-01-20T19:42:54.812Z</time>
      </trkpt>
      <trkpt lat="45.30832" lon="6.97657">
        <ele>1701.1091863667</ele>
        <time>2022-01-20T19:43:05.491Z</time>
      </trkpt>
      <trkpt lat="45.30836" lon="6.97618">
        <ele>1697.3383761233</ele>
        <time>2022-01-20T19:43:16.174Z</time>
      </trkpt>
      <trkpt lat="45.3084" lon="6.97597">
        <ele>1693.7734349277</ele>
        <time>2022-01-20T19:43:26.860Z</time>
      </trkpt>
      <trkpt lat="45.30864" lon="6.97503">
        <ele>1690.3186632485</ele>
        <time>2022-01-20T19:43:37.557Z</time>
      </trkpt>
      <trkpt lat="45.30865" lon="6.97486">
        <ele>1687.1744186441</ele>
        <time>2022-01-20T19:43:48.256Z</time>
      </trkpt>
      <trkpt lat="45.3089" lon="6.97392">
        <ele>1684.305692436</ele>
        <time>2022-01-20T19:43:58.966Z</time>
      </trkpt>
      <trkpt lat="45.30893" lon="6.97376">
        <ele>1681.6627893102</ele>
        <time>2022-01-20T19:44:09.678Z</time>
      </trkpt>
      <trkpt lat="45.30898" lon="6.97329">
        <ele>1679.2836258428</ele>
        <time>2022-01-20T19:44:20.395Z</time>
      </trkpt>
      <trkpt lat="45.30899" lon="6.97302">
        <ele>1677.1087722393</ele>
        <time>2022-01-20T19:44:31.115Z</time>
      </trkpt>
      <trkpt lat="45.30898" lon="6.97274">
        <ele>1675.1755869179</ele>
        <time>2022-01-20T19:44:41.839Z</time>
      </trkpt>
      <trkpt lat="45.3089" lon="6.97224">
        <ele>1673.50446142</ele>
        <time>2022-01-20T19:44:52.568Z</time>
      </trkpt>
      <trkpt lat="45.30873" lon="6.97175">
        <ele>1672.084545018</ele>
        <time>2022-01-20T19:45:03.304Z</time>
      </trkpt>
      <trkpt lat="45.30855" lon="6.97137">
        <ele>1670.9255870263</ele>
        <time>2022-01-20T19:45:14.045Z</time>
      </trkpt>
      <trkpt lat="45.30816" lon="6.97066">
        <ele>1669.9403763533</ele>
        <time>2022-01-20T19:45:24.796Z</time>
      </trkpt>
      <trkpt lat="45.30747" lon="6.9695">
        <ele>1669.142480318</ele>
        <time>2022-01-20T19:45:35.564Z</time>
      </trkpt>
      <trkpt lat="45.30713" lon="6.96884">
        <ele>1668.569406175</ele>
        <time>2022-01-20T19:45:46.341Z</time>
      </trkpt>
      <trkpt lat="45.30686" lon="6.96825">
        <ele>1668.3294003618</ele>
        <time>2022-01-20T19:45:57.126Z</time>
      </trkpt>
      <trkpt lat="45.30658" lon="6.9674">
        <ele>1668.238387105</ele>
        <time>2022-01-20T19:46:07.922Z</time>
      </trkpt>
      <trkpt lat="45.30649" lon="6.96704">
        <ele>1668.4640345842</ele>
        <time>2022-01-20T19:46:18.722Z</time>
      </trkpt>
      <trkpt lat="45.30642" lon="6.96661">
        <ele>1668.9039942481</ele>
        <time>2022-01-20T19:46:29.527Z</time>
      </trkpt>
      <trkpt lat="45.30635" lon="6.96588">
        <ele>1669.571986011</ele>
        <time>2022-01-20T19:46:40.340Z</time>
      </trkpt>
      <trkpt lat="45.30628" lon="6.96377">
        <ele>1670.3166495013</ele>
        <time>2022-01-20T19:46:51.177Z</time>
      </trkpt>
      <trkpt lat="45.30629" lon="6.96317">
        <ele>1671.4018044003</ele>
        <time>2022-01-20T19:47:02.021Z</time>
      </trkpt>
      <trkpt lat="45.30638" lon="6.96187">
        <ele>1672.7413995213</ele>
        <time>2022-01-20T19:47:12.880Z</time>
      </trkpt>
      <trkpt lat="45.30641" lon="6.96057">
        <ele>1674.1808447501</ele>
        <time>2022-01-20T19:47:23.754Z</time>
      </trkpt>
      <trkpt lat="45.30639" lon="6.96027">
        <ele>1675.7877445169</ele>
        <time>2022-01-20T19:47:34.631Z</time>
      </trkpt>
      <trkpt lat="45.30632" lon="6.9597">
        <ele>1677.6123592523</ele>
        <time>2022-01-20T19:47:45.514Z</time>
      </trkpt>
      <trkpt lat="45.30612" lon="6.95879">
        <ele>1679.5920532128</ele>
        <time>2022-01-20T19:47:56.408Z</time>
      </trkpt>
      <trkpt lat="45.30601" lon="6.95837">
        <ele>1681.846805835</ele>
        <time>2022-01-20T19:48:07.307Z</time>
      </trkpt>
      <trkpt lat="45.3058" lon="6.95788">
        <ele>1683.9938076154</ele>
        <time>2022-01-20T19:48:18.213Z</time>
      </trkpt>
      <trkpt lat="45.30559" lon="6.95753">
        <ele>1686.2248107629</ele>
        <time>2022-01-20T19:48:29.124Z</time>
      </trkpt>
      <trkpt lat="45.30531" lon="6.95714">
        <ele>1688.5888899364</ele>
        <time>2022-01-20T19:48:40.041Z</time>
      </trkpt>
      <trkpt lat="45.30507" lon="6.95693">
        <ele>1691.0202585428</ele>
        <time>2022-01-20T19:48:50.963Z</time>
      </trkpt>
      <trkpt lat="45.30446" lon="6.95661">
        <ele>1693.6462166601</ele>
        <time>2022-01-20T19:49:01.895Z</time>
      </trkpt>
      <trkpt lat="45.30389" lon="6.95635">
        <ele>1696.3489517203</ele>
        <time>2022-01-20T19:49:12.837Z</time>
      </trkpt>
      <trkpt lat="45.30353" lon="6.95614">
        <ele>1699.1065588221</ele>
        <time>2022-01-20T19:49:23.785Z</time>
      </trkpt>
      <trkpt lat="45.30328" lon="6.95591">
        <ele>1701.7597477964</ele>
        <time>2022-01-20T19:49:34.738Z</time>
      </trkpt>
      <trkpt lat="45.30315" lon="6.95573">
        <ele>1704.443855844</ele>
        <time>2022-01-20T19:49:45.694Z</time>
      </trkpt>
      <trkpt lat="45.30299" lon="6.95541">
        <ele>1707.1934607508</ele>
        <time>2022-01-20T19:49:56.654Z</time>
      </trkpt>
      <trkpt lat="45.30289" lon="6.95506">
        <ele>1709.8385952466</ele>
        <time>2022-01-20T19:50:07.618Z</time>
      </trkpt>
      <trkpt lat="45.30277" lon="6.95444">
        <ele>1712.4322734812</ele>
        <time>2022-01-20T19:50:18.590Z</time>
      </trkpt>
      <trkpt lat="45.30273" lon="6.9541">
        <ele>1715.0966219105</ele>
        <time>2022-01-20T19:50:29.565Z</time>
      </trkpt>
      <trkpt lat="45.30262" lon="6.95351">
        <ele>1717.8458242497</ele>
        <time>2022-01-20T19:50:40.547Z</time>
      </trkpt>
      <trkpt lat="45.30257" lon="6.95335">
        <ele>1720.3321671792</ele>
        <time>2022-01-20T19:50:51.531Z</time>
      </trkpt>
      <trkpt lat="45.30244" lon="6.95309">
        <ele>1722.7325286798</ele>
        <time>2022-01-20T19:51:02.519Z</time>
      </trkpt>
      <trkpt lat="45.30227" lon="6.95297">
        <ele>1725.0696071949</ele>
        <time>2022-01-20T19:51:13.510Z</time>
      </trkpt>
      <trkpt lat="45.30211" lon="6.95292">
        <ele>1727.3347119727</ele>
        <time>2022-01-20T19:51:24.504Z</time>
      </trkpt>
      <trkpt lat="45.30193" lon="6.95293">
        <ele>1729.5440579974</ele>
        <time>2022-01-20T19:51:35.501Z</time>
      </trkpt>
      <trkpt lat="45.30177" lon="6.95296">
        <ele>1731.6218107247</ele>
        <time>2022-01-20T19:51:46.500Z</time>
      </trkpt>
      <trkpt lat="45.30148" lon="6.95306">
        <ele>1733.6206928285</ele>
        <time>2022-01-20T19:51:57.504Z</time>
      </trkpt>
      <trkpt lat="45.30118" lon="6.95313">
        <ele>1735.5033032129</ele>
        <time>2022-01-20T19:52:08.513Z</time>
      </trkpt>
      <trkpt lat="45.3011" lon="6.95313">
        <ele>1737.1825227439</ele>
        <time>2022-01-20T19:52:19.523Z</time>
      </trkpt>
      <trkpt lat="45.30094" lon="6.95303">
        <ele>1738.7252683869</ele>
        <time>2022-01-20T19:52:30.536Z</time>
      </trkpt>
      <trkpt lat="45.30085" lon="6.95293">
        <ele>1740.1179952931</ele>
        <time>2022-01-20T19:52:41.551Z</time>
      </trkpt>
      <trkpt lat="45.30074" lon="6.95272">
        <ele>1741.4180032567</ele>
        <time>2022-01-20T19:52:52.569Z</time>
      </trkpt>
      <trkpt lat="45.30068" lon="6.95256">
        <ele>1742.4682385607</ele>
        <time>2022-01-20T19:53:03.589Z</time>
      </trkpt>
      <trkpt lat="45.30039" lon="6.95128">
        <ele>1743.3485640969</ele>
        <time>2022-01-20T19:53:14.624Z</time>
      </trkpt>
      <trkpt lat="45.30008" lon="6.94973">
        <ele>1744.2894763896</ele>
        <time>2022-01-20T19:53:25.677Z</time>
      </trkpt>
      <trkpt lat="45.30006" lon="6.94931">
        <ele>1744.654612394</ele>
        <time>2022-01-20T19:53:36.735Z</time>
      </trkpt>
      <trkpt lat="45.30009" lon="6.94908">
        <ele>1744.8281991903</ele>
        <time>2022-01-20T19:53:47.795Z</time>
      </trkpt>
      <trkpt lat="45.30015" lon="6.94886">
        <ele>1744.7745793191</ele>
        <time>2022-01-20T19:53:58.858Z</time>
      </trkpt>
      <trkpt lat="45.30049" lon="6.94792">
        <ele>1744.3576824371</ele>
        <time>2022-01-20T19:54:09.933Z</time>
      </trkpt>
      <trkpt lat="45.30063" lon="6.94747">
        <ele>1743.6680567846</ele>
        <time>2022-01-20T19:54:21.014Z</time>
      </trkpt>
      <trkpt lat="45.30073" lon="6.94708">
        <ele>1742.7179751849</ele>
        <time>2022-01-20T19:54:32.099Z</time>
      </trkpt>
      <trkpt lat="45.30083" lon="6.94653">
        <ele>1741.487697707</ele>
        <time>2022-01-20T19:54:43.191Z</time>
      </trkpt>
      <trkpt lat="45.30087" lon="6.94579">
        <ele>1740.1939404358</ele>
        <time>2022-01-20T19:54:54.291Z</time>
      </trkpt>
      <trkpt lat="45.30087" lon="6.94537">
        <ele>1738.6015648291</ele>
        <time>2022-01-20T19:55:05.396Z</time>
      </trkpt>
      <trkpt lat="45.30079" lon="6.94363">
        <ele>1736.7388440163</ele>
        <time>2022-01-20T19:55:16.520Z</time>
      </trkpt>
      <trkpt lat="45.30073" lon="6.94321">
        <ele>1734.8069483027</ele>
        <time>2022-01-20T19:55:27.649Z</time>
      </trkpt>
      <trkpt lat="45.30067" lon="6.94294">
        <ele>1732.749592648</ele>
        <time>2022-01-20T19:55:38.782Z</time>
      </trkpt>
      <trkpt lat="45.30046" lon="6.94232">
        <ele>1730.3971590855</ele>
        <time>2022-01-20T19:55:49.922Z</time>
      </trkpt>
      <trkpt lat="45.30023" lon="6.94188">
        <ele>1728.2182748835</ele>
        <time>2022-01-20T19:56:01.068Z</time>
      </trkpt>
      <trkpt lat="45.29945" lon="6.94083">
        <ele>1726.0368312386</ele>
        <time>2022-01-20T19:56:12.232Z</time>
      </trkpt>
      <trkpt lat="45.29926" lon="6.94047">
        <ele>1723.6620632126</ele>
        <time>2022-01-20T19:56:23.401Z</time>
      </trkpt>
      <trkpt lat="45.29919" lon="6.94016">
        <ele>1721.2635849352</ele>
        <time>2022-01-20T19:56:34.573Z</time>
      </trkpt>
      <trkpt lat="45.29918" lon="6.93996">
        <ele>1718.8592442789</ele>
        <time>2022-01-20T19:56:45.748Z</time>
      </trkpt>
      <trkpt lat="45.29921" lon="6.93977">
        <ele>1716.4205775014</ele>
        <time>2022-01-20T19:56:56.925Z</time>
      </trkpt>
      <trkpt lat="45.29926" lon="6.93958">
        <ele>1713.9690588776</ele>
        <time>2022-01-20T19:57:08.104Z</time>
      </trkpt>
      <trkpt lat="45.29966" lon="6.93841">
        <ele>1711.170413825</ele>
        <time>2022-01-20T19:57:19.298Z</time>
      </trkpt>
      <trkpt lat="45.29976" lon="6.93804">
        <ele>1708.7071474565</ele>
        <time>2022-01-20T19:57:30.496Z</time>
      </trkpt>
      <trkpt lat="45.2998" lon="6.9378">
        <ele>1706.3250495418</ele>
        <time>2022-01-20T19:57:41.697Z</time>
      </trkpt>
      <trkpt lat="45.29981" lon="6.93763">
        <ele>1703.9775557904</ele>
        <time>2022-01-20T19:57:52.900Z</time>
      </trkpt>
      <trkpt lat="45.29981" lon="6.93734">
        <ele>1701.7088296906</ele>
        <time>2022-01-20T19:58:04.106Z</time>
      </trkpt>
      <trkpt lat="45.29975" lon="6.93696">
        <ele>1699.4736489692</ele>
        <time>2022-01-20T19:58:15.317Z</time>
      </trkpt>
      <trkpt lat="45.29957" lon="6.93618">
        <ele>1697.2010175709</ele>
        <time>2022-01-20T19:58:26.537Z</time>
      </trkpt>
      <trkpt lat="45.2995" lon="6.93581">
        <ele>1694.983674418</ele>
        <time>2022-01-20T19:58:37.761Z</time>
      </trkpt>
      <trkpt lat="45.29945" lon="6.93565">
        <ele>1692.8717745717</ele>
        <time>2022-01-20T19:58:48.987Z</time>
      </trkpt>
      <trkpt lat="45.29933" lon="6.93542">
        <ele>1690.7385281444</ele>
        <time>2022-01-20T19:59:00.217Z</time>
      </trkpt>
      <trkpt lat="45.29924" lon="6.93535">
        <ele>1688.7001422498</ele>
        <time>2022-01-20T19:59:11.448Z</time>
      </trkpt>
      <trkpt lat="45.29914" lon="6.93531">
        <ele>1686.7222154148</ele>
        <time>2022-01-20T19:59:22.681Z</time>
      </trkpt>
      <trkpt lat="45.29897" lon="6.93533">
        <ele>1684.7821440899</ele>
        <time>2022-01-20T19:59:33.917Z</time>
      </trkpt>
      <trkpt lat="45.29879" lon="6.93547">
        <ele>1682.9637494464</ele>
        <time>2022-01-20T19:59:45.156Z</time>
      </trkpt>
      <trkpt lat="45.29841" lon="6.93593">
        <ele>1681.254459259</ele>
        <time>2022-01-20T19:59:56.403Z</time>
      </trkpt>
      <trkpt lat="45.29822" lon="6.93612">
        <ele>1679.5842166913</ele>
        <time>2022-01-20T20:00:07.654Z</time>
      </trkpt>
      <trkpt lat="45.29784" lon="6.9363">
        <ele>1677.8657016469</ele>
        <time>2022-01-20T20:00:18.911Z</time>
      </trkpt>
      <trkpt lat="45.29776" lon="6.93636">
        <ele>1676.3531323282</ele>
        <time>2022-01-20T20:00:30.169Z</time>
      </trkpt>
      <trkpt lat="45.29768" lon="6.93643">
        <ele>1674.9054754006</ele>
        <time>2022-01-20T20:00:41.429Z</time>
      </trkpt>
      <trkpt lat="45.29741" lon="6.93675">
        <ele>1673.6124524642</ele>
        <time>2022-01-20T20:00:52.695Z</time>
      </trkpt>
      <trkpt lat="45.29732" lon="6.93681">
        <ele>1672.2033306344</ele>
        <time>2022-01-20T20:01:03.962Z</time>
      </trkpt>
      <trkpt lat="45.29724" lon="6.93683">
        <ele>1670.8080489512</ele>
        <time>2022-01-20T20:01:15.230Z</time>
      </trkpt>
      <trkpt lat="45.29711" lon="6.93679">
        <ele>1669.376493927</ele>
        <time>2022-01-20T20:01:26.501Z</time>
      </trkpt>
      <trkpt lat="45.297" lon="6.93672">
        <ele>1667.9586749999</ele>
        <time>2022-01-20T20:01:37.774Z</time>
      </trkpt>
      <trkpt lat="45.29691" lon="6.93659">
        <ele>1666.5566797714</ele>
        <time>2022-01-20T20:01:49.049Z</time>
      </trkpt>
      <trkpt lat="45.29686" lon="6.93632">
        <ele>1665.1954469697</ele>
        <time>2022-01-20T20:02:00.327Z</time>
      </trkpt>
      <trkpt lat="45.29687" lon="6.93616">
        <ele>1663.9982345037</ele>
        <time>2022-01-20T20:02:11.607Z</time>
      </trkpt>
      <trkpt lat="45.2969" lon="6.93606">
        <ele>1662.9050394445</ele>
        <time>2022-01-20T20:02:22.888Z</time>
      </trkpt>
      <trkpt lat="45.29694" lon="6.93598">
        <ele>1661.8814157687</ele>
        <time>2022-01-20T20:02:34.170Z</time>
      </trkpt>
      <trkpt lat="45.29705" lon="6.93586">
        <ele>1660.9148423633</ele>
        <time>2022-01-20T20:02:45.454Z</time>
      </trkpt>
      <trkpt lat="45.29719" lon="6.93579">
        <ele>1660.0060580762</ele>
        <time>2022-01-20T20:02:56.740Z</time>
      </trkpt>
      <trkpt lat="45.29748" lon="6.93568">
        <ele>1659.1022532439</ele>
        <time>2022-01-20T20:03:08.031Z</time>
      </trkpt>
      <trkpt lat="45.29763" lon="6.93557">
        <ele>1658.2364604505</ele>
        <time>2022-01-20T20:03:19.325Z</time>
      </trkpt>
      <trkpt lat="45.29775" lon="6.93543">
        <ele>1657.4025915433</ele>
        <time>2022-01-20T20:03:30.621Z</time>
      </trkpt>
      <trkpt lat="45.29783" lon="6.93526">
        <ele>1656.596689095</ele>
        <time>2022-01-20T20:03:41.920Z</time>
      </trkpt>
      <trkpt lat="45.2979" lon="6.93504">
        <ele>1655.8203484139</ele>
        <time>2022-01-20T20:03:53.222Z</time>
      </trkpt>
      <trkpt lat="45.29799" lon="6.93435">
        <ele>1654.9201063488</ele>
        <time>2022-01-20T20:04:04.531Z</time>
      </trkpt>
      <trkpt lat="45.29798" lon="6.93411">
        <ele>1654.0257192139</ele>
        <time>2022-01-20T20:04:15.843Z</time>
      </trkpt>
      <trkpt lat="45.29791" lon="6.93378">
        <ele>1653.04843805</ele>
        <time>2022-01-20T20:04:27.159Z</time>
      </trkpt>
      <trkpt lat="45.29776" lon="6.93351">
        <ele>1652.0518647071</ele>
        <time>2022-01-20T20:04:38.479Z</time>
      </trkpt>
      <trkpt lat="45.29763" lon="6.93337">
        <ele>1651.0331931817</ele>
        <time>2022-01-20T20:04:49.802Z</time>
      </trkpt>
      <trkpt lat="45.29748" lon="6.93326">
        <ele>1649.9543423246</ele>
        <time>2022-01-20T20:05:01.127Z</time>
      </trkpt>
      <trkpt lat="45.29723" lon="6.93323">
        <ele>1648.7833309401</ele>
        <time>2022-01-20T20:05:12.456Z</time>
      </trkpt>
      <trkpt lat="45.29709" lon="6.93326">
        <ele>1647.5528406713</ele>
        <time>2022-01-20T20:05:23.788Z</time>
      </trkpt>
      <trkpt lat="45.29695" lon="6.93333">
        <ele>1646.2196091714</ele>
        <time>2022-01-20T20:05:35.122Z</time>
      </trkpt>
      <trkpt lat="45.29682" lon="6.93348">
        <ele>1644.7903970256</ele>
        <time>2022-01-20T20:05:46.459Z</time>
      </trkpt>
      <trkpt lat="45.29665" lon="6.93372">
        <ele>1643.2957374045</ele>
        <time>2022-01-20T20:05:57.799Z</time>
      </trkpt>
      <trkpt lat="45.29654" lon="6.93393">
        <ele>1641.7533570899</ele>
        <time>2022-01-20T20:06:09.142Z</time>
      </trkpt>
      <trkpt lat="45.29632" lon="6.93425">
        <ele>1640.0592198262</ele>
        <time>2022-01-20T20:06:20.490Z</time>
      </trkpt>
      <trkpt lat="45.29625" lon="6.93432">
        <ele>1638.2337072319</ele>
        <time>2022-01-20T20:06:31.840Z</time>
      </trkpt>
      <trkpt lat="45.29617" lon="6.93437">
        <ele>1636.2773386704</ele>
        <time>2022-01-20T20:06:43.191Z</time>
      </trkpt>
      <trkpt lat="45.29601" lon="6.93442">
        <ele>1634.143147837</ele>
        <time>2022-01-20T20:06:54.545Z</time>
      </trkpt>
      <trkpt lat="45.29584" lon="6.93441">
        <ele>1631.8789580872</ele>
        <time>2022-01-20T20:07:05.902Z</time>
      </trkpt>
      <trkpt lat="45.29569" lon="6.93434">
        <ele>1629.5051687077</ele>
        <time>2022-01-20T20:07:17.261Z</time>
      </trkpt>
      <trkpt lat="45.29554" lon="6.93423">
        <ele>1627.0119395886</ele>
        <time>2022-01-20T20:07:28.623Z</time>
      </trkpt>
      <trkpt lat="45.2953" lon="6.93401">
        <ele>1624.4010315109</ele>
        <time>2022-01-20T20:07:39.989Z</time>
      </trkpt>
      <trkpt lat="45.29498" lon="6.93368">
        <ele>1621.8197726425</ele>
        <time>2022-01-20T20:07:51.362Z</time>
      </trkpt>
      <trkpt lat="45.29471" lon="6.93328">
        <ele>1619.1355085198</ele>
        <time>2022-01-20T20:08:02.741Z</time>
      </trkpt>
      <trkpt lat="45.29453" lon="6.93294">
        <ele>1616.3214355197</ele>
        <time>2022-01-20T20:08:14.125Z</time>
      </trkpt>
      <trkpt lat="45.29427" lon="6.93237">
        <ele>1613.3856666311</ele>
        <time>2022-01-20T20:08:25.516Z</time>
      </trkpt>
      <trkpt lat="45.294" lon="6.93172">
        <ele>1610.4727118357</ele>
        <time>2022-01-20T20:08:36.916Z</time>
      </trkpt>
      <trkpt lat="45.29388" lon="6.93134">
        <ele>1607.7214508979</ele>
        <time>2022-01-20T20:08:48.321Z</time>
      </trkpt>
      <trkpt lat="45.29376" lon="6.93092">
        <ele>1604.806005016</ele>
        <time>2022-01-20T20:08:59.731Z</time>
      </trkpt>
      <trkpt lat="45.29363" lon="6.92982">
        <ele>1601.8236270914</ele>
        <time>2022-01-20T20:09:11.153Z</time>
      </trkpt>
      <trkpt lat="45.29366" lon="6.92947">
        <ele>1598.9830981368</ele>
        <time>2022-01-20T20:09:22.579Z</time>
      </trkpt>
      <trkpt lat="45.2937" lon="6.92931">
        <ele>1596.3007341439</ele>
        <time>2022-01-20T20:09:34.007Z</time>
      </trkpt>
      <trkpt lat="45.29376" lon="6.92916">
        <ele>1593.719831919</ele>
        <time>2022-01-20T20:09:45.437Z</time>
      </trkpt>
      <trkpt lat="45.29384" lon="6.92901">
        <ele>1591.1814670491</ele>
        <time>2022-01-20T20:09:56.869Z</time>
      </trkpt>
      <trkpt lat="45.29414" lon="6.92854">
        <ele>1588.6321119768</ele>
        <time>2022-01-20T20:10:08.308Z</time>
      </trkpt>
      <trkpt lat="45.29435" lon="6.92827">
        <ele>1586.2688054877</ele>
        <time>2022-01-20T20:10:19.752Z</time>
      </trkpt>
      <trkpt lat="45.29444" lon="6.92812">
        <ele>1584.0066490969</ele>
        <time>2022-01-20T20:10:31.198Z</time>
      </trkpt>
      <trkpt lat="45.29451" lon="6.92799">
        <ele>1581.8449181182</ele>
        <time>2022-01-20T20:10:42.646Z</time>
      </trkpt>
      <trkpt lat="45.29461" lon="6.92767">
        <ele>1579.7331419548</ele>
        <time>2022-01-20T20:10:54.098Z</time>
      </trkpt>
      <trkpt lat="45.29486" lon="6.92728">
        <ele>1577.9742640411</ele>
        <time>2022-01-20T20:11:05.556Z</time>
      </trkpt>
      <trkpt lat="45.29487" lon="6.92712">
        <ele>1576.0491800612</ele>
        <time>2022-01-20T20:11:17.016Z</time>
      </trkpt>
      <trkpt lat="45.29476" lon="6.92658">
        <ele>1574.0171910169</ele>
        <time>2022-01-20T20:11:28.482Z</time>
      </trkpt>
      <trkpt lat="45.29471" lon="6.92648">
        <ele>1572.1784213358</ele>
        <time>2022-01-20T20:11:39.950Z</time>
      </trkpt>
      <trkpt lat="45.29465" lon="6.92645">
        <ele>1570.3792558046</ele>
        <time>2022-01-20T20:11:51.419Z</time>
      </trkpt>
      <trkpt lat="45.29458" lon="6.92644">
        <ele>1568.6365499378</ele>
        <time>2022-01-20T20:12:02.889Z</time>
      </trkpt>
      <trkpt lat="45.29441" lon="6.92655">
        <ele>1566.8355671539</ele>
        <time>2022-01-20T20:12:14.362Z</time>
      </trkpt>
      <trkpt lat="45.2943" lon="6.92659">
        <ele>1565.2004742873</ele>
        <time>2022-01-20T20:12:25.836Z</time>
      </trkpt>
      <trkpt lat="45.29421" lon="6.92658">
        <ele>1563.6404298503</ele>
        <time>2022-01-20T20:12:37.312Z</time>
      </trkpt>
      <trkpt lat="45.29414" lon="6.92654">
        <ele>1562.1507190121</ele>
        <time>2022-01-20T20:12:48.789Z</time>
      </trkpt>
      <trkpt lat="45.29407" lon="6.92639">
        <ele>1560.7135482833</ele>
        <time>2022-01-20T20:13:00.268Z</time>
      </trkpt>
      <trkpt lat="45.29408" lon="6.92611">
        <ele>1559.349461696</ele>
        <time>2022-01-20T20:13:11.750Z</time>
      </trkpt>
      <trkpt lat="45.29419" lon="6.92573">
        <ele>1558.0348511843</ele>
        <time>2022-01-20T20:13:23.237Z</time>
      </trkpt>
      <trkpt lat="45.29422" lon="6.92551">
        <ele>1556.763539861</ele>
        <time>2022-01-20T20:13:34.727Z</time>
      </trkpt>
      <trkpt lat="45.29422" lon="6.92539">
        <ele>1555.5002426517</ele>
        <time>2022-01-20T20:13:46.218Z</time>
      </trkpt>
      <trkpt lat="45.29415" lon="6.92496">
        <ele>1554.1510523541</ele>
        <time>2022-01-20T20:13:57.714Z</time>
      </trkpt>
      <trkpt lat="45.29416" lon="6.92476">
        <ele>1552.9285258346</ele>
        <time>2022-01-20T20:14:09.212Z</time>
      </trkpt>
      <trkpt lat="45.29419" lon="6.9246">
        <ele>1551.7051180434</ele>
        <time>2022-01-20T20:14:20.712Z</time>
      </trkpt>
      <trkpt lat="45.29418" lon="6.92448">
        <ele>1550.3526563081</ele>
        <time>2022-01-20T20:14:32.213Z</time>
      </trkpt>
      <trkpt lat="45.29416" lon="6.92443">
        <ele>1548.9276838446</ele>
        <time>2022-01-20T20:14:43.715Z</time>
      </trkpt>
      <trkpt lat="45.29412" lon="6.92438">
        <ele>1547.4028853376</ele>
        <time>2022-01-20T20:14:55.218Z</time>
      </trkpt>
      <trkpt lat="45.29407" lon="6.92437">
        <ele>1545.8370859541</ele>
        <time>2022-01-20T20:15:06.722Z</time>
      </trkpt>
      <trkpt lat="45.29376" lon="6.92445">
        <ele>1544.0169678386</ele>
        <time>2022-01-20T20:15:18.231Z</time>
      </trkpt>
      <trkpt lat="45.29366" lon="6.92445">
        <ele>1542.322252348</ele>
        <time>2022-01-20T20:15:29.741Z</time>
      </trkpt>
      <trkpt lat="45.29356" lon="6.92437">
        <ele>1540.5276428295</ele>
        <time>2022-01-20T20:15:41.253Z</time>
      </trkpt>
      <trkpt lat="45.29344" lon="6.92422">
        <ele>1538.5955771104</ele>
        <time>2022-01-20T20:15:52.768Z</time>
      </trkpt>
      <trkpt lat="45.29335" lon="6.92397">
        <ele>1536.5730179752</ele>
        <time>2022-01-20T20:16:04.286Z</time>
      </trkpt>
      <trkpt lat="45.29334" lon="6.92374">
        <ele>1534.5631474058</ele>
        <time>2022-01-20T20:16:15.806Z</time>
      </trkpt>
      <trkpt lat="45.29365" lon="6.92287">
        <ele>1532.5670522115</ele>
        <time>2022-01-20T20:16:27.337Z</time>
      </trkpt>
      <trkpt lat="45.29369" lon="6.92264">
        <ele>1530.383810921</ele>
        <time>2022-01-20T20:16:38.871Z</time>
      </trkpt>
      <trkpt lat="45.29367" lon="6.92258">
        <ele>1528.1015541</ele>
        <time>2022-01-20T20:16:50.406Z</time>
      </trkpt>
      <trkpt lat="45.29362" lon="6.9225">
        <ele>1525.6788777302</ele>
        <time>2022-01-20T20:17:01.942Z</time>
      </trkpt>
      <trkpt lat="45.29354" lon="6.92246">
        <ele>1523.1313106317</ele>
        <time>2022-01-20T20:17:13.479Z</time>
      </trkpt>
      <trkpt lat="45.29342" lon="6.92249">
        <ele>1520.5472523152</ele>
        <time>2022-01-20T20:17:25.018Z</time>
      </trkpt>
      <trkpt lat="45.2933" lon="6.92245">
        <ele>1517.8684758949</ele>
        <time>2022-01-20T20:17:36.559Z</time>
      </trkpt>
      <trkpt lat="45.29326" lon="6.92239">
        <ele>1515.1267944053</ele>
        <time>2022-01-20T20:17:48.101Z</time>
      </trkpt>
      <trkpt lat="45.29323" lon="6.92231">
        <ele>1512.3011570104</ele>
        <time>2022-01-20T20:17:59.644Z</time>
      </trkpt>
      <trkpt lat="45.29317" lon="6.92199">
        <ele>1509.3376605046</ele>
        <time>2022-01-20T20:18:11.191Z</time>
      </trkpt>
      <trkpt lat="45.29306" lon="6.92154">
        <ele>1506.2799378355</ele>
        <time>2022-01-20T20:18:22.743Z</time>
      </trkpt>
      <trkpt lat="45.29294" lon="6.92119">
        <ele>1503.1608384856</ele>
        <time>2022-01-20T20:18:34.300Z</time>
      </trkpt>
      <trkpt lat="45.29281" lon="6.92091">
        <ele>1500.0093986269</ele>
        <time>2022-01-20T20:18:45.861Z</time>
      </trkpt>
      <trkpt lat="45.2926" lon="6.9205">
        <ele>1496.8158847327</ele>
        <time>2022-01-20T20:18:57.427Z</time>
      </trkpt>
      <trkpt lat="45.29222" lon="6.92007">
        <ele>1493.573343111</ele>
        <time>2022-01-20T20:19:09.001Z</time>
      </trkpt>
      <trkpt lat="45.29201" lon="6.91975">
        <ele>1490.4185864063</ele>
        <time>2022-01-20T20:19:20.580Z</time>
      </trkpt>
      <trkpt lat="45.29183" lon="6.91943">
        <ele>1487.2876952058</ele>
        <time>2022-01-20T20:19:32.164Z</time>
      </trkpt>
      <trkpt lat="45.2916" lon="6.91885">
        <ele>1484.1692212524</ele>
        <time>2022-01-20T20:19:43.755Z</time>
      </trkpt>
      <trkpt lat="45.2915" lon="6.91847">
        <ele>1481.2950152103</ele>
        <time>2022-01-20T20:19:55.351Z</time>
      </trkpt>
      <trkpt lat="45.29145" lon="6.91802">
        <ele>1478.5573406654</ele>
        <time>2022-01-20T20:20:06.952Z</time>
      </trkpt>
      <trkpt lat="45.29141" lon="6.91647">
        <ele>1475.9317629372</ele>
        <time>2022-01-20T20:20:18.570Z</time>
      </trkpt>
      <trkpt lat="45.29139" lon="6.91629">
        <ele>1473.5749899776</ele>
        <time>2022-01-20T20:20:30.191Z</time>
      </trkpt>
      <trkpt lat="45.2914" lon="6.916">
        <ele>1471.3928552572</ele>
        <time>2022-01-20T20:20:41.815Z</time>
      </trkpt>
      <trkpt lat="45.29139" lon="6.91569">
        <ele>1469.403935944</ele>
        <time>2022-01-20T20:20:53.442Z</time>
      </trkpt>
      <trkpt lat="45.29126" lon="6.91515">
        <ele>1467.6332969264</ele>
        <time>2022-01-20T20:21:05.076Z</time>
      </trkpt>
      <trkpt lat="45.2911" lon="6.91486">
        <ele>1466.0785438587</ele>
        <time>2022-01-20T20:21:16.714Z</time>
      </trkpt>
      <trkpt lat="45.29083" lon="6.91447">
        <ele>1464.7099146567</ele>
        <time>2022-01-20T20:21:28.358Z</time>
      </trkpt>
      <trkpt lat="45.29079" lon="6.91436">
        <ele>1463.5652566831</ele>
        <time>2022-01-20T20:21:40.003Z</time>
      </trkpt>
      <trkpt lat="45.29065" lon="6.91416">
        <ele>1462.5863880469</ele>
        <time>2022-01-20T20:21:51.652Z</time>
      </trkpt>
      <trkpt lat="45.29045" lon="6.91376">
        <ele>1461.7970116501</ele>
        <time>2022-01-20T20:22:03.306Z</time>
      </trkpt>
      <trkpt lat="45.29034" lon="6.91339">
        <ele>1461.1431498829</ele>
        <time>2022-01-20T20:22:14.965Z</time>
      </trkpt>
      <trkpt lat="45.29031" lon="6.91319">
        <ele>1460.7103239738</ele>
        <time>2022-01-20T20:22:26.626Z</time>
      </trkpt>
      <trkpt lat="45.29037" lon="6.91272">
        <ele>1460.4991709111</ele>
        <time>2022-01-20T20:22:38.292Z</time>
      </trkpt>
      <trkpt lat="45.29025" lon="6.91278">
        <ele>1460.386194084</ele>
        <time>2022-01-20T20:22:49.960Z</time>
      </trkpt>
      <trkpt lat="45.28993" lon="6.91272">
        <ele>1460.5484207003</ele>
        <time>2022-01-20T20:23:01.634Z</time>
      </trkpt>
      <trkpt lat="45.28987" lon="6.91273">
        <ele>1460.8290600735</ele>
        <time>2022-01-20T20:23:13.309Z</time>
      </trkpt>
      <trkpt lat="45.28983" lon="6.91275">
        <ele>1461.2252010451</ele>
        <time>2022-01-20T20:23:24.984Z</time>
      </trkpt>
      <trkpt lat="45.28977" lon="6.91284">
        <ele>1461.7314620015</ele>
        <time>2022-01-20T20:23:36.661Z</time>
      </trkpt>
      <trkpt lat="45.28975" lon="6.91292">
        <ele>1462.325595019</ele>
        <time>2022-01-20T20:23:48.339Z</time>
      </trkpt>
      <trkpt lat="45.28979" lon="6.9134">
        <ele>1463.0817740594</ele>
        <time>2022-01-20T20:24:00.022Z</time>
      </trkpt>
      <trkpt lat="45.2898" lon="6.9139">
        <ele>1463.9444077923</ele>
        <time>2022-01-20T20:24:11.711Z</time>
      </trkpt>
      <trkpt lat="45.28984" lon="6.91412">
        <ele>1464.7834080723</ele>
        <time>2022-01-20T20:24:23.402Z</time>
      </trkpt>
      <trkpt lat="45.28991" lon="6.91418">
        <ele>1465.6435024671</ele>
        <time>2022-01-20T20:24:35.095Z</time>
      </trkpt>
      <trkpt lat="45.28996" lon="6.91425">
        <ele>1466.5875235699</ele>
        <time>2022-01-20T20:24:46.789Z</time>
      </trkpt>
      <trkpt lat="45.29001" lon="6.91437">
        <ele>1467.6148640381</ele>
        <time>2022-01-20T20:24:58.484Z</time>
      </trkpt>
      <trkpt lat="45.29004" lon="6.91449">
        <ele>1468.707327016</ele>
        <time>2022-01-20T20:25:10.181Z</time>
      </trkpt>
      <trkpt lat="45.29005" lon="6.91471">
        <ele>1469.880839299</ele>
        <time>2022-01-20T20:25:21.880Z</time>
      </trkpt>
      <trkpt lat="45.29003" lon="6.91479">
        <ele>1471.0790309727</ele>
        <time>2022-01-20T20:25:33.580Z</time>
      </trkpt>
      <trkpt lat="45.28998" lon="6.91488">
        <ele>1472.337593736</ele>
        <time>2022-01-20T20:25:45.282Z</time>
      </trkpt>
      <trkpt lat="45.2899" lon="6.91497">
        <ele>1473.6411575093</ele>
        <time>2022-01-20T20:25:56.985Z</time>
      </trkpt>
      <trkpt lat="45.28974" lon="6.91502">
        <ele>1475.0095706992</ele>
        <time>2022-01-20T20:26:08.691Z</time>
      </trkpt>
      <trkpt lat="45.28966" lon="6.915">
        <ele>1476.3467436161</ele>
        <time>2022-01-20T20:26:20.398Z</time>
      </trkpt>
      <trkpt lat="45.28958" lon="6.91494">
        <ele>1477.7203966876</ele>
        <time>2022-01-20T20:26:32.107Z</time>
      </trkpt>
      <trkpt lat="45.28955" lon="6.91488">
        <ele>1479.0801018843</ele>
        <time>2022-01-20T20:26:43.816Z</time>
      </trkpt>
      <trkpt lat="45.28951" lon="6.9147">
        <ele>1480.453947548</ele>
        <time>2022-01-20T20:26:55.527Z</time>
      </trkpt>
      <trkpt lat="45.28931" lon="6.91305">
        <ele>1481.8404367723</ele>
        <time>2022-01-20T20:27:07.257Z</time>
      </trkpt>
      <trkpt lat="45.28917" lon="6.9121">
        <ele>1483.3508157496</ele>
        <time>2022-01-20T20:27:18.998Z</time>
      </trkpt>
      <trkpt lat="45.28909" lon="6.91172">
        <ele>1484.7693006426</ele>
        <time>2022-01-20T20:27:30.744Z</time>
      </trkpt>
      <trkpt lat="45.28885" lon="6.91101">
        <ele>1486.3157980178</ele>
        <time>2022-01-20T20:27:42.499Z</time>
      </trkpt>
      <trkpt lat="45.2887" lon="6.91069">
        <ele>1487.8560080773</ele>
        <time>2022-01-20T20:27:54.258Z</time>
      </trkpt>
      <trkpt lat="45.28864" lon="6.9106">
        <ele>1489.3819092001</ele>
        <time>2022-01-20T20:28:06.018Z</time>
      </trkpt>
      <trkpt lat="45.28856" lon="6.91054">
        <ele>1490.9426456611</ele>
        <time>2022-01-20T20:28:17.780Z</time>
      </trkpt>
      <trkpt lat="45.28844" lon="6.91052">
        <ele>1492.5229317323</ele>
        <time>2022-01-20T20:28:29.544Z</time>
      </trkpt>
      <trkpt lat="45.28836" lon="6.91057">
        <ele>1494.1430583698</ele>
        <time>2022-01-20T20:28:41.309Z</time>
      </trkpt>
      <trkpt lat="45.28827" lon="6.9107">
        <ele>1495.8116247522</ele>
        <time>2022-01-20T20:28:53.076Z</time>
      </trkpt>
      <trkpt lat="45.28823" lon="6.91083">
        <ele>1497.483618202</ele>
        <time>2022-01-20T20:29:04.845Z</time>
      </trkpt>
      <trkpt lat="45.28817" lon="6.91114">
        <ele>1499.2023811462</ele>
        <time>2022-01-20T20:29:16.618Z</time>
      </trkpt>
      <trkpt lat="45.28808" lon="6.9118">
        <ele>1500.985231251</ele>
        <time>2022-01-20T20:29:28.398Z</time>
      </trkpt>
      <trkpt lat="45.28809" lon="6.91211">
        <ele>1502.7226399902</ele>
        <time>2022-01-20T20:29:40.182Z</time>
      </trkpt>
      <trkpt lat="45.28812" lon="6.91237">
        <ele>1504.4184043357</ele>
        <time>2022-01-20T20:29:51.969Z</time>
      </trkpt>
      <trkpt lat="45.28824" lon="6.9129">
        <ele>1506.0949966478</ele>
        <time>2022-01-20T20:30:03.762Z</time>
      </trkpt>
      <trkpt lat="45.28826" lon="6.91319">
        <ele>1507.7813630289</ele>
        <time>2022-01-20T20:30:15.558Z</time>
      </trkpt>
      <trkpt lat="45.28822" lon="6.91332">
        <ele>1509.3960767183</ele>
        <time>2022-01-20T20:30:27.356Z</time>
      </trkpt>
      <trkpt lat="45.28815" lon="6.9134">
        <ele>1510.9605891406</ele>
        <time>2022-01-20T20:30:39.155Z</time>
      </trkpt>
      <trkpt lat="45.28805" lon="6.91342">
        <ele>1512.4612505788</ele>
        <time>2022-01-20T20:30:50.956Z</time>
      </trkpt>
      <trkpt lat="45.28796" lon="6.91339">
        <ele>1513.8896919863</ele>
        <time>2022-01-20T20:31:02.758Z</time>
      </trkpt>
      <trkpt lat="45.28789" lon="6.91331">
        <ele>1515.2292315616</ele>
        <time>2022-01-20T20:31:14.562Z</time>
      </trkpt>
      <trkpt lat="45.28746" lon="6.91223">
        <ele>1516.612998768</ele>
        <time>2022-01-20T20:31:26.380Z</time>
      </trkpt>
      <trkpt lat="45.28738" lon="6.91198">
        <ele>1517.7611222992</ele>
        <time>2022-01-20T20:31:38.201Z</time>
      </trkpt>
      <trkpt lat="45.28719" lon="6.91081">
        <ele>1518.7238139711</ele>
        <time>2022-01-20T20:31:50.035Z</time>
      </trkpt>
      <trkpt lat="45.28714" lon="6.91061">
        <ele>1519.5281555984</ele>
        <time>2022-01-20T20:32:01.872Z</time>
      </trkpt>
      <trkpt lat="45.28708" lon="6.91047">
        <ele>1520.1396765251</ele>
        <time>2022-01-20T20:32:13.711Z</time>
      </trkpt>
      <trkpt lat="45.28677" lon="6.91004">
        <ele>1520.5929286377</ele>
        <time>2022-01-20T20:32:25.557Z</time>
      </trkpt>
      <trkpt lat="45.28666" lon="6.90985">
        <ele>1520.8467158563</ele>
        <time>2022-01-20T20:32:37.405Z</time>
      </trkpt>
      <trkpt lat="45.2866" lon="6.9096">
        <ele>1520.8802207164</ele>
        <time>2022-01-20T20:32:49.256Z</time>
      </trkpt>
      <trkpt lat="45.28655" lon="6.90902">
        <ele>1520.5634049796</ele>
        <time>2022-01-20T20:33:01.114Z</time>
      </trkpt>
      <trkpt lat="45.2865" lon="6.90886">
        <ele>1520.0771818342</ele>
        <time>2022-01-20T20:33:12.974Z</time>
      </trkpt>
      <trkpt lat="45.28636" lon="6.90867">
        <ele>1519.3965092435</ele>
        <time>2022-01-20T20:33:24.837Z</time>
      </trkpt>
      <trkpt lat="45.28609" lon="6.90847">
        <ele>1518.5284945921</ele>
        <time>2022-01-20T20:33:36.705Z</time>
      </trkpt>
      <trkpt lat="45.28533" lon="6.90806">
        <ele>1517.4204682803</ele>
        <time>2022-01-20T20:33:48.586Z</time>
      </trkpt>
      <trkpt lat="45.285" lon="6.90786">
        <ele>1516.0066181027</ele>
        <time>2022-01-20T20:34:00.473Z</time>
      </trkpt>
      <trkpt lat="45.28501" lon="6.90776">
        <ele>1514.2613825598</ele>
        <time>2022-01-20T20:34:12.361Z</time>
      </trkpt>
      <trkpt lat="45.285" lon="6.90769">
        <ele>1512.2853020407</ele>
        <time>2022-01-20T20:34:24.250Z</time>
      </trkpt>
      <trkpt lat="45.2848" lon="6.90691">
        <ele>1509.8812204756</ele>
        <time>2022-01-20T20:34:36.148Z</time>
      </trkpt>
      <trkpt lat="45.28442" lon="6.90507">
        <ele>1507.2004745479</ele>
        <time>2022-01-20T20:34:48.068Z</time>
      </trkpt>
      <trkpt lat="45.28394" lon="6.9029">
        <ele>1504.2457144021</ele>
        <time>2022-01-20T20:35:00.013Z</time>
      </trkpt>
      <trkpt lat="45.28387" lon="6.90239">
        <ele>1501.598289312</ele>
        <time>2022-01-20T20:35:11.964Z</time>
      </trkpt>
      <trkpt lat="45.28385" lon="6.90138">
        <ele>1498.6966391932</ele>
        <time>2022-01-20T20:35:23.927Z</time>
      </trkpt>
      <trkpt lat="45.28368" lon="6.8999">
        <ele>1495.5827242488</ele>
        <time>2022-01-20T20:35:35.907Z</time>
      </trkpt>
      <trkpt lat="45.28365" lon="6.89953">
        <ele>1492.6694176562</ele>
        <time>2022-01-20T20:35:47.891Z</time>
      </trkpt>
      <trkpt lat="45.28365" lon="6.89914">
        <ele>1489.6033864892</ele>
        <time>2022-01-20T20:35:59.879Z</time>
      </trkpt>
      <trkpt lat="45.28372" lon="6.89866">
        <ele>1486.433436942</ele>
        <time>2022-01-20T20:36:11.873Z</time>
      </trkpt>
      <trkpt lat="45.28393" lon="6.89786">
        <ele>1483.2921155793</ele>
        <time>2022-01-20T20:36:23.876Z</time>
      </trkpt>
      <trkpt lat="45.28396" lon="6.89764">
        <ele>1480.273396439</ele>
        <time>2022-01-20T20:36:35.882Z</time>
      </trkpt>
      <trkpt lat="45.28394" lon="6.89727">
        <ele>1477.3344287929</ele>
        <time>2022-01-20T20:36:47.892Z</time>
      </trkpt>
      <trkpt lat="45.28385" lon="6.89685">
        <ele>1474.5050298403</ele>
        <time>2022-01-20T20:36:59.907Z</time>
      </trkpt>
      <trkpt lat="45.28381" lon="6.89653">
        <ele>1471.6931685682</ele>
        <time>2022-01-20T20:37:11.926Z</time>
      </trkpt>
      <trkpt lat="45.28381" lon="6.89628">
        <ele>1468.9953095426</ele>
        <time>2022-01-20T20:37:23.948Z</time>
      </trkpt>
      <trkpt lat="45.28388" lon="6.89564">
        <ele>1466.4726862904</ele>
        <time>2022-01-20T20:37:35.977Z</time>
      </trkpt>
      <trkpt lat="45.28401" lon="6.89494">
        <ele>1463.7475007407</ele>
        <time>2022-01-20T20:37:48.014Z</time>
      </trkpt>
      <trkpt lat="45.28401" lon="6.89494">
        <ele>1461.1993308451</ele>
        <time>2022-01-20T20:38:00.051Z</time>
      </trkpt>
      <trkpt lat="45.28404" lon="6.89465">
        <ele>1458.5024400815</ele>
        <time>2022-01-20T20:38:12.091Z</time>
      </trkpt>
      <trkpt lat="45.28404" lon="6.89434">
        <ele>1455.8561311553</ele>
        <time>2022-01-20T20:38:24.135Z</time>
      </trkpt>
      <trkpt lat="45.28395" lon="6.89372">
        <ele>1453.3148444727</ele>
        <time>2022-01-20T20:38:36.186Z</time>
      </trkpt>
      <trkpt lat="45.28394" lon="6.89344">
        <ele>1450.8665009833</ele>
        <time>2022-01-20T20:38:48.240Z</time>
      </trkpt>
      <trkpt lat="45.28398" lon="6.8932">
        <ele>1448.3951492904</ele>
        <time>2022-01-20T20:39:00.297Z</time>
      </trkpt>
      <trkpt lat="45.28412" lon="6.89273">
        <ele>1445.9302522469</ele>
        <time>2022-01-20T20:39:12.360Z</time>
      </trkpt>
      <trkpt lat="45.28414" lon="6.89249">
        <ele>1443.4220534042</ele>
        <time>2022-01-20T20:39:24.426Z</time>
      </trkpt>
      <trkpt lat="45.28405" lon="6.89061">
        <ele>1440.8889171247</ele>
        <time>2022-01-20T20:39:36.513Z</time>
      </trkpt>
      <trkpt lat="45.28404" lon="6.89006">
        <ele>1438.1930034855</ele>
        <time>2022-01-20T20:39:48.606Z</time>
      </trkpt>
      <trkpt lat="45.28408" lon="6.88981">
        <ele>1435.3870909611</ele>
        <time>2022-01-20T20:40:00.702Z</time>
      </trkpt>
      <trkpt lat="45.28417" lon="6.88945">
        <ele>1432.465275845</ele>
        <time>2022-01-20T20:40:12.802Z</time>
      </trkpt>
      <trkpt lat="45.28419" lon="6.88917">
        <ele>1429.6901770837</ele>
        <time>2022-01-20T20:40:24.905Z</time>
      </trkpt>
      <trkpt lat="45.28417" lon="6.88816">
        <ele>1426.9184029818</ele>
        <time>2022-01-20T20:40:37.020Z</time>
      </trkpt>
      <trkpt lat="45.2843" lon="6.88691">
        <ele>1424.1705068217</ele>
        <time>2022-01-20T20:40:49.149Z</time>
      </trkpt>
      <trkpt lat="45.28437" lon="6.88644">
        <ele>1421.5514256791</ele>
        <time>2022-01-20T20:41:01.284Z</time>
      </trkpt>
      <trkpt lat="45.28442" lon="6.88582">
        <ele>1418.9466942524</ele>
        <time>2022-01-20T20:41:13.426Z</time>
      </trkpt>
      <trkpt lat="45.28437" lon="6.88535">
        <ele>1416.5136418959</ele>
        <time>2022-01-20T20:41:25.573Z</time>
      </trkpt>
      <trkpt lat="45.28429" lon="6.8849">
        <ele>1414.2599562257</ele>
        <time>2022-01-20T20:41:37.725Z</time>
      </trkpt>
      <trkpt lat="45.28427" lon="6.88446">
        <ele>1412.1475909475</ele>
        <time>2022-01-20T20:41:49.882Z</time>
      </trkpt>
      <trkpt lat="45.28431" lon="6.8841">
        <ele>1410.1276331483</ele>
        <time>2022-01-20T20:42:02.043Z</time>
      </trkpt>
      <trkpt lat="45.28444" lon="6.88344">
        <ele>1408.1354218719</ele>
        <time>2022-01-20T20:42:14.212Z</time>
      </trkpt>
      <trkpt lat="45.28456" lon="6.88317">
        <ele>1406.2024927998</ele>
        <time>2022-01-20T20:42:26.385Z</time>
      </trkpt>
      <trkpt lat="45.28466" lon="6.88306">
        <ele>1404.449137925</ele>
        <time>2022-01-20T20:42:38.560Z</time>
      </trkpt>
      <trkpt lat="45.28521" lon="6.88272">
        <ele>1402.7791180084</ele>
        <time>2022-01-20T20:42:50.744Z</time>
      </trkpt>
      <trkpt lat="45.28546" lon="6.88259">
        <ele>1401.4835697252</ele>
        <time>2022-01-20T20:43:02.933Z</time>
      </trkpt>
      <trkpt lat="45.28556" lon="6.88249">
        <ele>1400.2892723618</ele>
        <time>2022-01-20T20:43:15.123Z</time>
      </trkpt>
      <trkpt lat="45.28553" lon="6.88203">
        <ele>1399.172297907</ele>
        <time>2022-01-20T20:43:27.319Z</time>
      </trkpt>
      <trkpt lat="45.28533" lon="6.88011">
        <ele>1398.1411881173</ele>
        <time>2022-01-20T20:43:39.537Z</time>
      </trkpt>
      <trkpt lat="45.28529" lon="6.87956">
        <ele>1397.2562563733</ele>
        <time>2022-01-20T20:43:51.761Z</time>
      </trkpt>
      <trkpt lat="45.2852" lon="6.87744">
        <ele>1396.5243359558</ele>
        <time>2022-01-20T20:44:04.009Z</time>
      </trkpt>
      <trkpt lat="45.2852" lon="6.87685">
        <ele>1395.8937954304</ele>
        <time>2022-01-20T20:44:16.264Z</time>
      </trkpt>
      <trkpt lat="45.28531" lon="6.87591">
        <ele>1395.3588056235</ele>
        <time>2022-01-20T20:44:28.529Z</time>
      </trkpt>
      <trkpt lat="45.28534" lon="6.8755">
        <ele>1394.7734249012</ele>
        <time>2022-01-20T20:44:40.799Z</time>
      </trkpt>
      <trkpt lat="45.2853" lon="6.87468">
        <ele>1394.2701645956</ele>
        <time>2022-01-20T20:44:53.078Z</time>
      </trkpt>
      <trkpt lat="45.28527" lon="6.8744">
        <ele>1393.7733595178</ele>
        <time>2022-01-20T20:45:05.360Z</time>
      </trkpt>
      <trkpt lat="45.28518" lon="6.87386">
        <ele>1393.2402687081</ele>
        <time>2022-01-20T20:45:17.649Z</time>
      </trkpt>
      <trkpt lat="45.2848" lon="6.87238">
        <ele>1392.7628583294</ele>
        <time>2022-01-20T20:45:29.955Z</time>
      </trkpt>
      <trkpt lat="45.28479" lon="6.87226">
        <ele>1392.2165974599</ele>
        <time>2022-01-20T20:45:42.263Z</time>
      </trkpt>
      <trkpt lat="45.28477" lon="6.87222">
        <ele>1391.6025558563</ele>
        <time>2022-01-20T20:45:54.571Z</time>
      </trkpt>
      <trkpt lat="45.28471" lon="6.87217">
        <ele>1390.9051814813</ele>
        <time>2022-01-20T20:46:06.881Z</time>
      </trkpt>
      <trkpt lat="45.28456" lon="6.87172">
        <ele>1390.1008163338</ele>
        <time>2022-01-20T20:46:19.196Z</time>
      </trkpt>
      <trkpt lat="45.28453" lon="6.87146">
        <ele>1389.3100385965</ele>
        <time>2022-01-20T20:46:31.514Z</time>
      </trkpt>
      <trkpt lat="45.28433" lon="6.87069">
        <ele>1388.3384043113</ele>
        <time>2022-01-20T20:46:43.841Z</time>
      </trkpt>
      <trkpt lat="45.28428" lon="6.87039">
        <ele>1387.3769621854</ele>
        <time>2022-01-20T20:46:56.172Z</time>
      </trkpt>
      <trkpt lat="45.28422" lon="6.86977">
        <ele>1386.3158497243</ele>
        <time>2022-01-20T20:47:08.510Z</time>
      </trkpt>
      <trkpt lat="45.28422" lon="6.86904">
        <ele>1385.1572271168</ele>
        <time>2022-01-20T20:47:20.856Z</time>
      </trkpt>
      <trkpt lat="45.28425" lon="6.86864">
        <ele>1384.0373511271</ele>
        <time>2022-01-20T20:47:33.207Z</time>
      </trkpt>
      <trkpt lat="45.28432" lon="6.86805">
        <ele>1382.9377185906</ele>
        <time>2022-01-20T20:47:45.565Z</time>
      </trkpt>
      <trkpt lat="45.28444" lon="6.86721">
        <ele>1381.8434677857</ele>
        <time>2022-01-20T20:47:57.932Z</time>
      </trkpt>
      <trkpt lat="45.28497" lon="6.86305">
        <ele>1380.993136038</ele>
        <time>2022-01-20T20:48:10.347Z</time>
      </trkpt>
      <trkpt lat="45.28513" lon="6.8624">
        <ele>1379.9632151507</ele>
        <time>2022-01-20T20:48:22.770Z</time>
      </trkpt>
      <trkpt lat="45.28541" lon="6.86163">
        <ele>1378.7349556532</ele>
        <time>2022-01-20T20:48:35.203Z</time>
      </trkpt>
      <trkpt lat="45.28555" lon="6.86117">
        <ele>1377.6760966106</ele>
        <time>2022-01-20T20:48:47.641Z</time>
      </trkpt>
      <trkpt lat="45.28566" lon="6.8607">
        <ele>1376.6746764792</ele>
        <time>2022-01-20T20:49:00.085Z</time>
      </trkpt>
      <trkpt lat="45.28575" lon="6.86012">
        <ele>1375.6866915843</ele>
        <time>2022-01-20T20:49:12.535Z</time>
      </trkpt>
      <trkpt lat="45.28579" lon="6.85943">
        <ele>1374.7520631528</ele>
        <time>2022-01-20T20:49:24.993Z</time>
      </trkpt>
      <trkpt lat="45.28577" lon="6.85704">
        <ele>1373.7931697036</ele>
        <time>2022-01-20T20:49:37.478Z</time>
      </trkpt>
      <trkpt lat="45.28578" lon="6.85615">
        <ele>1372.9376782198</ele>
        <time>2022-01-20T20:49:49.973Z</time>
      </trkpt>
      <trkpt lat="45.2858" lon="6.85589">
        <ele>1372.2112114394</ele>
        <time>2022-01-20T20:50:02.471Z</time>
      </trkpt>
      <trkpt lat="45.286" lon="6.8549">
        <ele>1371.6923309056</ele>
        <time>2022-01-20T20:50:14.981Z</time>
      </trkpt>
      <trkpt lat="45.28608" lon="6.85436">
        <ele>1371.062018992</ele>
        <time>2022-01-20T20:50:27.497Z</time>
      </trkpt>
      <trkpt lat="45.28612" lon="6.85385">
        <ele>1370.5430223583</ele>
        <time>2022-01-20T20:50:40.019Z</time>
      </trkpt>
      <trkpt lat="45.28612" lon="6.85312">
        <ele>1370.2459660712</ele>
        <time>2022-01-20T20:50:52.549Z</time>
      </trkpt>
      <trkpt lat="45.286" lon="6.85051">
        <ele>1369.6803432346</ele>
        <time>2022-01-20T20:51:05.109Z</time>
      </trkpt>
      <trkpt lat="45.28587" lon="6.84881">
        <ele>1369.4892827749</ele>
        <time>2022-01-20T20:51:17.688Z</time>
      </trkpt>
      <trkpt lat="45.28588" lon="6.84826">
        <ele>1369.6270814057</ele>
        <time>2022-01-20T20:51:30.273Z</time>
      </trkpt>
      <trkpt lat="45.28609" lon="6.84629">
        <ele>1370.0023161482</ele>
        <time>2022-01-20T20:51:42.881Z</time>
      </trkpt>
      <trkpt lat="45.28612" lon="6.84588">
        <ele>1370.5808184254</ele>
        <time>2022-01-20T20:51:55.493Z</time>
      </trkpt>
      <trkpt lat="45.28612" lon="6.84559">
        <ele>1371.4169642448</ele>
        <time>2022-01-20T20:52:08.109Z</time>
      </trkpt>
      <trkpt lat="45.28607" lon="6.84493">
        <ele>1372.3389446857</ele>
        <time>2022-01-20T20:52:20.732Z</time>
      </trkpt>
      <trkpt lat="45.28562" lon="6.84151">
        <ele>1373.4089053084</ele>
        <time>2022-01-20T20:52:33.395Z</time>
      </trkpt>
      <trkpt lat="45.28554" lon="6.84049">
        <ele>1374.8008126248</ele>
        <time>2022-01-20T20:52:46.069Z</time>
      </trkpt>
      <trkpt lat="45.28551" lon="6.83977">
        <ele>1376.5923752896</ele>
        <time>2022-01-20T20:52:58.751Z</time>
      </trkpt>
      <trkpt lat="45.28544" lon="6.83874">
        <ele>1378.662799505</ele>
        <time>2022-01-20T20:53:11.445Z</time>
      </trkpt>
      <trkpt lat="45.28526" lon="6.83786">
        <ele>1380.7788642883</ele>
        <time>2022-01-20T20:53:24.149Z</time>
      </trkpt>
      <trkpt lat="45.28512" lon="6.83621">
        <ele>1383.1724897367</ele>
        <time>2022-01-20T20:53:36.872Z</time>
      </trkpt>
      <trkpt lat="45.28505" lon="6.83589">
        <ele>1385.1222655918</ele>
        <time>2022-01-20T20:53:49.599Z</time>
      </trkpt>
      <trkpt lat="45.28423" lon="6.83301">
        <ele>1386.997024271</ele>
        <time>2022-01-20T20:54:02.361Z</time>
      </trkpt>
      <trkpt lat="45.28411" lon="6.83252">
        <ele>1389.1335971187</ele>
        <time>2022-01-20T20:54:15.129Z</time>
      </trkpt>
      <trkpt lat="45.28392" lon="6.83155">
        <ele>1391.6643985689</ele>
        <time>2022-01-20T20:54:27.908Z</time>
      </trkpt>
      <trkpt lat="45.28377" lon="6.8309">
        <ele>1393.924619573</ele>
        <time>2022-01-20T20:54:40.695Z</time>
      </trkpt>
      <trkpt lat="45.28333" lon="6.82966">
        <ele>1395.8980919441</ele>
        <time>2022-01-20T20:54:53.498Z</time>
      </trkpt>
      <trkpt lat="45.28322" lon="6.82925">
        <ele>1397.6709349076</ele>
        <time>2022-01-20T20:55:06.306Z</time>
      </trkpt>
      <trkpt lat="45.28307" lon="6.82856">
        <ele>1399.3279775198</ele>
        <time>2022-01-20T20:55:19.122Z</time>
      </trkpt>
      <trkpt lat="45.28296" lon="6.82819">
        <ele>1400.7330802635</ele>
        <time>2022-01-20T20:55:31.942Z</time>
      </trkpt>
      <trkpt lat="45.28286" lon="6.82796">
        <ele>1401.7020214426</ele>
        <time>2022-01-20T20:55:44.765Z</time>
      </trkpt>
      <trkpt lat="45.28273" lon="6.82773">
        <ele>1402.280634404</ele>
        <time>2022-01-20T20:55:57.592Z</time>
      </trkpt>
      <trkpt lat="45.28245" lon="6.82735">
        <ele>1402.4222018361</ele>
        <time>2022-01-20T20:56:10.425Z</time>
      </trkpt>
      <trkpt lat="45.28231" lon="6.82713">
        <ele>1402.0876289165</ele>
        <time>2022-01-20T20:56:23.261Z</time>
      </trkpt>
      <trkpt lat="45.28215" lon="6.82677">
        <ele>1401.7848367843</ele>
        <time>2022-01-20T20:56:36.102Z</time>
      </trkpt>
      <trkpt lat="45.28097" lon="6.8235">
        <ele>1401.1221285659</ele>
        <time>2022-01-20T20:56:48.984Z</time>
      </trkpt>
      <trkpt lat="45.28048" lon="6.82219">
        <ele>1399.3518353624</ele>
        <time>2022-01-20T20:57:01.883Z</time>
      </trkpt>
      <trkpt lat="45.28035" lon="6.82191">
        <ele>1397.5223325851</ele>
        <time>2022-01-20T20:57:14.786Z</time>
      </trkpt>
      <trkpt lat="45.28009" lon="6.82147">
        <ele>1395.3923594742</ele>
        <time>2022-01-20T20:57:27.695Z</time>
      </trkpt>
      <trkpt lat="45.27922" lon="6.82014">
        <ele>1392.5367893107</ele>
        <time>2022-01-20T20:57:40.625Z</time>
      </trkpt>
      <trkpt lat="45.27907" lon="6.81988">
        <ele>1389.4389799061</ele>
        <time>2022-01-20T20:57:53.559Z</time>
      </trkpt>
      <trkpt lat="45.27895" lon="6.81961">
        <ele>1386.0329580602</ele>
        <time>2022-01-20T20:58:06.496Z</time>
      </trkpt>
      <trkpt lat="45.27876" lon="6.81892">
        <ele>1382.2399435073</ele>
        <time>2022-01-20T20:58:19.442Z</time>
      </trkpt>
      <trkpt lat="45.27874" lon="6.81857">
        <ele>1378.3733413176</ele>
        <time>2022-01-20T20:58:32.392Z</time>
      </trkpt>
      <trkpt lat="45.27877" lon="6.81837">
        <ele>1374.4843422087</ele>
        <time>2022-01-20T20:58:45.344Z</time>
      </trkpt>
      <trkpt lat="45.27885" lon="6.81816">
        <ele>1370.5749791165</ele>
        <time>2022-01-20T20:58:58.299Z</time>
      </trkpt>
      <trkpt lat="45.27903" lon="6.81788">
        <ele>1366.5524821856</ele>
        <time>2022-01-20T20:59:11.258Z</time>
      </trkpt>
      <trkpt lat="45.27915" lon="6.81775">
        <ele>1362.4368337462</ele>
        <time>2022-01-20T20:59:24.219Z</time>
      </trkpt>
      <trkpt lat="45.27944" lon="6.8175">
        <ele>1358.277857221</ele>
        <time>2022-01-20T20:59:37.186Z</time>
      </trkpt>
      <trkpt lat="45.28044" lon="6.81674">
        <ele>1354.1182660269</ele>
        <time>2022-01-20T20:59:50.171Z</time>
      </trkpt>
      <trkpt lat="45.28084" lon="6.81648">
        <ele>1349.6354618171</ele>
        <time>2022-01-20T21:00:03.163Z</time>
      </trkpt>
      <trkpt lat="45.28122" lon="6.81633">
        <ele>1345.4687298061</ele>
        <time>2022-01-20T21:00:16.161Z</time>
      </trkpt>
      <trkpt lat="45.28128" lon="6.81626">
        <ele>1341.252482096</ele>
        <time>2022-01-20T21:00:29.161Z</time>
      </trkpt>
      <trkpt lat="45.2813" lon="6.8162">
        <ele>1337.0789432805</ele>
        <time>2022-01-20T21:00:42.161Z</time>
      </trkpt>
      <trkpt lat="45.2813" lon="6.81612">
        <ele>1332.9489683428</ele>
        <time>2022-01-20T21:00:55.162Z</time>
      </trkpt>
      <trkpt lat="45.28128" lon="6.81608">
        <ele>1328.9575174284</ele>
        <time>2022-01-20T21:01:08.164Z</time>
      </trkpt>
      <trkpt lat="45.28126" lon="6.81606">
        <ele>1325.1043104029</ele>
        <time>2022-01-20T21:01:21.166Z</time>
      </trkpt>
      <trkpt lat="45.28119" lon="6.81606">
        <ele>1321.381603593</ele>
        <time>2022-01-20T21:01:34.169Z</time>
      </trkpt>
      <trkpt lat="45.2806" lon="6.81626">
        <ele>1317.8151468322</ele>
        <time>2022-01-20T21:01:47.182Z</time>
      </trkpt>
      <trkpt lat="45.27823" lon="6.81691">
        <ele>1313.8017553796</ele>
        <time>2022-01-20T21:02:00.234Z</time>
      </trkpt>
      <trkpt lat="45.27776" lon="6.81709">
        <ele>1310.5172959334</ele>
        <time>2022-01-20T21:02:13.293Z</time>
      </trkpt>
      <trkpt lat="45.27724" lon="6.81732">
        <ele>1307.3081317344</ele>
        <time>2022-01-20T21:02:26.361Z</time>
      </trkpt>
      <trkpt lat="45.27703" lon="6.81733">
        <ele>1304.4456804768</ele>
        <time>2022-01-20T21:02:39.433Z</time>
      </trkpt>
      <trkpt lat="45.27695" lon="6.8173">
        <ele>1301.8401359992</ele>
        <time>2022-01-20T21:02:52.506Z</time>
      </trkpt>
      <trkpt lat="45.27686" lon="6.81721">
        <ele>1299.4544015389</ele>
        <time>2022-01-20T21:03:05.581Z</time>
      </trkpt>
      <trkpt lat="45.27679" lon="6.81705">
        <ele>1297.2900092827</ele>
        <time>2022-01-20T21:03:18.658Z</time>
      </trkpt>
      <trkpt lat="45.27678" lon="6.81667">
        <ele>1295.337242333</ele>
        <time>2022-01-20T21:03:31.739Z</time>
      </trkpt>
      <trkpt lat="45.27681" lon="6.81626">
        <ele>1293.5477449736</ele>
        <time>2022-01-20T21:03:44.825Z</time>
      </trkpt>
      <trkpt lat="45.27693" lon="6.8154">
        <ele>1291.9349095019</ele>
        <time>2022-01-20T21:03:57.921Z</time>
      </trkpt>
      <trkpt lat="45.277" lon="6.81499">
        <ele>1290.590138579</ele>
        <time>2022-01-20T21:04:11.021Z</time>
      </trkpt>
      <trkpt lat="45.27706" lon="6.81475">
        <ele>1289.475280952</ele>
        <time>2022-01-20T21:04:24.124Z</time>
      </trkpt>
      <trkpt lat="45.27707" lon="6.8145">
        <ele>1288.5428674101</ele>
        <time>2022-01-20T21:04:37.230Z</time>
      </trkpt>
      <trkpt lat="45.27705" lon="6.81442">
        <ele>1287.7117805744</ele>
        <time>2022-01-20T21:04:50.337Z</time>
      </trkpt>
      <trkpt lat="45.277" lon="6.81435">
        <ele>1286.9982201029</ele>
        <time>2022-01-20T21:05:03.445Z</time>
      </trkpt>
      <trkpt lat="45.27689" lon="6.81427">
        <ele>1286.3845239636</ele>
        <time>2022-01-20T21:05:16.555Z</time>
      </trkpt>
      <trkpt lat="45.27523" lon="6.81325">
        <ele>1285.6613191135</ele>
        <time>2022-01-20T21:05:29.694Z</time>
      </trkpt>
      <trkpt lat="45.27476" lon="6.813">
        <ele>1285.1563422207</ele>
        <time>2022-01-20T21:05:42.841Z</time>
      </trkpt>
      <trkpt lat="45.2745" lon="6.8129">
        <ele>1284.8004469869</ele>
        <time>2022-01-20T21:05:55.992Z</time>
      </trkpt>
      <trkpt lat="45.2744" lon="6.81288">
        <ele>1284.5277477206</ele>
        <time>2022-01-20T21:06:09.145Z</time>
      </trkpt>
      <trkpt lat="45.27415" lon="6.81288">
        <ele>1284.3496178885</ele>
        <time>2022-01-20T21:06:22.302Z</time>
      </trkpt>
      <trkpt lat="45.27406" lon="6.8129">
        <ele>1284.1819210857</ele>
        <time>2022-01-20T21:06:35.461Z</time>
      </trkpt>
      <trkpt lat="45.2739" lon="6.81295">
        <ele>1284.0155469764</ele>
        <time>2022-01-20T21:06:48.622Z</time>
      </trkpt>
      <trkpt lat="45.2738" lon="6.813">
        <ele>1283.9173835054</ele>
        <time>2022-01-20T21:07:01.785Z</time>
      </trkpt>
      <trkpt lat="45.27371" lon="6.81307">
        <ele>1283.8543296237</ele>
        <time>2022-01-20T21:07:14.950Z</time>
      </trkpt>
      <trkpt lat="45.27354" lon="6.81321">
        <ele>1283.7914087179</ele>
        <time>2022-01-20T21:07:28.118Z</time>
      </trkpt>
      <trkpt lat="45.27343" lon="6.81333">
        <ele>1283.7738368129</ele>
        <time>2022-01-20T21:07:41.288Z</time>
      </trkpt>
      <trkpt lat="45.27289" lon="6.81415">
        <ele>1283.7352905291</ele>
        <time>2022-01-20T21:07:54.471Z</time>
      </trkpt>
      <trkpt lat="45.27271" lon="6.81432">
        <ele>1283.6501476241</ele>
        <time>2022-01-20T21:08:07.657Z</time>
      </trkpt>
      <trkpt lat="45.27248" lon="6.81441">
        <ele>1283.5227587007</ele>
        <time>2022-01-20T21:08:20.847Z</time>
      </trkpt>
      <trkpt lat="45.27228" lon="6.8144">
        <ele>1283.3440936512</ele>
        <time>2022-01-20T21:08:34.040Z</time>
      </trkpt>
      <trkpt lat="45.27209" lon="6.81434">
        <ele>1283.1313154694</ele>
        <time>2022-01-20T21:08:47.236Z</time>
      </trkpt>
      <trkpt lat="45.27115" lon="6.81377">
        <ele>1282.8397549971</ele>
        <time>2022-01-20T21:09:00.449Z</time>
      </trkpt>
      <trkpt lat="45.27093" lon="6.8137">
        <ele>1282.6571019775</ele>
        <time>2022-01-20T21:09:13.665Z</time>
      </trkpt>
      <trkpt lat="45.27075" lon="6.81368">
        <ele>1282.4355597318</ele>
        <time>2022-01-20T21:09:26.884Z</time>
      </trkpt>
      <trkpt lat="45.27045" lon="6.81372">
        <ele>1282.1569206203</ele>
        <time>2022-01-20T21:09:40.108Z</time>
      </trkpt>
      <trkpt lat="45.27012" lon="6.81387">
        <ele>1281.8896807047</ele>
        <time>2022-01-20T21:09:53.337Z</time>
      </trkpt>
      <trkpt lat="45.26974" lon="6.81412">
        <ele>1281.6057651686</ele>
        <time>2022-01-20T21:10:06.573Z</time>
      </trkpt>
      <trkpt lat="45.26918" lon="6.81452">
        <ele>1281.2977271645</ele>
        <time>2022-01-20T21:10:19.819Z</time>
      </trkpt>
      <trkpt lat="45.26889" lon="6.81467">
        <ele>1281.0273926804</ele>
        <time>2022-01-20T21:10:33.070Z</time>
      </trkpt>
      <trkpt lat="45.26866" lon="6.81472">
        <ele>1280.7736303368</ele>
        <time>2022-01-20T21:10:46.325Z</time>
      </trkpt>
      <trkpt lat="45.26852" lon="6.81472">
        <ele>1280.4961146511</ele>
        <time>2022-01-20T21:10:59.582Z</time>
      </trkpt>
      <trkpt lat="45.26831" lon="6.81467">
        <ele>1280.1872260393</ele>
        <time>2022-01-20T21:11:12.842Z</time>
      </trkpt>
      <trkpt lat="45.26809" lon="6.81457">
        <ele>1279.8313999261</ele>
        <time>2022-01-20T21:11:26.106Z</time>
      </trkpt>
      <trkpt lat="45.26791" lon="6.81445">
        <ele>1279.4490540408</ele>
        <time>2022-01-20T21:11:39.373Z</time>
      </trkpt>
      <trkpt lat="45.26724" lon="6.81394">
        <ele>1279.0560967725</ele>
        <time>2022-01-20T21:11:52.652Z</time>
      </trkpt>
      <trkpt lat="45.26712" lon="6.8138">
        <ele>1278.6977857926</ele>
        <time>2022-01-20T21:12:05.934Z</time>
      </trkpt>
      <trkpt lat="45.26632" lon="6.81319">
        <ele>1278.274061203</ele>
        <time>2022-01-20T21:12:19.231Z</time>
      </trkpt>
      <trkpt lat="45.26538" lon="6.8125">
        <ele>1277.8561617271</ele>
        <time>2022-01-20T21:12:32.544Z</time>
      </trkpt>
      <trkpt lat="45.26526" lon="6.81245">
        <ele>1277.5030448149</ele>
        <time>2022-01-20T21:12:45.859Z</time>
      </trkpt>
      <trkpt lat="45.26396" lon="6.81147">
        <ele>1277.245463519</ele>
        <time>2022-01-20T21:12:59.198Z</time>
      </trkpt>
      <trkpt lat="45.26347" lon="6.81106">
        <ele>1276.7924152847</ele>
        <time>2022-01-20T21:13:12.546Z</time>
      </trkpt>
      <trkpt lat="45.2634" lon="6.81098">
        <ele>1276.4207958147</ele>
        <time>2022-01-20T21:13:25.896Z</time>
      </trkpt>
      <trkpt lat="45.26324" lon="6.81074">
        <ele>1276.0606103728</ele>
        <time>2022-01-20T21:13:39.249Z</time>
      </trkpt>
      <trkpt lat="45.26315" lon="6.81057">
        <ele>1275.6709924924</ele>
        <time>2022-01-20T21:13:52.605Z</time>
      </trkpt>
      <trkpt lat="45.2628" lon="6.80962">
        <ele>1275.2442115872</ele>
        <time>2022-01-20T21:14:05.973Z</time>
      </trkpt>
      <trkpt lat="45.26256" lon="6.80884">
        <ele>1274.7529561675</ele>
        <time>2022-01-20T21:14:19.350Z</time>
      </trkpt>
      <trkpt lat="45.26254" lon="6.80858">
        <ele>1274.2776002025</ele>
        <time>2022-01-20T21:14:32.730Z</time>
      </trkpt>
      <trkpt lat="45.26255" lon="6.80788">
        <ele>1273.8704670723</ele>
        <time>2022-01-20T21:14:46.118Z</time>
      </trkpt>
      <trkpt lat="45.26251" lon="6.80762">
        <ele>1273.3178451344</ele>
        <time>2022-01-20T21:14:59.509Z</time>
      </trkpt>
      <trkpt lat="45.26238" lon="6.80713">
        <ele>1272.5872697745</ele>
        <time>2022-01-20T21:15:12.906Z</time>
      </trkpt>
      <trkpt lat="45.26234" lon="6.80679">
        <ele>1271.7923279758</ele>
        <time>2022-01-20T21:15:26.307Z</time>
      </trkpt>
      <trkpt lat="45.26245" lon="6.80559">
        <ele>1270.8020205711</ele>
        <time>2022-01-20T21:15:39.722Z</time>
      </trkpt>
      <trkpt lat="45.26244" lon="6.80515">
        <ele>1270.0110021256</ele>
        <time>2022-01-20T21:15:53.142Z</time>
      </trkpt>
      <trkpt lat="45.26238" lon="6.80474">
        <ele>1269.1464355511</ele>
        <time>2022-01-20T21:16:06.567Z</time>
      </trkpt>
      <trkpt lat="45.26201" lon="6.80302">
        <ele>1268.2957976315</ele>
        <time>2022-01-20T21:16:20.012Z</time>
      </trkpt>
      <trkpt lat="45.2619" lon="6.80263">
        <ele>1267.4383271769</ele>
        <time>2022-01-20T21:16:33.462Z</time>
      </trkpt>
      <trkpt lat="45.26182" lon="6.80242">
        <ele>1266.6040560636</ele>
        <time>2022-01-20T21:16:46.914Z</time>
      </trkpt>
      <trkpt lat="45.26169" lon="6.80214">
        <ele>1265.7945235225</ele>
        <time>2022-01-20T21:17:00.370Z</time>
      </trkpt>
      <trkpt lat="45.26157" lon="6.80193">
        <ele>1264.998749132</ele>
        <time>2022-01-20T21:17:13.829Z</time>
      </trkpt>
      <trkpt lat="45.26148" lon="6.80179">
        <ele>1264.2171782811</ele>
        <time>2022-01-20T21:17:27.290Z</time>
      </trkpt>
      <trkpt lat="45.26117" lon="6.80142">
        <ele>1263.4918898743</ele>
        <time>2022-01-20T21:17:40.758Z</time>
      </trkpt>
      <trkpt lat="45.26087" lon="6.80116">
        <ele>1262.7758474219</ele>
        <time>2022-01-20T21:17:54.231Z</time>
      </trkpt>
      <trkpt lat="45.26063" lon="6.80102">
        <ele>1262.1066198882</ele>
        <time>2022-01-20T21:18:07.709Z</time>
      </trkpt>
      <trkpt lat="45.26044" lon="6.80094">
        <ele>1261.505284708</ele>
        <time>2022-01-20T21:18:21.190Z</time>
      </trkpt>
      <trkpt lat="45.25919" lon="6.8005">
        <ele>1260.9893950348</ele>
        <time>2022-01-20T21:18:34.691Z</time>
      </trkpt>
      <trkpt lat="45.25838" lon="6.80009">
        <ele>1260.4519604612</ele>
        <time>2022-01-20T21:18:48.206Z</time>
      </trkpt>
      <trkpt lat="45.25805" lon="6.7999">
        <ele>1259.9945355707</ele>
        <time>2022-01-20T21:19:01.727Z</time>
      </trkpt>
      <trkpt lat="45.25769" lon="6.79966">
        <ele>1259.5169786784</ele>
        <time>2022-01-20T21:19:15.254Z</time>
      </trkpt>
      <trkpt lat="45.2567" lon="6.79891">
        <ele>1258.9934152188</ele>
        <time>2022-01-20T21:19:28.799Z</time>
      </trkpt>
      <trkpt lat="45.25442" lon="6.79714">
        <ele>1258.6729953071</ele>
        <time>2022-01-20T21:19:42.386Z</time>
      </trkpt>
      <trkpt lat="45.25403" lon="6.79688">
        <ele>1258.3870890398</ele>
        <time>2022-01-20T21:19:55.980Z</time>
      </trkpt>
      <trkpt lat="45.25362" lon="6.79671">
        <ele>1257.9984614567</ele>
        <time>2022-01-20T21:20:09.580Z</time>
      </trkpt>
      <trkpt lat="45.25338" lon="6.79665">
        <ele>1257.610347462</ele>
        <time>2022-01-20T21:20:23.184Z</time>
      </trkpt>
      <trkpt lat="45.25302" lon="6.79663">
        <ele>1257.2369551627</ele>
        <time>2022-01-20T21:20:36.794Z</time>
      </trkpt>
      <trkpt lat="45.25281" lon="6.79664">
        <ele>1257.0137490019</ele>
        <time>2022-01-20T21:20:50.407Z</time>
      </trkpt>
      <trkpt lat="45.25235" lon="6.79675">
        <ele>1256.9461925763</ele>
        <time>2022-01-20T21:21:04.028Z</time>
      </trkpt>
      <trkpt lat="45.25222" lon="6.7968">
        <ele>1256.8023837184</ele>
        <time>2022-01-20T21:21:17.651Z</time>
      </trkpt>
      <trkpt lat="45.25195" lon="6.79696">
        <ele>1256.6993087169</ele>
        <time>2022-01-20T21:21:31.279Z</time>
      </trkpt>
      <trkpt lat="45.25177" lon="6.79708">
        <ele>1256.4483320311</ele>
        <time>2022-01-20T21:21:44.910Z</time>
      </trkpt>
      <trkpt lat="45.25103" lon="6.79764">
        <ele>1255.9470601345</ele>
        <time>2022-01-20T21:21:58.554Z</time>
      </trkpt>
      <trkpt lat="45.25081" lon="6.79779">
        <ele>1255.5022864113</ele>
        <time>2022-01-20T21:22:12.202Z</time>
      </trkpt>
      <trkpt lat="45.25066" lon="6.79787">
        <ele>1254.996125675</ele>
        <time>2022-01-20T21:22:25.853Z</time>
      </trkpt>
      <trkpt lat="45.25058" lon="6.79791">
        <ele>1254.4638563083</ele>
        <time>2022-01-20T21:22:39.505Z</time>
      </trkpt>
      <trkpt lat="45.25034" lon="6.79798">
        <ele>1253.8915571994</ele>
        <time>2022-01-20T21:22:53.161Z</time>
      </trkpt>
      <trkpt lat="45.24994" lon="6.79802">
        <ele>1253.2542373906</ele>
        <time>2022-01-20T21:23:06.824Z</time>
      </trkpt>
      <trkpt lat="45.24976" lon="6.798">
        <ele>1252.5293900115</ele>
        <time>2022-01-20T21:23:20.489Z</time>
      </trkpt>
      <trkpt lat="45.24945" lon="6.79793">
        <ele>1251.7432304735</ele>
        <time>2022-01-20T21:23:34.159Z</time>
      </trkpt>
      <trkpt lat="45.24719" lon="6.79719">
        <ele>1250.7132930778</ele>
        <time>2022-01-20T21:23:47.867Z</time>
      </trkpt>
      <trkpt lat="45.2462" lon="6.79685">
        <ele>1249.7920499554</ele>
        <time>2022-01-20T21:24:01.591Z</time>
      </trkpt>
      <trkpt lat="45.24588" lon="6.79665">
        <ele>1249.0020998527</ele>
        <time>2022-01-20T21:24:15.321Z</time>
      </trkpt>
      <trkpt lat="45.24569" lon="6.79649">
        <ele>1248.22407081</ele>
        <time>2022-01-20T21:24:29.054Z</time>
      </trkpt>
      <trkpt lat="45.2455" lon="6.79624">
        <ele>1247.4040472308</ele>
        <time>2022-01-20T21:24:42.791Z</time>
      </trkpt>
      <trkpt lat="45.2453" lon="6.79588">
        <ele>1246.571016757</ele>
        <time>2022-01-20T21:24:56.533Z</time>
      </trkpt>
      <trkpt lat="45.2442" lon="6.79329">
        <ele>1245.6946580161</ele>
        <time>2022-01-20T21:25:10.310Z</time>
      </trkpt>
      <trkpt lat="45.24396" lon="6.7929">
        <ele>1244.969778181</ele>
        <time>2022-01-20T21:25:24.092Z</time>
      </trkpt>
      <trkpt lat="45.24369" lon="6.79261">
        <ele>1244.2554593607</ele>
        <time>2022-01-20T21:25:37.880Z</time>
      </trkpt>
      <trkpt lat="45.24339" lon="6.79241">
        <ele>1243.4657594173</ele>
        <time>2022-01-20T21:25:51.673Z</time>
      </trkpt>
      <trkpt lat="45.24321" lon="6.79234">
        <ele>1242.7095154052</ele>
        <time>2022-01-20T21:26:05.469Z</time>
      </trkpt>
      <trkpt lat="45.24302" lon="6.7923">
        <ele>1241.9706734727</ele>
        <time>2022-01-20T21:26:19.268Z</time>
      </trkpt>
      <trkpt lat="45.24281" lon="6.79229">
        <ele>1241.2441967201</ele>
        <time>2022-01-20T21:26:33.071Z</time>
      </trkpt>
      <trkpt lat="45.24249" lon="6.79236">
        <ele>1240.5440205121</ele>
        <time>2022-01-20T21:26:46.879Z</time>
      </trkpt>
      <trkpt lat="45.24139" lon="6.79283">
        <ele>1240.0464527229</ele>
        <time>2022-01-20T21:27:00.705Z</time>
      </trkpt>
      <trkpt lat="45.24111" lon="6.7929">
        <ele>1239.2747937226</ele>
        <time>2022-01-20T21:27:14.536Z</time>
      </trkpt>
      <trkpt lat="45.24095" lon="6.79291">
        <ele>1238.4559950468</ele>
        <time>2022-01-20T21:27:28.369Z</time>
      </trkpt>
      <trkpt lat="45.24065" lon="6.79288">
        <ele>1237.5858874789</ele>
        <time>2022-01-20T21:27:42.207Z</time>
      </trkpt>
      <trkpt lat="45.24047" lon="6.79282">
        <ele>1236.7010325714</ele>
        <time>2022-01-20T21:27:56.048Z</time>
      </trkpt>
      <trkpt lat="45.24031" lon="6.79274">
        <ele>1235.7474099406</ele>
        <time>2022-01-20T21:28:09.892Z</time>
      </trkpt>
      <trkpt lat="45.23999" lon="6.79251">
        <ele>1234.7586391358</ele>
        <time>2022-01-20T21:28:23.741Z</time>
      </trkpt>
      <trkpt lat="45.23705" lon="6.7895">
        <ele>1233.7122864944</ele>
        <time>2022-01-20T21:28:37.649Z</time>
      </trkpt>
      <trkpt lat="45.23639" lon="6.78886">
        <ele>1232.3787544679</ele>
        <time>2022-01-20T21:28:51.569Z</time>
      </trkpt>
      <trkpt lat="45.236" lon="6.78855">
        <ele>1231.1266642436</ele>
        <time>2022-01-20T21:29:05.496Z</time>
      </trkpt>
      <trkpt lat="45.23386" lon="6.78706">
        <ele>1229.812074521</ele>
        <time>2022-01-20T21:29:19.462Z</time>
      </trkpt>
      <trkpt lat="45.23354" lon="6.78679">
        <ele>1228.6662687228</ele>
        <time>2022-01-20T21:29:33.434Z</time>
      </trkpt>
      <trkpt lat="45.23323" lon="6.78648">
        <ele>1227.4743438028</ele>
        <time>2022-01-20T21:29:47.412Z</time>
      </trkpt>
      <trkpt lat="45.23289" lon="6.78608">
        <ele>1226.2050079209</ele>
        <time>2022-01-20T21:30:01.397Z</time>
      </trkpt>
      <trkpt lat="45.23269" lon="6.78579">
        <ele>1224.9477756198</ele>
        <time>2022-01-20T21:30:15.386Z</time>
      </trkpt>
      <trkpt lat="45.23246" lon="6.78535">
        <ele>1223.6691552224</ele>
        <time>2022-01-20T21:30:29.382Z</time>
      </trkpt>
      <trkpt lat="45.2309" lon="6.78217">
        <ele>1222.2024762076</ele>
        <time>2022-01-20T21:30:43.421Z</time>
      </trkpt>
      <trkpt lat="45.23081" lon="6.78195">
        <ele>1220.9042405255</ele>
        <time>2022-01-20T21:30:57.463Z</time>
      </trkpt>
      <trkpt lat="45.2307" lon="6.7816">
        <ele>1219.6196307082</ele>
        <time>2022-01-20T21:31:11.510Z</time>
      </trkpt>
      <trkpt lat="45.23034" lon="6.78105">
        <ele>1218.3111097052</ele>
        <time>2022-01-20T21:31:25.565Z</time>
      </trkpt>
      <trkpt lat="45.22753" lon="6.77543">
        <ele>1217.1128984684</ele>
        <time>2022-01-20T21:31:39.698Z</time>
      </trkpt>
      <trkpt lat="45.22647" lon="6.77327">
        <ele>1215.825642486</ele>
        <time>2022-01-20T21:31:53.861Z</time>
      </trkpt>
      <trkpt lat="45.22633" lon="6.77282">
        <ele>1214.5900147153</ele>
        <time>2022-01-20T21:32:08.029Z</time>
      </trkpt>
      <trkpt lat="45.22511" lon="6.76737">
        <ele>1212.8445389144</ele>
        <time>2022-01-20T21:32:22.262Z</time>
      </trkpt>
      <trkpt lat="45.22491" lon="6.76677">
        <ele>1211.6901551935</ele>
        <time>2022-01-20T21:32:36.502Z</time>
      </trkpt>
      <trkpt lat="45.22408" lon="6.76509">
        <ele>1210.6356691476</ele>
        <time>2022-01-20T21:32:50.766Z</time>
      </trkpt>
      <trkpt lat="45.22399" lon="6.76485">
        <ele>1209.6187942956</ele>
        <time>2022-01-20T21:33:05.033Z</time>
      </trkpt>
      <trkpt lat="45.22383" lon="6.7642">
        <ele>1208.4500031599</ele>
        <time>2022-01-20T21:33:19.307Z</time>
      </trkpt>
      <trkpt lat="45.22375" lon="6.76358">
        <ele>1207.5442769718</ele>
        <time>2022-01-20T21:33:33.588Z</time>
      </trkpt>
      <trkpt lat="45.22367" lon="6.76321">
        <ele>1206.8095942726</ele>
        <time>2022-01-20T21:33:47.874Z</time>
      </trkpt>
      <trkpt lat="45.22353" lon="6.76282">
        <ele>1206.1019890975</ele>
        <time>2022-01-20T21:34:02.165Z</time>
      </trkpt>
      <trkpt lat="45.2234" lon="6.76261">
        <ele>1205.6178791586</ele>
        <time>2022-01-20T21:34:16.459Z</time>
      </trkpt>
      <trkpt lat="45.22332" lon="6.76253">
        <ele>1205.2031902128</ele>
        <time>2022-01-20T21:34:30.755Z</time>
      </trkpt>
      <trkpt lat="45.22315" lon="6.76242">
        <ele>1204.8950064947</ele>
        <time>2022-01-20T21:34:45.054Z</time>
      </trkpt>
      <trkpt lat="45.22288" lon="6.76234">
        <ele>1204.7458808357</ele>
        <time>2022-01-20T21:34:59.357Z</time>
      </trkpt>
      <trkpt lat="45.22144" lon="6.76201">
        <ele>1204.5677048011</ele>
        <time>2022-01-20T21:35:13.683Z</time>
      </trkpt>
      <trkpt lat="45.22106" lon="6.7619">
        <ele>1204.5440355761</ele>
        <time>2022-01-20T21:35:28.016Z</time>
      </trkpt>
      <trkpt lat="45.22074" lon="6.76179">
        <ele>1204.6068221933</ele>
        <time>2022-01-20T21:35:42.354Z</time>
      </trkpt>
      <trkpt lat="45.21991" lon="6.76144">
        <ele>1204.8297397415</ele>
        <time>2022-01-20T21:35:56.706Z</time>
      </trkpt>
      <trkpt lat="45.21973" lon="6.76131">
        <ele>1205.408237576</ele>
        <time>2022-01-20T21:36:11.061Z</time>
      </trkpt>
      <trkpt lat="45.21964" lon="6.76122">
        <ele>1206.0377571773</ele>
        <time>2022-01-20T21:36:25.418Z</time>
      </trkpt>
      <trkpt lat="45.21948" lon="6.76099">
        <ele>1206.8833391368</ele>
        <time>2022-01-20T21:36:39.778Z</time>
      </trkpt>
      <trkpt lat="45.21932" lon="6.76069">
        <ele>1207.8111908632</ele>
        <time>2022-01-20T21:36:54.143Z</time>
      </trkpt>
      <trkpt lat="45.21924" lon="6.76049">
        <ele>1208.7762295627</ele>
        <time>2022-01-20T21:37:08.510Z</time>
      </trkpt>
      <trkpt lat="45.21918" lon="6.76018">
        <ele>1209.7236349608</ele>
        <time>2022-01-20T21:37:22.881Z</time>
      </trkpt>
      <trkpt lat="45.21906" lon="6.75844">
        <ele>1210.8035985655</ele>
        <time>2022-01-20T21:37:37.272Z</time>
      </trkpt>
      <trkpt lat="45.219" lon="6.75801">
        <ele>1211.900279779</ele>
        <time>2022-01-20T21:37:51.667Z</time>
      </trkpt>
      <trkpt lat="45.21894" lon="6.75771">
        <ele>1212.9758111322</ele>
        <time>2022-01-20T21:38:06.066Z</time>
      </trkpt>
      <trkpt lat="45.21884" lon="6.75735">
        <ele>1214.1021549028</ele>
        <time>2022-01-20T21:38:20.469Z</time>
      </trkpt>
      <trkpt lat="45.21873" lon="6.75708">
        <ele>1215.1610081936</ele>
        <time>2022-01-20T21:38:34.876Z</time>
      </trkpt>
      <trkpt lat="45.21848" lon="6.75656">
        <ele>1216.1656192483</ele>
        <time>2022-01-20T21:38:49.290Z</time>
      </trkpt>
      <trkpt lat="45.21807" lon="6.75586">
        <ele>1217.3213755141</ele>
        <time>2022-01-20T21:39:03.714Z</time>
      </trkpt>
      <trkpt lat="45.21787" lon="6.75557">
        <ele>1218.461139889</ele>
        <time>2022-01-20T21:39:18.143Z</time>
      </trkpt>
      <trkpt lat="45.21719" lon="6.75492">
        <ele>1220.0296063039</ele>
        <time>2022-01-20T21:39:32.585Z</time>
      </trkpt>
      <trkpt lat="45.21693" lon="6.75447">
        <ele>1221.0764371189</ele>
        <time>2022-01-20T21:39:47.034Z</time>
      </trkpt>
      <trkpt lat="45.21672" lon="6.75384">
        <ele>1221.8948259087</ele>
        <time>2022-01-20T21:40:01.490Z</time>
      </trkpt>
      <trkpt lat="45.21667" lon="6.75373">
        <ele>1222.9204123479</ele>
        <time>2022-01-20T21:40:15.948Z</time>
      </trkpt>
      <trkpt lat="45.21657" lon="6.75359">
        <ele>1223.9866213573</ele>
        <time>2022-01-20T21:40:30.408Z</time>
      </trkpt>
      <trkpt lat="45.21643" lon="6.75343">
        <ele>1225.0455282303</ele>
        <time>2022-01-20T21:40:44.871Z</time>
      </trkpt>
      <trkpt lat="45.21621" lon="6.75332">
        <ele>1226.0583632408</ele>
        <time>2022-01-20T21:40:59.338Z</time>
      </trkpt>
      <trkpt lat="45.21588" lon="6.75325">
        <ele>1227.0772635247</ele>
        <time>2022-01-20T21:41:13.810Z</time>
      </trkpt>
      <trkpt lat="45.21568" lon="6.7531">
        <ele>1227.8525148619</ele>
        <time>2022-01-20T21:41:28.286Z</time>
      </trkpt>
      <trkpt lat="45.21536" lon="6.75282">
        <ele>1228.745942288</ele>
        <time>2022-01-20T21:41:42.768Z</time>
      </trkpt>
      <trkpt lat="45.21518" lon="6.75263">
        <ele>1229.5905415505</ele>
        <time>2022-01-20T21:41:57.253Z</time>
      </trkpt>
      <trkpt lat="45.21509" lon="6.75249">
        <ele>1230.3077672803</ele>
        <time>2022-01-20T21:42:11.741Z</time>
      </trkpt>
      <trkpt lat="45.21495" lon="6.75219">
        <ele>1230.9198384798</ele>
        <time>2022-01-20T21:42:26.233Z</time>
      </trkpt>
      <trkpt lat="45.2148" lon="6.75167">
        <ele>1231.5964972019</ele>
        <time>2022-01-20T21:42:40.731Z</time>
      </trkpt>
      <trkpt lat="45.21479" lon="6.75125">
        <ele>1232.0374744184</ele>
        <time>2022-01-20T21:42:55.234Z</time>
      </trkpt>
      <trkpt lat="45.21483" lon="6.75068">
        <ele>1232.3508293977</ele>
        <time>2022-01-20T21:43:09.743Z</time>
      </trkpt>
      <trkpt lat="45.21482" lon="6.75039">
        <ele>1232.5928175289</ele>
        <time>2022-01-20T21:43:24.255Z</time>
      </trkpt>
      <trkpt lat="45.21478" lon="6.75015">
        <ele>1232.8111278971</ele>
        <time>2022-01-20T21:43:38.770Z</time>
      </trkpt>
      <trkpt lat="45.21461" lon="6.74959">
        <ele>1232.9853156689</ele>
        <time>2022-01-20T21:43:53.292Z</time>
      </trkpt>
      <trkpt lat="45.21452" lon="6.74934">
        <ele>1233.0531024232</ele>
        <time>2022-01-20T21:44:07.817Z</time>
      </trkpt>
      <trkpt lat="45.21441" lon="6.7491">
        <ele>1233.0637982616</ele>
        <time>2022-01-20T21:44:22.346Z</time>
      </trkpt>
      <trkpt lat="45.21438" lon="6.74905">
        <ele>1233.1442842432</ele>
        <time>2022-01-20T21:44:36.875Z</time>
      </trkpt>
      <trkpt lat="45.21431" lon="6.74899">
        <ele>1233.2767285861</ele>
        <time>2022-01-20T21:44:51.406Z</time>
      </trkpt>
      <trkpt lat="45.2141" lon="6.74888">
        <ele>1233.561783028</ele>
        <time>2022-01-20T21:45:05.940Z</time>
      </trkpt>
      <trkpt lat="45.21387" lon="6.74873">
        <ele>1233.8039268116</ele>
        <time>2022-01-20T21:45:20.478Z</time>
      </trkpt>
      <trkpt lat="45.21376" lon="6.74864">
        <ele>1233.9811981946</ele>
        <time>2022-01-20T21:45:35.018Z</time>
      </trkpt>
      <trkpt lat="45.21364" lon="6.74851">
        <ele>1234.1453369105</ele>
        <time>2022-01-20T21:45:49.561Z</time>
      </trkpt>
      <trkpt lat="45.21353" lon="6.74834">
        <ele>1234.3010772024</ele>
        <time>2022-01-20T21:46:04.106Z</time>
      </trkpt>
      <trkpt lat="45.21328" lon="6.74756">
        <ele>1234.3057065845</ele>
        <time>2022-01-20T21:46:18.661Z</time>
      </trkpt>
      <trkpt lat="45.21312" lon="6.74719">
        <ele>1234.4772138455</ele>
        <time>2022-01-20T21:46:33.221Z</time>
      </trkpt>
      <trkpt lat="45.21302" lon="6.74703">
        <ele>1234.7975329047</ele>
        <time>2022-01-20T21:46:47.783Z</time>
      </trkpt>
      <trkpt lat="45.21277" lon="6.74672">
        <ele>1235.3152307079</ele>
        <time>2022-01-20T21:47:02.351Z</time>
      </trkpt>
      <trkpt lat="45.21249" lon="6.74643">
        <ele>1235.9586529875</ele>
        <time>2022-01-20T21:47:16.924Z</time>
      </trkpt>
      <trkpt lat="45.21239" lon="6.74635">
        <ele>1236.5007950476</ele>
        <time>2022-01-20T21:47:31.499Z</time>
      </trkpt>
      <trkpt lat="45.21229" lon="6.74632">
        <ele>1237.1016970955</ele>
        <time>2022-01-20T21:47:46.076Z</time>
      </trkpt>
      <trkpt lat="45.21211" lon="6.7463">
        <ele>1237.8078329829</ele>
        <time>2022-01-20T21:48:00.656Z</time>
      </trkpt>
      <trkpt lat="45.21199" lon="6.74631">
        <ele>1238.464194206</ele>
        <time>2022-01-20T21:48:15.237Z</time>
      </trkpt>
      <trkpt lat="45.21184" lon="6.74629">
        <ele>1239.1081515704</ele>
        <time>2022-01-20T21:48:29.821Z</time>
      </trkpt>
      <trkpt lat="45.21178" lon="6.74626">
        <ele>1239.7409283932</ele>
        <time>2022-01-20T21:48:44.406Z</time>
      </trkpt>
      <trkpt lat="45.21163" lon="6.74609">
        <ele>1240.2736458306</ele>
        <time>2022-01-20T21:48:58.994Z</time>
      </trkpt>
      <trkpt lat="45.21147" lon="6.74584">
        <ele>1240.8957029554</ele>
        <time>2022-01-20T21:49:13.586Z</time>
      </trkpt>
      <trkpt lat="45.2114" lon="6.74569">
        <ele>1241.5905856324</ele>
        <time>2022-01-20T21:49:28.180Z</time>
      </trkpt>
      <trkpt lat="45.21133" lon="6.74548">
        <ele>1242.3232530673</ele>
        <time>2022-01-20T21:49:42.776Z</time>
      </trkpt>
      <trkpt lat="45.21122" lon="6.74504">
        <ele>1242.9759030667</ele>
        <time>2022-01-20T21:49:57.378Z</time>
      </trkpt>
      <trkpt lat="45.21117" lon="6.74493">
        <ele>1243.811409282</ele>
        <time>2022-01-20T21:50:11.981Z</time>
      </trkpt>
      <trkpt lat="45.21103" lon="6.74476">
        <ele>1244.9047918876</ele>
        <time>2022-01-20T21:50:26.587Z</time>
      </trkpt>
      <trkpt lat="45.21094" lon="6.74456">
        <ele>1245.839856229</ele>
        <time>2022-01-20T21:50:41.196Z</time>
      </trkpt>
      <trkpt lat="45.21089" lon="6.74422">
        <ele>1246.5953568102</ele>
        <time>2022-01-20T21:50:55.809Z</time>
      </trkpt>
      <trkpt lat="45.21087" lon="6.74385">
        <ele>1247.7934979645</ele>
        <time>2022-01-20T21:51:10.426Z</time>
      </trkpt>
      <trkpt lat="45.2108" lon="6.74343">
        <ele>1249.121983324</ele>
        <time>2022-01-20T21:51:25.048Z</time>
      </trkpt>
      <trkpt lat="45.21058" lon="6.74255">
        <ele>1249.8605371782</ele>
        <time>2022-01-20T21:51:39.680Z</time>
      </trkpt>
      <trkpt lat="45.21049" lon="6.74237">
        <ele>1251.1835106687</ele>
        <time>2022-01-20T21:51:54.315Z</time>
      </trkpt>
      <trkpt lat="45.21033" lon="6.74217">
        <ele>1252.8689737974</ele>
        <time>2022-01-20T21:52:08.953Z</time>
      </trkpt>
      <trkpt lat="45.21027" lon="6.74206">
        <ele>1254.2726032222</ele>
        <time>2022-01-20T21:52:23.593Z</time>
      </trkpt>
      <trkpt lat="45.21006" lon="6.74143">
        <ele>1255.412558659</ele>
        <time>2022-01-20T21:52:38.241Z</time>
      </trkpt>
      <trkpt lat="45.20984" lon="6.74104">
        <ele>1256.7153813684</ele>
        <time>2022-01-20T21:52:52.894Z</time>
      </trkpt>
      <trkpt lat="45.20974" lon="6.7409">
        <ele>1257.9784004945</ele>
        <time>2022-01-20T21:53:07.550Z</time>
      </trkpt>
      <trkpt lat="45.20963" lon="6.74082">
        <ele>1259.2793276082</ele>
        <time>2022-01-20T21:53:22.208Z</time>
      </trkpt>
      <trkpt lat="45.20951" lon="6.74077">
        <ele>1260.5354519442</ele>
        <time>2022-01-20T21:53:36.868Z</time>
      </trkpt>
      <trkpt lat="45.20917" lon="6.74067">
        <ele>1261.7941133305</ele>
        <time>2022-01-20T21:53:51.533Z</time>
      </trkpt>
      <trkpt lat="45.20908" lon="6.74061">
        <ele>1262.7670882949</ele>
        <time>2022-01-20T21:54:06.200Z</time>
      </trkpt>
      <trkpt lat="45.20901" lon="6.74054">
        <ele>1263.6422841167</ele>
        <time>2022-01-20T21:54:20.868Z</time>
      </trkpt>
      <trkpt lat="45.20886" lon="6.74034">
        <ele>1264.3649999502</ele>
        <time>2022-01-20T21:54:35.540Z</time>
      </trkpt>
      <trkpt lat="45.20882" lon="6.74025">
        <ele>1264.9935407298</ele>
        <time>2022-01-20T21:54:50.213Z</time>
      </trkpt>
      <trkpt lat="45.20867" lon="6.73952">
        <ele>1265.505442135</ele>
        <time>2022-01-20T21:55:04.894Z</time>
      </trkpt>
      <trkpt lat="45.20834" lon="6.7384">
        <ele>1265.8904875113</ele>
        <time>2022-01-20T21:55:19.589Z</time>
      </trkpt>
      <trkpt lat="45.20774" lon="6.73685">
        <ele>1265.9885803327</ele>
        <time>2022-01-20T21:55:34.304Z</time>
      </trkpt>
      <trkpt lat="45.20742" lon="6.73614">
        <ele>1266.1061863978</ele>
        <time>2022-01-20T21:55:49.029Z</time>
      </trkpt>
      <trkpt lat="45.20734" lon="6.73601">
        <ele>1266.1836005766</ele>
        <time>2022-01-20T21:56:03.755Z</time>
      </trkpt>
      <trkpt lat="45.20725" lon="6.73593">
        <ele>1266.20165389</ele>
        <time>2022-01-20T21:56:18.483Z</time>
      </trkpt>
      <trkpt lat="45.20675" lon="6.73572">
        <ele>1266.254883226</ele>
        <time>2022-01-20T21:56:33.220Z</time>
      </trkpt>
      <trkpt lat="45.20652" lon="6.73556">
        <ele>1266.1364365877</ele>
        <time>2022-01-20T21:56:47.961Z</time>
      </trkpt>
      <trkpt lat="45.20642" lon="6.73529">
        <ele>1265.7731448933</ele>
        <time>2022-01-20T21:57:02.705Z</time>
      </trkpt>
      <trkpt lat="45.20638" lon="6.73511">
        <ele>1265.4417252197</ele>
        <time>2022-01-20T21:57:17.451Z</time>
      </trkpt>
      <trkpt lat="45.20638" lon="6.73491">
        <ele>1265.1429262524</ele>
        <time>2022-01-20T21:57:32.199Z</time>
      </trkpt>
      <trkpt lat="45.20643" lon="6.73468">
        <ele>1264.8970860142</ele>
        <time>2022-01-20T21:57:46.950Z</time>
      </trkpt>
      <trkpt lat="45.20648" lon="6.73458">
        <ele>1264.6181971671</ele>
        <time>2022-01-20T21:58:01.703Z</time>
      </trkpt>
      <trkpt lat="45.20663" lon="6.73441">
        <ele>1264.3323849402</ele>
        <time>2022-01-20T21:58:16.459Z</time>
      </trkpt>
      <trkpt lat="45.20671" lon="6.73436">
        <ele>1263.8854462349</ele>
        <time>2022-01-20T21:58:31.216Z</time>
      </trkpt>
      <trkpt lat="45.2068" lon="6.73432">
        <ele>1263.3548088092</ele>
        <time>2022-01-20T21:58:45.975Z</time>
      </trkpt>
      <trkpt lat="45.20716" lon="6.73422">
        <ele>1262.6080070246</ele>
        <time>2022-01-20T21:59:00.739Z</time>
      </trkpt>
      <trkpt lat="45.20722" lon="6.73418">
        <ele>1262.0692721375</ele>
        <time>2022-01-20T21:59:15.505Z</time>
      </trkpt>
      <trkpt lat="45.20736" lon="6.734">
        <ele>1261.5739143264</ele>
        <time>2022-01-20T21:59:30.274Z</time>
      </trkpt>
      <trkpt lat="45.20748" lon="6.73378">
        <ele>1261.2240295278</ele>
        <time>2022-01-20T21:59:45.046Z</time>
      </trkpt>
      <trkpt lat="45.20753" lon="6.73372">
        <ele>1260.7115665731</ele>
        <time>2022-01-20T21:59:59.819Z</time>
      </trkpt>
      <trkpt lat="45.20823" lon="6.73319">
        <ele>1259.8493625091</ele>
        <time>2022-01-20T22:00:14.604Z</time>
      </trkpt>
      <trkpt lat="45.20831" lon="6.7331">
        <ele>1259.2456247509</ele>
        <time>2022-01-20T22:00:29.391Z</time>
      </trkpt>
      <trkpt lat="45.20843" lon="6.7329">
        <ele>1258.7322164812</ele>
        <time>2022-01-20T22:00:44.181Z</time>
      </trkpt>
      <trkpt lat="45.20857" lon="6.7326">
        <ele>1258.264281117</ele>
        <time>2022-01-20T22:00:58.975Z</time>
      </trkpt>
      <trkpt lat="45.20863" lon="6.73243">
        <ele>1257.7443358526</ele>
        <time>2022-01-20T22:01:13.771Z</time>
      </trkpt>
      <trkpt lat="45.20867" lon="6.73224">
        <ele>1257.1923838319</ele>
        <time>2022-01-20T22:01:28.570Z</time>
      </trkpt>
      <trkpt lat="45.20886" lon="6.73166">
        <ele>1256.4786098867</ele>
        <time>2022-01-20T22:01:43.376Z</time>
      </trkpt>
      <trkpt lat="45.20892" lon="6.73139">
        <ele>1255.8727560873</ele>
        <time>2022-01-20T22:01:58.185Z</time>
      </trkpt>
      <trkpt lat="45.20894" lon="6.73116">
        <ele>1255.2479559539</ele>
        <time>2022-01-20T22:02:12.997Z</time>
      </trkpt>
      <trkpt lat="45.20899" lon="6.7291">
        <ele>1254.3490602567</ele>
        <time>2022-01-20T22:02:27.832Z</time>
      </trkpt>
      <trkpt lat="45.20904" lon="6.72851">
        <ele>1253.6218178551</ele>
        <time>2022-01-20T22:02:42.674Z</time>
      </trkpt>
      <trkpt lat="45.20918" lon="6.72776">
        <ele>1252.681233361</ele>
        <time>2022-01-20T22:02:57.524Z</time>
      </trkpt>
      <trkpt lat="45.20915" lon="6.72707">
        <ele>1251.9993928355</ele>
        <time>2022-01-20T22:03:12.382Z</time>
      </trkpt>
      <trkpt lat="45.20915" lon="6.72692">
        <ele>1251.2449861422</ele>
        <time>2022-01-20T22:03:27.242Z</time>
      </trkpt>
      <trkpt lat="45.20918" lon="6.72673">
        <ele>1250.4874906957</ele>
        <time>2022-01-20T22:03:42.104Z</time>
      </trkpt>
      <trkpt lat="45.20921" lon="6.72664">
        <ele>1249.6799553658</ele>
        <time>2022-01-20T22:03:56.967Z</time>
      </trkpt>
      <trkpt lat="45.20934" lon="6.72644">
        <ele>1248.820397308</ele>
        <time>2022-01-20T22:04:11.833Z</time>
      </trkpt>
      <trkpt lat="45.20958" lon="6.72619">
        <ele>1247.7943045548</ele>
        <time>2022-01-20T22:04:26.704Z</time>
      </trkpt>
      <trkpt lat="45.20981" lon="6.72592">
        <ele>1246.7486287936</ele>
        <time>2022-01-20T22:04:41.580Z</time>
      </trkpt>
      <trkpt lat="45.20988" lon="6.7258">
        <ele>1245.8419892055</ele>
        <time>2022-01-20T22:04:56.458Z</time>
      </trkpt>
      <trkpt lat="45.2106" lon="6.72415">
        <ele>1244.8817724061</ele>
        <time>2022-01-20T22:05:11.358Z</time>
      </trkpt>
      <trkpt lat="45.21077" lon="6.72368">
        <ele>1243.8201965886</ele>
        <time>2022-01-20T22:05:26.264Z</time>
      </trkpt>
      <trkpt lat="45.2108" lon="6.72348">
        <ele>1242.9630122023</ele>
        <time>2022-01-20T22:05:41.172Z</time>
      </trkpt>
      <trkpt lat="45.21079" lon="6.72331">
        <ele>1242.1517700522</ele>
        <time>2022-01-20T22:05:56.082Z</time>
      </trkpt>
      <trkpt lat="45.21076" lon="6.72321">
        <ele>1241.379826303</ele>
        <time>2022-01-20T22:06:10.993Z</time>
      </trkpt>
      <trkpt lat="45.21003" lon="6.72098">
        <ele>1240.4924025618</ele>
        <time>2022-01-20T22:06:25.932Z</time>
      </trkpt>
      <trkpt lat="45.20997" lon="6.72075">
        <ele>1239.7612438158</ele>
        <time>2022-01-20T22:06:40.874Z</time>
      </trkpt>
      <trkpt lat="45.20995" lon="6.72062">
        <ele>1239.0151761889</ele>
        <time>2022-01-20T22:06:55.817Z</time>
      </trkpt>
      <trkpt lat="45.20995" lon="6.72039">
        <ele>1238.3152072442</ele>
        <time>2022-01-20T22:07:10.763Z</time>
      </trkpt>
      <trkpt lat="45.20997" lon="6.72027">
        <ele>1237.561904268</ele>
        <time>2022-01-20T22:07:25.710Z</time>
      </trkpt>
      <trkpt lat="45.21006" lon="6.71997">
        <ele>1236.6968496102</ele>
        <time>2022-01-20T22:07:40.661Z</time>
      </trkpt>
      <trkpt lat="45.21009" lon="6.71981">
        <ele>1235.8808458374</ele>
        <time>2022-01-20T22:07:55.614Z</time>
      </trkpt>
      <trkpt lat="45.21009" lon="6.71965">
        <ele>1235.1755067257</ele>
        <time>2022-01-20T22:08:10.568Z</time>
      </trkpt>
      <trkpt lat="45.21004" lon="6.71935">
        <ele>1234.5141866318</ele>
        <time>2022-01-20T22:08:25.526Z</time>
      </trkpt>
      <trkpt lat="45.20982" lon="6.71878">
        <ele>1233.9362186435</ele>
        <time>2022-01-20T22:08:40.491Z</time>
      </trkpt>
      <trkpt lat="45.20965" lon="6.7185">
        <ele>1233.4613608207</ele>
        <time>2022-01-20T22:08:55.460Z</time>
      </trkpt>
      <trkpt lat="45.20949" lon="6.71832">
        <ele>1233.0452161505</ele>
        <time>2022-01-20T22:09:10.433Z</time>
      </trkpt>
      <trkpt lat="45.20909" lon="6.71793">
        <ele>1232.6934811912</ele>
        <time>2022-01-20T22:09:25.413Z</time>
      </trkpt>
      <trkpt lat="45.20882" lon="6.7177">
        <ele>1232.3680650905</ele>
        <time>2022-01-20T22:09:40.399Z</time>
      </trkpt>
      <trkpt lat="45.20868" lon="6.71756">
        <ele>1232.0160993782</ele>
        <time>2022-01-20T22:09:55.387Z</time>
      </trkpt>
      <trkpt lat="45.20854" lon="6.71745">
        <ele>1231.7515554846</ele>
        <time>2022-01-20T22:10:10.378Z</time>
      </trkpt>
      <trkpt lat="45.20833" lon="6.71733">
        <ele>1231.5085281072</ele>
        <time>2022-01-20T22:10:25.372Z</time>
      </trkpt>
      <trkpt lat="45.20773" lon="6.71705">
        <ele>1231.2902318667</ele>
        <time>2022-01-20T22:10:40.377Z</time>
      </trkpt>
      <trkpt lat="45.20759" lon="6.71696">
        <ele>1231.112604994</ele>
        <time>2022-01-20T22:10:55.384Z</time>
      </trkpt>
      <trkpt lat="45.20745" lon="6.7168">
        <ele>1230.8482010185</ele>
        <time>2022-01-20T22:11:10.394Z</time>
      </trkpt>
      <trkpt lat="45.20735" lon="6.71664">
        <ele>1230.5674178838</ele>
        <time>2022-01-20T22:11:25.406Z</time>
      </trkpt>
      <trkpt lat="45.20726" lon="6.71643">
        <ele>1230.2608467308</ele>
        <time>2022-01-20T22:11:40.421Z</time>
      </trkpt>
      <trkpt lat="45.20719" lon="6.71613">
        <ele>1229.9094962379</ele>
        <time>2022-01-20T22:11:55.440Z</time>
      </trkpt>
      <trkpt lat="45.2072" lon="6.71583">
        <ele>1229.4924948519</ele>
        <time>2022-01-20T22:12:10.462Z</time>
      </trkpt>
      <trkpt lat="45.2073" lon="6.71531">
        <ele>1229.0392961243</ele>
        <time>2022-01-20T22:12:25.490Z</time>
      </trkpt>
      <trkpt lat="45.2075" lon="6.71459">
        <ele>1228.4909418554</ele>
        <time>2022-01-20T22:12:40.527Z</time>
      </trkpt>
      <trkpt lat="45.20754" lon="6.71437">
        <ele>1227.9825952035</ele>
        <time>2022-01-20T22:12:55.567Z</time>
      </trkpt>
      <trkpt lat="45.20756" lon="6.71402">
        <ele>1227.4239037631</ele>
        <time>2022-01-20T22:13:10.610Z</time>
      </trkpt>
      <trkpt lat="45.20755" lon="6.71388">
        <ele>1226.8398294626</ele>
        <time>2022-01-20T22:13:25.655Z</time>
      </trkpt>
      <trkpt lat="45.20755" lon="6.71388">
        <ele>1226.247293452</ele>
        <time>2022-01-20T22:13:40.700Z</time>
      </trkpt>
      <trkpt lat="45.20746" lon="6.71348">
        <ele>1225.6422056883</ele>
        <time>2022-01-20T22:13:55.750Z</time>
      </trkpt>
      <trkpt lat="45.2071" lon="6.71259">
        <ele>1225.1874279573</ele>
        <time>2022-01-20T22:14:10.811Z</time>
      </trkpt>
      <trkpt lat="45.20705" lon="6.71236">
        <ele>1224.4785567982</ele>
        <time>2022-01-20T22:14:25.875Z</time>
      </trkpt>
      <trkpt lat="45.20702" lon="6.7121">
        <ele>1223.6673741174</ele>
        <time>2022-01-20T22:14:40.942Z</time>
      </trkpt>
      <trkpt lat="45.20703" lon="6.71174">
        <ele>1222.7313878893</ele>
        <time>2022-01-20T22:14:56.013Z</time>
      </trkpt>
      <trkpt lat="45.20707" lon="6.71123">
        <ele>1221.6865958998</ele>
        <time>2022-01-20T22:15:11.090Z</time>
      </trkpt>
      <trkpt lat="45.20707" lon="6.711">
        <ele>1220.7896681086</ele>
        <time>2022-01-20T22:15:26.170Z</time>
      </trkpt>
      <trkpt lat="45.20704" lon="6.71058">
        <ele>1219.8848020289</ele>
        <time>2022-01-20T22:15:41.254Z</time>
      </trkpt>
      <trkpt lat="45.20695" lon="6.71019">
        <ele>1219.2065706022</ele>
        <time>2022-01-20T22:15:56.343Z</time>
      </trkpt>
      <trkpt lat="45.2069" lon="6.70979">
        <ele>1218.3389614874</ele>
        <time>2022-01-20T22:16:11.437Z</time>
      </trkpt>
      <trkpt lat="45.2069" lon="6.70964">
        <ele>1217.5541217808</ele>
        <time>2022-01-20T22:16:26.532Z</time>
      </trkpt>
      <trkpt lat="45.207" lon="6.70894">
        <ele>1216.7277972319</ele>
        <time>2022-01-20T22:16:41.635Z</time>
      </trkpt>
      <trkpt lat="45.20697" lon="6.70846">
        <ele>1215.9473853924</ele>
        <time>2022-01-20T22:16:56.744Z</time>
      </trkpt>
      <trkpt lat="45.20677" lon="6.70774">
        <ele>1215.147668181</ele>
        <time>2022-01-20T22:17:11.862Z</time>
      </trkpt>
      <trkpt lat="45.20663" lon="6.70734">
        <ele>1214.3235422505</ele>
        <time>2022-01-20T22:17:26.985Z</time>
      </trkpt>
      <trkpt lat="45.20628" lon="6.70654">
        <ele>1213.6311315965</ele>
        <time>2022-01-20T22:17:42.118Z</time>
      </trkpt>
      <trkpt lat="45.20574" lon="6.7054">
        <ele>1212.7210988625</ele>
        <time>2022-01-20T22:17:57.267Z</time>
      </trkpt>
      <trkpt lat="45.2058" lon="6.70535">
        <ele>1212.0155892626</ele>
        <time>2022-01-20T22:18:12.417Z</time>
      </trkpt>
      <trkpt lat="45.20584" lon="6.70526">
        <ele>1211.3520329052</ele>
        <time>2022-01-20T22:18:27.568Z</time>
      </trkpt>
      <trkpt lat="45.20585" lon="6.70515">
        <ele>1210.7404333519</ele>
        <time>2022-01-20T22:18:42.720Z</time>
      </trkpt>
      <trkpt lat="45.20582" lon="6.70504">
        <ele>1210.1938100128</ele>
        <time>2022-01-20T22:18:57.874Z</time>
      </trkpt>
      <trkpt lat="45.20575" lon="6.70496">
        <ele>1209.7178912781</ele>
        <time>2022-01-20T22:19:13.029Z</time>
      </trkpt>
      <trkpt lat="45.2057" lon="6.70494">
        <ele>1209.2847832579</ele>
        <time>2022-01-20T22:19:28.185Z</time>
      </trkpt>
      <trkpt lat="45.20563" lon="6.70495">
        <ele>1208.8908607629</ele>
        <time>2022-01-20T22:19:43.342Z</time>
      </trkpt>
      <trkpt lat="45.20558" lon="6.70499">
        <ele>1208.4867561027</ele>
        <time>2022-01-20T22:19:58.500Z</time>
      </trkpt>
      <trkpt lat="45.20555" lon="6.70486">
        <ele>1208.0181441661</ele>
        <time>2022-01-20T22:20:13.660Z</time>
      </trkpt>
      <trkpt lat="45.20553" lon="6.7046">
        <ele>1207.5006554153</ele>
        <time>2022-01-20T22:20:28.823Z</time>
      </trkpt>
      <trkpt lat="45.20555" lon="6.70421">
        <ele>1206.9700982847</ele>
        <time>2022-01-20T22:20:43.990Z</time>
      </trkpt>
      <trkpt lat="45.20561" lon="6.70394">
        <ele>1206.3664059312</ele>
        <time>2022-01-20T22:20:59.160Z</time>
      </trkpt>
      <trkpt lat="45.2058" lon="6.70326">
        <ele>1205.7210373699</ele>
        <time>2022-01-20T22:21:14.338Z</time>
      </trkpt>
      <trkpt lat="45.20583" lon="6.70306">
        <ele>1204.9881933668</ele>
        <time>2022-01-20T22:21:29.519Z</time>
      </trkpt>
      <trkpt lat="45.20583" lon="6.70292">
        <ele>1204.208211637</ele>
        <time>2022-01-20T22:21:44.701Z</time>
      </trkpt>
      <trkpt lat="45.20572" lon="6.70224">
        <ele>1203.4980856694</ele>
        <time>2022-01-20T22:21:59.891Z</time>
      </trkpt>
      <trkpt lat="45.2057" lon="6.70185">
        <ele>1202.3666583951</ele>
        <time>2022-01-20T22:22:15.086Z</time>
      </trkpt>
      <trkpt lat="45.20591" lon="6.69972">
        <ele>1201.0313346246</ele>
        <time>2022-01-20T22:22:30.305Z</time>
      </trkpt>
      <trkpt lat="45.20595" lon="6.6992">
        <ele>1199.8006296516</ele>
        <time>2022-01-20T22:22:45.530Z</time>
      </trkpt>
      <trkpt lat="45.20598" lon="6.69826">
        <ele>1198.3594270109</ele>
        <time>2022-01-20T22:23:00.766Z</time>
      </trkpt>
      <trkpt lat="45.20617" lon="6.69626">
        <ele>1196.7674387471</ele>
        <time>2022-01-20T22:23:16.024Z</time>
      </trkpt>
      <trkpt lat="45.20628" lon="6.69582">
        <ele>1195.2640404615</ele>
        <time>2022-01-20T22:23:31.288Z</time>
      </trkpt>
      <trkpt lat="45.20638" lon="6.69562">
        <ele>1193.5908794696</ele>
        <time>2022-01-20T22:23:46.554Z</time>
      </trkpt>
      <trkpt lat="45.20656" lon="6.69544">
        <ele>1191.7521125681</ele>
        <time>2022-01-20T22:24:01.824Z</time>
      </trkpt>
      <trkpt lat="45.20684" lon="6.69522">
        <ele>1189.7493602947</ele>
        <time>2022-01-20T22:24:17.099Z</time>
      </trkpt>
      <trkpt lat="45.20749" lon="6.69444">
        <ele>1187.8662535181</ele>
        <time>2022-01-20T22:24:32.388Z</time>
      </trkpt>
      <trkpt lat="45.20767" lon="6.6942">
        <ele>1186.0140641492</ele>
        <time>2022-01-20T22:24:47.681Z</time>
      </trkpt>
      <trkpt lat="45.20774" lon="6.69404">
        <ele>1184.1910836473</ele>
        <time>2022-01-20T22:25:02.976Z</time>
      </trkpt>
      <trkpt lat="45.20775" lon="6.69396">
        <ele>1182.4610736784</ele>
        <time>2022-01-20T22:25:18.272Z</time>
      </trkpt>
      <trkpt lat="45.20773" lon="6.6938">
        <ele>1180.6913109013</ele>
        <time>2022-01-20T22:25:33.570Z</time>
      </trkpt>
      <trkpt lat="45.20769" lon="6.69371">
        <ele>1178.9971497759</ele>
        <time>2022-01-20T22:25:48.869Z</time>
      </trkpt>
      <trkpt lat="45.20746" lon="6.69344">
        <ele>1177.3858864075</ele>
        <time>2022-01-20T22:26:04.173Z</time>
      </trkpt>
      <trkpt lat="45.20737" lon="6.69331">
        <ele>1175.7708753151</ele>
        <time>2022-01-20T22:26:19.479Z</time>
      </trkpt>
      <trkpt lat="45.2073" lon="6.69313">
        <ele>1174.0922204558</ele>
        <time>2022-01-20T22:26:34.787Z</time>
      </trkpt>
      <trkpt lat="45.20721" lon="6.69277">
        <ele>1172.1956571709</ele>
        <time>2022-01-20T22:26:50.099Z</time>
      </trkpt>
      <trkpt lat="45.2072" lon="6.69255">
        <ele>1170.2056919979</ele>
        <time>2022-01-20T22:27:05.414Z</time>
      </trkpt>
      <trkpt lat="45.20714" lon="6.69239">
        <ele>1168.3627094272</ele>
        <time>2022-01-20T22:27:20.731Z</time>
      </trkpt>
      <trkpt lat="45.20695" lon="6.69201">
        <ele>1166.5983127366</ele>
        <time>2022-01-20T22:27:36.053Z</time>
      </trkpt>
      <trkpt lat="45.20685" lon="6.69173">
        <ele>1164.2745164396</ele>
        <time>2022-01-20T22:27:51.379Z</time>
      </trkpt>
      <trkpt lat="45.2068" lon="6.69148">
        <ele>1161.8431841727</ele>
        <time>2022-01-20T22:28:06.708Z</time>
      </trkpt>
      <trkpt lat="45.20674" lon="6.69096">
        <ele>1159.0432321211</ele>
        <time>2022-01-20T22:28:22.043Z</time>
      </trkpt>
      <trkpt lat="45.20667" lon="6.69064">
        <ele>1156.2015355906</ele>
        <time>2022-01-20T22:28:37.381Z</time>
      </trkpt>
      <trkpt lat="45.20651" lon="6.69009">
        <ele>1153.2334046064</ele>
        <time>2022-01-20T22:28:52.726Z</time>
      </trkpt>
      <trkpt lat="45.20595" lon="6.6885">
        <ele>1149.6309270634</ele>
        <time>2022-01-20T22:29:08.091Z</time>
      </trkpt>
      <trkpt lat="45.20571" lon="6.68799">
        <ele>1146.7203853625</ele>
        <time>2022-01-20T22:29:23.463Z</time>
      </trkpt>
      <trkpt lat="45.20556" lon="6.6875">
        <ele>1143.1091889488</ele>
        <time>2022-01-20T22:29:38.841Z</time>
      </trkpt>
      <trkpt lat="45.20545" lon="6.687">
        <ele>1138.9998668163</ele>
        <time>2022-01-20T22:29:54.225Z</time>
      </trkpt>
      <trkpt lat="45.2053" lon="6.6865">
        <ele>1135.1799671583</ele>
        <time>2022-01-20T22:30:09.615Z</time>
      </trkpt>
      <trkpt lat="45.20476" lon="6.6853">
        <ele>1130.9296407206</ele>
        <time>2022-01-20T22:30:25.021Z</time>
      </trkpt>
      <trkpt lat="45.20432" lon="6.68418">
        <ele>1126.416834575</ele>
        <time>2022-01-20T22:30:40.442Z</time>
      </trkpt>
      <trkpt lat="45.20422" lon="6.6839">
        <ele>1122.1430229151</ele>
        <time>2022-01-20T22:30:55.866Z</time>
      </trkpt>
      <trkpt lat="45.20418" lon="6.68374">
        <ele>1117.8104991892</ele>
        <time>2022-01-20T22:31:11.292Z</time>
      </trkpt>
      <trkpt lat="45.20415" lon="6.68359">
        <ele>1113.4273371326</ele>
        <time>2022-01-20T22:31:26.720Z</time>
      </trkpt>
      <trkpt lat="45.20414" lon="6.68343">
        <ele>1108.9931296896</ele>
        <time>2022-01-20T22:31:42.150Z</time>
      </trkpt>
      <trkpt lat="45.20417" lon="6.68291">
        <ele>1104.5008049386</ele>
        <time>2022-01-20T22:31:57.586Z</time>
      </trkpt>
      <trkpt lat="45.20476" lon="6.67922">
        <ele>1099.6446434641</ele>
        <time>2022-01-20T22:32:13.065Z</time>
      </trkpt>
      <trkpt lat="45.20483" lon="6.679">
        <ele>1095.3593634099</ele>
        <time>2022-01-20T22:32:28.546Z</time>
      </trkpt>
      <trkpt lat="45.20489" lon="6.67843">
        <ele>1091.16259731</ele>
        <time>2022-01-20T22:32:44.034Z</time>
      </trkpt>
      <trkpt lat="45.20477" lon="6.67767">
        <ele>1087.0992461045</ele>
        <time>2022-01-20T22:32:59.531Z</time>
      </trkpt>
      <trkpt lat="45.20471" lon="6.67742">
        <ele>1083.2927388791</ele>
        <time>2022-01-20T22:33:15.031Z</time>
      </trkpt>
      <trkpt lat="45.20383" lon="6.67424">
        <ele>1079.188548465</ele>
        <time>2022-01-20T22:33:30.569Z</time>
      </trkpt>
      <trkpt lat="45.20361" lon="6.6736">
        <ele>1075.7702539207</ele>
        <time>2022-01-20T22:33:46.115Z</time>
      </trkpt>
      <trkpt lat="45.20335" lon="6.67293">
        <ele>1072.6896341043</ele>
        <time>2022-01-20T22:34:01.670Z</time>
      </trkpt>
      <trkpt lat="45.20317" lon="6.67254">
        <ele>1069.9013331646</ele>
        <time>2022-01-20T22:34:17.230Z</time>
      </trkpt>
      <trkpt lat="45.20267" lon="6.67163">
        <ele>1067.4037918678</ele>
        <time>2022-01-20T22:34:32.803Z</time>
      </trkpt>
      <trkpt lat="45.20237" lon="6.67115">
        <ele>1065.1720275538</ele>
        <time>2022-01-20T22:34:48.383Z</time>
      </trkpt>
      <trkpt lat="45.20235" lon="6.67106">
        <ele>1063.2718293905</ele>
        <time>2022-01-20T22:35:03.965Z</time>
      </trkpt>
      <trkpt lat="45.20233" lon="6.67104">
        <ele>1061.6552675232</ele>
        <time>2022-01-20T22:35:19.547Z</time>
      </trkpt>
      <trkpt lat="45.20228" lon="6.67104">
        <ele>1060.3068114102</ele>
        <time>2022-01-20T22:35:35.130Z</time>
      </trkpt>
      <trkpt lat="45.20226" lon="6.67106">
        <ele>1059.2102208942</ele>
        <time>2022-01-20T22:35:50.713Z</time>
      </trkpt>
      <trkpt lat="45.20201" lon="6.67068">
        <ele>1058.3474897417</ele>
        <time>2022-01-20T22:36:06.302Z</time>
      </trkpt>
      <trkpt lat="45.20158" lon="6.67011">
        <ele>1057.6703639498</ele>
        <time>2022-01-20T22:36:21.900Z</time>
      </trkpt>
      <trkpt lat="45.20098" lon="6.66944">
        <ele>1057.20191179</ele>
        <time>2022-01-20T22:36:37.511Z</time>
      </trkpt>
      <trkpt lat="45.20067" lon="6.66912">
        <ele>1056.9090686846</ele>
        <time>2022-01-20T22:36:53.128Z</time>
      </trkpt>
      <trkpt lat="45.2" lon="6.66851">
        <ele>1056.666402116</ele>
        <time>2022-01-20T22:37:08.758Z</time>
      </trkpt>
      <trkpt lat="45.20001" lon="6.66841">
        <ele>1056.6040862111</ele>
        <time>2022-01-20T22:37:24.389Z</time>
      </trkpt>
      <trkpt lat="45.19997" lon="6.66835">
        <ele>1056.655940597</ele>
        <time>2022-01-20T22:37:40.021Z</time>
      </trkpt>
      <trkpt lat="45.19991" lon="6.66834">
        <ele>1056.7995326909</ele>
        <time>2022-01-20T22:37:55.654Z</time>
      </trkpt>
      <trkpt lat="45.19987" lon="6.66838">
        <ele>1057.0192583272</ele>
        <time>2022-01-20T22:38:11.287Z</time>
      </trkpt>
      <trkpt lat="45.19931" lon="6.6678">
        <ele>1057.2298930468</ele>
        <time>2022-01-20T22:38:26.931Z</time>
      </trkpt>
      <trkpt lat="45.19879" lon="6.66723">
        <ele>1057.5753850369</ele>
        <time>2022-01-20T22:38:42.586Z</time>
      </trkpt>
      <trkpt lat="45.1987" lon="6.66709">
        <ele>1057.8335397063</ele>
        <time>2022-01-20T22:38:58.243Z</time>
      </trkpt>
      <trkpt lat="45.19863" lon="6.66693">
        <ele>1058.0728030255</ele>
        <time>2022-01-20T22:39:13.902Z</time>
      </trkpt>
      <trkpt lat="45.19853" lon="6.66655">
        <ele>1058.2495101716</ele>
        <time>2022-01-20T22:39:29.566Z</time>
      </trkpt>
      <trkpt lat="45.19808" lon="6.66517">
        <ele>1058.4963590294</ele>
        <time>2022-01-20T22:39:45.247Z</time>
      </trkpt>
      <trkpt lat="45.1979" lon="6.66482">
        <ele>1058.6805533047</ele>
        <time>2022-01-20T22:40:00.933Z</time>
      </trkpt>
      <trkpt lat="45.19769" lon="6.66453">
        <ele>1058.8052507881</ele>
        <time>2022-01-20T22:40:16.624Z</time>
      </trkpt>
      <trkpt lat="45.19699" lon="6.66365">
        <ele>1058.939624531</ele>
        <time>2022-01-20T22:40:32.330Z</time>
      </trkpt>
      <trkpt lat="45.19417" lon="6.65973">
        <ele>1059.1302947712</ele>
        <time>2022-01-20T22:40:48.099Z</time>
      </trkpt>
      <trkpt lat="45.19402" lon="6.65943">
        <ele>1059.1715143815</ele>
        <time>2022-01-20T22:41:03.872Z</time>
      </trkpt>
      <trkpt lat="45.19357" lon="6.65843">
        <ele>1059.1144901624</ele>
        <time>2022-01-20T22:41:19.658Z</time>
      </trkpt>
      <trkpt lat="45.19324" lon="6.65751">
        <ele>1059.010398035</ele>
        <time>2022-01-20T22:41:35.456Z</time>
      </trkpt>
      <trkpt lat="45.19281" lon="6.65621">
        <ele>1058.8109657976</ele>
        <time>2022-01-20T22:41:51.270Z</time>
      </trkpt>
      <trkpt lat="45.1927" lon="6.65583">
        <ele>1058.6578200175</ele>
        <time>2022-01-20T22:42:07.089Z</time>
      </trkpt>
      <trkpt lat="45.19243" lon="6.65444">
        <ele>1058.6100469898</ele>
        <time>2022-01-20T22:42:22.924Z</time>
      </trkpt>
      <trkpt lat="45.19197" lon="6.65179">
        <ele>1058.3925389006</ele>
        <time>2022-01-20T22:42:38.790Z</time>
      </trkpt>
      <trkpt lat="45.1917" lon="6.65039">
        <ele>1058.1303795915</ele>
        <time>2022-01-20T22:42:54.673Z</time>
      </trkpt>
      <trkpt lat="45.19127" lon="6.64796">
        <ele>1057.8156671453</ele>
        <time>2022-01-20T22:43:10.584Z</time>
      </trkpt>
      <trkpt lat="45.19118" lon="6.64728">
        <ele>1057.5908647237</ele>
        <time>2022-01-20T22:43:26.503Z</time>
      </trkpt>
      <trkpt lat="45.19124" lon="6.64728">
        <ele>1057.3243962168</ele>
        <time>2022-01-20T22:43:42.423Z</time>
      </trkpt>
      <trkpt lat="45.19127" lon="6.64725">
        <ele>1057.0621407205</ele>
        <time>2022-01-20T22:43:58.343Z</time>
      </trkpt>
      <trkpt lat="45.19129" lon="6.64721">
        <ele>1056.8112063338</ele>
        <time>2022-01-20T22:44:14.264Z</time>
      </trkpt>
      <trkpt lat="45.19129" lon="6.6471">
        <ele>1056.5791095976</ele>
        <time>2022-01-20T22:44:30.186Z</time>
      </trkpt>
      <trkpt lat="45.19127" lon="6.64706">
        <ele>1056.3467842852</ele>
        <time>2022-01-20T22:44:46.109Z</time>
      </trkpt>
      <trkpt lat="45.19137" lon="6.64694">
        <ele>1056.1206298572</ele>
        <time>2022-01-20T22:45:02.034Z</time>
      </trkpt>
      <trkpt lat="45.19143" lon="6.64684">
        <ele>1055.8980069383</ele>
        <time>2022-01-20T22:45:17.960Z</time>
      </trkpt>
      <trkpt lat="45.19144" lon="6.6467">
        <ele>1055.6933783801</ele>
        <time>2022-01-20T22:45:33.888Z</time>
      </trkpt>
      <trkpt lat="45.19141" lon="6.64649">
        <ele>1055.4998660337</ele>
        <time>2022-01-20T22:45:49.818Z</time>
      </trkpt>
      <trkpt lat="45.19134" lon="6.64618">
        <ele>1055.3529755951</ele>
        <time>2022-01-20T22:46:05.752Z</time>
      </trkpt>
      <trkpt lat="45.19137" lon="6.64608">
        <ele>1055.211953163</ele>
        <time>2022-01-20T22:46:21.687Z</time>
      </trkpt>
      <trkpt lat="45.1915" lon="6.64591">
        <ele>1055.1170067798</ele>
        <time>2022-01-20T22:46:37.625Z</time>
      </trkpt>
      <trkpt lat="45.19153" lon="6.64578">
        <ele>1054.9801277411</ele>
        <time>2022-01-20T22:46:53.565Z</time>
      </trkpt>
      <trkpt lat="45.1914" lon="6.64507">
        <ele>1054.6611948339</ele>
        <time>2022-01-20T22:47:09.513Z</time>
      </trkpt>
      <trkpt lat="45.1914" lon="6.64501">
        <ele>1054.5534827642</ele>
        <time>2022-01-20T22:47:25.462Z</time>
      </trkpt>
      <trkpt lat="45.19145" lon="6.64488">
        <ele>1054.4652437352</ele>
        <time>2022-01-20T22:47:41.412Z</time>
      </trkpt>
      <trkpt lat="45.19145" lon="6.64483">
        <ele>1054.4182365646</ele>
        <time>2022-01-20T22:47:57.363Z</time>
      </trkpt>
      <trkpt lat="45.19135" lon="6.64424">
        <ele>1054.2821172095</ele>
        <time>2022-01-20T22:48:13.321Z</time>
      </trkpt>
      <trkpt lat="45.19111" lon="6.64301">
        <ele>1054.3686629974</ele>
        <time>2022-01-20T22:48:29.293Z</time>
      </trkpt>
      <trkpt lat="45.19108" lon="6.64293">
        <ele>1054.3963988626</ele>
        <time>2022-01-20T22:48:45.266Z</time>
      </trkpt>
      <trkpt lat="45.19102" lon="6.64289">
        <ele>1054.4325362462</ele>
        <time>2022-01-20T22:49:01.240Z</time>
      </trkpt>
      <trkpt lat="45.19082" lon="6.64288">
        <ele>1054.4405044828</ele>
        <time>2022-01-20T22:49:17.217Z</time>
      </trkpt>
      <trkpt lat="45.19066" lon="6.64281">
        <ele>1054.4498315521</ele>
        <time>2022-01-20T22:49:33.197Z</time>
      </trkpt>
      <trkpt lat="45.19068" lon="6.64153">
        <ele>1054.3908468029</ele>
        <time>2022-01-20T22:49:49.192Z</time>
      </trkpt>
      <trkpt lat="45.19065" lon="6.6414">
        <ele>1054.3247519163</ele>
        <time>2022-01-20T22:50:05.188Z</time>
      </trkpt>
      <trkpt lat="45.19069" lon="6.64097">
        <ele>1054.2094772342</ele>
        <time>2022-01-20T22:50:21.189Z</time>
      </trkpt>
      <trkpt lat="45.19078" lon="6.64053">
        <ele>1054.0558281663</ele>
        <time>2022-01-20T22:50:37.195Z</time>
      </trkpt>
      <trkpt lat="45.1909" lon="6.64017">
        <ele>1053.7897746574</ele>
        <time>2022-01-20T22:50:53.206Z</time>
      </trkpt>
      <trkpt lat="45.19097" lon="6.64002">
        <ele>1053.4605288603</ele>
        <time>2022-01-20T22:51:09.219Z</time>
      </trkpt>
      <trkpt lat="45.19119" lon="6.63965">
        <ele>1053.0279296319</ele>
        <time>2022-01-20T22:51:25.237Z</time>
      </trkpt>
      <trkpt lat="45.19185" lon="6.63878">
        <ele>1052.4958931584</ele>
        <time>2022-01-20T22:51:41.270Z</time>
      </trkpt>
      <trkpt lat="45.19221" lon="6.63827">
        <ele>1051.9612692069</ele>
        <time>2022-01-20T22:51:57.311Z</time>
      </trkpt>
      <trkpt lat="45.19249" lon="6.63769">
        <ele>1051.2722227473</ele>
        <time>2022-01-20T22:52:13.360Z</time>
      </trkpt>
      <trkpt lat="45.19269" lon="6.6371">
        <ele>1050.409611807</ele>
        <time>2022-01-20T22:52:29.416Z</time>
      </trkpt>
      <trkpt lat="45.1928" lon="6.63662">
        <ele>1049.5077891962</ele>
        <time>2022-01-20T22:52:45.478Z</time>
      </trkpt>
      <trkpt lat="45.19341" lon="6.63298">
        <ele>1048.1164577766</ele>
        <time>2022-01-20T22:53:01.582Z</time>
      </trkpt>
      <trkpt lat="45.19357" lon="6.63226">
        <ele>1046.7311948169</ele>
        <time>2022-01-20T22:53:17.695Z</time>
      </trkpt>
      <trkpt lat="45.1939" lon="6.63106">
        <ele>1045.1847409215</ele>
        <time>2022-01-20T22:53:33.822Z</time>
      </trkpt>
      <trkpt lat="45.19421" lon="6.62963">
        <ele>1043.8552045377</ele>
        <time>2022-01-20T22:53:49.966Z</time>
      </trkpt>
      <trkpt lat="45.19436" lon="6.62942">
        <ele>1042.4876520186</ele>
        <time>2022-01-20T22:54:06.114Z</time>
      </trkpt>
      <trkpt lat="45.1944" lon="6.62942">
        <ele>1041.1391396376</ele>
        <time>2022-01-20T22:54:22.262Z</time>
      </trkpt>
      <trkpt lat="45.19444" lon="6.62938">
        <ele>1039.7964190292</ele>
        <time>2022-01-20T22:54:38.411Z</time>
      </trkpt>
      <trkpt lat="45.19446" lon="6.62933">
        <ele>1038.4755536244</ele>
        <time>2022-01-20T22:54:54.561Z</time>
      </trkpt>
      <trkpt lat="45.19444" lon="6.62913">
        <ele>1037.1730616182</ele>
        <time>2022-01-20T22:55:10.713Z</time>
      </trkpt>
      <trkpt lat="45.19447" lon="6.62893">
        <ele>1035.9112572527</ele>
        <time>2022-01-20T22:55:26.867Z</time>
      </trkpt>
      <trkpt lat="45.19501" lon="6.62665">
        <ele>1034.6515355218</ele>
        <time>2022-01-20T22:55:43.049Z</time>
      </trkpt>
      <trkpt lat="45.19513" lon="6.62621">
        <ele>1033.5111194563</ele>
        <time>2022-01-20T22:55:59.236Z</time>
      </trkpt>
      <trkpt lat="45.19531" lon="6.62535">
        <ele>1032.4349862748</ele>
        <time>2022-01-20T22:56:15.433Z</time>
      </trkpt>
      <trkpt lat="45.19544" lon="6.62482">
        <ele>1031.4221354025</ele>
        <time>2022-01-20T22:56:31.636Z</time>
      </trkpt>
      <trkpt lat="45.19578" lon="6.62362">
        <ele>1030.5001810554</ele>
        <time>2022-01-20T22:56:47.854Z</time>
      </trkpt>
      <trkpt lat="45.1962" lon="6.62247">
        <ele>1029.6511462545</ele>
        <time>2022-01-20T22:57:04.087Z</time>
      </trkpt>
      <trkpt lat="45.19626" lon="6.6222">
        <ele>1028.9212727069</ele>
        <time>2022-01-20T22:57:20.323Z</time>
      </trkpt>
      <trkpt lat="45.19636" lon="6.62189">
        <ele>1028.2635296865</ele>
        <time>2022-01-20T22:57:36.563Z</time>
      </trkpt>
      <trkpt lat="45.19639" lon="6.62144">
        <ele>1027.6679802358</ele>
        <time>2022-01-20T22:57:52.808Z</time>
      </trkpt>
      <trkpt lat="45.19645" lon="6.6214">
        <ele>1027.2124359848</ele>
        <time>2022-01-20T22:58:09.054Z</time>
      </trkpt>
      <trkpt lat="45.19652" lon="6.62125">
        <ele>1026.8261933867</ele>
        <time>2022-01-20T22:58:25.302Z</time>
      </trkpt>
      <trkpt lat="45.19652" lon="6.62113">
        <ele>1026.5344876571</ele>
        <time>2022-01-20T22:58:41.551Z</time>
      </trkpt>
      <trkpt lat="45.1965" lon="6.62107">
        <ele>1026.3170841961</ele>
        <time>2022-01-20T22:58:57.801Z</time>
      </trkpt>
      <trkpt lat="45.19647" lon="6.62101">
        <ele>1026.147258325</ele>
        <time>2022-01-20T22:59:14.052Z</time>
      </trkpt>
      <trkpt lat="45.19642" lon="6.62096">
        <ele>1026.0171237484</ele>
        <time>2022-01-20T22:59:30.304Z</time>
      </trkpt>
      <trkpt lat="45.19635" lon="6.62092">
        <ele>1025.9075684672</ele>
        <time>2022-01-20T22:59:46.557Z</time>
      </trkpt>
      <trkpt lat="45.19623" lon="6.62053">
        <ele>1025.7815820521</ele>
        <time>2022-01-20T23:00:02.815Z</time>
      </trkpt>
      <trkpt lat="45.19616" lon="6.62039">
        <ele>1025.6450844214</ele>
        <time>2022-01-20T23:00:19.075Z</time>
      </trkpt>
      <trkpt lat="45.19608" lon="6.62">
        <ele>1025.4033148029</ele>
        <time>2022-01-20T23:00:35.339Z</time>
      </trkpt>
      <trkpt lat="45.19604" lon="6.61963">
        <ele>1025.1183540956</ele>
        <time>2022-01-20T23:00:51.608Z</time>
      </trkpt>
      <trkpt lat="45.19605" lon="6.61923">
        <ele>1024.7488465994</ele>
        <time>2022-01-20T23:01:07.881Z</time>
      </trkpt>
      <trkpt lat="45.19615" lon="6.61843">
        <ele>1024.2909814292</ele>
        <time>2022-01-20T23:01:24.163Z</time>
      </trkpt>
      <trkpt lat="45.19622" lon="6.618">
        <ele>1023.6160010843</ele>
        <time>2022-01-20T23:01:40.450Z</time>
      </trkpt>
      <trkpt lat="45.19628" lon="6.61781">
        <ele>1022.754175208</ele>
        <time>2022-01-20T23:01:56.740Z</time>
      </trkpt>
      <trkpt lat="45.19683" lon="6.61701">
        <ele>1021.8647065016</ele>
        <time>2022-01-20T23:02:13.042Z</time>
      </trkpt>
      <trkpt lat="45.19727" lon="6.61628">
        <ele>1020.739458312</ele>
        <time>2022-01-20T23:02:29.355Z</time>
      </trkpt>
      <trkpt lat="45.1974" lon="6.61603">
        <ele>1019.2666243687</ele>
        <time>2022-01-20T23:02:45.672Z</time>
      </trkpt>
      <trkpt lat="45.1975" lon="6.61576">
        <ele>1017.746609378</ele>
        <time>2022-01-20T23:03:01.992Z</time>
      </trkpt>
      <trkpt lat="45.19758" lon="6.61547">
        <ele>1016.0620749145</ele>
        <time>2022-01-20T23:03:18.316Z</time>
      </trkpt>
      <trkpt lat="45.19788" lon="6.61429">
        <ele>1013.9750791792</ele>
        <time>2022-01-20T23:03:34.654Z</time>
      </trkpt>
      <trkpt lat="45.19803" lon="6.61387">
        <ele>1011.9383571024</ele>
        <time>2022-01-20T23:03:50.997Z</time>
      </trkpt>
      <trkpt lat="45.19837" lon="6.6131">
        <ele>1009.6067527075</ele>
        <time>2022-01-20T23:04:07.350Z</time>
      </trkpt>
      <trkpt lat="45.19856" lon="6.61253">
        <ele>1007.3246914184</ele>
        <time>2022-01-20T23:04:23.711Z</time>
      </trkpt>
      <trkpt lat="45.19864" lon="6.61213">
        <ele>1004.9326733945</ele>
        <time>2022-01-20T23:04:40.076Z</time>
      </trkpt>
      <trkpt lat="45.19868" lon="6.61177">
        <ele>1002.4198714884</ele>
        <time>2022-01-20T23:04:56.445Z</time>
      </trkpt>
      <trkpt lat="45.19869" lon="6.61061">
        <ele>999.69589510845</ele>
        <time>2022-01-20T23:05:12.828Z</time>
      </trkpt>
      <trkpt lat="45.19874" lon="6.60975">
        <ele>996.8315613329</ele>
        <time>2022-01-20T23:05:29.220Z</time>
      </trkpt>
      <trkpt lat="45.19905" lon="6.60668">
        <ele>993.66277146614</ele>
        <time>2022-01-20T23:05:45.647Z</time>
      </trkpt>
      <trkpt lat="45.19903" lon="6.60524">
        <ele>991.06986583523</ele>
        <time>2022-01-20T23:06:02.091Z</time>
      </trkpt>
      <trkpt lat="45.19899" lon="6.60382">
        <ele>987.90434641266</ele>
        <time>2022-01-20T23:06:18.551Z</time>
      </trkpt>
      <trkpt lat="45.19895" lon="6.60343">
        <ele>985.1658062393</ele>
        <time>2022-01-20T23:06:35.015Z</time>
      </trkpt>
      <trkpt lat="45.19879" lon="6.60269">
        <ele>982.47558474848</ele>
        <time>2022-01-20T23:06:51.488Z</time>
      </trkpt>
      <trkpt lat="45.19874" lon="6.60229">
        <ele>980.29499712139</ele>
        <time>2022-01-20T23:07:07.966Z</time>
      </trkpt>
      <trkpt lat="45.19873" lon="6.60207">
        <ele>978.05775721782</ele>
        <time>2022-01-20T23:07:24.446Z</time>
      </trkpt>
      <trkpt lat="45.19874" lon="6.60188">
        <ele>975.85540219923</ele>
        <time>2022-01-20T23:07:40.928Z</time>
      </trkpt>
      <trkpt lat="45.19877" lon="6.6017">
        <ele>973.72145703783</ele>
        <time>2022-01-20T23:07:57.412Z</time>
      </trkpt>
      <trkpt lat="45.19881" lon="6.60152">
        <ele>971.65434931928</ele>
        <time>2022-01-20T23:08:13.898Z</time>
      </trkpt>
      <trkpt lat="45.19893" lon="6.60117">
        <ele>969.78741036974</ele>
        <time>2022-01-20T23:08:30.389Z</time>
      </trkpt>
      <trkpt lat="45.1997" lon="6.5999">
        <ele>967.95593732594</ele>
        <time>2022-01-20T23:08:46.899Z</time>
      </trkpt>
      <trkpt lat="45.20001" lon="6.59924">
        <ele>966.23829627631</ele>
        <time>2022-01-20T23:09:03.418Z</time>
      </trkpt>
      <trkpt lat="45.20007" lon="6.59909">
        <ele>964.73327959071</ele>
        <time>2022-01-20T23:09:19.939Z</time>
      </trkpt>
      <trkpt lat="45.20015" lon="6.59878">
        <ele>963.35565023005</ele>
        <time>2022-01-20T23:09:36.463Z</time>
      </trkpt>
      <trkpt lat="45.2002" lon="6.59848">
        <ele>962.12498828002</ele>
        <time>2022-01-20T23:09:52.991Z</time>
      </trkpt>
      <trkpt lat="45.20022" lon="6.59786">
        <ele>960.99061326549</ele>
        <time>2022-01-20T23:10:09.526Z</time>
      </trkpt>
      <trkpt lat="45.20012" lon="6.59701">
        <ele>959.85413569074</ele>
        <time>2022-01-20T23:10:26.071Z</time>
      </trkpt>
      <trkpt lat="45.20012" lon="6.59662">
        <ele>958.81434519953</ele>
        <time>2022-01-20T23:10:42.620Z</time>
      </trkpt>
      <trkpt lat="45.20013" lon="6.59635">
        <ele>957.70832106663</ele>
        <time>2022-01-20T23:10:59.172Z</time>
      </trkpt>
      <trkpt lat="45.20018" lon="6.59584">
        <ele>956.82268657958</ele>
        <time>2022-01-20T23:11:15.730Z</time>
      </trkpt>
      <trkpt lat="45.20022" lon="6.59559">
        <ele>956.00338692417</ele>
        <time>2022-01-20T23:11:32.291Z</time>
      </trkpt>
      <trkpt lat="45.20027" lon="6.59535">
        <ele>955.01253798172</ele>
        <time>2022-01-20T23:11:48.855Z</time>
      </trkpt>
      <trkpt lat="45.20045" lon="6.59474">
        <ele>953.8280614315</ele>
        <time>2022-01-20T23:12:05.426Z</time>
      </trkpt>
      <trkpt lat="45.2007" lon="6.59404">
        <ele>952.94503467805</ele>
        <time>2022-01-20T23:12:22.006Z</time>
      </trkpt>
      <trkpt lat="45.2008" lon="6.59384">
        <ele>951.89005179891</ele>
        <time>2022-01-20T23:12:38.589Z</time>
      </trkpt>
      <trkpt lat="45.20112" lon="6.59308">
        <ele>950.75557347136</ele>
        <time>2022-01-20T23:12:55.182Z</time>
      </trkpt>
      <trkpt lat="45.20127" lon="6.59259">
        <ele>949.66776182581</ele>
        <time>2022-01-20T23:13:11.781Z</time>
      </trkpt>
      <trkpt lat="45.20136" lon="6.59221">
        <ele>948.59141360449</ele>
        <time>2022-01-20T23:13:28.384Z</time>
      </trkpt>
      <trkpt lat="45.20149" lon="6.59154">
        <ele>947.27857020927</ele>
        <time>2022-01-20T23:13:44.995Z</time>
      </trkpt>
      <trkpt lat="45.20156" lon="6.59092">
        <ele>945.94012349072</ele>
        <time>2022-01-20T23:14:01.613Z</time>
      </trkpt>
      <trkpt lat="45.20155" lon="6.5908">
        <ele>944.64012971928</ele>
        <time>2022-01-20T23:14:18.233Z</time>
      </trkpt>
      <trkpt lat="45.20171" lon="6.58919">
        <ele>943.06102158618</ele>
        <time>2022-01-20T23:14:34.871Z</time>
      </trkpt>
      <trkpt lat="45.20184" lon="6.58861">
        <ele>941.63805409054</ele>
        <time>2022-01-20T23:14:51.516Z</time>
      </trkpt>
      <trkpt lat="45.20188" lon="6.58847">
        <ele>940.241610093</ele>
        <time>2022-01-20T23:15:08.163Z</time>
      </trkpt>
      <trkpt lat="45.20216" lon="6.5878">
        <ele>938.83238536257</ele>
        <time>2022-01-20T23:15:24.819Z</time>
      </trkpt>
      <trkpt lat="45.20238" lon="6.58734">
        <ele>937.33312335813</ele>
        <time>2022-01-20T23:15:41.481Z</time>
      </trkpt>
      <trkpt lat="45.20267" lon="6.58654">
        <ele>935.68523819701</ele>
        <time>2022-01-20T23:15:58.153Z</time>
      </trkpt>
      <trkpt lat="45.20327" lon="6.58415">
        <ele>934.29073638303</ele>
        <time>2022-01-20T23:16:14.854Z</time>
      </trkpt>
      <trkpt lat="45.20341" lon="6.58367">
        <ele>932.8941544219</ele>
        <time>2022-01-20T23:16:31.561Z</time>
      </trkpt>
      <trkpt lat="45.20365" lon="6.58296">
        <ele>931.26045631378</ele>
        <time>2022-01-20T23:16:48.276Z</time>
      </trkpt>
      <trkpt lat="45.20397" lon="6.58216">
        <ele>930.18427719755</ele>
        <time>2022-01-20T23:17:05.002Z</time>
      </trkpt>
      <trkpt lat="45.20443" lon="6.58116">
        <ele>929.1325345558</ele>
        <time>2022-01-20T23:17:21.741Z</time>
      </trkpt>
      <trkpt lat="45.20472" lon="6.58043">
        <ele>928.0264606055</ele>
        <time>2022-01-20T23:17:38.490Z</time>
      </trkpt>
      <trkpt lat="45.20497" lon="6.57979">
        <ele>927.21512515673</ele>
        <time>2022-01-20T23:17:55.247Z</time>
      </trkpt>
      <trkpt lat="45.20509" lon="6.57933">
        <ele>926.54349683978</ele>
        <time>2022-01-20T23:18:12.010Z</time>
      </trkpt>
      <trkpt lat="45.20524" lon="6.57854">
        <ele>926.01622065794</ele>
        <time>2022-01-20T23:18:28.782Z</time>
      </trkpt>
      <trkpt lat="45.20526" lon="6.57832">
        <ele>925.63485836897</ele>
        <time>2022-01-20T23:18:45.556Z</time>
      </trkpt>
      <trkpt lat="45.20536" lon="6.57772">
        <ele>925.39802263612</ele>
        <time>2022-01-20T23:19:02.337Z</time>
      </trkpt>
      <trkpt lat="45.20669" lon="6.56988">
        <ele>925.3015049152</ele>
        <time>2022-01-20T23:19:19.210Z</time>
      </trkpt>
      <trkpt lat="45.20692" lon="6.5684">
        <ele>925.33839545629</ele>
        <time>2022-01-20T23:19:36.100Z</time>
      </trkpt>
      <trkpt lat="45.20702" lon="6.56717">
        <ele>925.499195072</ele>
        <time>2022-01-20T23:19:53.004Z</time>
      </trkpt>
      <trkpt lat="45.20703" lon="6.56602">
        <ele>925.65413951637</ele>
        <time>2022-01-20T23:20:09.921Z</time>
      </trkpt>
      <trkpt lat="45.20705" lon="6.5656">
        <ele>925.96680110293</ele>
        <time>2022-01-20T23:20:26.843Z</time>
      </trkpt>
      <trkpt lat="45.20713" lon="6.56519">
        <ele>926.36864911332</ele>
        <time>2022-01-20T23:20:43.769Z</time>
      </trkpt>
      <trkpt lat="45.20735" lon="6.56447">
        <ele>926.96848372694</ele>
        <time>2022-01-20T23:21:00.704Z</time>
      </trkpt>
      <trkpt lat="45.20741" lon="6.56422">
        <ele>927.61644607313</ele>
        <time>2022-01-20T23:21:17.642Z</time>
      </trkpt>
      <trkpt lat="45.20745" lon="6.56394">
        <ele>928.31922727936</ele>
        <time>2022-01-20T23:21:34.583Z</time>
      </trkpt>
      <trkpt lat="45.20746" lon="6.56371">
        <ele>928.9255636173</ele>
        <time>2022-01-20T23:21:51.527Z</time>
      </trkpt>
      <trkpt lat="45.20741" lon="6.56323">
        <ele>929.46933451621</ele>
        <time>2022-01-20T23:22:08.477Z</time>
      </trkpt>
      <trkpt lat="45.20717" lon="6.56216">
        <ele>929.77415512647</ele>
        <time>2022-01-20T23:22:25.439Z</time>
      </trkpt>
      <trkpt lat="45.20711" lon="6.56124">
        <ele>930.00988505299</ele>
        <time>2022-01-20T23:22:42.412Z</time>
      </trkpt>
      <trkpt lat="45.2069" lon="6.56055">
        <ele>929.83486693153</ele>
        <time>2022-01-20T23:22:59.393Z</time>
      </trkpt>
      <trkpt lat="45.20685" lon="6.56032">
        <ele>929.51655743313</ele>
        <time>2022-01-20T23:23:16.377Z</time>
      </trkpt>
      <trkpt lat="45.20683" lon="6.56007">
        <ele>928.95381465791</ele>
        <time>2022-01-20T23:23:33.364Z</time>
      </trkpt>
      <trkpt lat="45.20683" lon="6.55981">
        <ele>928.21517539536</ele>
        <time>2022-01-20T23:23:50.354Z</time>
      </trkpt>
      <trkpt lat="45.20705" lon="6.55834">
        <ele>927.16264751276</ele>
        <time>2022-01-20T23:24:07.361Z</time>
      </trkpt>
      <trkpt lat="45.20707" lon="6.5579">
        <ele>925.84710169586</ele>
        <time>2022-01-20T23:24:24.373Z</time>
      </trkpt>
      <trkpt lat="45.20705" lon="6.55767">
        <ele>924.34725518707</ele>
        <time>2022-01-20T23:24:41.387Z</time>
      </trkpt>
      <trkpt lat="45.20669" lon="6.55586">
        <ele>922.67082585788</ele>
        <time>2022-01-20T23:24:58.423Z</time>
      </trkpt>
      <trkpt lat="45.20664" lon="6.55538">
        <ele>920.88251238733</ele>
        <time>2022-01-20T23:25:15.464Z</time>
      </trkpt>
      <trkpt lat="45.20664" lon="6.55511">
        <ele>918.91734720827</ele>
        <time>2022-01-20T23:25:32.508Z</time>
      </trkpt>
      <trkpt lat="45.20672" lon="6.55429">
        <ele>916.59559366603</ele>
        <time>2022-01-20T23:25:49.561Z</time>
      </trkpt>
      <trkpt lat="45.20706" lon="6.55172">
        <ele>914.11642695531</ele>
        <time>2022-01-20T23:26:06.644Z</time>
      </trkpt>
      <trkpt lat="45.20716" lon="6.55072">
        <ele>911.7775193803</ele>
        <time>2022-01-20T23:26:23.738Z</time>
      </trkpt>
      <trkpt lat="45.20719" lon="6.55072">
        <ele>909.60918794197</ele>
        <time>2022-01-20T23:26:40.833Z</time>
      </trkpt>
      <trkpt lat="45.20724" lon="6.55069">
        <ele>907.42625924332</ele>
        <time>2022-01-20T23:26:57.929Z</time>
      </trkpt>
      <trkpt lat="45.20728" lon="6.55061">
        <ele>905.17879599666</ele>
        <time>2022-01-20T23:27:15.026Z</time>
      </trkpt>
      <trkpt lat="45.20727" lon="6.5505">
        <ele>902.83797243311</ele>
        <time>2022-01-20T23:27:32.124Z</time>
      </trkpt>
      <trkpt lat="45.20723" lon="6.55044">
        <ele>900.51012290261</ele>
        <time>2022-01-20T23:27:49.223Z</time>
      </trkpt>
      <trkpt lat="45.2072" lon="6.55043">
        <ele>898.28262224996</ele>
        <time>2022-01-20T23:28:06.323Z</time>
      </trkpt>
      <trkpt lat="45.20731" lon="6.54903">
        <ele>895.77446073371</ele>
        <time>2022-01-20T23:28:23.439Z</time>
      </trkpt>
      <trkpt lat="45.20743" lon="6.54706">
        <ele>893.67968883074</ele>
        <time>2022-01-20T23:28:40.577Z</time>
      </trkpt>
      <trkpt lat="45.20744" lon="6.54668">
        <ele>891.89689990904</ele>
        <time>2022-01-20T23:28:57.719Z</time>
      </trkpt>
      <trkpt lat="45.20748" lon="6.54655">
        <ele>890.26112965913</ele>
        <time>2022-01-20T23:29:14.863Z</time>
      </trkpt>
      <trkpt lat="45.20754" lon="6.54548">
        <ele>888.63571503811</ele>
        <time>2022-01-20T23:29:32.019Z</time>
      </trkpt>
      <trkpt lat="45.20754" lon="6.54527">
        <ele>887.11982696208</ele>
        <time>2022-01-20T23:29:49.177Z</time>
      </trkpt>
      <trkpt lat="45.20748" lon="6.54459">
        <ele>885.63702105891</ele>
        <time>2022-01-20T23:30:06.343Z</time>
      </trkpt>
      <trkpt lat="45.20734" lon="6.54385">
        <ele>884.42697757453</ele>
        <time>2022-01-20T23:30:23.518Z</time>
      </trkpt>
      <trkpt lat="45.20709" lon="6.5427">
        <ele>883.21259442609</ele>
        <time>2022-01-20T23:30:40.706Z</time>
      </trkpt>
      <trkpt lat="45.20701" lon="6.54242">
        <ele>881.74116139895</ele>
        <time>2022-01-20T23:30:57.898Z</time>
      </trkpt>
      <trkpt lat="45.207" lon="6.54191">
        <ele>880.29515521522</ele>
        <time>2022-01-20T23:31:15.096Z</time>
      </trkpt>
      <trkpt lat="45.20712" lon="6.5408">
        <ele>879.29343128956</ele>
        <time>2022-01-20T23:31:32.306Z</time>
      </trkpt>
      <trkpt lat="45.20711" lon="6.54034">
        <ele>877.85128797624</ele>
        <time>2022-01-20T23:31:49.521Z</time>
      </trkpt>
      <trkpt lat="45.20706" lon="6.53956">
        <ele>876.31710206433</ele>
        <time>2022-01-20T23:32:06.745Z</time>
      </trkpt>
      <trkpt lat="45.20706" lon="6.53932">
        <ele>874.64943338433</ele>
        <time>2022-01-20T23:32:23.972Z</time>
      </trkpt>
      <trkpt lat="45.20708" lon="6.53909">
        <ele>872.90129414461</ele>
        <time>2022-01-20T23:32:41.202Z</time>
      </trkpt>
      <trkpt lat="45.20712" lon="6.53885">
        <ele>870.99872671804</ele>
        <time>2022-01-20T23:32:58.434Z</time>
      </trkpt>
      <trkpt lat="45.20731" lon="6.53801">
        <ele>868.96639406282</ele>
        <time>2022-01-20T23:33:15.676Z</time>
      </trkpt>
      <trkpt lat="45.20763" lon="6.53613">
        <ele>866.8442201819</ele>
        <time>2022-01-20T23:33:32.940Z</time>
      </trkpt>
      <trkpt lat="45.20766" lon="6.53588">
        <ele>864.70699336888</ele>
        <time>2022-01-20T23:33:50.207Z</time>
      </trkpt>
      <trkpt lat="45.20769" lon="6.53579">
        <ele>862.75298706221</ele>
        <time>2022-01-20T23:34:07.475Z</time>
      </trkpt>
      <trkpt lat="45.20771" lon="6.53557">
        <ele>860.80306387633</ele>
        <time>2022-01-20T23:34:24.746Z</time>
      </trkpt>
      <trkpt lat="45.2077" lon="6.53484">
        <ele>858.75527544124</ele>
        <time>2022-01-20T23:34:42.025Z</time>
      </trkpt>
      <trkpt lat="45.20751" lon="6.53216">
        <ele>856.43609257896</ele>
        <time>2022-01-20T23:34:59.335Z</time>
      </trkpt>
      <trkpt lat="45.20753" lon="6.53194">
        <ele>854.66470613005</ele>
        <time>2022-01-20T23:35:16.647Z</time>
      </trkpt>
      <trkpt lat="45.20778" lon="6.5308">
        <ele>853.01297164079</ele>
        <time>2022-01-20T23:35:33.973Z</time>
      </trkpt>
      <trkpt lat="45.20783" lon="6.53027">
        <ele>851.59515096768</ele>
        <time>2022-01-20T23:35:51.305Z</time>
      </trkpt>
      <trkpt lat="45.20783" lon="6.52994">
        <ele>850.28076556289</ele>
        <time>2022-01-20T23:36:08.640Z</time>
      </trkpt>
      <trkpt lat="45.20774" lon="6.52849">
        <ele>849.07361369645</ele>
        <time>2022-01-20T23:36:25.992Z</time>
      </trkpt>
      <trkpt lat="45.20771" lon="6.52769">
        <ele>848.0740113819</ele>
        <time>2022-01-20T23:36:43.353Z</time>
      </trkpt>
      <trkpt lat="45.2076" lon="6.52598">
        <ele>847.22006482504</ele>
        <time>2022-01-20T23:37:00.733Z</time>
      </trkpt>
      <trkpt lat="45.2076" lon="6.52555">
        <ele>846.45578600021</ele>
        <time>2022-01-20T23:37:18.118Z</time>
      </trkpt>
      <trkpt lat="45.20799" lon="6.52255">
        <ele>845.7694908794</ele>
        <time>2022-01-20T23:37:35.538Z</time>
      </trkpt>
      <trkpt lat="45.20816" lon="6.52131">
        <ele>844.94718040269</ele>
        <time>2022-01-20T23:37:52.972Z</time>
      </trkpt>
      <trkpt lat="45.20822" lon="6.52099">
        <ele>844.34400224578</ele>
        <time>2022-01-20T23:38:10.410Z</time>
      </trkpt>
      <trkpt lat="45.2083" lon="6.52074">
        <ele>843.77861153995</ele>
        <time>2022-01-20T23:38:27.851Z</time>
      </trkpt>
      <trkpt lat="45.20913" lon="6.51899">
        <ele>843.25681533911</ele>
        <time>2022-01-20T23:38:45.316Z</time>
      </trkpt>
      <trkpt lat="45.2092" lon="6.5188">
        <ele>842.56472797976</ele>
        <time>2022-01-20T23:39:02.783Z</time>
      </trkpt>
      <trkpt lat="45.20928" lon="6.51851">
        <ele>841.73204051651</ele>
        <time>2022-01-20T23:39:20.254Z</time>
      </trkpt>
      <trkpt lat="45.20932" lon="6.51824">
        <ele>840.91950819325</ele>
        <time>2022-01-20T23:39:37.728Z</time>
      </trkpt>
      <trkpt lat="45.2093" lon="6.51734">
        <ele>839.83092488321</ele>
        <time>2022-01-20T23:39:55.212Z</time>
      </trkpt>
      <trkpt lat="45.20931" lon="6.517">
        <ele>839.37707558499</ele>
        <time>2022-01-20T23:40:12.700Z</time>
      </trkpt>
      <trkpt lat="45.20937" lon="6.51682">
        <ele>838.63689552133</ele>
        <time>2022-01-20T23:40:30.190Z</time>
      </trkpt>
      <trkpt lat="45.20938" lon="6.5167">
        <ele>837.70418598853</ele>
        <time>2022-01-20T23:40:47.681Z</time>
      </trkpt>
      <trkpt lat="45.20966" lon="6.51583">
        <ele>836.6599032826</ele>
        <time>2022-01-20T23:41:05.183Z</time>
      </trkpt>
      <trkpt lat="45.20975" lon="6.5155">
        <ele>834.8548357316</ele>
        <time>2022-01-20T23:41:22.689Z</time>
      </trkpt>
      <trkpt lat="45.20992" lon="6.51446">
        <ele>832.53303755556</ele>
        <time>2022-01-20T23:41:40.207Z</time>
      </trkpt>
      <trkpt lat="45.21006" lon="6.51328">
        <ele>830.12105283743</ele>
        <time>2022-01-20T23:41:57.739Z</time>
      </trkpt>
      <trkpt lat="45.21012" lon="6.51285">
        <ele>827.67308606406</ele>
        <time>2022-01-20T23:42:15.276Z</time>
      </trkpt>
      <trkpt lat="45.21018" lon="6.51256">
        <ele>824.86112698009</ele>
        <time>2022-01-20T23:42:32.816Z</time>
      </trkpt>
      <trkpt lat="45.21032" lon="6.51205">
        <ele>821.54276369301</ele>
        <time>2022-01-20T23:42:50.362Z</time>
      </trkpt>
      <trkpt lat="45.21043" lon="6.51176">
        <ele>817.50772767246</ele>
        <time>2022-01-20T23:43:07.912Z</time>
      </trkpt>
      <trkpt lat="45.21087" lon="6.5104">
        <ele>813.28157075893</ele>
        <time>2022-01-20T23:43:25.479Z</time>
      </trkpt>
      <trkpt lat="45.21102" lon="6.50987">
        <ele>808.75688777056</ele>
        <time>2022-01-20T23:43:43.052Z</time>
      </trkpt>
      <trkpt lat="45.21114" lon="6.50909">
        <ele>803.97806011606</ele>
        <time>2022-01-20T23:44:00.634Z</time>
      </trkpt>
      <trkpt lat="45.21119" lon="6.5079">
        <ele>798.79147237798</ele>
        <time>2022-01-20T23:44:18.230Z</time>
      </trkpt>
      <trkpt lat="45.21123" lon="6.50639">
        <ele>793.85815184183</ele>
        <time>2022-01-20T23:44:35.843Z</time>
      </trkpt>
      <trkpt lat="45.21123" lon="6.50504">
        <ele>788.70183115557</ele>
        <time>2022-01-20T23:44:53.471Z</time>
      </trkpt>
      <trkpt lat="45.21093" lon="6.49875">
        <ele>783.222745486</ele>
        <time>2022-01-20T23:45:11.171Z</time>
      </trkpt>
      <trkpt lat="45.21085" lon="6.49635">
        <ele>778.44078621655</ele>
        <time>2022-01-20T23:45:28.898Z</time>
      </trkpt>
      <trkpt lat="45.21074" lon="6.49139">
        <ele>773.84041101738</ele>
        <time>2022-01-20T23:45:46.681Z</time>
      </trkpt>
      <trkpt lat="45.21072" lon="6.49105">
        <ele>769.89614820336</ele>
        <time>2022-01-20T23:46:04.468Z</time>
      </trkpt>
      <trkpt lat="45.21066" lon="6.49066">
        <ele>766.21716746833</ele>
        <time>2022-01-20T23:46:22.259Z</time>
      </trkpt>
      <trkpt lat="45.21037" lon="6.48928">
        <ele>762.67262449518</ele>
        <time>2022-01-20T23:46:40.067Z</time>
      </trkpt>
      <trkpt lat="45.21032" lon="6.48895">
        <ele>759.53259324365</ele>
        <time>2022-01-20T23:46:57.878Z</time>
      </trkpt>
      <trkpt lat="45.21033" lon="6.48883">
        <ele>756.64981033418</ele>
        <time>2022-01-20T23:47:15.691Z</time>
      </trkpt>
      <trkpt lat="45.21022" lon="6.48794">
        <ele>753.98602263646</ele>
        <time>2022-01-20T23:47:33.514Z</time>
      </trkpt>
      <trkpt lat="45.21018" lon="6.48728">
        <ele>751.71589335796</ele>
        <time>2022-01-20T23:47:51.345Z</time>
      </trkpt>
      <trkpt lat="45.21019" lon="6.48676">
        <ele>749.68136165771</ele>
        <time>2022-01-20T23:48:09.181Z</time>
      </trkpt>
      <trkpt lat="45.21033" lon="6.48614">
        <ele>747.75121852827</ele>
        <time>2022-01-20T23:48:27.025Z</time>
      </trkpt>
      <trkpt lat="45.21033" lon="6.48606">
        <ele>746.03915308422</ele>
        <time>2022-01-20T23:48:44.870Z</time>
      </trkpt>
      <trkpt lat="45.21066" lon="6.48514">
        <ele>744.49901676381</ele>
        <time>2022-01-20T23:49:02.726Z</time>
      </trkpt>
      <trkpt lat="45.21073" lon="6.48485">
        <ele>743.00879224194</ele>
        <time>2022-01-20T23:49:20.586Z</time>
      </trkpt>
      <trkpt lat="45.21076" lon="6.48464">
        <ele>741.32461509058</ele>
        <time>2022-01-20T23:49:38.448Z</time>
      </trkpt>
      <trkpt lat="45.21078" lon="6.48431">
        <ele>739.45453749994</ele>
        <time>2022-01-20T23:49:56.314Z</time>
      </trkpt>
      <trkpt lat="45.21076" lon="6.4833">
        <ele>737.30076495824</ele>
        <time>2022-01-20T23:50:14.191Z</time>
      </trkpt>
      <trkpt lat="45.21071" lon="6.48243">
        <ele>735.6664858429</ele>
        <time>2022-01-20T23:50:32.078Z</time>
      </trkpt>
      <trkpt lat="45.21063" lon="6.48194">
        <ele>734.41967973993</ele>
        <time>2022-01-20T23:50:49.971Z</time>
      </trkpt>
      <trkpt lat="45.21036" lon="6.48076">
        <ele>732.96757078308</ele>
        <time>2022-01-20T23:51:07.878Z</time>
      </trkpt>
      <trkpt lat="45.21028" lon="6.48021">
        <ele>731.82256596846</ele>
        <time>2022-01-20T23:51:25.791Z</time>
      </trkpt>
      <trkpt lat="45.21028" lon="6.47987">
        <ele>730.82124558017</ele>
        <time>2022-01-20T23:51:43.708Z</time>
      </trkpt>
      <trkpt lat="45.21032" lon="6.47967">
        <ele>729.9224742768</ele>
        <time>2022-01-20T23:52:01.628Z</time>
      </trkpt>
      <trkpt lat="45.21042" lon="6.47941">
        <ele>729.05946097728</ele>
        <time>2022-01-20T23:52:19.551Z</time>
      </trkpt>
      <trkpt lat="45.21053" lon="6.47924">
        <ele>728.1935739157</ele>
        <time>2022-01-20T23:52:37.477Z</time>
      </trkpt>
      <trkpt lat="45.21067" lon="6.47912">
        <ele>727.21191774105</ele>
        <time>2022-01-20T23:52:55.405Z</time>
      </trkpt>
      <trkpt lat="45.21086" lon="6.47897">
        <ele>726.13653744855</ele>
        <time>2022-01-20T23:53:13.337Z</time>
      </trkpt>
      <trkpt lat="45.21317" lon="6.47743">
        <ele>724.85523374115</ele>
        <time>2022-01-20T23:53:31.309Z</time>
      </trkpt>
      <trkpt lat="45.21363" lon="6.4771">
        <ele>723.7342648298</ele>
        <time>2022-01-20T23:53:49.290Z</time>
      </trkpt>
      <trkpt lat="45.21445" lon="6.47643">
        <ele>722.42693432288</ele>
        <time>2022-01-20T23:54:07.286Z</time>
      </trkpt>
      <trkpt lat="45.21461" lon="6.47626">
        <ele>721.14929711904</ele>
        <time>2022-01-20T23:54:25.285Z</time>
      </trkpt>
      <trkpt lat="45.21571" lon="6.47491">
        <ele>719.62449616976</ele>
        <time>2022-01-20T23:54:43.307Z</time>
      </trkpt>
      <trkpt lat="45.21627" lon="6.47386">
        <ele>718.55024882277</ele>
        <time>2022-01-20T23:55:01.344Z</time>
      </trkpt>
      <trkpt lat="45.21641" lon="6.47363">
        <ele>717.70660030989</ele>
        <time>2022-01-20T23:55:19.385Z</time>
      </trkpt>
      <trkpt lat="45.21639" lon="6.47361">
        <ele>716.8553142983</ele>
        <time>2022-01-20T23:55:37.426Z</time>
      </trkpt>
      <trkpt lat="45.21643" lon="6.47353">
        <ele>716.41933263497</ele>
        <time>2022-01-20T23:55:55.468Z</time>
      </trkpt>
      <trkpt lat="45.21643" lon="6.47353">
        <ele>715.99666965211</ele>
        <time>2022-01-20T23:56:13.510Z</time>
      </trkpt>
      <trkpt lat="45.21649" lon="6.47344">
        <ele>715.56822138268</ele>
        <time>2022-01-20T23:56:31.554Z</time>
      </trkpt>
      <trkpt lat="45.21684" lon="6.47286">
        <ele>715.13647039198</ele>
        <time>2022-01-20T23:56:49.606Z</time>
      </trkpt>
      <trkpt lat="45.217" lon="6.4726">
        <ele>714.69569866358</ele>
        <time>2022-01-20T23:57:07.662Z</time>
      </trkpt>
      <trkpt lat="45.2171" lon="6.47243">
        <ele>714.26601051831</ele>
        <time>2022-01-20T23:57:25.721Z</time>
      </trkpt>
      <trkpt lat="45.2171" lon="6.47243">
        <ele>713.88146166527</ele>
        <time>2022-01-20T23:57:43.780Z</time>
      </trkpt>
      <trkpt lat="45.21712" lon="6.4724">
        <ele>713.49517277361</ele>
        <time>2022-01-20T23:58:01.839Z</time>
      </trkpt>
      <trkpt lat="45.21712" lon="6.4724">
        <ele>713.10718271041</ele>
        <time>2022-01-20T23:58:19.898Z</time>
      </trkpt>
      <trkpt lat="45.21722" lon="6.47225">
        <ele>712.71692431858</ele>
        <time>2022-01-20T23:58:37.959Z</time>
      </trkpt>
      <trkpt lat="45.21722" lon="6.47225">
        <ele>712.32938071696</ele>
        <time>2022-01-20T23:58:56.020Z</time>
      </trkpt>
      <trkpt lat="45.21737" lon="6.472">
        <ele>711.91342665369</ele>
        <time>2022-01-20T23:59:14.085Z</time>
      </trkpt>
      <trkpt lat="45.21753" lon="6.47168">
        <ele>711.54644775319</ele>
        <time>2022-01-20T23:59:32.155Z</time>
      </trkpt>
      <trkpt lat="45.21753" lon="6.47168">
        <ele>711.20860008431</ele>
        <time>2022-01-20T23:59:50.225Z</time>
      </trkpt>
      <trkpt lat="45.21758" lon="6.47156">
        <ele>710.86423767204</ele>
        <time>2022-01-21T00:00:08.296Z</time>
      </trkpt>
      <trkpt lat="45.21768" lon="6.47142">
        <ele>710.56170821716</ele>
        <time>2022-01-21T00:00:26.369Z</time>
      </trkpt>
      <trkpt lat="45.21796" lon="6.47116">
        <ele>710.28248809936</ele>
        <time>2022-01-21T00:00:44.448Z</time>
      </trkpt>
      <trkpt lat="45.21817" lon="6.47085">
        <ele>710.05378470213</ele>
        <time>2022-01-21T00:01:02.532Z</time>
      </trkpt>
      <trkpt lat="45.21881" lon="6.4699">
        <ele>709.77371612192</ele>
        <time>2022-01-21T00:01:20.630Z</time>
      </trkpt>
      <trkpt lat="45.21909" lon="6.4695">
        <ele>709.56630318401</ele>
        <time>2022-01-21T00:01:38.735Z</time>
      </trkpt>
    </trkseg>
  </trk>
</gpx>